<?xml version="1.0" encoding="UTF-8" standalone="no" ?>
<gpx xmlns="http://www.topografix.com/GPX/1/1" xmlns:xsi="http://www.w3.org/2001/XMLSchema-instance" xsi:schemaLocation="http://www.topografix.com/GPX/1/1 http://www.topografix.com/GPX/1/1/gpx.xsd" version="1.1" creator="VisuGPX - https://www.visugpx.com">
  <metadata>
    <name>Rouy </name>
    <desc><![CDATA[Un petit bug au 2 eme km , redémarrage au 4 eme km , bon , il manque 700 m pour faire les 12 km ! C'est pas grave ;) , pour info : samedi , 20 km ( 5+15 ) mardi 13 km et mercredi 12 km .                                             Bien ! ]]></desc>
  </metadata>
  <trk>
    <name><![CDATA[Rouy _1]]></name>
    <trkseg>
      <trkpt lat="47.02656" lon="3.53374">
        <ele>248.55516052246</ele>
        <time>2016-04-20T11:43:25.000Z</time>
      </trkpt>
      <trkpt lat="47.02655" lon="3.53373">
        <ele>248.55053710938</ele>
        <time>2016-04-20T11:43:28.000Z</time>
      </trkpt>
      <trkpt lat="47.02654" lon="3.53372">
        <ele>248.54527282715</ele>
        <time>2016-04-20T11:43:29.000Z</time>
      </trkpt>
      <trkpt lat="47.02652" lon="3.5337">
        <ele>248.53854370117</ele>
        <time>2016-04-20T11:43:33.000Z</time>
      </trkpt>
      <trkpt lat="47.02653" lon="3.53371">
        <ele>248.5368347168</ele>
        <time>2016-04-20T11:43:39.000Z</time>
      </trkpt>
      <trkpt lat="47.02655" lon="3.53372">
        <ele>248.53239440918</ele>
        <time>2016-04-20T11:43:51.000Z</time>
      </trkpt>
      <trkpt lat="47.02656" lon="3.53371">
        <ele>248.52383422852</ele>
        <time>2016-04-20T11:43:59.000Z</time>
      </trkpt>
      <trkpt lat="47.02656" lon="3.53371">
        <ele>248.52383422852</ele>
        <time>2016-04-20T11:44:19.000Z</time>
      </trkpt>
      <trkpt lat="47.02656" lon="3.53376">
        <ele>248.53210449219</ele>
        <time>2016-04-20T11:44:23.000Z</time>
      </trkpt>
      <trkpt lat="47.02655" lon="3.53375">
        <ele>248.54235839844</ele>
        <time>2016-04-20T11:44:32.000Z</time>
      </trkpt>
      <trkpt lat="47.02657" lon="3.53376">
        <ele>248.54887390137</ele>
        <time>2016-04-20T11:44:42.000Z</time>
      </trkpt>
      <trkpt lat="47.02658" lon="3.53375">
        <ele>248.55239868164</ele>
        <time>2016-04-20T11:44:51.000Z</time>
      </trkpt>
      <trkpt lat="47.02657" lon="3.53374">
        <ele>248.56030273438</ele>
        <time>2016-04-20T11:44:53.000Z</time>
      </trkpt>
      <trkpt lat="47.02657" lon="3.53374">
        <ele>248.56030273438</ele>
        <time>2016-04-20T11:45:13.000Z</time>
      </trkpt>
      <trkpt lat="47.02656" lon="3.53372">
        <ele>248.54891967773</ele>
        <time>2016-04-20T11:45:17.000Z</time>
      </trkpt>
      <trkpt lat="47.02657" lon="3.5337">
        <ele>248.53378295898</ele>
        <time>2016-04-20T11:45:21.000Z</time>
      </trkpt>
      <trkpt lat="47.02657" lon="3.5337">
        <ele>248.53378295898</ele>
        <time>2016-04-20T11:45:41.000Z</time>
      </trkpt>
      <trkpt lat="47.02656" lon="3.53369">
        <ele>248.51725769043</ele>
        <time>2016-04-20T11:45:45.000Z</time>
      </trkpt>
      <trkpt lat="47.02655" lon="3.53367">
        <ele>248.49938964844</ele>
        <time>2016-04-20T11:45:53.000Z</time>
      </trkpt>
      <trkpt lat="47.02654" lon="3.53366">
        <ele>248.48181152344</ele>
        <time>2016-04-20T11:45:57.000Z</time>
      </trkpt>
      <trkpt lat="47.02654" lon="3.53366">
        <ele>248.46940612793</ele>
        <time>2016-04-20T11:46:04.000Z</time>
      </trkpt>
      <trkpt lat="47.02652" lon="3.53367">
        <ele>248.46447753906</ele>
        <time>2016-04-20T11:46:06.000Z</time>
      </trkpt>
      <trkpt lat="47.02651" lon="3.53368">
        <ele>248.46633911133</ele>
        <time>2016-04-20T11:46:14.000Z</time>
      </trkpt>
      <trkpt lat="47.0265" lon="3.53368">
        <ele>248.47550964355</ele>
        <time>2016-04-20T11:46:34.000Z</time>
      </trkpt>
      <trkpt lat="47.0265" lon="3.53368">
        <ele>248.47550964355</ele>
        <time>2016-04-20T11:46:54.000Z</time>
      </trkpt>
      <trkpt lat="47.02652" lon="3.53373">
        <ele>248.4965057373</ele>
        <time>2016-04-20T11:46:55.000Z</time>
      </trkpt>
      <trkpt lat="47.02652" lon="3.53371">
        <ele>248.51245117188</ele>
        <time>2016-04-20T11:46:59.000Z</time>
      </trkpt>
      <trkpt lat="47.0265" lon="3.5337">
        <ele>248.52478027344</ele>
        <time>2016-04-20T11:47:10.000Z</time>
      </trkpt>
      <trkpt lat="47.0265" lon="3.5337">
        <ele>248.52478027344</ele>
        <time>2016-04-20T11:47:30.000Z</time>
      </trkpt>
      <trkpt lat="47.02649" lon="3.5337">
        <ele>248.5341796875</ele>
        <time>2016-04-20T11:47:32.000Z</time>
      </trkpt>
      <trkpt lat="47.0265" lon="3.5337">
        <ele>248.53903198242</ele>
        <time>2016-04-20T11:47:34.000Z</time>
      </trkpt>
      <trkpt lat="47.0265" lon="3.5337">
        <ele>248.53903198242</ele>
        <time>2016-04-20T11:47:54.000Z</time>
      </trkpt>
      <trkpt lat="47.02652" lon="3.53375">
        <ele>248.5453338623</ele>
        <time>2016-04-20T11:48:42.000Z</time>
      </trkpt>
      <trkpt lat="47.02652" lon="3.53375">
        <ele>248.5453338623</ele>
        <time>2016-04-20T11:49:02.000Z</time>
      </trkpt>
      <trkpt lat="47.02654" lon="3.53375">
        <ele>248.55313110352</ele>
        <time>2016-04-20T11:49:06.000Z</time>
      </trkpt>
      <trkpt lat="47.02655" lon="3.53373">
        <ele>248.55569458008</ele>
        <time>2016-04-20T11:49:15.000Z</time>
      </trkpt>
      <trkpt lat="47.02655" lon="3.53371">
        <ele>248.55117797852</ele>
        <time>2016-04-20T11:49:28.000Z</time>
      </trkpt>
      <trkpt lat="47.02655" lon="3.53371">
        <ele>248.55117797852</ele>
        <time>2016-04-20T11:49:49.000Z</time>
      </trkpt>
      <trkpt lat="47.02654" lon="3.53369">
        <ele>248.54313659668</ele>
        <time>2016-04-20T11:49:56.000Z</time>
      </trkpt>
      <trkpt lat="47.02654" lon="3.53364">
        <ele>248.51094055176</ele>
        <time>2016-04-20T11:49:57.000Z</time>
      </trkpt>
      <trkpt lat="47.02654" lon="3.53361">
        <ele>248.47213745117</ele>
        <time>2016-04-20T11:49:57.000Z</time>
      </trkpt>
      <trkpt lat="47.02654" lon="3.53358">
        <ele>248.43228149414</ele>
        <time>2016-04-20T11:49:57.000Z</time>
      </trkpt>
      <trkpt lat="47.02653" lon="3.53356">
        <ele>248.3920135498</ele>
        <time>2016-04-20T11:50:09.000Z</time>
      </trkpt>
      <trkpt lat="47.02652" lon="3.53353">
        <ele>248.34931945801</ele>
        <time>2016-04-20T11:50:10.000Z</time>
      </trkpt>
      <trkpt lat="47.02653" lon="3.5335">
        <ele>248.3098449707</ele>
        <time>2016-04-20T11:50:10.000Z</time>
      </trkpt>
      <trkpt lat="47.02653" lon="3.53346">
        <ele>248.26977539062</ele>
        <time>2016-04-20T11:50:10.000Z</time>
      </trkpt>
      <trkpt lat="47.02652" lon="3.5334">
        <ele>248.21830749512</ele>
        <time>2016-04-20T11:50:10.000Z</time>
      </trkpt>
      <trkpt lat="47.02652" lon="3.53335">
        <ele>248.16186523438</ele>
        <time>2016-04-20T11:50:14.000Z</time>
      </trkpt>
      <trkpt lat="47.02652" lon="3.53332">
        <ele>248.09973144531</ele>
        <time>2016-04-20T11:50:16.000Z</time>
      </trkpt>
      <trkpt lat="47.02653" lon="3.5333">
        <ele>248.03442382812</ele>
        <time>2016-04-20T11:50:18.000Z</time>
      </trkpt>
      <trkpt lat="47.02655" lon="3.53326">
        <ele>247.96109008789</ele>
        <time>2016-04-20T11:50:21.000Z</time>
      </trkpt>
      <trkpt lat="47.02656" lon="3.53322">
        <ele>247.88618469238</ele>
        <time>2016-04-20T11:50:24.000Z</time>
      </trkpt>
      <trkpt lat="47.02657" lon="3.53319">
        <ele>247.80923461914</ele>
        <time>2016-04-20T11:50:26.000Z</time>
      </trkpt>
      <trkpt lat="47.02658" lon="3.53317">
        <ele>247.73234558105</ele>
        <time>2016-04-20T11:50:29.000Z</time>
      </trkpt>
      <trkpt lat="47.02659" lon="3.53312">
        <ele>247.64595031738</ele>
        <time>2016-04-20T11:50:32.000Z</time>
      </trkpt>
      <trkpt lat="47.0266" lon="3.53308">
        <ele>247.55656433105</ele>
        <time>2016-04-20T11:50:34.000Z</time>
      </trkpt>
      <trkpt lat="47.0266" lon="3.53305">
        <ele>247.47053527832</ele>
        <time>2016-04-20T11:50:37.000Z</time>
      </trkpt>
      <trkpt lat="47.0266" lon="3.53298">
        <ele>247.36755371094</ele>
        <time>2016-04-20T11:50:39.000Z</time>
      </trkpt>
      <trkpt lat="47.02661" lon="3.53294">
        <ele>247.25546264648</ele>
        <time>2016-04-20T11:50:42.000Z</time>
      </trkpt>
      <trkpt lat="47.02662" lon="3.53291">
        <ele>247.14961242676</ele>
        <time>2016-04-20T11:50:44.000Z</time>
      </trkpt>
      <trkpt lat="47.02662" lon="3.53288">
        <ele>247.05358886719</ele>
        <time>2016-04-20T11:50:46.000Z</time>
      </trkpt>
      <trkpt lat="47.02662" lon="3.53285">
        <ele>246.95889282227</ele>
        <time>2016-04-20T11:50:48.000Z</time>
      </trkpt>
      <trkpt lat="47.02663" lon="3.53282">
        <ele>246.88150024414</ele>
        <time>2016-04-20T11:50:50.000Z</time>
      </trkpt>
      <trkpt lat="47.02663" lon="3.53279">
        <ele>246.81039428711</ele>
        <time>2016-04-20T11:50:52.000Z</time>
      </trkpt>
      <trkpt lat="47.02664" lon="3.53275">
        <ele>246.73896789551</ele>
        <time>2016-04-20T11:50:54.000Z</time>
      </trkpt>
      <trkpt lat="47.02665" lon="3.5327">
        <ele>246.65316772461</ele>
        <time>2016-04-20T11:50:57.000Z</time>
      </trkpt>
      <trkpt lat="47.02666" lon="3.53267">
        <ele>246.57089233398</ele>
        <time>2016-04-20T11:51:00.000Z</time>
      </trkpt>
      <trkpt lat="47.02668" lon="3.53264">
        <ele>246.48681640625</ele>
        <time>2016-04-20T11:51:04.000Z</time>
      </trkpt>
      <trkpt lat="47.0267" lon="3.53261">
        <ele>246.40649414062</ele>
        <time>2016-04-20T11:51:05.000Z</time>
      </trkpt>
      <trkpt lat="47.02671" lon="3.53259">
        <ele>246.33149719238</ele>
        <time>2016-04-20T11:51:08.000Z</time>
      </trkpt>
      <trkpt lat="47.02673" lon="3.53257">
        <ele>246.27197265625</ele>
        <time>2016-04-20T11:51:10.000Z</time>
      </trkpt>
      <trkpt lat="47.02674" lon="3.53254">
        <ele>246.21147155762</ele>
        <time>2016-04-20T11:51:13.000Z</time>
      </trkpt>
      <trkpt lat="47.02676" lon="3.53254">
        <ele>246.16374206543</ele>
        <time>2016-04-20T11:51:19.000Z</time>
      </trkpt>
      <trkpt lat="47.02676" lon="3.53254">
        <ele>246.16374206543</ele>
        <time>2016-04-20T11:51:39.000Z</time>
      </trkpt>
      <trkpt lat="47.02676" lon="3.53253">
        <ele>246.1233215332</ele>
        <time>2016-04-20T11:51:44.000Z</time>
      </trkpt>
      <trkpt lat="47.02677" lon="3.53249">
        <ele>246.08224487305</ele>
        <time>2016-04-20T11:51:46.000Z</time>
      </trkpt>
      <trkpt lat="47.02678" lon="3.53247">
        <ele>246.05685424805</ele>
        <time>2016-04-20T11:51:47.000Z</time>
      </trkpt>
      <trkpt lat="47.0268" lon="3.53245">
        <ele>246.05075073242</ele>
        <time>2016-04-20T11:51:50.000Z</time>
      </trkpt>
      <trkpt lat="47.02683" lon="3.53243">
        <ele>246.05253601074</ele>
        <time>2016-04-20T11:51:53.000Z</time>
      </trkpt>
      <trkpt lat="47.02686" lon="3.53241">
        <ele>246.06709289551</ele>
        <time>2016-04-20T11:51:56.000Z</time>
      </trkpt>
      <trkpt lat="47.02688" lon="3.53239">
        <ele>246.10006713867</ele>
        <time>2016-04-20T11:51:58.000Z</time>
      </trkpt>
      <trkpt lat="47.0269" lon="3.53237">
        <ele>246.13223266602</ele>
        <time>2016-04-20T11:52:00.000Z</time>
      </trkpt>
      <trkpt lat="47.02692" lon="3.53234">
        <ele>246.16906738281</ele>
        <time>2016-04-20T11:52:03.000Z</time>
      </trkpt>
      <trkpt lat="47.02695" lon="3.53231">
        <ele>246.21220397949</ele>
        <time>2016-04-20T11:52:06.000Z</time>
      </trkpt>
      <trkpt lat="47.02698" lon="3.53227">
        <ele>246.26020812988</ele>
        <time>2016-04-20T11:52:09.000Z</time>
      </trkpt>
      <trkpt lat="47.027" lon="3.53226">
        <ele>246.3076171875</ele>
        <time>2016-04-20T11:52:11.000Z</time>
      </trkpt>
      <trkpt lat="47.02702" lon="3.53223">
        <ele>246.36067199707</ele>
        <time>2016-04-20T11:52:13.000Z</time>
      </trkpt>
      <trkpt lat="47.02704" lon="3.53221">
        <ele>246.41268920898</ele>
        <time>2016-04-20T11:52:15.000Z</time>
      </trkpt>
      <trkpt lat="47.02707" lon="3.53218">
        <ele>246.46415710449</ele>
        <time>2016-04-20T11:52:18.000Z</time>
      </trkpt>
      <trkpt lat="47.0271" lon="3.53215">
        <ele>246.51606750488</ele>
        <time>2016-04-20T11:52:21.000Z</time>
      </trkpt>
      <trkpt lat="47.02713" lon="3.53213">
        <ele>246.5735168457</ele>
        <time>2016-04-20T11:52:23.000Z</time>
      </trkpt>
      <trkpt lat="47.02716" lon="3.53209">
        <ele>246.63618469238</ele>
        <time>2016-04-20T11:52:26.000Z</time>
      </trkpt>
      <trkpt lat="47.02719" lon="3.53206">
        <ele>246.70503234863</ele>
        <time>2016-04-20T11:52:29.000Z</time>
      </trkpt>
      <trkpt lat="47.02723" lon="3.53203">
        <ele>246.77864074707</ele>
        <time>2016-04-20T11:52:32.000Z</time>
      </trkpt>
      <trkpt lat="47.02725" lon="3.53202">
        <ele>246.84765625</ele>
        <time>2016-04-20T11:52:35.000Z</time>
      </trkpt>
      <trkpt lat="47.02727" lon="3.532">
        <ele>246.91390991211</ele>
        <time>2016-04-20T11:52:37.000Z</time>
      </trkpt>
      <trkpt lat="47.0273" lon="3.53198">
        <ele>246.97961425781</ele>
        <time>2016-04-20T11:52:40.000Z</time>
      </trkpt>
      <trkpt lat="47.02732" lon="3.53195">
        <ele>247.04476928711</ele>
        <time>2016-04-20T11:52:42.000Z</time>
      </trkpt>
      <trkpt lat="47.02733" lon="3.53193">
        <ele>247.10372924805</ele>
        <time>2016-04-20T11:52:44.000Z</time>
      </trkpt>
      <trkpt lat="47.02736" lon="3.5319">
        <ele>247.17028808594</ele>
        <time>2016-04-20T11:52:47.000Z</time>
      </trkpt>
      <trkpt lat="47.02739" lon="3.53188">
        <ele>247.24304199219</ele>
        <time>2016-04-20T11:52:49.000Z</time>
      </trkpt>
      <trkpt lat="47.0274" lon="3.53186">
        <ele>247.31396484375</ele>
        <time>2016-04-20T11:52:51.000Z</time>
      </trkpt>
      <trkpt lat="47.02742" lon="3.53185">
        <ele>247.37739562988</ele>
        <time>2016-04-20T11:52:53.000Z</time>
      </trkpt>
      <trkpt lat="47.02744" lon="3.53184">
        <ele>247.4380645752</ele>
        <time>2016-04-20T11:52:55.000Z</time>
      </trkpt>
      <trkpt lat="47.02748" lon="3.5318">
        <ele>247.50625610352</ele>
        <time>2016-04-20T11:52:58.000Z</time>
      </trkpt>
      <trkpt lat="47.0275" lon="3.53178">
        <ele>247.57084655762</ele>
        <time>2016-04-20T11:53:00.000Z</time>
      </trkpt>
      <trkpt lat="47.02753" lon="3.53176">
        <ele>247.63961791992</ele>
        <time>2016-04-20T11:53:02.000Z</time>
      </trkpt>
      <trkpt lat="47.02756" lon="3.53174">
        <ele>247.72180175781</ele>
        <time>2016-04-20T11:53:06.000Z</time>
      </trkpt>
      <trkpt lat="47.02761" lon="3.53171">
        <ele>247.81936645508</ele>
        <time>2016-04-20T11:53:08.000Z</time>
      </trkpt>
      <trkpt lat="47.02764" lon="3.53169">
        <ele>247.91032409668</ele>
        <time>2016-04-20T11:53:11.000Z</time>
      </trkpt>
      <trkpt lat="47.02766" lon="3.53167">
        <ele>248.00659179688</ele>
        <time>2016-04-20T11:53:14.000Z</time>
      </trkpt>
      <trkpt lat="47.02768" lon="3.53165">
        <ele>248.10102844238</ele>
        <time>2016-04-20T11:53:16.000Z</time>
      </trkpt>
      <trkpt lat="47.02772" lon="3.53162">
        <ele>248.20483398438</ele>
        <time>2016-04-20T11:53:19.000Z</time>
      </trkpt>
      <trkpt lat="47.02775" lon="3.53159">
        <ele>248.31196594238</ele>
        <time>2016-04-20T11:53:22.000Z</time>
      </trkpt>
      <trkpt lat="47.02779" lon="3.53156">
        <ele>248.42939758301</ele>
        <time>2016-04-20T11:53:25.000Z</time>
      </trkpt>
      <trkpt lat="47.02782" lon="3.53153">
        <ele>248.55387878418</ele>
        <time>2016-04-20T11:53:28.000Z</time>
      </trkpt>
      <trkpt lat="47.02785" lon="3.53149">
        <ele>248.69038391113</ele>
        <time>2016-04-20T11:53:31.000Z</time>
      </trkpt>
      <trkpt lat="47.02787" lon="3.53146">
        <ele>248.82174682617</ele>
        <time>2016-04-20T11:53:34.000Z</time>
      </trkpt>
      <trkpt lat="47.0279" lon="3.53143">
        <ele>248.95129394531</ele>
        <time>2016-04-20T11:53:37.000Z</time>
      </trkpt>
      <trkpt lat="47.02792" lon="3.5314">
        <ele>249.07437133789</ele>
        <time>2016-04-20T11:53:39.000Z</time>
      </trkpt>
      <trkpt lat="47.02794" lon="3.53138">
        <ele>249.18342590332</ele>
        <time>2016-04-20T11:53:43.000Z</time>
      </trkpt>
      <trkpt lat="47.02797" lon="3.53134">
        <ele>249.29580688477</ele>
        <time>2016-04-20T11:53:44.000Z</time>
      </trkpt>
      <trkpt lat="47.028" lon="3.5313">
        <ele>249.41073608398</ele>
        <time>2016-04-20T11:53:47.000Z</time>
      </trkpt>
      <trkpt lat="47.02802" lon="3.53127">
        <ele>249.52160644531</ele>
        <time>2016-04-20T11:53:50.000Z</time>
      </trkpt>
      <trkpt lat="47.02804" lon="3.53124">
        <ele>249.62796020508</ele>
        <time>2016-04-20T11:53:52.000Z</time>
      </trkpt>
      <trkpt lat="47.02806" lon="3.5312">
        <ele>249.7512512207</ele>
        <time>2016-04-20T11:53:55.000Z</time>
      </trkpt>
      <trkpt lat="47.02808" lon="3.53116">
        <ele>249.865234375</ele>
        <time>2016-04-20T11:53:58.000Z</time>
      </trkpt>
      <trkpt lat="47.02811" lon="3.53114">
        <ele>249.96914672852</ele>
        <time>2016-04-20T11:54:00.000Z</time>
      </trkpt>
      <trkpt lat="47.02814" lon="3.53111">
        <ele>250.07002258301</ele>
        <time>2016-04-20T11:54:03.000Z</time>
      </trkpt>
      <trkpt lat="47.02816" lon="3.53107">
        <ele>250.17626953125</ele>
        <time>2016-04-20T11:54:09.000Z</time>
      </trkpt>
      <trkpt lat="47.02817" lon="3.53106">
        <ele>250.2611541748</ele>
        <time>2016-04-20T11:54:09.000Z</time>
      </trkpt>
      <trkpt lat="47.02819" lon="3.53101">
        <ele>250.34977722168</ele>
        <time>2016-04-20T11:54:11.000Z</time>
      </trkpt>
      <trkpt lat="47.02822" lon="3.53097">
        <ele>250.44668579102</ele>
        <time>2016-04-20T11:54:14.000Z</time>
      </trkpt>
      <trkpt lat="47.02823" lon="3.53094">
        <ele>250.53726196289</ele>
        <time>2016-04-20T11:54:16.000Z</time>
      </trkpt>
      <trkpt lat="47.02826" lon="3.5309">
        <ele>250.63000488281</ele>
        <time>2016-04-20T11:54:19.000Z</time>
      </trkpt>
      <trkpt lat="47.02826" lon="3.53087">
        <ele>250.73086547852</ele>
        <time>2016-04-20T11:54:21.000Z</time>
      </trkpt>
      <trkpt lat="47.02828" lon="3.53084">
        <ele>250.82263183594</ele>
        <time>2016-04-20T11:54:23.000Z</time>
      </trkpt>
      <trkpt lat="47.02829" lon="3.53079">
        <ele>250.91943359375</ele>
        <time>2016-04-20T11:54:26.000Z</time>
      </trkpt>
      <trkpt lat="47.0283" lon="3.53076">
        <ele>251.03198242188</ele>
        <time>2016-04-20T11:54:29.000Z</time>
      </trkpt>
      <trkpt lat="47.02832" lon="3.53071">
        <ele>251.15380859375</ele>
        <time>2016-04-20T11:54:32.000Z</time>
      </trkpt>
      <trkpt lat="47.02834" lon="3.53067">
        <ele>251.29524230957</ele>
        <time>2016-04-20T11:54:35.000Z</time>
      </trkpt>
      <trkpt lat="47.02836" lon="3.53064">
        <ele>251.44975280762</ele>
        <time>2016-04-20T11:54:37.000Z</time>
      </trkpt>
      <trkpt lat="47.02837" lon="3.5306">
        <ele>251.60322570801</ele>
        <time>2016-04-20T11:54:39.000Z</time>
      </trkpt>
      <trkpt lat="47.02839" lon="3.53058">
        <ele>251.75309753418</ele>
        <time>2016-04-20T11:54:41.000Z</time>
      </trkpt>
      <trkpt lat="47.0284" lon="3.53056">
        <ele>251.89138793945</ele>
        <time>2016-04-20T11:54:43.000Z</time>
      </trkpt>
      <trkpt lat="47.02841" lon="3.53051">
        <ele>252.02725219727</ele>
        <time>2016-04-20T11:54:46.000Z</time>
      </trkpt>
      <trkpt lat="47.02843" lon="3.53047">
        <ele>252.17353820801</ele>
        <time>2016-04-20T11:54:49.000Z</time>
      </trkpt>
      <trkpt lat="47.02846" lon="3.53043">
        <ele>252.32939147949</ele>
        <time>2016-04-20T11:54:52.000Z</time>
      </trkpt>
      <trkpt lat="47.02848" lon="3.53039">
        <ele>252.4928894043</ele>
        <time>2016-04-20T11:54:55.000Z</time>
      </trkpt>
      <trkpt lat="47.02849" lon="3.53036">
        <ele>252.65560913086</ele>
        <time>2016-04-20T11:54:57.000Z</time>
      </trkpt>
      <trkpt lat="47.02851" lon="3.53033">
        <ele>252.82011413574</ele>
        <time>2016-04-20T11:55:01.000Z</time>
      </trkpt>
      <trkpt lat="47.02853" lon="3.5303">
        <ele>252.97225952148</ele>
        <time>2016-04-20T11:55:02.000Z</time>
      </trkpt>
      <trkpt lat="47.02855" lon="3.53028">
        <ele>253.10250854492</ele>
        <time>2016-04-20T11:55:04.000Z</time>
      </trkpt>
      <trkpt lat="47.02856" lon="3.53025">
        <ele>253.22351074219</ele>
        <time>2016-04-20T11:55:06.000Z</time>
      </trkpt>
      <trkpt lat="47.02858" lon="3.53022">
        <ele>253.35342407227</ele>
        <time>2016-04-20T11:55:09.000Z</time>
      </trkpt>
      <trkpt lat="47.0286" lon="3.53019">
        <ele>253.47109985352</ele>
        <time>2016-04-20T11:55:11.000Z</time>
      </trkpt>
      <trkpt lat="47.02863" lon="3.53015">
        <ele>253.5969543457</ele>
        <time>2016-04-20T11:55:14.000Z</time>
      </trkpt>
      <trkpt lat="47.02865" lon="3.5301">
        <ele>253.74186706543</ele>
        <time>2016-04-20T11:55:18.000Z</time>
      </trkpt>
      <trkpt lat="47.02866" lon="3.53007">
        <ele>253.88542175293</ele>
        <time>2016-04-20T11:55:19.000Z</time>
      </trkpt>
      <trkpt lat="47.02868" lon="3.53003">
        <ele>254.03012084961</ele>
        <time>2016-04-20T11:55:22.000Z</time>
      </trkpt>
      <trkpt lat="47.02871" lon="3.53">
        <ele>254.18444824219</ele>
        <time>2016-04-20T11:55:25.000Z</time>
      </trkpt>
      <trkpt lat="47.02873" lon="3.52997">
        <ele>254.33171081543</ele>
        <time>2016-04-20T11:55:27.000Z</time>
      </trkpt>
      <trkpt lat="47.02874" lon="3.52995">
        <ele>254.47102355957</ele>
        <time>2016-04-20T11:55:29.000Z</time>
      </trkpt>
      <trkpt lat="47.02876" lon="3.52994">
        <ele>254.6103515625</ele>
        <time>2016-04-20T11:55:31.000Z</time>
      </trkpt>
      <trkpt lat="47.0288" lon="3.52989">
        <ele>254.76943969727</ele>
        <time>2016-04-20T11:55:34.000Z</time>
      </trkpt>
      <trkpt lat="47.02882" lon="3.52987">
        <ele>254.93147277832</ele>
        <time>2016-04-20T11:55:36.000Z</time>
      </trkpt>
      <trkpt lat="47.02884" lon="3.52983">
        <ele>255.10452270508</ele>
        <time>2016-04-20T11:55:39.000Z</time>
      </trkpt>
      <trkpt lat="47.02885" lon="3.52981">
        <ele>255.27461242676</ele>
        <time>2016-04-20T11:55:41.000Z</time>
      </trkpt>
      <trkpt lat="47.02888" lon="3.52978">
        <ele>255.45874023438</ele>
        <time>2016-04-20T11:55:44.000Z</time>
      </trkpt>
      <trkpt lat="47.0289" lon="3.52977">
        <ele>255.61274719238</ele>
        <time>2016-04-20T11:55:47.000Z</time>
      </trkpt>
      <trkpt lat="47.02893" lon="3.52971">
        <ele>255.794921875</ele>
        <time>2016-04-20T11:55:50.000Z</time>
      </trkpt>
      <trkpt lat="47.02896" lon="3.52966">
        <ele>255.998046875</ele>
        <time>2016-04-20T11:55:53.000Z</time>
      </trkpt>
      <trkpt lat="47.02897" lon="3.52963">
        <ele>256.20733642578</ele>
        <time>2016-04-20T11:55:55.000Z</time>
      </trkpt>
      <trkpt lat="47.02899" lon="3.52959">
        <ele>256.42129516602</ele>
        <time>2016-04-20T11:55:58.000Z</time>
      </trkpt>
      <trkpt lat="47.029" lon="3.52957">
        <ele>256.64184570312</ele>
        <time>2016-04-20T11:56:00.000Z</time>
      </trkpt>
      <trkpt lat="47.02903" lon="3.52953">
        <ele>256.83975219727</ele>
        <time>2016-04-20T11:56:03.000Z</time>
      </trkpt>
      <trkpt lat="47.02906" lon="3.52949">
        <ele>257.02362060547</ele>
        <time>2016-04-20T11:56:06.000Z</time>
      </trkpt>
      <trkpt lat="47.02907" lon="3.52945">
        <ele>257.21182250977</ele>
        <time>2016-04-20T11:56:09.000Z</time>
      </trkpt>
      <trkpt lat="47.02909" lon="3.52942">
        <ele>257.39010620117</ele>
        <time>2016-04-20T11:56:12.000Z</time>
      </trkpt>
      <trkpt lat="47.02912" lon="3.52937">
        <ele>257.59097290039</ele>
        <time>2016-04-20T11:56:15.000Z</time>
      </trkpt>
      <trkpt lat="47.02914" lon="3.52933">
        <ele>257.79443359375</ele>
        <time>2016-04-20T11:56:18.000Z</time>
      </trkpt>
      <trkpt lat="47.02916" lon="3.5293">
        <ele>257.97750854492</ele>
        <time>2016-04-20T11:56:20.000Z</time>
      </trkpt>
      <trkpt lat="47.02919" lon="3.52926">
        <ele>258.17532348633</ele>
        <time>2016-04-20T11:56:23.000Z</time>
      </trkpt>
      <trkpt lat="47.02921" lon="3.52923">
        <ele>258.39120483398</ele>
        <time>2016-04-20T11:56:26.000Z</time>
      </trkpt>
      <trkpt lat="47.02922" lon="3.5292">
        <ele>258.58551025391</ele>
        <time>2016-04-20T11:56:28.000Z</time>
      </trkpt>
      <trkpt lat="47.02925" lon="3.52917">
        <ele>258.78369140625</ele>
        <time>2016-04-20T11:56:31.000Z</time>
      </trkpt>
      <trkpt lat="47.02927" lon="3.52914">
        <ele>258.98754882812</ele>
        <time>2016-04-20T11:56:33.000Z</time>
      </trkpt>
      <trkpt lat="47.02929" lon="3.52911">
        <ele>259.17846679688</ele>
        <time>2016-04-20T11:56:35.000Z</time>
      </trkpt>
      <trkpt lat="47.02931" lon="3.52908">
        <ele>259.3671875</ele>
        <time>2016-04-20T11:56:38.000Z</time>
      </trkpt>
      <trkpt lat="47.02933" lon="3.52906">
        <ele>259.55590820312</ele>
        <time>2016-04-20T11:56:40.000Z</time>
      </trkpt>
      <trkpt lat="47.02935" lon="3.52902">
        <ele>259.751953125</ele>
        <time>2016-04-20T11:56:43.000Z</time>
      </trkpt>
      <trkpt lat="47.02937" lon="3.52899">
        <ele>259.94921875</ele>
        <time>2016-04-20T11:56:45.000Z</time>
      </trkpt>
      <trkpt lat="47.02938" lon="3.52897">
        <ele>260.13793945312</ele>
        <time>2016-04-20T11:56:47.000Z</time>
      </trkpt>
      <trkpt lat="47.0294" lon="3.52893">
        <ele>260.32177734375</ele>
        <time>2016-04-20T11:56:50.000Z</time>
      </trkpt>
      <trkpt lat="47.02942" lon="3.52891">
        <ele>260.50708007812</ele>
        <time>2016-04-20T11:56:52.000Z</time>
      </trkpt>
      <trkpt lat="47.02945" lon="3.52886">
        <ele>260.6962890625</ele>
        <time>2016-04-20T11:56:55.000Z</time>
      </trkpt>
      <trkpt lat="47.02945" lon="3.52884">
        <ele>260.87646484375</ele>
        <time>2016-04-20T11:56:57.000Z</time>
      </trkpt>
      <trkpt lat="47.02947" lon="3.5288">
        <ele>261.0810546875</ele>
        <time>2016-04-20T11:57:00.000Z</time>
      </trkpt>
      <trkpt lat="47.02949" lon="3.52874">
        <ele>261.3056640625</ele>
        <time>2016-04-20T11:57:03.000Z</time>
      </trkpt>
      <trkpt lat="47.02951" lon="3.5287">
        <ele>261.552734375</ele>
        <time>2016-04-20T11:57:07.000Z</time>
      </trkpt>
      <trkpt lat="47.02953" lon="3.52868">
        <ele>261.77026367188</ele>
        <time>2016-04-20T11:57:09.000Z</time>
      </trkpt>
      <trkpt lat="47.02954" lon="3.52865">
        <ele>262</ele>
        <time>2016-04-20T11:57:14.000Z</time>
      </trkpt>
      <trkpt lat="47.02955" lon="3.52862">
        <ele>262.20239257812</ele>
        <time>2016-04-20T11:57:15.000Z</time>
      </trkpt>
      <trkpt lat="47.02956" lon="3.52858">
        <ele>262.39404296875</ele>
        <time>2016-04-20T11:57:16.000Z</time>
      </trkpt>
      <trkpt lat="47.02958" lon="3.52854">
        <ele>262.58349609375</ele>
        <time>2016-04-20T11:57:18.000Z</time>
      </trkpt>
      <trkpt lat="47.02961" lon="3.5285">
        <ele>262.79663085938</ele>
        <time>2016-04-20T11:57:22.000Z</time>
      </trkpt>
      <trkpt lat="47.02962" lon="3.52848">
        <ele>262.99853515625</ele>
        <time>2016-04-20T11:57:24.000Z</time>
      </trkpt>
      <trkpt lat="47.02964" lon="3.52842">
        <ele>263.23608398438</ele>
        <time>2016-04-20T11:57:26.000Z</time>
      </trkpt>
      <trkpt lat="47.02965" lon="3.52839">
        <ele>263.46459960938</ele>
        <time>2016-04-20T11:57:29.000Z</time>
      </trkpt>
      <trkpt lat="47.02967" lon="3.52834">
        <ele>263.69165039062</ele>
        <time>2016-04-20T11:57:31.000Z</time>
      </trkpt>
      <trkpt lat="47.02969" lon="3.52831">
        <ele>263.90838623047</ele>
        <time>2016-04-20T11:57:36.000Z</time>
      </trkpt>
      <trkpt lat="47.0297" lon="3.52827">
        <ele>264.13943481445</ele>
        <time>2016-04-20T11:57:37.000Z</time>
      </trkpt>
      <trkpt lat="47.02971" lon="3.52822">
        <ele>264.353515625</ele>
        <time>2016-04-20T11:57:40.000Z</time>
      </trkpt>
      <trkpt lat="47.02972" lon="3.5282">
        <ele>264.55493164062</ele>
        <time>2016-04-20T11:57:41.000Z</time>
      </trkpt>
      <trkpt lat="47.02974" lon="3.52815">
        <ele>264.7610168457</ele>
        <time>2016-04-20T11:57:45.000Z</time>
      </trkpt>
      <trkpt lat="47.02975" lon="3.52812">
        <ele>264.9631652832</ele>
        <time>2016-04-20T11:57:46.000Z</time>
      </trkpt>
      <trkpt lat="47.02977" lon="3.52807">
        <ele>265.17736816406</ele>
        <time>2016-04-20T11:57:49.000Z</time>
      </trkpt>
      <trkpt lat="47.02978" lon="3.52805">
        <ele>265.36859130859</ele>
        <time>2016-04-20T11:57:51.000Z</time>
      </trkpt>
      <trkpt lat="47.02979" lon="3.52801">
        <ele>265.57269287109</ele>
        <time>2016-04-20T11:57:54.000Z</time>
      </trkpt>
      <trkpt lat="47.02981" lon="3.52795">
        <ele>265.78656005859</ele>
        <time>2016-04-20T11:57:57.000Z</time>
      </trkpt>
      <trkpt lat="47.02982" lon="3.52792">
        <ele>266.00595092773</ele>
        <time>2016-04-20T11:58:00.000Z</time>
      </trkpt>
      <trkpt lat="47.02984" lon="3.52787">
        <ele>266.22393798828</ele>
        <time>2016-04-20T11:58:04.000Z</time>
      </trkpt>
      <trkpt lat="47.02985" lon="3.52785">
        <ele>266.4543762207</ele>
        <time>2016-04-20T11:58:05.000Z</time>
      </trkpt>
      <trkpt lat="47.02987" lon="3.52781">
        <ele>266.68353271484</ele>
        <time>2016-04-20T11:58:07.000Z</time>
      </trkpt>
      <trkpt lat="47.02988" lon="3.52777">
        <ele>266.90121459961</ele>
        <time>2016-04-20T11:58:10.000Z</time>
      </trkpt>
      <trkpt lat="47.0299" lon="3.52773">
        <ele>267.11828613281</ele>
        <time>2016-04-20T11:58:13.000Z</time>
      </trkpt>
      <trkpt lat="47.02991" lon="3.52768">
        <ele>267.3385925293</ele>
        <time>2016-04-20T11:58:16.000Z</time>
      </trkpt>
      <trkpt lat="47.02993" lon="3.52763">
        <ele>267.59057617188</ele>
        <time>2016-04-20T11:58:19.000Z</time>
      </trkpt>
      <trkpt lat="47.02994" lon="3.52759">
        <ele>267.84457397461</ele>
        <time>2016-04-20T11:58:21.000Z</time>
      </trkpt>
      <trkpt lat="47.02996" lon="3.52755">
        <ele>268.10223388672</ele>
        <time>2016-04-20T11:58:24.000Z</time>
      </trkpt>
      <trkpt lat="47.02998" lon="3.5275">
        <ele>268.37777709961</ele>
        <time>2016-04-20T11:58:27.000Z</time>
      </trkpt>
      <trkpt lat="47.03" lon="3.52746">
        <ele>268.61410522461</ele>
        <time>2016-04-20T11:58:30.000Z</time>
      </trkpt>
      <trkpt lat="47.03001" lon="3.52744">
        <ele>268.78442382812</ele>
        <time>2016-04-20T11:58:32.000Z</time>
      </trkpt>
      <trkpt lat="47.03003" lon="3.5274">
        <ele>268.91497802734</ele>
        <time>2016-04-20T11:58:35.000Z</time>
      </trkpt>
      <trkpt lat="47.03005" lon="3.52735">
        <ele>268.99261474609</ele>
        <time>2016-04-20T11:58:38.000Z</time>
      </trkpt>
      <trkpt lat="47.03007" lon="3.52732">
        <ele>269.01373291016</ele>
        <time>2016-04-20T11:58:41.000Z</time>
      </trkpt>
      <trkpt lat="47.03009" lon="3.52728">
        <ele>269.02545166016</ele>
        <time>2016-04-20T11:58:44.000Z</time>
      </trkpt>
      <trkpt lat="47.03011" lon="3.52725">
        <ele>269.04165649414</ele>
        <time>2016-04-20T11:58:47.000Z</time>
      </trkpt>
      <trkpt lat="47.03012" lon="3.52722">
        <ele>269.05923461914</ele>
        <time>2016-04-20T11:58:49.000Z</time>
      </trkpt>
      <trkpt lat="47.03014" lon="3.5272">
        <ele>269.07925415039</ele>
        <time>2016-04-20T11:58:51.000Z</time>
      </trkpt>
      <trkpt lat="47.03017" lon="3.52715">
        <ele>269.10580444336</ele>
        <time>2016-04-20T11:58:54.000Z</time>
      </trkpt>
      <trkpt lat="47.03019" lon="3.52713">
        <ele>269.13348388672</ele>
        <time>2016-04-20T11:58:56.000Z</time>
      </trkpt>
      <trkpt lat="47.03021" lon="3.52708">
        <ele>269.16827392578</ele>
        <time>2016-04-20T11:58:59.000Z</time>
      </trkpt>
      <trkpt lat="47.03023" lon="3.52705">
        <ele>269.20755004883</ele>
        <time>2016-04-20T11:59:01.000Z</time>
      </trkpt>
      <trkpt lat="47.03025" lon="3.527">
        <ele>269.25479125977</ele>
        <time>2016-04-20T11:59:04.000Z</time>
      </trkpt>
      <trkpt lat="47.03027" lon="3.52698">
        <ele>269.30090332031</ele>
        <time>2016-04-20T11:59:06.000Z</time>
      </trkpt>
      <trkpt lat="47.03028" lon="3.52695">
        <ele>269.34896850586</ele>
        <time>2016-04-20T11:59:08.000Z</time>
      </trkpt>
      <trkpt lat="47.0303" lon="3.52692">
        <ele>269.39904785156</ele>
        <time>2016-04-20T11:59:11.000Z</time>
      </trkpt>
      <trkpt lat="47.03031" lon="3.52689">
        <ele>269.44876098633</ele>
        <time>2016-04-20T11:59:13.000Z</time>
      </trkpt>
      <trkpt lat="47.03034" lon="3.52685">
        <ele>269.50411987305</ele>
        <time>2016-04-20T11:59:16.000Z</time>
      </trkpt>
      <trkpt lat="47.03036" lon="3.5268">
        <ele>269.57135009766</ele>
        <time>2016-04-20T11:59:19.000Z</time>
      </trkpt>
      <trkpt lat="47.03038" lon="3.52674">
        <ele>269.64883422852</ele>
        <time>2016-04-20T11:59:22.000Z</time>
      </trkpt>
      <trkpt lat="47.03039" lon="3.52672">
        <ele>269.72244262695</ele>
        <time>2016-04-20T11:59:24.000Z</time>
      </trkpt>
      <trkpt lat="47.03041" lon="3.52669">
        <ele>269.80340576172</ele>
        <time>2016-04-20T11:59:26.000Z</time>
      </trkpt>
      <trkpt lat="47.03043" lon="3.52665">
        <ele>269.87615966797</ele>
        <time>2016-04-20T11:59:29.000Z</time>
      </trkpt>
      <trkpt lat="47.03045" lon="3.52661">
        <ele>269.91058349609</ele>
        <time>2016-04-20T11:59:32.000Z</time>
      </trkpt>
      <trkpt lat="47.03047" lon="3.52657">
        <ele>269.91122436523</ele>
        <time>2016-04-20T11:59:35.000Z</time>
      </trkpt>
      <trkpt lat="47.03049" lon="3.52653">
        <ele>269.8857421875</ele>
        <time>2016-04-20T11:59:38.000Z</time>
      </trkpt>
      <trkpt lat="47.0305" lon="3.5265">
        <ele>269.83343505859</ele>
        <time>2016-04-20T11:59:40.000Z</time>
      </trkpt>
      <trkpt lat="47.03052" lon="3.52646">
        <ele>269.75268554688</ele>
        <time>2016-04-20T11:59:43.000Z</time>
      </trkpt>
      <trkpt lat="47.03053" lon="3.52642">
        <ele>269.6735534668</ele>
        <time>2016-04-20T11:59:46.000Z</time>
      </trkpt>
      <trkpt lat="47.03055" lon="3.52637">
        <ele>269.58489990234</ele>
        <time>2016-04-20T11:59:49.000Z</time>
      </trkpt>
      <trkpt lat="47.03056" lon="3.52635">
        <ele>269.50244140625</ele>
        <time>2016-04-20T11:59:51.000Z</time>
      </trkpt>
      <trkpt lat="47.03059" lon="3.52631">
        <ele>269.41412353516</ele>
        <time>2016-04-20T11:59:54.000Z</time>
      </trkpt>
      <trkpt lat="47.0306" lon="3.52629">
        <ele>269.33599853516</ele>
        <time>2016-04-20T11:59:56.000Z</time>
      </trkpt>
      <trkpt lat="47.03062" lon="3.52624">
        <ele>269.25317382812</ele>
        <time>2016-04-20T11:59:59.000Z</time>
      </trkpt>
      <trkpt lat="47.03063" lon="3.52622">
        <ele>269.18463134766</ele>
        <time>2016-04-20T12:00:01.000Z</time>
      </trkpt>
      <trkpt lat="47.03065" lon="3.52617">
        <ele>269.10180664062</ele>
        <time>2016-04-20T12:00:04.000Z</time>
      </trkpt>
      <trkpt lat="47.03067" lon="3.52614">
        <ele>269.02166748047</ele>
        <time>2016-04-20T12:00:06.000Z</time>
      </trkpt>
      <trkpt lat="47.03069" lon="3.5261">
        <ele>268.92974853516</ele>
        <time>2016-04-20T12:00:09.000Z</time>
      </trkpt>
      <trkpt lat="47.03071" lon="3.52608">
        <ele>268.84912109375</ele>
        <time>2016-04-20T12:00:11.000Z</time>
      </trkpt>
      <trkpt lat="47.03074" lon="3.52605">
        <ele>268.76983642578</ele>
        <time>2016-04-20T12:00:13.000Z</time>
      </trkpt>
      <trkpt lat="47.03075" lon="3.52603">
        <ele>268.70477294922</ele>
        <time>2016-04-20T12:00:16.000Z</time>
      </trkpt>
      <trkpt lat="47.03078" lon="3.52599">
        <ele>268.63763427734</ele>
        <time>2016-04-20T12:00:18.000Z</time>
      </trkpt>
      <trkpt lat="47.03083" lon="3.52595">
        <ele>268.57217407227</ele>
        <time>2016-04-20T12:00:21.000Z</time>
      </trkpt>
      <trkpt lat="47.03085" lon="3.52593">
        <ele>268.51702880859</ele>
        <time>2016-04-20T12:00:23.000Z</time>
      </trkpt>
      <trkpt lat="47.03088" lon="3.52591">
        <ele>268.47064208984</ele>
        <time>2016-04-20T12:00:26.000Z</time>
      </trkpt>
      <trkpt lat="47.0309" lon="3.52589">
        <ele>268.43768310547</ele>
        <time>2016-04-20T12:00:28.000Z</time>
      </trkpt>
      <trkpt lat="47.03092" lon="3.52586">
        <ele>268.416015625</ele>
        <time>2016-04-20T12:00:32.000Z</time>
      </trkpt>
      <trkpt lat="47.03094" lon="3.52584">
        <ele>268.41595458984</ele>
        <time>2016-04-20T12:00:33.000Z</time>
      </trkpt>
      <trkpt lat="47.03096" lon="3.52583">
        <ele>268.42010498047</ele>
        <time>2016-04-20T12:00:35.000Z</time>
      </trkpt>
      <trkpt lat="47.03099" lon="3.5258">
        <ele>268.42724609375</ele>
        <time>2016-04-20T12:00:38.000Z</time>
      </trkpt>
      <trkpt lat="47.03101" lon="3.52579">
        <ele>268.43765258789</ele>
        <time>2016-04-20T12:00:40.000Z</time>
      </trkpt>
      <trkpt lat="47.03105" lon="3.52576">
        <ele>268.46099853516</ele>
        <time>2016-04-20T12:00:43.000Z</time>
      </trkpt>
      <trkpt lat="47.03107" lon="3.52574">
        <ele>268.48175048828</ele>
        <time>2016-04-20T12:00:45.000Z</time>
      </trkpt>
      <trkpt lat="47.03109" lon="3.52573">
        <ele>268.50207519531</ele>
        <time>2016-04-20T12:00:47.000Z</time>
      </trkpt>
      <trkpt lat="47.03111" lon="3.5257">
        <ele>268.51763916016</ele>
        <time>2016-04-20T12:00:50.000Z</time>
      </trkpt>
      <trkpt lat="47.03115" lon="3.52568">
        <ele>268.53668212891</ele>
        <time>2016-04-20T12:00:53.000Z</time>
      </trkpt>
      <trkpt lat="47.03117" lon="3.52566">
        <ele>268.55352783203</ele>
        <time>2016-04-20T12:00:55.000Z</time>
      </trkpt>
      <trkpt lat="47.0312" lon="3.52565">
        <ele>268.57696533203</ele>
        <time>2016-04-20T12:00:57.000Z</time>
      </trkpt>
      <trkpt lat="47.03123" lon="3.52562">
        <ele>268.60406494141</ele>
        <time>2016-04-20T12:01:00.000Z</time>
      </trkpt>
      <trkpt lat="47.03125" lon="3.52561">
        <ele>268.63922119141</ele>
        <time>2016-04-20T12:01:02.000Z</time>
      </trkpt>
      <trkpt lat="47.03129" lon="3.52559">
        <ele>268.67987060547</ele>
        <time>2016-04-20T12:01:05.000Z</time>
      </trkpt>
      <trkpt lat="47.03131" lon="3.52557">
        <ele>268.72030639648</ele>
        <time>2016-04-20T12:01:07.000Z</time>
      </trkpt>
      <trkpt lat="47.03135" lon="3.52554">
        <ele>268.75329589844</ele>
        <time>2016-04-20T12:01:10.000Z</time>
      </trkpt>
      <trkpt lat="47.03137" lon="3.52551">
        <ele>268.7734375</ele>
        <time>2016-04-20T12:01:12.000Z</time>
      </trkpt>
      <trkpt lat="47.03141" lon="3.52549">
        <ele>268.79907226562</ele>
        <time>2016-04-20T12:01:15.000Z</time>
      </trkpt>
      <trkpt lat="47.03144" lon="3.52547">
        <ele>268.82064819336</ele>
        <time>2016-04-20T12:01:18.000Z</time>
      </trkpt>
      <trkpt lat="47.03148" lon="3.52545">
        <ele>268.84246826172</ele>
        <time>2016-04-20T12:01:22.000Z</time>
      </trkpt>
      <trkpt lat="47.0315" lon="3.52544">
        <ele>268.87579345703</ele>
        <time>2016-04-20T12:01:23.000Z</time>
      </trkpt>
      <trkpt lat="47.03153" lon="3.52542">
        <ele>268.92138671875</ele>
        <time>2016-04-20T12:01:26.000Z</time>
      </trkpt>
      <trkpt lat="47.03156" lon="3.52539">
        <ele>268.96423339844</ele>
        <time>2016-04-20T12:01:29.000Z</time>
      </trkpt>
      <trkpt lat="47.03158" lon="3.52537">
        <ele>268.99517822266</ele>
        <time>2016-04-20T12:01:31.000Z</time>
      </trkpt>
      <trkpt lat="47.03161" lon="3.52534">
        <ele>269.01568603516</ele>
        <time>2016-04-20T12:01:34.000Z</time>
      </trkpt>
      <trkpt lat="47.03164" lon="3.52532">
        <ele>269.03125</ele>
        <time>2016-04-20T12:01:36.000Z</time>
      </trkpt>
      <trkpt lat="47.03167" lon="3.52529">
        <ele>269.04153442383</ele>
        <time>2016-04-20T12:01:39.000Z</time>
      </trkpt>
      <trkpt lat="47.0317" lon="3.52526">
        <ele>269.06195068359</ele>
        <time>2016-04-20T12:01:42.000Z</time>
      </trkpt>
      <trkpt lat="47.03173" lon="3.52522">
        <ele>269.09442138672</ele>
        <time>2016-04-20T12:01:45.000Z</time>
      </trkpt>
      <trkpt lat="47.03176" lon="3.5252">
        <ele>269.14971923828</ele>
        <time>2016-04-20T12:01:47.000Z</time>
      </trkpt>
      <trkpt lat="47.03177" lon="3.52519">
        <ele>269.20248413086</ele>
        <time>2016-04-20T12:01:49.000Z</time>
      </trkpt>
      <trkpt lat="47.0318" lon="3.52516">
        <ele>269.26596069336</ele>
        <time>2016-04-20T12:01:52.000Z</time>
      </trkpt>
      <trkpt lat="47.03182" lon="3.52512">
        <ele>269.32794189453</ele>
        <time>2016-04-20T12:01:55.000Z</time>
      </trkpt>
      <trkpt lat="47.03185" lon="3.52508">
        <ele>269.38244628906</ele>
        <time>2016-04-20T12:01:58.000Z</time>
      </trkpt>
      <trkpt lat="47.03185" lon="3.52506">
        <ele>269.41983032227</ele>
        <time>2016-04-20T12:02:00.000Z</time>
      </trkpt>
      <trkpt lat="47.03186" lon="3.52502">
        <ele>269.45321655273</ele>
        <time>2016-04-20T12:02:03.000Z</time>
      </trkpt>
      <trkpt lat="47.03189" lon="3.52497">
        <ele>269.50942993164</ele>
        <time>2016-04-20T12:02:06.000Z</time>
      </trkpt>
      <trkpt lat="47.03191" lon="3.52493">
        <ele>269.58535766602</ele>
        <time>2016-04-20T12:02:09.000Z</time>
      </trkpt>
      <trkpt lat="47.03194" lon="3.52488">
        <ele>269.69940185547</ele>
        <time>2016-04-20T12:02:12.000Z</time>
      </trkpt>
      <trkpt lat="47.03196" lon="3.52484">
        <ele>269.84918212891</ele>
        <time>2016-04-20T12:02:15.000Z</time>
      </trkpt>
      <trkpt lat="47.03198" lon="3.52479">
        <ele>270.03448486328</ele>
        <time>2016-04-20T12:02:18.000Z</time>
      </trkpt>
      <trkpt lat="47.03199" lon="3.52476">
        <ele>270.20526123047</ele>
        <time>2016-04-20T12:02:20.000Z</time>
      </trkpt>
      <trkpt lat="47.03201" lon="3.52471">
        <ele>270.37484741211</ele>
        <time>2016-04-20T12:02:23.000Z</time>
      </trkpt>
      <trkpt lat="47.03202" lon="3.52469">
        <ele>270.5207824707</ele>
        <time>2016-04-20T12:02:25.000Z</time>
      </trkpt>
      <trkpt lat="47.03205" lon="3.52466">
        <ele>270.66778564453</ele>
        <time>2016-04-20T12:02:27.000Z</time>
      </trkpt>
      <trkpt lat="47.03207" lon="3.52463">
        <ele>270.81112670898</ele>
        <time>2016-04-20T12:02:30.000Z</time>
      </trkpt>
      <trkpt lat="47.03209" lon="3.52459">
        <ele>270.96008300781</ele>
        <time>2016-04-20T12:02:33.000Z</time>
      </trkpt>
      <trkpt lat="47.0321" lon="3.52454">
        <ele>271.09490966797</ele>
        <time>2016-04-20T12:02:35.000Z</time>
      </trkpt>
      <trkpt lat="47.03212" lon="3.52448">
        <ele>271.24923706055</ele>
        <time>2016-04-20T12:02:39.000Z</time>
      </trkpt>
      <trkpt lat="47.03212" lon="3.52446">
        <ele>271.37518310547</ele>
        <time>2016-04-20T12:02:40.000Z</time>
      </trkpt>
      <trkpt lat="47.03213" lon="3.52443">
        <ele>271.48272705078</ele>
        <time>2016-04-20T12:02:42.000Z</time>
      </trkpt>
      <trkpt lat="47.03215" lon="3.52439">
        <ele>271.59390258789</ele>
        <time>2016-04-20T12:02:45.000Z</time>
      </trkpt>
      <trkpt lat="47.03218" lon="3.52434">
        <ele>271.71926879883</ele>
        <time>2016-04-20T12:02:48.000Z</time>
      </trkpt>
      <trkpt lat="47.0322" lon="3.5243">
        <ele>271.83477783203</ele>
        <time>2016-04-20T12:02:51.000Z</time>
      </trkpt>
      <trkpt lat="47.03222" lon="3.52427">
        <ele>271.96533203125</ele>
        <time>2016-04-20T12:02:54.000Z</time>
      </trkpt>
      <trkpt lat="47.03224" lon="3.52424">
        <ele>272.11975097656</ele>
        <time>2016-04-20T12:02:57.000Z</time>
      </trkpt>
      <trkpt lat="47.03226" lon="3.52421">
        <ele>272.26541137695</ele>
        <time>2016-04-20T12:02:59.000Z</time>
      </trkpt>
      <trkpt lat="47.03228" lon="3.52417">
        <ele>272.4084777832</ele>
        <time>2016-04-20T12:03:02.000Z</time>
      </trkpt>
      <trkpt lat="47.03231" lon="3.52412">
        <ele>272.54205322266</ele>
        <time>2016-04-20T12:03:05.000Z</time>
      </trkpt>
      <trkpt lat="47.03232" lon="3.5241">
        <ele>272.66064453125</ele>
        <time>2016-04-20T12:03:07.000Z</time>
      </trkpt>
      <trkpt lat="47.03234" lon="3.52408">
        <ele>272.75628662109</ele>
        <time>2016-04-20T12:03:09.000Z</time>
      </trkpt>
      <trkpt lat="47.03236" lon="3.52404">
        <ele>272.85498046875</ele>
        <time>2016-04-20T12:03:12.000Z</time>
      </trkpt>
      <trkpt lat="47.03238" lon="3.52401">
        <ele>272.93585205078</ele>
        <time>2016-04-20T12:03:14.000Z</time>
      </trkpt>
      <trkpt lat="47.03241" lon="3.52397">
        <ele>273.01684570312</ele>
        <time>2016-04-20T12:03:17.000Z</time>
      </trkpt>
      <trkpt lat="47.03242" lon="3.52393">
        <ele>273.10433959961</ele>
        <time>2016-04-20T12:03:20.000Z</time>
      </trkpt>
      <trkpt lat="47.03246" lon="3.52388">
        <ele>273.2001953125</ele>
        <time>2016-04-20T12:03:23.000Z</time>
      </trkpt>
      <trkpt lat="47.03246" lon="3.52386">
        <ele>273.27557373047</ele>
        <time>2016-04-20T12:03:25.000Z</time>
      </trkpt>
      <trkpt lat="47.03249" lon="3.52383">
        <ele>273.35833740234</ele>
        <time>2016-04-20T12:03:28.000Z</time>
      </trkpt>
      <trkpt lat="47.0325" lon="3.5238">
        <ele>273.43222045898</ele>
        <time>2016-04-20T12:03:30.000Z</time>
      </trkpt>
      <trkpt lat="47.03252" lon="3.52376">
        <ele>273.49536132812</ele>
        <time>2016-04-20T12:03:33.000Z</time>
      </trkpt>
      <trkpt lat="47.03253" lon="3.52372">
        <ele>273.53375244141</ele>
        <time>2016-04-20T12:03:35.000Z</time>
      </trkpt>
      <trkpt lat="47.03254" lon="3.52369">
        <ele>273.56951904297</ele>
        <time>2016-04-20T12:03:37.000Z</time>
      </trkpt>
      <trkpt lat="47.03255" lon="3.52364">
        <ele>273.58554077148</ele>
        <time>2016-04-20T12:03:40.000Z</time>
      </trkpt>
      <trkpt lat="47.03258" lon="3.52359">
        <ele>273.59487915039</ele>
        <time>2016-04-20T12:03:43.000Z</time>
      </trkpt>
      <trkpt lat="47.03259" lon="3.52357">
        <ele>273.60342407227</ele>
        <time>2016-04-20T12:03:45.000Z</time>
      </trkpt>
      <trkpt lat="47.0326" lon="3.52354">
        <ele>273.61517333984</ele>
        <time>2016-04-20T12:03:47.000Z</time>
      </trkpt>
      <trkpt lat="47.03262" lon="3.52348">
        <ele>273.6252746582</ele>
        <time>2016-04-20T12:03:51.000Z</time>
      </trkpt>
      <trkpt lat="47.03263" lon="3.52343">
        <ele>273.6296081543</ele>
        <time>2016-04-20T12:03:53.000Z</time>
      </trkpt>
      <trkpt lat="47.03266" lon="3.52339">
        <ele>273.63577270508</ele>
        <time>2016-04-20T12:03:56.000Z</time>
      </trkpt>
      <trkpt lat="47.03267" lon="3.52336">
        <ele>273.63656616211</ele>
        <time>2016-04-20T12:03:58.000Z</time>
      </trkpt>
      <trkpt lat="47.03268" lon="3.52333">
        <ele>273.63497924805</ele>
        <time>2016-04-20T12:04:01.000Z</time>
      </trkpt>
      <trkpt lat="47.03269" lon="3.5233">
        <ele>273.62719726562</ele>
        <time>2016-04-20T12:04:03.000Z</time>
      </trkpt>
      <trkpt lat="47.0327" lon="3.52327">
        <ele>273.62271118164</ele>
        <time>2016-04-20T12:04:05.000Z</time>
      </trkpt>
      <trkpt lat="47.03271" lon="3.52323">
        <ele>273.60113525391</ele>
        <time>2016-04-20T12:04:08.000Z</time>
      </trkpt>
      <trkpt lat="47.03273" lon="3.52319">
        <ele>273.58462524414</ele>
        <time>2016-04-20T12:04:12.000Z</time>
      </trkpt>
      <trkpt lat="47.03275" lon="3.52317">
        <ele>273.57049560547</ele>
        <time>2016-04-20T12:04:13.000Z</time>
      </trkpt>
      <trkpt lat="47.03277" lon="3.52316">
        <ele>273.57513427734</ele>
        <time>2016-04-20T12:04:15.000Z</time>
      </trkpt>
      <trkpt lat="47.03279" lon="3.52313">
        <ele>273.58877563477</ele>
        <time>2016-04-20T12:04:17.000Z</time>
      </trkpt>
      <trkpt lat="47.03282" lon="3.5231">
        <ele>273.61920166016</ele>
        <time>2016-04-20T12:04:21.000Z</time>
      </trkpt>
      <trkpt lat="47.03284" lon="3.52307">
        <ele>273.65545654297</ele>
        <time>2016-04-20T12:04:22.000Z</time>
      </trkpt>
      <trkpt lat="47.03287" lon="3.52301">
        <ele>273.68908691406</ele>
        <time>2016-04-20T12:04:25.000Z</time>
      </trkpt>
      <trkpt lat="47.03289" lon="3.52297">
        <ele>273.71368408203</ele>
        <time>2016-04-20T12:04:28.000Z</time>
      </trkpt>
      <trkpt lat="47.03292" lon="3.52293">
        <ele>273.73553466797</ele>
        <time>2016-04-20T12:04:31.000Z</time>
      </trkpt>
      <trkpt lat="47.03293" lon="3.5229">
        <ele>273.75109863281</ele>
        <time>2016-04-20T12:04:33.000Z</time>
      </trkpt>
      <trkpt lat="47.03296" lon="3.52286">
        <ele>273.7734375</ele>
        <time>2016-04-20T12:04:36.000Z</time>
      </trkpt>
      <trkpt lat="47.03298" lon="3.52283">
        <ele>273.80374145508</ele>
        <time>2016-04-20T12:04:38.000Z</time>
      </trkpt>
      <trkpt lat="47.033" lon="3.52281">
        <ele>273.83355712891</ele>
        <time>2016-04-20T12:04:40.000Z</time>
      </trkpt>
      <trkpt lat="47.03302" lon="3.52277">
        <ele>273.86459350586</ele>
        <time>2016-04-20T12:04:42.000Z</time>
      </trkpt>
      <trkpt lat="47.03304" lon="3.52273">
        <ele>273.90853881836</ele>
        <time>2016-04-20T12:04:45.000Z</time>
      </trkpt>
      <trkpt lat="47.03307" lon="3.5227">
        <ele>273.94570922852</ele>
        <time>2016-04-20T12:04:48.000Z</time>
      </trkpt>
      <trkpt lat="47.0331" lon="3.52266">
        <ele>273.99380493164</ele>
        <time>2016-04-20T12:04:51.000Z</time>
      </trkpt>
      <trkpt lat="47.03313" lon="3.52262">
        <ele>274.05258178711</ele>
        <time>2016-04-20T12:04:54.000Z</time>
      </trkpt>
      <trkpt lat="47.03315" lon="3.52258">
        <ele>274.11325073242</ele>
        <time>2016-04-20T12:04:57.000Z</time>
      </trkpt>
      <trkpt lat="47.03316" lon="3.52255">
        <ele>274.17022705078</ele>
        <time>2016-04-20T12:04:59.000Z</time>
      </trkpt>
      <trkpt lat="47.03318" lon="3.52253">
        <ele>274.21963500977</ele>
        <time>2016-04-20T12:05:02.000Z</time>
      </trkpt>
      <trkpt lat="47.0332" lon="3.52249">
        <ele>274.25512695312</ele>
        <time>2016-04-20T12:05:04.000Z</time>
      </trkpt>
      <trkpt lat="47.03321" lon="3.52247">
        <ele>274.26965332031</ele>
        <time>2016-04-20T12:05:06.000Z</time>
      </trkpt>
      <trkpt lat="47.03324" lon="3.52243">
        <ele>274.26580810547</ele>
        <time>2016-04-20T12:05:08.000Z</time>
      </trkpt>
      <trkpt lat="47.03327" lon="3.52239">
        <ele>274.24844360352</ele>
        <time>2016-04-20T12:05:11.000Z</time>
      </trkpt>
      <trkpt lat="47.0333" lon="3.52236">
        <ele>274.22680664062</ele>
        <time>2016-04-20T12:05:13.000Z</time>
      </trkpt>
      <trkpt lat="47.03332" lon="3.52234">
        <ele>274.19921875</ele>
        <time>2016-04-20T12:05:15.000Z</time>
      </trkpt>
      <trkpt lat="47.03334" lon="3.52231">
        <ele>274.17083740234</ele>
        <time>2016-04-20T12:05:18.000Z</time>
      </trkpt>
      <trkpt lat="47.03335" lon="3.52229">
        <ele>274.14520263672</ele>
        <time>2016-04-20T12:05:20.000Z</time>
      </trkpt>
      <trkpt lat="47.03338" lon="3.52226">
        <ele>274.12222290039</ele>
        <time>2016-04-20T12:05:23.000Z</time>
      </trkpt>
      <trkpt lat="47.03341" lon="3.52222">
        <ele>274.10903930664</ele>
        <time>2016-04-20T12:05:26.000Z</time>
      </trkpt>
      <trkpt lat="47.03345" lon="3.52218">
        <ele>274.09683227539</ele>
        <time>2016-04-20T12:05:29.000Z</time>
      </trkpt>
      <trkpt lat="47.03347" lon="3.52213">
        <ele>274.08477783203</ele>
        <time>2016-04-20T12:05:32.000Z</time>
      </trkpt>
      <trkpt lat="47.0335" lon="3.5221">
        <ele>274.07775878906</ele>
        <time>2016-04-20T12:05:35.000Z</time>
      </trkpt>
      <trkpt lat="47.03353" lon="3.52206">
        <ele>274.08120727539</ele>
        <time>2016-04-20T12:05:38.000Z</time>
      </trkpt>
      <trkpt lat="47.03355" lon="3.52204">
        <ele>274.08392333984</ele>
        <time>2016-04-20T12:05:40.000Z</time>
      </trkpt>
      <trkpt lat="47.03357" lon="3.52202">
        <ele>274.09628295898</ele>
        <time>2016-04-20T12:05:43.000Z</time>
      </trkpt>
      <trkpt lat="47.03359" lon="3.52199">
        <ele>274.12329101562</ele>
        <time>2016-04-20T12:05:45.000Z</time>
      </trkpt>
      <trkpt lat="47.03363" lon="3.52195">
        <ele>274.16729736328</ele>
        <time>2016-04-20T12:05:48.000Z</time>
      </trkpt>
      <trkpt lat="47.03365" lon="3.52193">
        <ele>274.21118164062</ele>
        <time>2016-04-20T12:05:50.000Z</time>
      </trkpt>
      <trkpt lat="47.03368" lon="3.52191">
        <ele>274.26309204102</ele>
        <time>2016-04-20T12:05:53.000Z</time>
      </trkpt>
      <trkpt lat="47.0337" lon="3.52188">
        <ele>274.32382202148</ele>
        <time>2016-04-20T12:05:56.000Z</time>
      </trkpt>
      <trkpt lat="47.03373" lon="3.52185">
        <ele>274.38711547852</ele>
        <time>2016-04-20T12:05:59.000Z</time>
      </trkpt>
      <trkpt lat="47.03376" lon="3.52182">
        <ele>274.45941162109</ele>
        <time>2016-04-20T12:06:02.000Z</time>
      </trkpt>
      <trkpt lat="47.03379" lon="3.52179">
        <ele>274.53677368164</ele>
        <time>2016-04-20T12:06:04.000Z</time>
      </trkpt>
      <trkpt lat="47.03381" lon="3.52176">
        <ele>274.61639404297</ele>
        <time>2016-04-20T12:06:07.000Z</time>
      </trkpt>
      <trkpt lat="47.03383" lon="3.52174">
        <ele>274.69320678711</ele>
        <time>2016-04-20T12:06:09.000Z</time>
      </trkpt>
      <trkpt lat="47.03387" lon="3.52171">
        <ele>274.79083251953</ele>
        <time>2016-04-20T12:06:12.000Z</time>
      </trkpt>
      <trkpt lat="47.03389" lon="3.52168">
        <ele>274.87817382812</ele>
        <time>2016-04-20T12:06:14.000Z</time>
      </trkpt>
      <trkpt lat="47.03391" lon="3.52165">
        <ele>274.95709228516</ele>
        <time>2016-04-20T12:06:16.000Z</time>
      </trkpt>
      <trkpt lat="47.03394" lon="3.52162">
        <ele>275.02688598633</ele>
        <time>2016-04-20T12:06:19.000Z</time>
      </trkpt>
      <trkpt lat="47.03396" lon="3.52158">
        <ele>275.078125</ele>
        <time>2016-04-20T12:06:22.000Z</time>
      </trkpt>
      <trkpt lat="47.03399" lon="3.52154">
        <ele>275.10412597656</ele>
        <time>2016-04-20T12:06:25.000Z</time>
      </trkpt>
      <trkpt lat="47.03402" lon="3.5215">
        <ele>275.12353515625</ele>
        <time>2016-04-20T12:06:28.000Z</time>
      </trkpt>
      <trkpt lat="47.03404" lon="3.52146">
        <ele>275.12884521484</ele>
        <time>2016-04-20T12:06:31.000Z</time>
      </trkpt>
      <trkpt lat="47.03405" lon="3.52141">
        <ele>275.10708618164</ele>
        <time>2016-04-20T12:06:35.000Z</time>
      </trkpt>
      <trkpt lat="47.03408" lon="3.52136">
        <ele>275.08508300781</ele>
        <time>2016-04-20T12:06:37.000Z</time>
      </trkpt>
      <trkpt lat="47.0341" lon="3.52133">
        <ele>275.03973388672</ele>
        <time>2016-04-20T12:06:39.000Z</time>
      </trkpt>
      <trkpt lat="47.03411" lon="3.5213">
        <ele>274.97708129883</ele>
        <time>2016-04-20T12:06:41.000Z</time>
      </trkpt>
      <trkpt lat="47.03412" lon="3.52126">
        <ele>274.90954589844</ele>
        <time>2016-04-20T12:06:43.000Z</time>
      </trkpt>
      <trkpt lat="47.03415" lon="3.52122">
        <ele>274.85375976562</ele>
        <time>2016-04-20T12:06:46.000Z</time>
      </trkpt>
      <trkpt lat="47.03416" lon="3.52118">
        <ele>274.78182983398</ele>
        <time>2016-04-20T12:06:49.000Z</time>
      </trkpt>
      <trkpt lat="47.03416" lon="3.52116">
        <ele>274.71060180664</ele>
        <time>2016-04-20T12:06:51.000Z</time>
      </trkpt>
      <trkpt lat="47.03418" lon="3.52112">
        <ele>274.62948608398</ele>
        <time>2016-04-20T12:06:53.000Z</time>
      </trkpt>
      <trkpt lat="47.03419" lon="3.52108">
        <ele>274.54730224609</ele>
        <time>2016-04-20T12:06:56.000Z</time>
      </trkpt>
      <trkpt lat="47.03421" lon="3.52103">
        <ele>274.44598388672</ele>
        <time>2016-04-20T12:06:59.000Z</time>
      </trkpt>
      <trkpt lat="47.03423" lon="3.52098">
        <ele>274.33636474609</ele>
        <time>2016-04-20T12:07:03.000Z</time>
      </trkpt>
      <trkpt lat="47.03424" lon="3.52095">
        <ele>274.23388671875</ele>
        <time>2016-04-20T12:07:04.000Z</time>
      </trkpt>
      <trkpt lat="47.03426" lon="3.52091">
        <ele>274.12890625</ele>
        <time>2016-04-20T12:07:06.000Z</time>
      </trkpt>
      <trkpt lat="47.03428" lon="3.52087">
        <ele>274.01538085938</ele>
        <time>2016-04-20T12:07:09.000Z</time>
      </trkpt>
      <trkpt lat="47.03429" lon="3.52083">
        <ele>273.91616821289</ele>
        <time>2016-04-20T12:07:11.000Z</time>
      </trkpt>
      <trkpt lat="47.03431" lon="3.52079">
        <ele>273.85311889648</ele>
        <time>2016-04-20T12:07:15.000Z</time>
      </trkpt>
      <trkpt lat="47.03432" lon="3.52075">
        <ele>273.80935668945</ele>
        <time>2016-04-20T12:07:16.000Z</time>
      </trkpt>
      <trkpt lat="47.03434" lon="3.5207">
        <ele>273.79690551758</ele>
        <time>2016-04-20T12:07:19.000Z</time>
      </trkpt>
      <trkpt lat="47.03435" lon="3.52068">
        <ele>273.81185913086</ele>
        <time>2016-04-20T12:07:21.000Z</time>
      </trkpt>
      <trkpt lat="47.03437" lon="3.52064">
        <ele>273.85766601562</ele>
        <time>2016-04-20T12:07:24.000Z</time>
      </trkpt>
      <trkpt lat="47.0344" lon="3.52061">
        <ele>273.90850830078</ele>
        <time>2016-04-20T12:07:26.000Z</time>
      </trkpt>
      <trkpt lat="47.03442" lon="3.52056">
        <ele>273.9599609375</ele>
        <time>2016-04-20T12:07:29.000Z</time>
      </trkpt>
      <trkpt lat="47.03443" lon="3.52053">
        <ele>274.00872802734</ele>
        <time>2016-04-20T12:07:31.000Z</time>
      </trkpt>
      <trkpt lat="47.03445" lon="3.52049">
        <ele>274.06225585938</ele>
        <time>2016-04-20T12:07:33.000Z</time>
      </trkpt>
      <trkpt lat="47.03446" lon="3.52047">
        <ele>274.09927368164</ele>
        <time>2016-04-20T12:07:35.000Z</time>
      </trkpt>
      <trkpt lat="47.03448" lon="3.52042">
        <ele>274.13104248047</ele>
        <time>2016-04-20T12:07:38.000Z</time>
      </trkpt>
      <trkpt lat="47.0345" lon="3.52039">
        <ele>274.16387939453</ele>
        <time>2016-04-20T12:07:41.000Z</time>
      </trkpt>
      <trkpt lat="47.03451" lon="3.52037">
        <ele>274.19998168945</ele>
        <time>2016-04-20T12:07:43.000Z</time>
      </trkpt>
      <trkpt lat="47.03453" lon="3.52034">
        <ele>274.23150634766</ele>
        <time>2016-04-20T12:07:45.000Z</time>
      </trkpt>
      <trkpt lat="47.03455" lon="3.5203">
        <ele>274.27734375</ele>
        <time>2016-04-20T12:07:48.000Z</time>
      </trkpt>
      <trkpt lat="47.03458" lon="3.52025">
        <ele>274.32485961914</ele>
        <time>2016-04-20T12:07:51.000Z</time>
      </trkpt>
      <trkpt lat="47.03461" lon="3.5202">
        <ele>274.37759399414</ele>
        <time>2016-04-20T12:07:54.000Z</time>
      </trkpt>
      <trkpt lat="47.03462" lon="3.52017">
        <ele>274.42218017578</ele>
        <time>2016-04-20T12:07:56.000Z</time>
      </trkpt>
      <trkpt lat="47.03464" lon="3.52012">
        <ele>274.46209716797</ele>
        <time>2016-04-20T12:07:59.000Z</time>
      </trkpt>
      <trkpt lat="47.03465" lon="3.52009">
        <ele>274.48748779297</ele>
        <time>2016-04-20T12:08:01.000Z</time>
      </trkpt>
      <trkpt lat="47.03468" lon="3.52005">
        <ele>274.51190185547</ele>
        <time>2016-04-20T12:08:04.000Z</time>
      </trkpt>
      <trkpt lat="47.0347" lon="3.52002">
        <ele>274.53128051758</ele>
        <time>2016-04-20T12:08:07.000Z</time>
      </trkpt>
      <trkpt lat="47.03473" lon="3.51998">
        <ele>274.55996704102</ele>
        <time>2016-04-20T12:08:10.000Z</time>
      </trkpt>
      <trkpt lat="47.03476" lon="3.51993">
        <ele>274.60702514648</ele>
        <time>2016-04-20T12:08:13.000Z</time>
      </trkpt>
      <trkpt lat="47.03478" lon="3.51988">
        <ele>274.65930175781</ele>
        <time>2016-04-20T12:08:16.000Z</time>
      </trkpt>
      <trkpt lat="47.03479" lon="3.51986">
        <ele>274.7099609375</ele>
        <time>2016-04-20T12:08:18.000Z</time>
      </trkpt>
      <trkpt lat="47.03482" lon="3.51981">
        <ele>274.75985717773</ele>
        <time>2016-04-20T12:08:21.000Z</time>
      </trkpt>
      <trkpt lat="47.03483" lon="3.5198">
        <ele>274.79922485352</ele>
        <time>2016-04-20T12:08:23.000Z</time>
      </trkpt>
      <trkpt lat="47.03487" lon="3.51974">
        <ele>274.82971191406</ele>
        <time>2016-04-20T12:08:26.000Z</time>
      </trkpt>
      <trkpt lat="47.03488" lon="3.51971">
        <ele>274.85009765625</ele>
        <time>2016-04-20T12:08:28.000Z</time>
      </trkpt>
      <trkpt lat="47.0349" lon="3.51965">
        <ele>274.85552978516</ele>
        <time>2016-04-20T12:08:31.000Z</time>
      </trkpt>
      <trkpt lat="47.03492" lon="3.51961">
        <ele>274.84817504883</ele>
        <time>2016-04-20T12:08:34.000Z</time>
      </trkpt>
      <trkpt lat="47.03494" lon="3.51957">
        <ele>274.83987426758</ele>
        <time>2016-04-20T12:08:37.000Z</time>
      </trkpt>
      <trkpt lat="47.03497" lon="3.51954">
        <ele>274.82443237305</ele>
        <time>2016-04-20T12:08:40.000Z</time>
      </trkpt>
      <trkpt lat="47.035" lon="3.5195">
        <ele>274.81076049805</ele>
        <time>2016-04-20T12:08:43.000Z</time>
      </trkpt>
      <trkpt lat="47.03503" lon="3.51948">
        <ele>274.81430053711</ele>
        <time>2016-04-20T12:08:46.000Z</time>
      </trkpt>
      <trkpt lat="47.03506" lon="3.51944">
        <ele>274.81817626953</ele>
        <time>2016-04-20T12:08:49.000Z</time>
      </trkpt>
      <trkpt lat="47.03507" lon="3.5194">
        <ele>274.81100463867</ele>
        <time>2016-04-20T12:08:52.000Z</time>
      </trkpt>
      <trkpt lat="47.03509" lon="3.51935">
        <ele>274.79016113281</ele>
        <time>2016-04-20T12:08:55.000Z</time>
      </trkpt>
      <trkpt lat="47.0351" lon="3.51929">
        <ele>274.75521850586</ele>
        <time>2016-04-20T12:08:58.000Z</time>
      </trkpt>
      <trkpt lat="47.03511" lon="3.51926">
        <ele>274.70465087891</ele>
        <time>2016-04-20T12:09:00.000Z</time>
      </trkpt>
      <trkpt lat="47.03514" lon="3.51919">
        <ele>274.64724731445</ele>
        <time>2016-04-20T12:09:03.000Z</time>
      </trkpt>
      <trkpt lat="47.03515" lon="3.51914">
        <ele>274.59246826172</ele>
        <time>2016-04-20T12:09:05.000Z</time>
      </trkpt>
      <trkpt lat="47.03516" lon="3.51907">
        <ele>274.54220581055</ele>
        <time>2016-04-20T12:09:09.000Z</time>
      </trkpt>
      <trkpt lat="47.03517" lon="3.51903">
        <ele>274.50234985352</ele>
        <time>2016-04-20T12:09:10.000Z</time>
      </trkpt>
      <trkpt lat="47.03518" lon="3.51897">
        <ele>274.45819091797</ele>
        <time>2016-04-20T12:09:14.000Z</time>
      </trkpt>
      <trkpt lat="47.03518" lon="3.51893">
        <ele>274.41259765625</ele>
        <time>2016-04-20T12:09:15.000Z</time>
      </trkpt>
      <trkpt lat="47.03518" lon="3.5189">
        <ele>274.36932373047</ele>
        <time>2016-04-20T12:09:18.000Z</time>
      </trkpt>
      <trkpt lat="47.03518" lon="3.51884">
        <ele>274.32308959961</ele>
        <time>2016-04-20T12:09:21.000Z</time>
      </trkpt>
      <trkpt lat="47.03518" lon="3.51879">
        <ele>274.26928710938</ele>
        <time>2016-04-20T12:09:23.000Z</time>
      </trkpt>
      <trkpt lat="47.03519" lon="3.51873">
        <ele>274.21697998047</ele>
        <time>2016-04-20T12:09:26.000Z</time>
      </trkpt>
      <trkpt lat="47.0352" lon="3.51867">
        <ele>274.17129516602</ele>
        <time>2016-04-20T12:09:29.000Z</time>
      </trkpt>
      <trkpt lat="47.0352" lon="3.51865">
        <ele>274.12573242188</ele>
        <time>2016-04-20T12:09:31.000Z</time>
      </trkpt>
      <trkpt lat="47.03521" lon="3.51861">
        <ele>274.10406494141</ele>
        <time>2016-04-20T12:09:33.000Z</time>
      </trkpt>
      <trkpt lat="47.03524" lon="3.51855">
        <ele>274.12265014648</ele>
        <time>2016-04-20T12:09:36.000Z</time>
      </trkpt>
      <trkpt lat="47.03525" lon="3.51852">
        <ele>274.15679931641</ele>
        <time>2016-04-20T12:09:38.000Z</time>
      </trkpt>
      <trkpt lat="47.03527" lon="3.51848">
        <ele>274.21826171875</ele>
        <time>2016-04-20T12:09:41.000Z</time>
      </trkpt>
      <trkpt lat="47.03529" lon="3.51845">
        <ele>274.31866455078</ele>
        <time>2016-04-20T12:09:43.000Z</time>
      </trkpt>
      <trkpt lat="47.03532" lon="3.5184">
        <ele>274.431640625</ele>
        <time>2016-04-20T12:09:46.000Z</time>
      </trkpt>
      <trkpt lat="47.03534" lon="3.51837">
        <ele>274.54843139648</ele>
        <time>2016-04-20T12:09:48.000Z</time>
      </trkpt>
      <trkpt lat="47.03535" lon="3.51834">
        <ele>274.68426513672</ele>
        <time>2016-04-20T12:09:50.000Z</time>
      </trkpt>
      <trkpt lat="47.03538" lon="3.51828">
        <ele>274.84637451172</ele>
        <time>2016-04-20T12:09:53.000Z</time>
      </trkpt>
      <trkpt lat="47.03539" lon="3.51825">
        <ele>274.99664306641</ele>
        <time>2016-04-20T12:09:55.000Z</time>
      </trkpt>
      <trkpt lat="47.03542" lon="3.5182">
        <ele>275.16027832031</ele>
        <time>2016-04-20T12:09:58.000Z</time>
      </trkpt>
      <trkpt lat="47.03543" lon="3.51816">
        <ele>275.31143188477</ele>
        <time>2016-04-20T12:10:00.000Z</time>
      </trkpt>
      <trkpt lat="47.03544" lon="3.5181">
        <ele>275.44879150391</ele>
        <time>2016-04-20T12:10:03.000Z</time>
      </trkpt>
      <trkpt lat="47.03545" lon="3.51807">
        <ele>275.55853271484</ele>
        <time>2016-04-20T12:10:05.000Z</time>
      </trkpt>
      <trkpt lat="47.03547" lon="3.51804">
        <ele>275.67327880859</ele>
        <time>2016-04-20T12:10:07.000Z</time>
      </trkpt>
      <trkpt lat="47.0355" lon="3.51801">
        <ele>275.779296875</ele>
        <time>2016-04-20T12:10:10.000Z</time>
      </trkpt>
      <trkpt lat="47.03553" lon="3.51796">
        <ele>275.904296875</ele>
        <time>2016-04-20T12:10:13.000Z</time>
      </trkpt>
      <trkpt lat="47.03555" lon="3.51794">
        <ele>276.03979492188</ele>
        <time>2016-04-20T12:10:15.000Z</time>
      </trkpt>
      <trkpt lat="47.03558" lon="3.51788">
        <ele>276.17364501953</ele>
        <time>2016-04-20T12:10:18.000Z</time>
      </trkpt>
      <trkpt lat="47.03559" lon="3.51785">
        <ele>276.29296875</ele>
        <time>2016-04-20T12:10:21.000Z</time>
      </trkpt>
      <trkpt lat="47.0356" lon="3.51781">
        <ele>276.38354492188</ele>
        <time>2016-04-20T12:10:23.000Z</time>
      </trkpt>
      <trkpt lat="47.03563" lon="3.51775">
        <ele>276.45272827148</ele>
        <time>2016-04-20T12:10:26.000Z</time>
      </trkpt>
      <trkpt lat="47.03564" lon="3.51772">
        <ele>276.50646972656</ele>
        <time>2016-04-20T12:10:28.000Z</time>
      </trkpt>
      <trkpt lat="47.03567" lon="3.51769">
        <ele>276.56231689453</ele>
        <time>2016-04-20T12:10:31.000Z</time>
      </trkpt>
      <trkpt lat="47.03569" lon="3.51766">
        <ele>276.61196899414</ele>
        <time>2016-04-20T12:10:33.000Z</time>
      </trkpt>
      <trkpt lat="47.03571" lon="3.51762">
        <ele>276.67102050781</ele>
        <time>2016-04-20T12:10:35.000Z</time>
      </trkpt>
      <trkpt lat="47.03574" lon="3.51757">
        <ele>276.71453857422</ele>
        <time>2016-04-20T12:10:38.000Z</time>
      </trkpt>
      <trkpt lat="47.03575" lon="3.51752">
        <ele>276.7424621582</ele>
        <time>2016-04-20T12:10:41.000Z</time>
      </trkpt>
      <trkpt lat="47.03576" lon="3.5175">
        <ele>276.74468994141</ele>
        <time>2016-04-20T12:10:43.000Z</time>
      </trkpt>
      <trkpt lat="47.03578" lon="3.51746">
        <ele>276.75241088867</ele>
        <time>2016-04-20T12:10:46.000Z</time>
      </trkpt>
      <trkpt lat="47.0358" lon="3.51742">
        <ele>276.75436401367</ele>
        <time>2016-04-20T12:10:49.000Z</time>
      </trkpt>
      <trkpt lat="47.03582" lon="3.51739">
        <ele>276.76055908203</ele>
        <time>2016-04-20T12:10:51.000Z</time>
      </trkpt>
      <trkpt lat="47.03582" lon="3.51736">
        <ele>276.77438354492</ele>
        <time>2016-04-20T12:10:54.000Z</time>
      </trkpt>
      <trkpt lat="47.03584" lon="3.51732">
        <ele>276.79974365234</ele>
        <time>2016-04-20T12:10:56.000Z</time>
      </trkpt>
      <trkpt lat="47.03587" lon="3.51727">
        <ele>276.83926391602</ele>
        <time>2016-04-20T12:10:59.000Z</time>
      </trkpt>
      <trkpt lat="47.03589" lon="3.51724">
        <ele>276.90371704102</ele>
        <time>2016-04-20T12:11:01.000Z</time>
      </trkpt>
      <trkpt lat="47.03592" lon="3.5172">
        <ele>276.99670410156</ele>
        <time>2016-04-20T12:11:04.000Z</time>
      </trkpt>
      <trkpt lat="47.03595" lon="3.51716">
        <ele>277.12298583984</ele>
        <time>2016-04-20T12:11:07.000Z</time>
      </trkpt>
      <trkpt lat="47.03597" lon="3.51713">
        <ele>277.27294921875</ele>
        <time>2016-04-20T12:11:10.000Z</time>
      </trkpt>
      <trkpt lat="47.03602" lon="3.51709">
        <ele>277.45092773438</ele>
        <time>2016-04-20T12:11:13.000Z</time>
      </trkpt>
      <trkpt lat="47.03604" lon="3.51707">
        <ele>277.62020874023</ele>
        <time>2016-04-20T12:11:15.000Z</time>
      </trkpt>
      <trkpt lat="47.03605" lon="3.51704">
        <ele>277.76519775391</ele>
        <time>2016-04-20T12:11:17.000Z</time>
      </trkpt>
      <trkpt lat="47.03607" lon="3.51702">
        <ele>277.89447021484</ele>
        <time>2016-04-20T12:11:20.000Z</time>
      </trkpt>
      <trkpt lat="47.03609" lon="3.51699">
        <ele>278.01177978516</ele>
        <time>2016-04-20T12:11:23.000Z</time>
      </trkpt>
      <trkpt lat="47.03611" lon="3.51695">
        <ele>278.08331298828</ele>
        <time>2016-04-20T12:11:26.000Z</time>
      </trkpt>
      <trkpt lat="47.03613" lon="3.5169">
        <ele>278.14727783203</ele>
        <time>2016-04-20T12:11:30.000Z</time>
      </trkpt>
      <trkpt lat="47.03616" lon="3.51685">
        <ele>278.22055053711</ele>
        <time>2016-04-20T12:11:32.000Z</time>
      </trkpt>
      <trkpt lat="47.0362" lon="3.51681">
        <ele>278.30712890625</ele>
        <time>2016-04-20T12:11:35.000Z</time>
      </trkpt>
      <trkpt lat="47.03622" lon="3.51677">
        <ele>278.38354492188</ele>
        <time>2016-04-20T12:11:38.000Z</time>
      </trkpt>
      <trkpt lat="47.03624" lon="3.51674">
        <ele>278.45684814453</ele>
        <time>2016-04-20T12:11:40.000Z</time>
      </trkpt>
      <trkpt lat="47.03626" lon="3.51669">
        <ele>278.52947998047</ele>
        <time>2016-04-20T12:11:43.000Z</time>
      </trkpt>
      <trkpt lat="47.03628" lon="3.51665">
        <ele>278.58938598633</ele>
        <time>2016-04-20T12:11:46.000Z</time>
      </trkpt>
      <trkpt lat="47.0363" lon="3.51661">
        <ele>278.62200927734</ele>
        <time>2016-04-20T12:11:49.000Z</time>
      </trkpt>
      <trkpt lat="47.03633" lon="3.51658">
        <ele>278.66729736328</ele>
        <time>2016-04-20T12:11:52.000Z</time>
      </trkpt>
      <trkpt lat="47.03635" lon="3.51654">
        <ele>278.70819091797</ele>
        <time>2016-04-20T12:11:55.000Z</time>
      </trkpt>
      <trkpt lat="47.03637" lon="3.51652">
        <ele>278.74523925781</ele>
        <time>2016-04-20T12:11:57.000Z</time>
      </trkpt>
      <trkpt lat="47.03638" lon="3.51649">
        <ele>278.791015625</ele>
        <time>2016-04-20T12:11:59.000Z</time>
      </trkpt>
      <trkpt lat="47.0364" lon="3.51647">
        <ele>278.8427734375</ele>
        <time>2016-04-20T12:12:01.000Z</time>
      </trkpt>
      <trkpt lat="47.03643" lon="3.51643">
        <ele>278.88293457031</ele>
        <time>2016-04-20T12:12:04.000Z</time>
      </trkpt>
      <trkpt lat="47.03645" lon="3.5164">
        <ele>278.94104003906</ele>
        <time>2016-04-20T12:12:07.000Z</time>
      </trkpt>
      <trkpt lat="47.03648" lon="3.51637">
        <ele>279.00146484375</ele>
        <time>2016-04-20T12:12:09.000Z</time>
      </trkpt>
      <trkpt lat="47.0365" lon="3.51633">
        <ele>279.06005859375</ele>
        <time>2016-04-20T12:12:12.000Z</time>
      </trkpt>
      <trkpt lat="47.03652" lon="3.51631">
        <ele>279.12658691406</ele>
        <time>2016-04-20T12:12:14.000Z</time>
      </trkpt>
      <trkpt lat="47.03654" lon="3.51628">
        <ele>279.19519042969</ele>
        <time>2016-04-20T12:12:17.000Z</time>
      </trkpt>
      <trkpt lat="47.03657" lon="3.51626">
        <ele>279.2744140625</ele>
        <time>2016-04-20T12:12:20.000Z</time>
      </trkpt>
      <trkpt lat="47.0366" lon="3.51626">
        <ele>279.37255859375</ele>
        <time>2016-04-20T12:12:23.000Z</time>
      </trkpt>
      <trkpt lat="47.0366" lon="3.51626">
        <ele>279.37255859375</ele>
        <time>2016-04-20T12:12:43.000Z</time>
      </trkpt>
      <trkpt lat="47.03663" lon="3.51625">
        <ele>279.49719238281</ele>
        <time>2016-04-20T12:12:55.000Z</time>
      </trkpt>
      <trkpt lat="47.03664" lon="3.51624">
        <ele>279.60974121094</ele>
        <time>2016-04-20T12:13:02.000Z</time>
      </trkpt>
      <trkpt lat="47.03665" lon="3.51623">
        <ele>279.71447753906</ele>
        <time>2016-04-20T12:13:05.000Z</time>
      </trkpt>
      <trkpt lat="47.03665" lon="3.51622">
        <ele>279.78918457031</ele>
        <time>2016-04-20T12:13:09.000Z</time>
      </trkpt>
      <trkpt lat="47.03664" lon="3.51621">
        <ele>279.81420898438</ele>
        <time>2016-04-20T12:13:15.000Z</time>
      </trkpt>
      <trkpt lat="47.03663" lon="3.5162">
        <ele>279.78576660156</ele>
        <time>2016-04-20T12:13:23.000Z</time>
      </trkpt>
      <trkpt lat="47.03663" lon="3.51618">
        <ele>279.74304199219</ele>
        <time>2016-04-20T12:13:34.000Z</time>
      </trkpt>
      <trkpt lat="47.03662" lon="3.51616">
        <ele>279.68176269531</ele>
        <time>2016-04-20T12:13:37.000Z</time>
      </trkpt>
      <trkpt lat="47.03662" lon="3.51613">
        <ele>279.59802246094</ele>
        <time>2016-04-20T12:13:39.000Z</time>
      </trkpt>
      <trkpt lat="47.03662" lon="3.51613">
        <ele>279.59802246094</ele>
        <time>2016-04-20T12:13:59.000Z</time>
      </trkpt>
      <trkpt lat="47.03662" lon="3.51615">
        <ele>279.54077148438</ele>
        <time>2016-04-20T12:14:16.000Z</time>
      </trkpt>
      <trkpt lat="47.03662" lon="3.51615">
        <ele>279.54077148438</ele>
        <time>2016-04-20T12:14:36.000Z</time>
      </trkpt>
      <trkpt lat="47.03661" lon="3.51615">
        <ele>279.48449707031</ele>
        <time>2016-04-20T12:14:45.000Z</time>
      </trkpt>
      <trkpt lat="47.03661" lon="3.51615">
        <ele>279.48449707031</ele>
        <time>2016-04-20T12:15:05.000Z</time>
      </trkpt>
      <trkpt lat="47.03661" lon="3.51614">
        <ele>279.44299316406</ele>
        <time>2016-04-20T12:15:07.000Z</time>
      </trkpt>
      <trkpt lat="47.03662" lon="3.51612">
        <ele>279.41418457031</ele>
        <time>2016-04-20T12:15:09.000Z</time>
      </trkpt>
      <trkpt lat="47.03662" lon="3.5161">
        <ele>279.40734863281</ele>
        <time>2016-04-20T12:15:12.000Z</time>
      </trkpt>
      <trkpt lat="47.03665" lon="3.51608">
        <ele>279.41223144531</ele>
        <time>2016-04-20T12:15:15.000Z</time>
      </trkpt>
      <trkpt lat="47.03666" lon="3.51605">
        <ele>279.42639160156</ele>
        <time>2016-04-20T12:15:18.000Z</time>
      </trkpt>
      <trkpt lat="47.03666" lon="3.51605">
        <ele>279.42639160156</ele>
        <time>2016-04-20T12:15:38.000Z</time>
      </trkpt>
      <trkpt lat="47.03671" lon="3.51606">
        <ele>279.53295898438</ele>
        <time>2016-04-20T12:15:45.000Z</time>
      </trkpt>
      <trkpt lat="47.03672" lon="3.51609">
        <ele>279.66970825195</ele>
        <time>2016-04-20T12:15:47.000Z</time>
      </trkpt>
      <trkpt lat="47.03671" lon="3.51612">
        <ele>279.81231689453</ele>
        <time>2016-04-20T12:15:51.000Z</time>
      </trkpt>
      <trkpt lat="47.03671" lon="3.51616">
        <ele>279.94766235352</ele>
        <time>2016-04-20T12:15:52.000Z</time>
      </trkpt>
      <trkpt lat="47.03672" lon="3.51622">
        <ele>280.1452331543</ele>
        <time>2016-04-20T12:15:56.000Z</time>
      </trkpt>
      <trkpt lat="47.03674" lon="3.51625">
        <ele>280.29776000977</ele>
        <time>2016-04-20T12:15:57.000Z</time>
      </trkpt>
      <trkpt lat="47.03675" lon="3.51627">
        <ele>280.45956420898</ele>
        <time>2016-04-20T12:15:59.000Z</time>
      </trkpt>
      <trkpt lat="47.03677" lon="3.51631">
        <ele>280.69146728516</ele>
        <time>2016-04-20T12:16:02.000Z</time>
      </trkpt>
      <trkpt lat="47.0368" lon="3.51635">
        <ele>280.99072265625</ele>
        <time>2016-04-20T12:16:05.000Z</time>
      </trkpt>
      <trkpt lat="47.03682" lon="3.5164">
        <ele>281.31756591797</ele>
        <time>2016-04-20T12:16:08.000Z</time>
      </trkpt>
      <trkpt lat="47.03683" lon="3.51642">
        <ele>281.64129638672</ele>
        <time>2016-04-20T12:16:10.000Z</time>
      </trkpt>
      <trkpt lat="47.03687" lon="3.51646">
        <ele>282.03857421875</ele>
        <time>2016-04-20T12:16:13.000Z</time>
      </trkpt>
      <trkpt lat="47.0369" lon="3.51649">
        <ele>282.44946289062</ele>
        <time>2016-04-20T12:16:16.000Z</time>
      </trkpt>
      <trkpt lat="47.03693" lon="3.51651">
        <ele>282.86721801758</ele>
        <time>2016-04-20T12:16:19.000Z</time>
      </trkpt>
      <trkpt lat="47.03696" lon="3.51651">
        <ele>283.28363037109</ele>
        <time>2016-04-20T12:16:22.000Z</time>
      </trkpt>
      <trkpt lat="47.03699" lon="3.51652">
        <ele>283.72882080078</ele>
        <time>2016-04-20T12:16:25.000Z</time>
      </trkpt>
      <trkpt lat="47.03701" lon="3.51653">
        <ele>284.1213684082</ele>
        <time>2016-04-20T12:16:27.000Z</time>
      </trkpt>
      <trkpt lat="47.03702" lon="3.51653">
        <ele>284.45904541016</ele>
        <time>2016-04-20T12:16:30.000Z</time>
      </trkpt>
      <trkpt lat="47.03704" lon="3.51654">
        <ele>284.76898193359</ele>
        <time>2016-04-20T12:16:33.000Z</time>
      </trkpt>
      <trkpt lat="47.03706" lon="3.51654">
        <ele>285.05587768555</ele>
        <time>2016-04-20T12:16:36.000Z</time>
      </trkpt>
      <trkpt lat="47.03709" lon="3.51654">
        <ele>285.32601928711</ele>
        <time>2016-04-20T12:16:39.000Z</time>
      </trkpt>
      <trkpt lat="47.03711" lon="3.51655">
        <ele>285.58343505859</ele>
        <time>2016-04-20T12:16:41.000Z</time>
      </trkpt>
      <trkpt lat="47.03712" lon="3.51654">
        <ele>285.83538818359</ele>
        <time>2016-04-20T12:16:44.000Z</time>
      </trkpt>
      <trkpt lat="47.03713" lon="3.51654">
        <ele>286.06323242188</ele>
        <time>2016-04-20T12:16:46.000Z</time>
      </trkpt>
      <trkpt lat="47.03715" lon="3.51653">
        <ele>286.25247192383</ele>
        <time>2016-04-20T12:16:49.000Z</time>
      </trkpt>
      <trkpt lat="47.03717" lon="3.51654">
        <ele>286.44500732422</ele>
        <time>2016-04-20T12:16:52.000Z</time>
      </trkpt>
      <trkpt lat="47.03719" lon="3.51654">
        <ele>286.65243530273</ele>
        <time>2016-04-20T12:16:56.000Z</time>
      </trkpt>
      <trkpt lat="47.03721" lon="3.51654">
        <ele>286.86538696289</ele>
        <time>2016-04-20T12:16:57.000Z</time>
      </trkpt>
      <trkpt lat="47.03723" lon="3.51653">
        <ele>287.09869384766</ele>
        <time>2016-04-20T12:17:00.000Z</time>
      </trkpt>
      <trkpt lat="47.03725" lon="3.51653">
        <ele>287.35589599609</ele>
        <time>2016-04-20T12:17:02.000Z</time>
      </trkpt>
      <trkpt lat="47.03728" lon="3.51652">
        <ele>287.60369873047</ele>
        <time>2016-04-20T12:17:05.000Z</time>
      </trkpt>
      <trkpt lat="47.0373" lon="3.51651">
        <ele>287.84149169922</ele>
        <time>2016-04-20T12:17:07.000Z</time>
      </trkpt>
      <trkpt lat="47.03733" lon="3.51651">
        <ele>288.09097290039</ele>
        <time>2016-04-20T12:17:09.000Z</time>
      </trkpt>
      <trkpt lat="47.03735" lon="3.51651">
        <ele>288.33297729492</ele>
        <time>2016-04-20T12:17:11.000Z</time>
      </trkpt>
      <trkpt lat="47.03738" lon="3.5165">
        <ele>288.60882568359</ele>
        <time>2016-04-20T12:17:14.000Z</time>
      </trkpt>
      <trkpt lat="47.03741" lon="3.51648">
        <ele>288.86547851562</ele>
        <time>2016-04-20T12:17:17.000Z</time>
      </trkpt>
      <trkpt lat="47.03743" lon="3.51648">
        <ele>289.10485839844</ele>
        <time>2016-04-20T12:17:19.000Z</time>
      </trkpt>
      <trkpt lat="47.03745" lon="3.51646">
        <ele>289.32638549805</ele>
        <time>2016-04-20T12:17:22.000Z</time>
      </trkpt>
      <trkpt lat="47.03746" lon="3.51645">
        <ele>289.51300048828</ele>
        <time>2016-04-20T12:17:24.000Z</time>
      </trkpt>
      <trkpt lat="47.03749" lon="3.51643">
        <ele>289.65951538086</ele>
        <time>2016-04-20T12:17:27.000Z</time>
      </trkpt>
      <trkpt lat="47.03751" lon="3.51642">
        <ele>289.79116821289</ele>
        <time>2016-04-20T12:17:30.000Z</time>
      </trkpt>
      <trkpt lat="47.03754" lon="3.51643">
        <ele>289.95074462891</ele>
        <time>2016-04-20T12:17:33.000Z</time>
      </trkpt>
      <trkpt lat="47.03755" lon="3.51643">
        <ele>290.12747192383</ele>
        <time>2016-04-20T12:17:35.000Z</time>
      </trkpt>
      <trkpt lat="47.03757" lon="3.51642">
        <ele>290.31781005859</ele>
        <time>2016-04-20T12:17:38.000Z</time>
      </trkpt>
      <trkpt lat="47.0376" lon="3.51643">
        <ele>290.53451538086</ele>
        <time>2016-04-20T12:17:41.000Z</time>
      </trkpt>
      <trkpt lat="47.03762" lon="3.51643">
        <ele>290.77850341797</ele>
        <time>2016-04-20T12:17:44.000Z</time>
      </trkpt>
      <trkpt lat="47.03765" lon="3.51643">
        <ele>291.01284790039</ele>
        <time>2016-04-20T12:17:47.000Z</time>
      </trkpt>
      <trkpt lat="47.0377" lon="3.51642">
        <ele>291.27767944336</ele>
        <time>2016-04-20T12:17:50.000Z</time>
      </trkpt>
      <trkpt lat="47.03772" lon="3.51641">
        <ele>291.53839111328</ele>
        <time>2016-04-20T12:17:52.000Z</time>
      </trkpt>
      <trkpt lat="47.03773" lon="3.51641">
        <ele>291.76568603516</ele>
        <time>2016-04-20T12:17:54.000Z</time>
      </trkpt>
      <trkpt lat="47.03775" lon="3.51641">
        <ele>291.98748779297</ele>
        <time>2016-04-20T12:17:56.000Z</time>
      </trkpt>
      <trkpt lat="47.03777" lon="3.5164">
        <ele>292.16928100586</ele>
        <time>2016-04-20T12:17:59.000Z</time>
      </trkpt>
      <trkpt lat="47.03784" lon="3.51638">
        <ele>292.38433837891</ele>
        <time>2016-04-20T12:18:02.000Z</time>
      </trkpt>
      <trkpt lat="47.03788" lon="3.51637">
        <ele>292.65093994141</ele>
        <time>2016-04-20T12:18:05.000Z</time>
      </trkpt>
      <trkpt lat="47.03791" lon="3.51636">
        <ele>292.93640136719</ele>
        <time>2016-04-20T12:18:08.000Z</time>
      </trkpt>
      <trkpt lat="47.03793" lon="3.51636">
        <ele>293.20523071289</ele>
        <time>2016-04-20T12:18:10.000Z</time>
      </trkpt>
      <trkpt lat="47.03795" lon="3.51635">
        <ele>293.48266601562</ele>
        <time>2016-04-20T12:18:14.000Z</time>
      </trkpt>
      <trkpt lat="47.03798" lon="3.51633">
        <ele>293.6828918457</ele>
        <time>2016-04-20T12:18:16.000Z</time>
      </trkpt>
      <trkpt lat="47.03801" lon="3.51631">
        <ele>293.83187866211</ele>
        <time>2016-04-20T12:18:19.000Z</time>
      </trkpt>
      <trkpt lat="47.03804" lon="3.51629">
        <ele>293.97344970703</ele>
        <time>2016-04-20T12:18:22.000Z</time>
      </trkpt>
      <trkpt lat="47.03808" lon="3.51626">
        <ele>294.12142944336</ele>
        <time>2016-04-20T12:18:25.000Z</time>
      </trkpt>
      <trkpt lat="47.0381" lon="3.51625">
        <ele>294.28118896484</ele>
        <time>2016-04-20T12:18:27.000Z</time>
      </trkpt>
      <trkpt lat="47.03812" lon="3.51624">
        <ele>294.44198608398</ele>
        <time>2016-04-20T12:18:30.000Z</time>
      </trkpt>
      <trkpt lat="47.03816" lon="3.51623">
        <ele>294.64465332031</ele>
        <time>2016-04-20T12:18:33.000Z</time>
      </trkpt>
      <trkpt lat="47.03817" lon="3.51623">
        <ele>294.83294677734</ele>
        <time>2016-04-20T12:18:35.000Z</time>
      </trkpt>
      <trkpt lat="47.03821" lon="3.51621">
        <ele>295.03192138672</ele>
        <time>2016-04-20T12:18:38.000Z</time>
      </trkpt>
      <trkpt lat="47.03825" lon="3.5162">
        <ele>295.26721191406</ele>
        <time>2016-04-20T12:18:41.000Z</time>
      </trkpt>
      <trkpt lat="47.03828" lon="3.51621">
        <ele>295.55255126953</ele>
        <time>2016-04-20T12:18:44.000Z</time>
      </trkpt>
      <trkpt lat="47.03831" lon="3.51622">
        <ele>295.85079956055</ele>
        <time>2016-04-20T12:18:47.000Z</time>
      </trkpt>
      <trkpt lat="47.03833" lon="3.51623">
        <ele>296.15478515625</ele>
        <time>2016-04-20T12:18:49.000Z</time>
      </trkpt>
      <trkpt lat="47.03834" lon="3.51625">
        <ele>296.46603393555</ele>
        <time>2016-04-20T12:18:53.000Z</time>
      </trkpt>
      <trkpt lat="47.03835" lon="3.51625">
        <ele>296.72860717773</ele>
        <time>2016-04-20T12:18:54.000Z</time>
      </trkpt>
      <trkpt lat="47.03838" lon="3.51623">
        <ele>296.91278076172</ele>
        <time>2016-04-20T12:18:57.000Z</time>
      </trkpt>
      <trkpt lat="47.03842" lon="3.51621">
        <ele>297.02764892578</ele>
        <time>2016-04-20T12:19:00.000Z</time>
      </trkpt>
      <trkpt lat="47.03844" lon="3.51619">
        <ele>297.10900878906</ele>
        <time>2016-04-20T12:19:03.000Z</time>
      </trkpt>
      <trkpt lat="47.03847" lon="3.5162">
        <ele>297.18548583984</ele>
        <time>2016-04-20T12:19:06.000Z</time>
      </trkpt>
      <trkpt lat="47.0385" lon="3.51618">
        <ele>297.24896240234</ele>
        <time>2016-04-20T12:19:09.000Z</time>
      </trkpt>
      <trkpt lat="47.03853" lon="3.51617">
        <ele>297.32965087891</ele>
        <time>2016-04-20T12:19:12.000Z</time>
      </trkpt>
      <trkpt lat="47.03857" lon="3.51617">
        <ele>297.44317626953</ele>
        <time>2016-04-20T12:19:15.000Z</time>
      </trkpt>
      <trkpt lat="47.0386" lon="3.51616">
        <ele>297.58148193359</ele>
        <time>2016-04-20T12:19:18.000Z</time>
      </trkpt>
      <trkpt lat="47.03862" lon="3.51616">
        <ele>297.68908691406</ele>
        <time>2016-04-20T12:19:20.000Z</time>
      </trkpt>
      <trkpt lat="47.03865" lon="3.51616">
        <ele>297.82159423828</ele>
        <time>2016-04-20T12:19:23.000Z</time>
      </trkpt>
      <trkpt lat="47.03868" lon="3.51615">
        <ele>297.94964599609</ele>
        <time>2016-04-20T12:19:26.000Z</time>
      </trkpt>
      <trkpt lat="47.03871" lon="3.51615">
        <ele>298.07794189453</ele>
        <time>2016-04-20T12:19:29.000Z</time>
      </trkpt>
      <trkpt lat="47.03873" lon="3.51616">
        <ele>298.21099853516</ele>
        <time>2016-04-20T12:19:31.000Z</time>
      </trkpt>
      <trkpt lat="47.03877" lon="3.51617">
        <ele>298.39971923828</ele>
        <time>2016-04-20T12:19:34.000Z</time>
      </trkpt>
      <trkpt lat="47.0388" lon="3.51617">
        <ele>298.57501220703</ele>
        <time>2016-04-20T12:19:36.000Z</time>
      </trkpt>
      <trkpt lat="47.03883" lon="3.51615">
        <ele>298.75286865234</ele>
        <time>2016-04-20T12:19:39.000Z</time>
      </trkpt>
      <trkpt lat="47.03885" lon="3.51614">
        <ele>298.89276123047</ele>
        <time>2016-04-20T12:19:41.000Z</time>
      </trkpt>
      <trkpt lat="47.03887" lon="3.51613">
        <ele>299.00823974609</ele>
        <time>2016-04-20T12:19:44.000Z</time>
      </trkpt>
      <trkpt lat="47.03888" lon="3.51613">
        <ele>299.07135009766</ele>
        <time>2016-04-20T12:19:46.000Z</time>
      </trkpt>
      <trkpt lat="47.0389" lon="3.51613">
        <ele>299.142578125</ele>
        <time>2016-04-20T12:19:50.000Z</time>
      </trkpt>
      <trkpt lat="47.03892" lon="3.51613">
        <ele>299.20361328125</ele>
        <time>2016-04-20T12:19:51.000Z</time>
      </trkpt>
      <trkpt lat="47.03894" lon="3.51612">
        <ele>299.28317260742</ele>
        <time>2016-04-20T12:19:53.000Z</time>
      </trkpt>
      <trkpt lat="47.03897" lon="3.51611">
        <ele>299.37496948242</ele>
        <time>2016-04-20T12:19:56.000Z</time>
      </trkpt>
      <trkpt lat="47.039" lon="3.5161">
        <ele>299.46841430664</ele>
        <time>2016-04-20T12:19:59.000Z</time>
      </trkpt>
      <trkpt lat="47.03902" lon="3.51609">
        <ele>299.55331420898</ele>
        <time>2016-04-20T12:20:02.000Z</time>
      </trkpt>
      <trkpt lat="47.03906" lon="3.5161">
        <ele>299.67559814453</ele>
        <time>2016-04-20T12:20:05.000Z</time>
      </trkpt>
      <trkpt lat="47.03909" lon="3.5161">
        <ele>299.818359375</ele>
        <time>2016-04-20T12:20:08.000Z</time>
      </trkpt>
      <trkpt lat="47.03913" lon="3.5161">
        <ele>299.97906494141</ele>
        <time>2016-04-20T12:20:11.000Z</time>
      </trkpt>
      <trkpt lat="47.03915" lon="3.51609">
        <ele>300.14141845703</ele>
        <time>2016-04-20T12:20:14.000Z</time>
      </trkpt>
      <trkpt lat="47.03918" lon="3.51609">
        <ele>300.3117980957</ele>
        <time>2016-04-20T12:20:17.000Z</time>
      </trkpt>
      <trkpt lat="47.0392" lon="3.51609">
        <ele>300.43719482422</ele>
        <time>2016-04-20T12:20:19.000Z</time>
      </trkpt>
      <trkpt lat="47.03922" lon="3.51608">
        <ele>300.5192565918</ele>
        <time>2016-04-20T12:20:22.000Z</time>
      </trkpt>
      <trkpt lat="47.03923" lon="3.51608">
        <ele>300.56353759766</ele>
        <time>2016-04-20T12:20:25.000Z</time>
      </trkpt>
      <trkpt lat="47.03925" lon="3.51608">
        <ele>300.59954833984</ele>
        <time>2016-04-20T12:20:28.000Z</time>
      </trkpt>
      <trkpt lat="47.03926" lon="3.51608">
        <ele>300.61056518555</ele>
        <time>2016-04-20T12:20:30.000Z</time>
      </trkpt>
      <trkpt lat="47.03928" lon="3.51607">
        <ele>300.62176513672</ele>
        <time>2016-04-20T12:20:33.000Z</time>
      </trkpt>
      <trkpt lat="47.0393" lon="3.51608">
        <ele>300.65228271484</ele>
        <time>2016-04-20T12:20:36.000Z</time>
      </trkpt>
      <trkpt lat="47.03933" lon="3.51607">
        <ele>300.68734741211</ele>
        <time>2016-04-20T12:20:40.000Z</time>
      </trkpt>
      <trkpt lat="47.03935" lon="3.51608">
        <ele>300.72006225586</ele>
        <time>2016-04-20T12:20:41.000Z</time>
      </trkpt>
      <trkpt lat="47.03937" lon="3.51607">
        <ele>300.7548828125</ele>
        <time>2016-04-20T12:20:43.000Z</time>
      </trkpt>
      <trkpt lat="47.03942" lon="3.51606">
        <ele>300.79663085938</ele>
        <time>2016-04-20T12:20:46.000Z</time>
      </trkpt>
      <trkpt lat="47.03945" lon="3.51605">
        <ele>300.81414794922</ele>
        <time>2016-04-20T12:20:48.000Z</time>
      </trkpt>
      <trkpt lat="47.03949" lon="3.51603">
        <ele>300.80758666992</ele>
        <time>2016-04-20T12:20:51.000Z</time>
      </trkpt>
      <trkpt lat="47.03954" lon="3.51603">
        <ele>300.80770874023</ele>
        <time>2016-04-20T12:20:53.000Z</time>
      </trkpt>
      <trkpt lat="47.03958" lon="3.51601">
        <ele>300.80197143555</ele>
        <time>2016-04-20T12:20:55.000Z</time>
      </trkpt>
      <trkpt lat="47.03962" lon="3.516">
        <ele>300.78802490234</ele>
        <time>2016-04-20T12:20:58.000Z</time>
      </trkpt>
      <trkpt lat="47.03965" lon="3.516">
        <ele>300.77752685547</ele>
        <time>2016-04-20T12:21:00.000Z</time>
      </trkpt>
      <trkpt lat="47.03968" lon="3.51599">
        <ele>300.79388427734</ele>
        <time>2016-04-20T12:21:04.000Z</time>
      </trkpt>
      <trkpt lat="47.03971" lon="3.51599">
        <ele>300.80249023438</ele>
        <time>2016-04-20T12:21:05.000Z</time>
      </trkpt>
      <trkpt lat="47.03977" lon="3.51599">
        <ele>300.82574462891</ele>
        <time>2016-04-20T12:21:08.000Z</time>
      </trkpt>
      <trkpt lat="47.03982" lon="3.51598">
        <ele>300.85891723633</ele>
        <time>2016-04-20T12:21:11.000Z</time>
      </trkpt>
      <trkpt lat="47.03986" lon="3.51598">
        <ele>300.90606689453</ele>
        <time>2016-04-20T12:21:14.000Z</time>
      </trkpt>
      <trkpt lat="47.03989" lon="3.51597">
        <ele>300.94381713867</ele>
        <time>2016-04-20T12:21:16.000Z</time>
      </trkpt>
      <trkpt lat="47.03992" lon="3.51596">
        <ele>300.97045898438</ele>
        <time>2016-04-20T12:21:18.000Z</time>
      </trkpt>
      <trkpt lat="47.03995" lon="3.51597">
        <ele>300.99795532227</ele>
        <time>2016-04-20T12:21:21.000Z</time>
      </trkpt>
      <trkpt lat="47.03996" lon="3.51598">
        <ele>301.03869628906</ele>
        <time>2016-04-20T12:21:23.000Z</time>
      </trkpt>
      <trkpt lat="47.03998" lon="3.51599">
        <ele>301.09490966797</ele>
        <time>2016-04-20T12:21:25.000Z</time>
      </trkpt>
      <trkpt lat="47.04" lon="3.51599">
        <ele>301.16128540039</ele>
        <time>2016-04-20T12:21:27.000Z</time>
      </trkpt>
      <trkpt lat="47.04005" lon="3.51599">
        <ele>301.27410888672</ele>
        <time>2016-04-20T12:21:30.000Z</time>
      </trkpt>
      <trkpt lat="47.04009" lon="3.516">
        <ele>301.40954589844</ele>
        <time>2016-04-20T12:21:32.000Z</time>
      </trkpt>
      <trkpt lat="47.04012" lon="3.516">
        <ele>301.55621337891</ele>
        <time>2016-04-20T12:21:35.000Z</time>
      </trkpt>
      <trkpt lat="47.04016" lon="3.516">
        <ele>301.70184326172</ele>
        <time>2016-04-20T12:21:38.000Z</time>
      </trkpt>
      <trkpt lat="47.0402" lon="3.51601">
        <ele>301.89166259766</ele>
        <time>2016-04-20T12:21:41.000Z</time>
      </trkpt>
      <trkpt lat="47.04022" lon="3.51601">
        <ele>302.05572509766</ele>
        <time>2016-04-20T12:21:44.000Z</time>
      </trkpt>
      <trkpt lat="47.04026" lon="3.516">
        <ele>302.20468139648</ele>
        <time>2016-04-20T12:21:46.000Z</time>
      </trkpt>
      <trkpt lat="47.04027" lon="3.51601">
        <ele>302.33953857422</ele>
        <time>2016-04-20T12:21:48.000Z</time>
      </trkpt>
      <trkpt lat="47.04031" lon="3.51601">
        <ele>302.48620605469</ele>
        <time>2016-04-20T12:21:51.000Z</time>
      </trkpt>
      <trkpt lat="47.04035" lon="3.516">
        <ele>302.59628295898</ele>
        <time>2016-04-20T12:21:54.000Z</time>
      </trkpt>
      <trkpt lat="47.04039" lon="3.51599">
        <ele>302.71240234375</ele>
        <time>2016-04-20T12:21:57.000Z</time>
      </trkpt>
      <trkpt lat="47.04044" lon="3.51597">
        <ele>302.8180847168</ele>
        <time>2016-04-20T12:21:59.000Z</time>
      </trkpt>
      <trkpt lat="47.04048" lon="3.51595">
        <ele>302.91625976562</ele>
        <time>2016-04-20T12:22:02.000Z</time>
      </trkpt>
      <trkpt lat="47.0405" lon="3.51594">
        <ele>302.98275756836</ele>
        <time>2016-04-20T12:22:06.000Z</time>
      </trkpt>
      <trkpt lat="47.04053" lon="3.51594">
        <ele>303.05703735352</ele>
        <time>2016-04-20T12:22:07.000Z</time>
      </trkpt>
      <trkpt lat="47.04055" lon="3.51593">
        <ele>303.11840820312</ele>
        <time>2016-04-20T12:22:10.000Z</time>
      </trkpt>
      <trkpt lat="47.04058" lon="3.51593">
        <ele>303.18838500977</ele>
        <time>2016-04-20T12:22:13.000Z</time>
      </trkpt>
      <trkpt lat="47.04063" lon="3.51593">
        <ele>303.29693603516</ele>
        <time>2016-04-20T12:22:16.000Z</time>
      </trkpt>
      <trkpt lat="47.04068" lon="3.51592">
        <ele>303.42419433594</ele>
        <time>2016-04-20T12:22:19.000Z</time>
      </trkpt>
      <trkpt lat="47.04069" lon="3.51591">
        <ele>303.53375244141</ele>
        <time>2016-04-20T12:22:21.000Z</time>
      </trkpt>
      <trkpt lat="47.04072" lon="3.51591">
        <ele>303.66104125977</ele>
        <time>2016-04-20T12:22:24.000Z</time>
      </trkpt>
      <trkpt lat="47.04074" lon="3.51591">
        <ele>303.78717041016</ele>
        <time>2016-04-20T12:22:26.000Z</time>
      </trkpt>
      <trkpt lat="47.04078" lon="3.51592">
        <ele>303.90911865234</ele>
        <time>2016-04-20T12:22:29.000Z</time>
      </trkpt>
      <trkpt lat="47.04082" lon="3.51591">
        <ele>304.02212524414</ele>
        <time>2016-04-20T12:22:32.000Z</time>
      </trkpt>
      <trkpt lat="47.04084" lon="3.5159">
        <ele>304.13925170898</ele>
        <time>2016-04-20T12:22:34.000Z</time>
      </trkpt>
      <trkpt lat="47.04086" lon="3.51588">
        <ele>304.22085571289</ele>
        <time>2016-04-20T12:22:37.000Z</time>
      </trkpt>
      <trkpt lat="47.04088" lon="3.51588">
        <ele>304.28707885742</ele>
        <time>2016-04-20T12:22:39.000Z</time>
      </trkpt>
      <trkpt lat="47.0409" lon="3.51586">
        <ele>304.29931640625</ele>
        <time>2016-04-20T12:22:42.000Z</time>
      </trkpt>
      <trkpt lat="47.04092" lon="3.51584">
        <ele>304.29748535156</ele>
        <time>2016-04-20T12:22:45.000Z</time>
      </trkpt>
      <trkpt lat="47.04095" lon="3.51583">
        <ele>304.28598022461</ele>
        <time>2016-04-20T12:22:48.000Z</time>
      </trkpt>
      <trkpt lat="47.04097" lon="3.51583">
        <ele>304.28350830078</ele>
        <time>2016-04-20T12:22:50.000Z</time>
      </trkpt>
      <trkpt lat="47.041" lon="3.51583">
        <ele>304.28784179688</ele>
        <time>2016-04-20T12:22:53.000Z</time>
      </trkpt>
      <trkpt lat="47.04101" lon="3.51582">
        <ele>304.30780029297</ele>
        <time>2016-04-20T12:22:56.000Z</time>
      </trkpt>
      <trkpt lat="47.04103" lon="3.51582">
        <ele>304.33441162109</ele>
        <time>2016-04-20T12:22:57.000Z</time>
      </trkpt>
      <trkpt lat="47.04107" lon="3.51582">
        <ele>304.36837768555</ele>
        <time>2016-04-20T12:23:00.000Z</time>
      </trkpt>
      <trkpt lat="47.04111" lon="3.51582">
        <ele>304.43133544922</ele>
        <time>2016-04-20T12:23:03.000Z</time>
      </trkpt>
      <trkpt lat="47.04115" lon="3.51582">
        <ele>304.50335693359</ele>
        <time>2016-04-20T12:23:05.000Z</time>
      </trkpt>
      <trkpt lat="47.04118" lon="3.51582">
        <ele>304.57550048828</ele>
        <time>2016-04-20T12:23:08.000Z</time>
      </trkpt>
      <trkpt lat="47.04121" lon="3.51581">
        <ele>304.64974975586</ele>
        <time>2016-04-20T12:23:11.000Z</time>
      </trkpt>
      <trkpt lat="47.04123" lon="3.51581">
        <ele>304.72665405273</ele>
        <time>2016-04-20T12:23:14.000Z</time>
      </trkpt>
      <trkpt lat="47.04124" lon="3.5158">
        <ele>304.76922607422</ele>
        <time>2016-04-20T12:23:16.000Z</time>
      </trkpt>
      <trkpt lat="47.04128" lon="3.5158">
        <ele>304.80215454102</ele>
        <time>2016-04-20T12:23:19.000Z</time>
      </trkpt>
      <trkpt lat="47.04131" lon="3.51579">
        <ele>304.82748413086</ele>
        <time>2016-04-20T12:23:21.000Z</time>
      </trkpt>
      <trkpt lat="47.04132" lon="3.51578">
        <ele>304.83999633789</ele>
        <time>2016-04-20T12:23:23.000Z</time>
      </trkpt>
      <trkpt lat="47.04133" lon="3.51577">
        <ele>304.84295654297</ele>
        <time>2016-04-20T12:23:25.000Z</time>
      </trkpt>
      <trkpt lat="47.04136" lon="3.51577">
        <ele>304.85760498047</ele>
        <time>2016-04-20T12:23:28.000Z</time>
      </trkpt>
      <trkpt lat="47.04139" lon="3.51576">
        <ele>304.87548828125</ele>
        <time>2016-04-20T12:23:31.000Z</time>
      </trkpt>
      <trkpt lat="47.04143" lon="3.51576">
        <ele>304.90875244141</ele>
        <time>2016-04-20T12:23:34.000Z</time>
      </trkpt>
      <trkpt lat="47.04146" lon="3.51576">
        <ele>304.96487426758</ele>
        <time>2016-04-20T12:23:36.000Z</time>
      </trkpt>
      <trkpt lat="47.04148" lon="3.51577">
        <ele>305.03500366211</ele>
        <time>2016-04-20T12:23:39.000Z</time>
      </trkpt>
      <trkpt lat="47.0415" lon="3.51577">
        <ele>305.10650634766</ele>
        <time>2016-04-20T12:23:41.000Z</time>
      </trkpt>
      <trkpt lat="47.04153" lon="3.51575">
        <ele>305.1696472168</ele>
        <time>2016-04-20T12:23:44.000Z</time>
      </trkpt>
      <trkpt lat="47.04156" lon="3.51575">
        <ele>305.22570800781</ele>
        <time>2016-04-20T12:23:47.000Z</time>
      </trkpt>
      <trkpt lat="47.04158" lon="3.51573">
        <ele>305.25860595703</ele>
        <time>2016-04-20T12:23:50.000Z</time>
      </trkpt>
      <trkpt lat="47.0416" lon="3.51572">
        <ele>305.2799987793</ele>
        <time>2016-04-20T12:23:53.000Z</time>
      </trkpt>
      <trkpt lat="47.04163" lon="3.51572">
        <ele>305.30709838867</ele>
        <time>2016-04-20T12:23:55.000Z</time>
      </trkpt>
      <trkpt lat="47.04166" lon="3.5157">
        <ele>305.32241821289</ele>
        <time>2016-04-20T12:23:58.000Z</time>
      </trkpt>
      <trkpt lat="47.04168" lon="3.51568">
        <ele>305.31607055664</ele>
        <time>2016-04-20T12:24:01.000Z</time>
      </trkpt>
      <trkpt lat="47.0417" lon="3.51567">
        <ele>305.30966186523</ele>
        <time>2016-04-20T12:24:04.000Z</time>
      </trkpt>
      <trkpt lat="47.04172" lon="3.51566">
        <ele>305.29470825195</ele>
        <time>2016-04-20T12:24:06.000Z</time>
      </trkpt>
      <trkpt lat="47.04175" lon="3.51565">
        <ele>305.26669311523</ele>
        <time>2016-04-20T12:24:09.000Z</time>
      </trkpt>
      <trkpt lat="47.04179" lon="3.51565">
        <ele>305.25048828125</ele>
        <time>2016-04-20T12:24:12.000Z</time>
      </trkpt>
      <trkpt lat="47.04182" lon="3.51564">
        <ele>305.24609375</ele>
        <time>2016-04-20T12:24:14.000Z</time>
      </trkpt>
      <trkpt lat="47.04184" lon="3.51564">
        <ele>305.25048828125</ele>
        <time>2016-04-20T12:24:16.000Z</time>
      </trkpt>
      <trkpt lat="47.04185" lon="3.51563">
        <ele>305.25805664062</ele>
        <time>2016-04-20T12:24:18.000Z</time>
      </trkpt>
      <trkpt lat="47.04186" lon="3.51563">
        <ele>305.25756835938</ele>
        <time>2016-04-20T12:24:20.000Z</time>
      </trkpt>
      <trkpt lat="47.04189" lon="3.51561">
        <ele>305.23999023438</ele>
        <time>2016-04-20T12:24:23.000Z</time>
      </trkpt>
      <trkpt lat="47.0419" lon="3.51559">
        <ele>305.20825195312</ele>
        <time>2016-04-20T12:24:25.000Z</time>
      </trkpt>
      <trkpt lat="47.04192" lon="3.51556">
        <ele>305.14965820312</ele>
        <time>2016-04-20T12:24:28.000Z</time>
      </trkpt>
      <trkpt lat="47.04193" lon="3.51554">
        <ele>305.083984375</ele>
        <time>2016-04-20T12:24:30.000Z</time>
      </trkpt>
      <trkpt lat="47.04197" lon="3.51554">
        <ele>305.02587890625</ele>
        <time>2016-04-20T12:24:33.000Z</time>
      </trkpt>
      <trkpt lat="47.04199" lon="3.51553">
        <ele>304.97729492188</ele>
        <time>2016-04-20T12:24:35.000Z</time>
      </trkpt>
      <trkpt lat="47.04201" lon="3.51552">
        <ele>304.94311523438</ele>
        <time>2016-04-20T12:24:37.000Z</time>
      </trkpt>
      <trkpt lat="47.04203" lon="3.51554">
        <ele>304.94653320312</ele>
        <time>2016-04-20T12:24:40.000Z</time>
      </trkpt>
      <trkpt lat="47.04207" lon="3.51554">
        <ele>304.97192382812</ele>
        <time>2016-04-20T12:24:43.000Z</time>
      </trkpt>
      <trkpt lat="47.04212" lon="3.51553">
        <ele>305.0029296875</ele>
        <time>2016-04-20T12:24:47.000Z</time>
      </trkpt>
      <trkpt lat="47.04214" lon="3.51552">
        <ele>305.03466796875</ele>
        <time>2016-04-20T12:24:48.000Z</time>
      </trkpt>
      <trkpt lat="47.04217" lon="3.51551">
        <ele>305.0595703125</ele>
        <time>2016-04-20T12:24:51.000Z</time>
      </trkpt>
      <trkpt lat="47.0422" lon="3.51551">
        <ele>305.07543945312</ele>
        <time>2016-04-20T12:24:53.000Z</time>
      </trkpt>
      <trkpt lat="47.04223" lon="3.51548">
        <ele>305.06298828125</ele>
        <time>2016-04-20T12:24:57.000Z</time>
      </trkpt>
      <trkpt lat="47.04227" lon="3.51546">
        <ele>305.02954101562</ele>
        <time>2016-04-20T12:24:59.000Z</time>
      </trkpt>
      <trkpt lat="47.04229" lon="3.51545">
        <ele>304.98999023438</ele>
        <time>2016-04-20T12:25:01.000Z</time>
      </trkpt>
      <trkpt lat="47.04232" lon="3.51543">
        <ele>304.95166015625</ele>
        <time>2016-04-20T12:25:04.000Z</time>
      </trkpt>
      <trkpt lat="47.04234" lon="3.51543">
        <ele>304.90405273438</ele>
        <time>2016-04-20T12:25:07.000Z</time>
      </trkpt>
      <trkpt lat="47.04235" lon="3.51541">
        <ele>304.86059570312</ele>
        <time>2016-04-20T12:25:10.000Z</time>
      </trkpt>
      <trkpt lat="47.04237" lon="3.51538">
        <ele>304.81323242188</ele>
        <time>2016-04-20T12:25:13.000Z</time>
      </trkpt>
      <trkpt lat="47.04241" lon="3.51534">
        <ele>304.74291992188</ele>
        <time>2016-04-20T12:25:16.000Z</time>
      </trkpt>
      <trkpt lat="47.04245" lon="3.51532">
        <ele>304.66259765625</ele>
        <time>2016-04-20T12:25:18.000Z</time>
      </trkpt>
      <trkpt lat="47.04248" lon="3.5153">
        <ele>304.57763671875</ele>
        <time>2016-04-20T12:25:21.000Z</time>
      </trkpt>
      <trkpt lat="47.04251" lon="3.51527">
        <ele>304.48193359375</ele>
        <time>2016-04-20T12:25:24.000Z</time>
      </trkpt>
      <trkpt lat="47.04254" lon="3.51525">
        <ele>304.37881469727</ele>
        <time>2016-04-20T12:25:27.000Z</time>
      </trkpt>
      <trkpt lat="47.04255" lon="3.51524">
        <ele>304.29718017578</ele>
        <time>2016-04-20T12:25:29.000Z</time>
      </trkpt>
      <trkpt lat="47.04258" lon="3.51522">
        <ele>304.21054077148</ele>
        <time>2016-04-20T12:25:32.000Z</time>
      </trkpt>
      <trkpt lat="47.04259" lon="3.5152">
        <ele>304.1178894043</ele>
        <time>2016-04-20T12:25:34.000Z</time>
      </trkpt>
      <trkpt lat="47.04262" lon="3.5152">
        <ele>304.04196166992</ele>
        <time>2016-04-20T12:25:36.000Z</time>
      </trkpt>
      <trkpt lat="47.04264" lon="3.51519">
        <ele>303.98394775391</ele>
        <time>2016-04-20T12:25:39.000Z</time>
      </trkpt>
      <trkpt lat="47.04266" lon="3.51518">
        <ele>303.92864990234</ele>
        <time>2016-04-20T12:25:42.000Z</time>
      </trkpt>
      <trkpt lat="47.04269" lon="3.51517">
        <ele>303.88955688477</ele>
        <time>2016-04-20T12:25:45.000Z</time>
      </trkpt>
      <trkpt lat="47.04272" lon="3.51517">
        <ele>303.86108398438</ele>
        <time>2016-04-20T12:25:49.000Z</time>
      </trkpt>
      <trkpt lat="47.04274" lon="3.51516">
        <ele>303.83151245117</ele>
        <time>2016-04-20T12:25:50.000Z</time>
      </trkpt>
      <trkpt lat="47.04277" lon="3.51515">
        <ele>303.80438232422</ele>
        <time>2016-04-20T12:25:52.000Z</time>
      </trkpt>
      <trkpt lat="47.0428" lon="3.51514">
        <ele>303.77890014648</ele>
        <time>2016-04-20T12:25:55.000Z</time>
      </trkpt>
      <trkpt lat="47.04281" lon="3.51513">
        <ele>303.75689697266</ele>
        <time>2016-04-20T12:25:57.000Z</time>
      </trkpt>
      <trkpt lat="47.04282" lon="3.51512">
        <ele>303.72958374023</ele>
        <time>2016-04-20T12:26:00.000Z</time>
      </trkpt>
      <trkpt lat="47.04284" lon="3.51511">
        <ele>303.70510864258</ele>
        <time>2016-04-20T12:26:03.000Z</time>
      </trkpt>
      <trkpt lat="47.04285" lon="3.5151">
        <ele>303.68490600586</ele>
        <time>2016-04-20T12:26:05.000Z</time>
      </trkpt>
      <trkpt lat="47.04289" lon="3.51509">
        <ele>303.66918945312</ele>
        <time>2016-04-20T12:26:08.000Z</time>
      </trkpt>
      <trkpt lat="47.04292" lon="3.51508">
        <ele>303.65487670898</ele>
        <time>2016-04-20T12:26:11.000Z</time>
      </trkpt>
      <trkpt lat="47.04295" lon="3.51507">
        <ele>303.64810180664</ele>
        <time>2016-04-20T12:26:13.000Z</time>
      </trkpt>
      <trkpt lat="47.04296" lon="3.51506">
        <ele>303.6455078125</ele>
        <time>2016-04-20T12:26:15.000Z</time>
      </trkpt>
      <trkpt lat="47.043" lon="3.51503">
        <ele>303.64205932617</ele>
        <time>2016-04-20T12:26:18.000Z</time>
      </trkpt>
      <trkpt lat="47.04302" lon="3.51501">
        <ele>303.64025878906</ele>
        <time>2016-04-20T12:26:20.000Z</time>
      </trkpt>
      <trkpt lat="47.04306" lon="3.51498">
        <ele>303.63922119141</ele>
        <time>2016-04-20T12:26:23.000Z</time>
      </trkpt>
      <trkpt lat="47.04308" lon="3.51496">
        <ele>303.6399230957</ele>
        <time>2016-04-20T12:26:25.000Z</time>
      </trkpt>
      <trkpt lat="47.0431" lon="3.51496">
        <ele>303.64312744141</ele>
        <time>2016-04-20T12:26:28.000Z</time>
      </trkpt>
      <trkpt lat="47.04311" lon="3.51495">
        <ele>303.64898681641</ele>
        <time>2016-04-20T12:26:30.000Z</time>
      </trkpt>
      <trkpt lat="47.04315" lon="3.51494">
        <ele>303.65924072266</ele>
        <time>2016-04-20T12:26:33.000Z</time>
      </trkpt>
      <trkpt lat="47.04318" lon="3.51492">
        <ele>303.67288208008</ele>
        <time>2016-04-20T12:26:36.000Z</time>
      </trkpt>
      <trkpt lat="47.0432" lon="3.5149">
        <ele>303.685546875</ele>
        <time>2016-04-20T12:26:39.000Z</time>
      </trkpt>
      <trkpt lat="47.04322" lon="3.51489">
        <ele>303.69482421875</ele>
        <time>2016-04-20T12:26:42.000Z</time>
      </trkpt>
      <trkpt lat="47.04324" lon="3.51486">
        <ele>303.70281982422</ele>
        <time>2016-04-20T12:26:44.000Z</time>
      </trkpt>
      <trkpt lat="47.04327" lon="3.51485">
        <ele>303.71136474609</ele>
        <time>2016-04-20T12:26:47.000Z</time>
      </trkpt>
      <trkpt lat="47.04329" lon="3.51484">
        <ele>303.72009277344</ele>
        <time>2016-04-20T12:26:50.000Z</time>
      </trkpt>
      <trkpt lat="47.04333" lon="3.51482">
        <ele>303.73428344727</ele>
        <time>2016-04-20T12:26:53.000Z</time>
      </trkpt>
      <trkpt lat="47.04337" lon="3.51479">
        <ele>303.74530029297</ele>
        <time>2016-04-20T12:26:56.000Z</time>
      </trkpt>
      <trkpt lat="47.04339" lon="3.51477">
        <ele>303.75357055664</ele>
        <time>2016-04-20T12:26:59.000Z</time>
      </trkpt>
      <trkpt lat="47.04341" lon="3.51475">
        <ele>303.75628662109</ele>
        <time>2016-04-20T12:27:02.000Z</time>
      </trkpt>
      <trkpt lat="47.04343" lon="3.51473">
        <ele>303.75531005859</ele>
        <time>2016-04-20T12:27:03.000Z</time>
      </trkpt>
      <trkpt lat="47.04345" lon="3.51471">
        <ele>303.75091552734</ele>
        <time>2016-04-20T12:27:06.000Z</time>
      </trkpt>
      <trkpt lat="47.04346" lon="3.5147">
        <ele>303.75250244141</ele>
        <time>2016-04-20T12:27:08.000Z</time>
      </trkpt>
      <trkpt lat="47.04349" lon="3.51468">
        <ele>303.76055908203</ele>
        <time>2016-04-20T12:27:10.000Z</time>
      </trkpt>
      <trkpt lat="47.04351" lon="3.51466">
        <ele>303.77496337891</ele>
        <time>2016-04-20T12:27:13.000Z</time>
      </trkpt>
      <trkpt lat="47.04354" lon="3.51465">
        <ele>303.79595947266</ele>
        <time>2016-04-20T12:27:15.000Z</time>
      </trkpt>
      <trkpt lat="47.04357" lon="3.51466">
        <ele>303.82266235352</ele>
        <time>2016-04-20T12:27:18.000Z</time>
      </trkpt>
      <trkpt lat="47.04359" lon="3.51465">
        <ele>303.8525390625</ele>
        <time>2016-04-20T12:27:20.000Z</time>
      </trkpt>
      <trkpt lat="47.0436" lon="3.51463">
        <ele>303.88558959961</ele>
        <time>2016-04-20T12:27:23.000Z</time>
      </trkpt>
      <trkpt lat="47.04362" lon="3.5146">
        <ele>303.92340087891</ele>
        <time>2016-04-20T12:27:26.000Z</time>
      </trkpt>
      <trkpt lat="47.04366" lon="3.51457">
        <ele>303.97210693359</ele>
        <time>2016-04-20T12:27:29.000Z</time>
      </trkpt>
      <trkpt lat="47.04369" lon="3.51454">
        <ele>304.03436279297</ele>
        <time>2016-04-20T12:27:31.000Z</time>
      </trkpt>
      <trkpt lat="47.04372" lon="3.51451">
        <ele>304.1149597168</ele>
        <time>2016-04-20T12:27:34.000Z</time>
      </trkpt>
      <trkpt lat="47.04376" lon="3.51449">
        <ele>304.21035766602</ele>
        <time>2016-04-20T12:27:36.000Z</time>
      </trkpt>
      <trkpt lat="47.04379" lon="3.51446">
        <ele>304.32516479492</ele>
        <time>2016-04-20T12:27:39.000Z</time>
      </trkpt>
      <trkpt lat="47.04381" lon="3.51444">
        <ele>304.43939208984</ele>
        <time>2016-04-20T12:27:41.000Z</time>
      </trkpt>
      <trkpt lat="47.04383" lon="3.51442">
        <ele>304.55816650391</ele>
        <time>2016-04-20T12:27:44.000Z</time>
      </trkpt>
      <trkpt lat="47.04384" lon="3.51442">
        <ele>304.66015625</ele>
        <time>2016-04-20T12:27:46.000Z</time>
      </trkpt>
      <trkpt lat="47.04386" lon="3.5144">
        <ele>304.75616455078</ele>
        <time>2016-04-20T12:27:48.000Z</time>
      </trkpt>
      <trkpt lat="47.04388" lon="3.51439">
        <ele>304.84527587891</ele>
        <time>2016-04-20T12:27:51.000Z</time>
      </trkpt>
      <trkpt lat="47.04391" lon="3.51435">
        <ele>304.95794677734</ele>
        <time>2016-04-20T12:27:54.000Z</time>
      </trkpt>
      <trkpt lat="47.04393" lon="3.51432">
        <ele>305.0774230957</ele>
        <time>2016-04-20T12:27:57.000Z</time>
      </trkpt>
      <trkpt lat="47.04395" lon="3.51429">
        <ele>305.22430419922</ele>
        <time>2016-04-20T12:28:00.000Z</time>
      </trkpt>
      <trkpt lat="47.04398" lon="3.51427">
        <ele>305.39303588867</ele>
        <time>2016-04-20T12:28:03.000Z</time>
      </trkpt>
      <trkpt lat="47.04401" lon="3.51425">
        <ele>305.57098388672</ele>
        <time>2016-04-20T12:28:05.000Z</time>
      </trkpt>
      <trkpt lat="47.04403" lon="3.51423">
        <ele>305.75299072266</ele>
        <time>2016-04-20T12:28:08.000Z</time>
      </trkpt>
      <trkpt lat="47.04406" lon="3.5142">
        <ele>305.94299316406</ele>
        <time>2016-04-20T12:28:12.000Z</time>
      </trkpt>
      <trkpt lat="47.04409" lon="3.51417">
        <ele>306.14862060547</ele>
        <time>2016-04-20T12:28:14.000Z</time>
      </trkpt>
      <trkpt lat="47.04411" lon="3.51415">
        <ele>306.33428955078</ele>
        <time>2016-04-20T12:28:16.000Z</time>
      </trkpt>
      <trkpt lat="47.04412" lon="3.51414">
        <ele>306.49609375</ele>
        <time>2016-04-20T12:28:19.000Z</time>
      </trkpt>
      <trkpt lat="47.04415" lon="3.5141">
        <ele>306.63555908203</ele>
        <time>2016-04-20T12:28:21.000Z</time>
      </trkpt>
      <trkpt lat="47.04417" lon="3.51407">
        <ele>306.74774169922</ele>
        <time>2016-04-20T12:28:25.000Z</time>
      </trkpt>
      <trkpt lat="47.04421" lon="3.51404">
        <ele>306.86245727539</ele>
        <time>2016-04-20T12:28:26.000Z</time>
      </trkpt>
      <trkpt lat="47.04425" lon="3.514">
        <ele>307.00552368164</ele>
        <time>2016-04-20T12:28:29.000Z</time>
      </trkpt>
      <trkpt lat="47.04428" lon="3.51398">
        <ele>307.18280029297</ele>
        <time>2016-04-20T12:28:32.000Z</time>
      </trkpt>
      <trkpt lat="47.0443" lon="3.51395">
        <ele>307.36364746094</ele>
        <time>2016-04-20T12:28:33.000Z</time>
      </trkpt>
      <trkpt lat="47.04433" lon="3.51393">
        <ele>307.57006835938</ele>
        <time>2016-04-20T12:28:35.000Z</time>
      </trkpt>
      <trkpt lat="47.04435" lon="3.51393">
        <ele>307.75970458984</ele>
        <time>2016-04-20T12:28:37.000Z</time>
      </trkpt>
      <trkpt lat="47.04438" lon="3.51391">
        <ele>307.93667602539</ele>
        <time>2016-04-20T12:28:40.000Z</time>
      </trkpt>
      <trkpt lat="47.04439" lon="3.5139">
        <ele>308.09301757812</ele>
        <time>2016-04-20T12:28:42.000Z</time>
      </trkpt>
      <trkpt lat="47.04441" lon="3.51387">
        <ele>308.25079345703</ele>
        <time>2016-04-20T12:28:45.000Z</time>
      </trkpt>
      <trkpt lat="47.04445" lon="3.51385">
        <ele>308.41561889648</ele>
        <time>2016-04-20T12:28:48.000Z</time>
      </trkpt>
      <trkpt lat="47.04446" lon="3.51382">
        <ele>308.57086181641</ele>
        <time>2016-04-20T12:28:51.000Z</time>
      </trkpt>
      <trkpt lat="47.04448" lon="3.51379">
        <ele>308.70617675781</ele>
        <time>2016-04-20T12:28:54.000Z</time>
      </trkpt>
      <trkpt lat="47.04451" lon="3.51376">
        <ele>308.85943603516</ele>
        <time>2016-04-20T12:28:57.000Z</time>
      </trkpt>
      <trkpt lat="47.04452" lon="3.51374">
        <ele>309.00839233398</ele>
        <time>2016-04-20T12:28:59.000Z</time>
      </trkpt>
      <trkpt lat="47.04454" lon="3.51372">
        <ele>309.12701416016</ele>
        <time>2016-04-20T12:29:02.000Z</time>
      </trkpt>
      <trkpt lat="47.04456" lon="3.5137">
        <ele>309.25561523438</ele>
        <time>2016-04-20T12:29:04.000Z</time>
      </trkpt>
      <trkpt lat="47.04457" lon="3.51369">
        <ele>309.39468383789</ele>
        <time>2016-04-20T12:29:06.000Z</time>
      </trkpt>
      <trkpt lat="47.04459" lon="3.51367">
        <ele>309.51760864258</ele>
        <time>2016-04-20T12:29:10.000Z</time>
      </trkpt>
      <trkpt lat="47.04461" lon="3.51368">
        <ele>309.64422607422</ele>
        <time>2016-04-20T12:29:15.000Z</time>
      </trkpt>
      <trkpt lat="47.04462" lon="3.51368">
        <ele>309.78067016602</ele>
        <time>2016-04-20T12:29:18.000Z</time>
      </trkpt>
      <trkpt lat="47.04466" lon="3.5137">
        <ele>309.94049072266</ele>
        <time>2016-04-20T12:29:22.000Z</time>
      </trkpt>
      <trkpt lat="47.04469" lon="3.51371">
        <ele>310.1217956543</ele>
        <time>2016-04-20T12:29:23.000Z</time>
      </trkpt>
      <trkpt lat="47.0447" lon="3.51373">
        <ele>310.30718994141</ele>
        <time>2016-04-20T12:29:25.000Z</time>
      </trkpt>
      <trkpt lat="47.04472" lon="3.51376">
        <ele>310.49359130859</ele>
        <time>2016-04-20T12:29:27.000Z</time>
      </trkpt>
      <trkpt lat="47.04476" lon="3.51378">
        <ele>310.71304321289</ele>
        <time>2016-04-20T12:29:30.000Z</time>
      </trkpt>
      <trkpt lat="47.04479" lon="3.51379">
        <ele>310.91741943359</ele>
        <time>2016-04-20T12:29:33.000Z</time>
      </trkpt>
      <trkpt lat="47.04481" lon="3.51379">
        <ele>311.11386108398</ele>
        <time>2016-04-20T12:29:37.000Z</time>
      </trkpt>
      <trkpt lat="47.04483" lon="3.51379">
        <ele>311.30776977539</ele>
        <time>2016-04-20T12:29:38.000Z</time>
      </trkpt>
      <trkpt lat="47.04485" lon="3.51379">
        <ele>311.49957275391</ele>
        <time>2016-04-20T12:29:41.000Z</time>
      </trkpt>
      <trkpt lat="47.04489" lon="3.5138">
        <ele>311.70211791992</ele>
        <time>2016-04-20T12:29:44.000Z</time>
      </trkpt>
      <trkpt lat="47.04491" lon="3.5138">
        <ele>311.89172363281</ele>
        <time>2016-04-20T12:29:46.000Z</time>
      </trkpt>
      <trkpt lat="47.04494" lon="3.51382">
        <ele>312.09390258789</ele>
        <time>2016-04-20T12:29:49.000Z</time>
      </trkpt>
      <trkpt lat="47.04497" lon="3.51383">
        <ele>312.30853271484</ele>
        <time>2016-04-20T12:29:52.000Z</time>
      </trkpt>
      <trkpt lat="47.04498" lon="3.51383">
        <ele>312.51666259766</ele>
        <time>2016-04-20T12:29:54.000Z</time>
      </trkpt>
      <trkpt lat="47.04499" lon="3.51384">
        <ele>312.66766357422</ele>
        <time>2016-04-20T12:29:57.000Z</time>
      </trkpt>
      <trkpt lat="47.04499" lon="3.51386">
        <ele>312.79351806641</ele>
        <time>2016-04-20T12:30:04.000Z</time>
      </trkpt>
      <trkpt lat="47.045" lon="3.51389">
        <ele>312.88125610352</ele>
        <time>2016-04-20T12:30:14.000Z</time>
      </trkpt>
      <trkpt lat="47.045" lon="3.5139">
        <ele>312.93377685547</ele>
        <time>2016-04-20T12:30:18.000Z</time>
      </trkpt>
      <trkpt lat="47.04501" lon="3.51392">
        <ele>312.97039794922</ele>
        <time>2016-04-20T12:30:23.000Z</time>
      </trkpt>
      <trkpt lat="47.04501" lon="3.51392">
        <ele>312.97039794922</ele>
        <time>2016-04-20T12:30:43.000Z</time>
      </trkpt>
      <trkpt lat="47.04501" lon="3.51394">
        <ele>312.99407958984</ele>
        <time>2016-04-20T12:31:03.000Z</time>
      </trkpt>
      <trkpt lat="47.04501" lon="3.51394">
        <ele>312.99407958984</ele>
        <time>2016-04-20T12:31:23.000Z</time>
      </trkpt>
      <trkpt lat="47.05164" lon="3.5291">
        <ele>282.36248779297</ele>
        <time>2016-04-20T12:59:20.000Z</time>
      </trkpt>
      <trkpt lat="47.05165" lon="3.52914">
        <ele>282.3056640625</ele>
        <time>2016-04-20T12:59:24.000Z</time>
      </trkpt>
      <trkpt lat="47.05166" lon="3.52917">
        <ele>282.2448425293</ele>
        <time>2016-04-20T12:59:27.000Z</time>
      </trkpt>
      <trkpt lat="47.05167" lon="3.52921">
        <ele>282.11001586914</ele>
        <time>2016-04-20T12:59:28.000Z</time>
      </trkpt>
      <trkpt lat="47.05169" lon="3.52924">
        <ele>281.93307495117</ele>
        <time>2016-04-20T12:59:29.000Z</time>
      </trkpt>
      <trkpt lat="47.0517" lon="3.52928">
        <ele>281.60028076172</ele>
        <time>2016-04-20T12:59:30.000Z</time>
      </trkpt>
      <trkpt lat="47.05171" lon="3.52931">
        <ele>281.2294921875</ele>
        <time>2016-04-20T12:59:30.000Z</time>
      </trkpt>
      <trkpt lat="47.05173" lon="3.52937">
        <ele>280.78170776367</ele>
        <time>2016-04-20T12:59:31.000Z</time>
      </trkpt>
      <trkpt lat="47.05173" lon="3.52941">
        <ele>280.37390136719</ele>
        <time>2016-04-20T12:59:32.000Z</time>
      </trkpt>
      <trkpt lat="47.05174" lon="3.52945">
        <ele>279.99331665039</ele>
        <time>2016-04-20T12:59:35.000Z</time>
      </trkpt>
      <trkpt lat="47.05174" lon="3.52947">
        <ele>279.68572998047</ele>
        <time>2016-04-20T12:59:38.000Z</time>
      </trkpt>
      <trkpt lat="47.05174" lon="3.52952">
        <ele>279.40744018555</ele>
        <time>2016-04-20T12:59:40.000Z</time>
      </trkpt>
      <trkpt lat="47.05174" lon="3.52956">
        <ele>279.2043762207</ele>
        <time>2016-04-20T12:59:43.000Z</time>
      </trkpt>
      <trkpt lat="47.05174" lon="3.52962">
        <ele>279.00253295898</ele>
        <time>2016-04-20T12:59:46.000Z</time>
      </trkpt>
      <trkpt lat="47.05174" lon="3.52967">
        <ele>278.859375</ele>
        <time>2016-04-20T12:59:48.000Z</time>
      </trkpt>
      <trkpt lat="47.05173" lon="3.52975">
        <ele>278.74456787109</ele>
        <time>2016-04-20T12:59:50.000Z</time>
      </trkpt>
      <trkpt lat="47.05173" lon="3.52979">
        <ele>278.63485717773</ele>
        <time>2016-04-20T12:59:57.000Z</time>
      </trkpt>
      <trkpt lat="47.05173" lon="3.52981">
        <ele>278.51763916016</ele>
        <time>2016-04-20T12:59:59.000Z</time>
      </trkpt>
      <trkpt lat="47.05173" lon="3.52988">
        <ele>278.39785766602</ele>
        <time>2016-04-20T13:00:00.000Z</time>
      </trkpt>
      <trkpt lat="47.05173" lon="3.52994">
        <ele>278.24658203125</ele>
        <time>2016-04-20T13:00:02.000Z</time>
      </trkpt>
      <trkpt lat="47.05172" lon="3.52999">
        <ele>278.08221435547</ele>
        <time>2016-04-20T13:00:05.000Z</time>
      </trkpt>
      <trkpt lat="47.05172" lon="3.53002">
        <ele>277.93936157227</ele>
        <time>2016-04-20T13:00:08.000Z</time>
      </trkpt>
      <trkpt lat="47.05173" lon="3.53007">
        <ele>277.77166748047</ele>
        <time>2016-04-20T13:00:10.000Z</time>
      </trkpt>
      <trkpt lat="47.05173" lon="3.53011">
        <ele>277.59875488281</ele>
        <time>2016-04-20T13:00:13.000Z</time>
      </trkpt>
      <trkpt lat="47.05174" lon="3.53017">
        <ele>277.38861083984</ele>
        <time>2016-04-20T13:00:16.000Z</time>
      </trkpt>
      <trkpt lat="47.05175" lon="3.53024">
        <ele>277.09783935547</ele>
        <time>2016-04-20T13:00:19.000Z</time>
      </trkpt>
      <trkpt lat="47.05176" lon="3.53028">
        <ele>276.73770141602</ele>
        <time>2016-04-20T13:00:30.000Z</time>
      </trkpt>
      <trkpt lat="47.05177" lon="3.53034">
        <ele>276.35467529297</ele>
        <time>2016-04-20T13:00:32.000Z</time>
      </trkpt>
      <trkpt lat="47.05178" lon="3.53038">
        <ele>275.96453857422</ele>
        <time>2016-04-20T13:00:32.000Z</time>
      </trkpt>
      <trkpt lat="47.0518" lon="3.53043">
        <ele>275.57928466797</ele>
        <time>2016-04-20T13:00:33.000Z</time>
      </trkpt>
      <trkpt lat="47.05181" lon="3.53048">
        <ele>275.21417236328</ele>
        <time>2016-04-20T13:00:33.000Z</time>
      </trkpt>
      <trkpt lat="47.05182" lon="3.53051">
        <ele>274.88146972656</ele>
        <time>2016-04-20T13:00:35.000Z</time>
      </trkpt>
      <trkpt lat="47.05182" lon="3.53056">
        <ele>274.58905029297</ele>
        <time>2016-04-20T13:00:39.000Z</time>
      </trkpt>
      <trkpt lat="47.05183" lon="3.53058">
        <ele>274.30746459961</ele>
        <time>2016-04-20T13:00:41.000Z</time>
      </trkpt>
      <trkpt lat="47.05185" lon="3.5306">
        <ele>274.05505371094</ele>
        <time>2016-04-20T13:00:43.000Z</time>
      </trkpt>
      <trkpt lat="47.05185" lon="3.53062">
        <ele>273.86294555664</ele>
        <time>2016-04-20T13:00:45.000Z</time>
      </trkpt>
      <trkpt lat="47.05188" lon="3.53066">
        <ele>273.61810302734</ele>
        <time>2016-04-20T13:00:51.000Z</time>
      </trkpt>
      <trkpt lat="47.05189" lon="3.5307">
        <ele>273.36831665039</ele>
        <time>2016-04-20T13:00:52.000Z</time>
      </trkpt>
      <trkpt lat="47.05191" lon="3.53075">
        <ele>273.09637451172</ele>
        <time>2016-04-20T13:00:54.000Z</time>
      </trkpt>
      <trkpt lat="47.05192" lon="3.5308">
        <ele>272.83514404297</ele>
        <time>2016-04-20T13:00:55.000Z</time>
      </trkpt>
      <trkpt lat="47.05194" lon="3.53087">
        <ele>272.51184082031</ele>
        <time>2016-04-20T13:00:59.000Z</time>
      </trkpt>
      <trkpt lat="47.05195" lon="3.53091">
        <ele>272.22634887695</ele>
        <time>2016-04-20T13:01:01.000Z</time>
      </trkpt>
      <trkpt lat="47.05196" lon="3.53095">
        <ele>271.9362487793</ele>
        <time>2016-04-20T13:01:02.000Z</time>
      </trkpt>
      <trkpt lat="47.05199" lon="3.531">
        <ele>271.63641357422</ele>
        <time>2016-04-20T13:01:06.000Z</time>
      </trkpt>
      <trkpt lat="47.052" lon="3.53104">
        <ele>271.3112487793</ele>
        <time>2016-04-20T13:01:09.000Z</time>
      </trkpt>
      <trkpt lat="47.05201" lon="3.53108">
        <ele>271.01675415039</ele>
        <time>2016-04-20T13:01:10.000Z</time>
      </trkpt>
      <trkpt lat="47.05202" lon="3.53112">
        <ele>270.73974609375</ele>
        <time>2016-04-20T13:01:12.000Z</time>
      </trkpt>
      <trkpt lat="47.05203" lon="3.53115">
        <ele>270.4755859375</ele>
        <time>2016-04-20T13:01:14.000Z</time>
      </trkpt>
      <trkpt lat="47.05204" lon="3.53121">
        <ele>270.23876953125</ele>
        <time>2016-04-20T13:01:17.000Z</time>
      </trkpt>
      <trkpt lat="47.05205" lon="3.53125">
        <ele>270.01992797852</ele>
        <time>2016-04-20T13:01:21.000Z</time>
      </trkpt>
      <trkpt lat="47.05205" lon="3.53129">
        <ele>269.81936645508</ele>
        <time>2016-04-20T13:01:23.000Z</time>
      </trkpt>
      <trkpt lat="47.05206" lon="3.53132">
        <ele>269.61288452148</ele>
        <time>2016-04-20T13:01:24.000Z</time>
      </trkpt>
      <trkpt lat="47.05207" lon="3.53136">
        <ele>269.41546630859</ele>
        <time>2016-04-20T13:01:26.000Z</time>
      </trkpt>
      <trkpt lat="47.05208" lon="3.5314">
        <ele>269.22509765625</ele>
        <time>2016-04-20T13:01:29.000Z</time>
      </trkpt>
      <trkpt lat="47.05209" lon="3.53142">
        <ele>269.04824829102</ele>
        <time>2016-04-20T13:01:32.000Z</time>
      </trkpt>
      <trkpt lat="47.05209" lon="3.53144">
        <ele>268.88922119141</ele>
        <time>2016-04-20T13:01:40.000Z</time>
      </trkpt>
      <trkpt lat="47.05209" lon="3.53149">
        <ele>268.74081420898</ele>
        <time>2016-04-20T13:01:41.000Z</time>
      </trkpt>
      <trkpt lat="47.0521" lon="3.53156">
        <ele>268.56591796875</ele>
        <time>2016-04-20T13:01:45.000Z</time>
      </trkpt>
      <trkpt lat="47.05211" lon="3.5316">
        <ele>268.40377807617</ele>
        <time>2016-04-20T13:01:46.000Z</time>
      </trkpt>
      <trkpt lat="47.05211" lon="3.53162">
        <ele>268.24725341797</ele>
        <time>2016-04-20T13:01:48.000Z</time>
      </trkpt>
      <trkpt lat="47.05212" lon="3.53168">
        <ele>268.05923461914</ele>
        <time>2016-04-20T13:01:51.000Z</time>
      </trkpt>
      <trkpt lat="47.05213" lon="3.53172">
        <ele>267.88555908203</ele>
        <time>2016-04-20T13:01:54.000Z</time>
      </trkpt>
      <trkpt lat="47.05214" lon="3.53179">
        <ele>267.74499511719</ele>
        <time>2016-04-20T13:01:57.000Z</time>
      </trkpt>
      <trkpt lat="47.05214" lon="3.53184">
        <ele>267.62155151367</ele>
        <time>2016-04-20T13:02:01.000Z</time>
      </trkpt>
      <trkpt lat="47.05215" lon="3.53188">
        <ele>267.50927734375</ele>
        <time>2016-04-20T13:02:02.000Z</time>
      </trkpt>
      <trkpt lat="47.05215" lon="3.53194">
        <ele>267.42218017578</ele>
        <time>2016-04-20T13:02:05.000Z</time>
      </trkpt>
      <trkpt lat="47.05216" lon="3.53198">
        <ele>267.34808349609</ele>
        <time>2016-04-20T13:02:07.000Z</time>
      </trkpt>
      <trkpt lat="47.05216" lon="3.53202">
        <ele>267.29049682617</ele>
        <time>2016-04-20T13:02:09.000Z</time>
      </trkpt>
      <trkpt lat="47.05216" lon="3.53207">
        <ele>267.236328125</ele>
        <time>2016-04-20T13:02:12.000Z</time>
      </trkpt>
      <trkpt lat="47.05217" lon="3.53211">
        <ele>267.18365478516</ele>
        <time>2016-04-20T13:02:14.000Z</time>
      </trkpt>
      <trkpt lat="47.05217" lon="3.53213">
        <ele>267.14279174805</ele>
        <time>2016-04-20T13:02:16.000Z</time>
      </trkpt>
      <trkpt lat="47.05218" lon="3.53217">
        <ele>267.09243774414</ele>
        <time>2016-04-20T13:02:19.000Z</time>
      </trkpt>
      <trkpt lat="47.0522" lon="3.53222">
        <ele>267.02908325195</ele>
        <time>2016-04-20T13:02:22.000Z</time>
      </trkpt>
      <trkpt lat="47.05222" lon="3.53228">
        <ele>266.95758056641</ele>
        <time>2016-04-20T13:02:25.000Z</time>
      </trkpt>
      <trkpt lat="47.05222" lon="3.53231">
        <ele>266.88754272461</ele>
        <time>2016-04-20T13:02:27.000Z</time>
      </trkpt>
      <trkpt lat="47.05223" lon="3.53237">
        <ele>266.81265258789</ele>
        <time>2016-04-20T13:02:30.000Z</time>
      </trkpt>
      <trkpt lat="47.05224" lon="3.53243">
        <ele>266.74572753906</ele>
        <time>2016-04-20T13:02:33.000Z</time>
      </trkpt>
      <trkpt lat="47.05226" lon="3.53247">
        <ele>266.68719482422</ele>
        <time>2016-04-20T13:02:36.000Z</time>
      </trkpt>
      <trkpt lat="47.05228" lon="3.53253">
        <ele>266.61224365234</ele>
        <time>2016-04-20T13:02:39.000Z</time>
      </trkpt>
      <trkpt lat="47.05229" lon="3.53257">
        <ele>266.50369262695</ele>
        <time>2016-04-20T13:02:41.000Z</time>
      </trkpt>
      <trkpt lat="47.05231" lon="3.53262">
        <ele>266.35568237305</ele>
        <time>2016-04-20T13:02:44.000Z</time>
      </trkpt>
      <trkpt lat="47.05231" lon="3.53266">
        <ele>266.18768310547</ele>
        <time>2016-04-20T13:02:46.000Z</time>
      </trkpt>
      <trkpt lat="47.05233" lon="3.53271">
        <ele>265.97882080078</ele>
        <time>2016-04-20T13:02:49.000Z</time>
      </trkpt>
      <trkpt lat="47.05235" lon="3.53276">
        <ele>265.76171875</ele>
        <time>2016-04-20T13:02:52.000Z</time>
      </trkpt>
      <trkpt lat="47.05236" lon="3.53279">
        <ele>265.56182861328</ele>
        <time>2016-04-20T13:02:54.000Z</time>
      </trkpt>
      <trkpt lat="47.05238" lon="3.53284">
        <ele>265.36538696289</ele>
        <time>2016-04-20T13:02:57.000Z</time>
      </trkpt>
      <trkpt lat="47.05239" lon="3.53286">
        <ele>265.17523193359</ele>
        <time>2016-04-20T13:02:59.000Z</time>
      </trkpt>
      <trkpt lat="47.0524" lon="3.5329">
        <ele>265.00457763672</ele>
        <time>2016-04-20T13:03:01.000Z</time>
      </trkpt>
      <trkpt lat="47.05242" lon="3.53294">
        <ele>264.83972167969</ele>
        <time>2016-04-20T13:03:04.000Z</time>
      </trkpt>
      <trkpt lat="47.05243" lon="3.533">
        <ele>264.6513671875</ele>
        <time>2016-04-20T13:03:06.000Z</time>
      </trkpt>
      <trkpt lat="47.05245" lon="3.53306">
        <ele>264.46615600586</ele>
        <time>2016-04-20T13:03:09.000Z</time>
      </trkpt>
      <trkpt lat="47.05246" lon="3.5331">
        <ele>264.26794433594</ele>
        <time>2016-04-20T13:03:12.000Z</time>
      </trkpt>
      <trkpt lat="47.05247" lon="3.53314">
        <ele>264.07333374023</ele>
        <time>2016-04-20T13:03:15.000Z</time>
      </trkpt>
      <trkpt lat="47.0525" lon="3.5332">
        <ele>263.86929321289</ele>
        <time>2016-04-20T13:03:18.000Z</time>
      </trkpt>
      <trkpt lat="47.05251" lon="3.53324">
        <ele>263.67584228516</ele>
        <time>2016-04-20T13:03:22.000Z</time>
      </trkpt>
      <trkpt lat="47.05252" lon="3.5333">
        <ele>263.48095703125</ele>
        <time>2016-04-20T13:03:23.000Z</time>
      </trkpt>
      <trkpt lat="47.05254" lon="3.53335">
        <ele>263.28143310547</ele>
        <time>2016-04-20T13:03:26.000Z</time>
      </trkpt>
      <trkpt lat="47.05255" lon="3.53339">
        <ele>263.08767700195</ele>
        <time>2016-04-20T13:03:27.000Z</time>
      </trkpt>
      <trkpt lat="47.05258" lon="3.53345">
        <ele>262.89923095703</ele>
        <time>2016-04-20T13:03:31.000Z</time>
      </trkpt>
      <trkpt lat="47.0526" lon="3.5335">
        <ele>262.7194519043</ele>
        <time>2016-04-20T13:03:33.000Z</time>
      </trkpt>
      <trkpt lat="47.05261" lon="3.53354">
        <ele>262.56436157227</ele>
        <time>2016-04-20T13:03:37.000Z</time>
      </trkpt>
      <trkpt lat="47.05263" lon="3.5336">
        <ele>262.41137695312</ele>
        <time>2016-04-20T13:03:39.000Z</time>
      </trkpt>
      <trkpt lat="47.05264" lon="3.53364">
        <ele>262.25820922852</ele>
        <time>2016-04-20T13:03:42.000Z</time>
      </trkpt>
      <trkpt lat="47.05266" lon="3.53369">
        <ele>262.11880493164</ele>
        <time>2016-04-20T13:03:45.000Z</time>
      </trkpt>
      <trkpt lat="47.05267" lon="3.53372">
        <ele>261.99066162109</ele>
        <time>2016-04-20T13:03:47.000Z</time>
      </trkpt>
      <trkpt lat="47.05269" lon="3.53377">
        <ele>261.85504150391</ele>
        <time>2016-04-20T13:03:50.000Z</time>
      </trkpt>
      <trkpt lat="47.0527" lon="3.53383">
        <ele>261.73123168945</ele>
        <time>2016-04-20T13:03:53.000Z</time>
      </trkpt>
      <trkpt lat="47.05272" lon="3.53386">
        <ele>261.61154174805</ele>
        <time>2016-04-20T13:03:55.000Z</time>
      </trkpt>
      <trkpt lat="47.05273" lon="3.5339">
        <ele>261.50015258789</ele>
        <time>2016-04-20T13:03:58.000Z</time>
      </trkpt>
      <trkpt lat="47.05275" lon="3.53394">
        <ele>261.38528442383</ele>
        <time>2016-04-20T13:04:01.000Z</time>
      </trkpt>
      <trkpt lat="47.05276" lon="3.53396">
        <ele>261.28262329102</ele>
        <time>2016-04-20T13:04:03.000Z</time>
      </trkpt>
      <trkpt lat="47.05278" lon="3.53401">
        <ele>261.18405151367</ele>
        <time>2016-04-20T13:04:06.000Z</time>
      </trkpt>
      <trkpt lat="47.05279" lon="3.53405">
        <ele>261.08416748047</ele>
        <time>2016-04-20T13:04:09.000Z</time>
      </trkpt>
      <trkpt lat="47.0528" lon="3.53409">
        <ele>260.98574829102</ele>
        <time>2016-04-20T13:04:13.000Z</time>
      </trkpt>
      <trkpt lat="47.05281" lon="3.53415">
        <ele>260.88311767578</ele>
        <time>2016-04-20T13:04:15.000Z</time>
      </trkpt>
      <trkpt lat="47.05282" lon="3.5342">
        <ele>260.77597045898</ele>
        <time>2016-04-20T13:04:19.000Z</time>
      </trkpt>
      <trkpt lat="47.05282" lon="3.53421">
        <ele>260.68475341797</ele>
        <time>2016-04-20T13:04:22.000Z</time>
      </trkpt>
      <trkpt lat="47.05283" lon="3.53423">
        <ele>260.60345458984</ele>
        <time>2016-04-20T13:04:31.000Z</time>
      </trkpt>
      <trkpt lat="47.05284" lon="3.53426">
        <ele>260.52639770508</ele>
        <time>2016-04-20T13:04:32.000Z</time>
      </trkpt>
      <trkpt lat="47.05286" lon="3.53432">
        <ele>260.45147705078</ele>
        <time>2016-04-20T13:04:36.000Z</time>
      </trkpt>
      <trkpt lat="47.05287" lon="3.53434">
        <ele>260.38665771484</ele>
        <time>2016-04-20T13:04:37.000Z</time>
      </trkpt>
      <trkpt lat="47.05288" lon="3.53437">
        <ele>260.31378173828</ele>
        <time>2016-04-20T13:04:39.000Z</time>
      </trkpt>
      <trkpt lat="47.0529" lon="3.53442">
        <ele>260.2294921875</ele>
        <time>2016-04-20T13:04:43.000Z</time>
      </trkpt>
      <trkpt lat="47.05291" lon="3.53446">
        <ele>260.14486694336</ele>
        <time>2016-04-20T13:04:44.000Z</time>
      </trkpt>
      <trkpt lat="47.05293" lon="3.53449">
        <ele>260.06744384766</ele>
        <time>2016-04-20T13:04:47.000Z</time>
      </trkpt>
      <trkpt lat="47.05294" lon="3.53453">
        <ele>259.98666381836</ele>
        <time>2016-04-20T13:04:51.000Z</time>
      </trkpt>
      <trkpt lat="47.05295" lon="3.53457">
        <ele>259.90570068359</ele>
        <time>2016-04-20T13:04:52.000Z</time>
      </trkpt>
      <trkpt lat="47.05297" lon="3.53461">
        <ele>259.828125</ele>
        <time>2016-04-20T13:04:55.000Z</time>
      </trkpt>
      <trkpt lat="47.05299" lon="3.53467">
        <ele>259.74365234375</ele>
        <time>2016-04-20T13:04:58.000Z</time>
      </trkpt>
      <trkpt lat="47.05301" lon="3.53472">
        <ele>259.6575012207</ele>
        <time>2016-04-20T13:05:01.000Z</time>
      </trkpt>
      <trkpt lat="47.05302" lon="3.53476">
        <ele>259.57104492188</ele>
        <time>2016-04-20T13:05:03.000Z</time>
      </trkpt>
      <trkpt lat="47.05304" lon="3.5348">
        <ele>259.48348999023</ele>
        <time>2016-04-20T13:05:06.000Z</time>
      </trkpt>
      <trkpt lat="47.05304" lon="3.53483">
        <ele>259.40509033203</ele>
        <time>2016-04-20T13:05:09.000Z</time>
      </trkpt>
      <trkpt lat="47.05305" lon="3.53486">
        <ele>259.33743286133</ele>
        <time>2016-04-20T13:05:10.000Z</time>
      </trkpt>
      <trkpt lat="47.05305" lon="3.5349">
        <ele>259.27557373047</ele>
        <time>2016-04-20T13:05:12.000Z</time>
      </trkpt>
      <trkpt lat="47.05307" lon="3.53495">
        <ele>259.21319580078</ele>
        <time>2016-04-20T13:05:15.000Z</time>
      </trkpt>
      <trkpt lat="47.05309" lon="3.53499">
        <ele>259.15264892578</ele>
        <time>2016-04-20T13:05:18.000Z</time>
      </trkpt>
      <trkpt lat="47.05311" lon="3.53503">
        <ele>259.07379150391</ele>
        <time>2016-04-20T13:05:21.000Z</time>
      </trkpt>
      <trkpt lat="47.05312" lon="3.53508">
        <ele>258.96112060547</ele>
        <time>2016-04-20T13:05:24.000Z</time>
      </trkpt>
      <trkpt lat="47.05313" lon="3.53512">
        <ele>258.83169555664</ele>
        <time>2016-04-20T13:05:27.000Z</time>
      </trkpt>
      <trkpt lat="47.05314" lon="3.53516">
        <ele>258.6826171875</ele>
        <time>2016-04-20T13:05:29.000Z</time>
      </trkpt>
      <trkpt lat="47.05314" lon="3.53518">
        <ele>258.52981567383</ele>
        <time>2016-04-20T13:05:31.000Z</time>
      </trkpt>
      <trkpt lat="47.05315" lon="3.53519">
        <ele>258.3923034668</ele>
        <time>2016-04-20T13:05:44.000Z</time>
      </trkpt>
      <trkpt lat="47.05317" lon="3.53525">
        <ele>258.24780273438</ele>
        <time>2016-04-20T13:05:46.000Z</time>
      </trkpt>
      <trkpt lat="47.05318" lon="3.53528">
        <ele>258.10198974609</ele>
        <time>2016-04-20T13:05:48.000Z</time>
      </trkpt>
      <trkpt lat="47.05319" lon="3.53531">
        <ele>257.96112060547</ele>
        <time>2016-04-20T13:05:50.000Z</time>
      </trkpt>
      <trkpt lat="47.05322" lon="3.53539">
        <ele>257.76483154297</ele>
        <time>2016-04-20T13:05:53.000Z</time>
      </trkpt>
      <trkpt lat="47.05323" lon="3.53544">
        <ele>257.5325012207</ele>
        <time>2016-04-20T13:05:56.000Z</time>
      </trkpt>
      <trkpt lat="47.05325" lon="3.53549">
        <ele>257.30368041992</ele>
        <time>2016-04-20T13:05:59.000Z</time>
      </trkpt>
      <trkpt lat="47.05326" lon="3.53554">
        <ele>257.052734375</ele>
        <time>2016-04-20T13:06:02.000Z</time>
      </trkpt>
      <trkpt lat="47.05327" lon="3.5356">
        <ele>256.77532958984</ele>
        <time>2016-04-20T13:06:05.000Z</time>
      </trkpt>
      <trkpt lat="47.05328" lon="3.53566">
        <ele>256.5090637207</ele>
        <time>2016-04-20T13:06:08.000Z</time>
      </trkpt>
      <trkpt lat="47.05331" lon="3.53572">
        <ele>256.22332763672</ele>
        <time>2016-04-20T13:06:11.000Z</time>
      </trkpt>
      <trkpt lat="47.05333" lon="3.53578">
        <ele>255.92268371582</ele>
        <time>2016-04-20T13:06:14.000Z</time>
      </trkpt>
      <trkpt lat="47.05334" lon="3.53582">
        <ele>255.62829589844</ele>
        <time>2016-04-20T13:06:18.000Z</time>
      </trkpt>
      <trkpt lat="47.05338" lon="3.53587">
        <ele>255.3486328125</ele>
        <time>2016-04-20T13:06:21.000Z</time>
      </trkpt>
      <trkpt lat="47.05338" lon="3.5359">
        <ele>255.11801147461</ele>
        <time>2016-04-20T13:06:23.000Z</time>
      </trkpt>
      <trkpt lat="47.05339" lon="3.53595">
        <ele>254.92826843262</ele>
        <time>2016-04-20T13:06:26.000Z</time>
      </trkpt>
      <trkpt lat="47.05341" lon="3.536">
        <ele>254.77445983887</ele>
        <time>2016-04-20T13:06:29.000Z</time>
      </trkpt>
      <trkpt lat="47.05342" lon="3.53603">
        <ele>254.65043640137</ele>
        <time>2016-04-20T13:06:30.000Z</time>
      </trkpt>
      <trkpt lat="47.05342" lon="3.53608">
        <ele>254.54409790039</ele>
        <time>2016-04-20T13:06:33.000Z</time>
      </trkpt>
      <trkpt lat="47.05344" lon="3.53612">
        <ele>254.43124389648</ele>
        <time>2016-04-20T13:06:36.000Z</time>
      </trkpt>
      <trkpt lat="47.05344" lon="3.53617">
        <ele>254.32536315918</ele>
        <time>2016-04-20T13:06:38.000Z</time>
      </trkpt>
      <trkpt lat="47.05347" lon="3.53622">
        <ele>254.21780395508</ele>
        <time>2016-04-20T13:06:41.000Z</time>
      </trkpt>
      <trkpt lat="47.05349" lon="3.53629">
        <ele>254.09481811523</ele>
        <time>2016-04-20T13:06:45.000Z</time>
      </trkpt>
      <trkpt lat="47.0535" lon="3.53632">
        <ele>253.97860717773</ele>
        <time>2016-04-20T13:06:46.000Z</time>
      </trkpt>
      <trkpt lat="47.05352" lon="3.53637">
        <ele>253.86140441895</ele>
        <time>2016-04-20T13:06:48.000Z</time>
      </trkpt>
      <trkpt lat="47.05355" lon="3.53643">
        <ele>253.73735046387</ele>
        <time>2016-04-20T13:06:51.000Z</time>
      </trkpt>
      <trkpt lat="47.05356" lon="3.53646">
        <ele>253.62808227539</ele>
        <time>2016-04-20T13:06:53.000Z</time>
      </trkpt>
      <trkpt lat="47.05358" lon="3.53649">
        <ele>253.53482055664</ele>
        <time>2016-04-20T13:06:57.000Z</time>
      </trkpt>
      <trkpt lat="47.05359" lon="3.5365">
        <ele>253.45663452148</ele>
        <time>2016-04-20T13:07:00.000Z</time>
      </trkpt>
      <trkpt lat="47.05359" lon="3.53653">
        <ele>253.38619995117</ele>
        <time>2016-04-20T13:07:09.000Z</time>
      </trkpt>
      <trkpt lat="47.05361" lon="3.5366">
        <ele>253.31069946289</ele>
        <time>2016-04-20T13:07:12.000Z</time>
      </trkpt>
      <trkpt lat="47.05362" lon="3.53665">
        <ele>253.22964477539</ele>
        <time>2016-04-20T13:07:14.000Z</time>
      </trkpt>
      <trkpt lat="47.05363" lon="3.53669">
        <ele>253.13980102539</ele>
        <time>2016-04-20T13:07:17.000Z</time>
      </trkpt>
      <trkpt lat="47.05364" lon="3.53671">
        <ele>253.03897094727</ele>
        <time>2016-04-20T13:07:18.000Z</time>
      </trkpt>
      <trkpt lat="47.05365" lon="3.53674">
        <ele>252.93362426758</ele>
        <time>2016-04-20T13:07:21.000Z</time>
      </trkpt>
      <trkpt lat="47.05366" lon="3.53677">
        <ele>252.83972167969</ele>
        <time>2016-04-20T13:07:23.000Z</time>
      </trkpt>
      <trkpt lat="47.05368" lon="3.5368">
        <ele>252.74014282227</ele>
        <time>2016-04-20T13:07:26.000Z</time>
      </trkpt>
      <trkpt lat="47.05369" lon="3.53683">
        <ele>252.64370727539</ele>
        <time>2016-04-20T13:07:28.000Z</time>
      </trkpt>
      <trkpt lat="47.05371" lon="3.53687">
        <ele>252.53305053711</ele>
        <time>2016-04-20T13:07:29.000Z</time>
      </trkpt>
      <trkpt lat="47.05372" lon="3.5369">
        <ele>252.41909790039</ele>
        <time>2016-04-20T13:07:32.000Z</time>
      </trkpt>
      <trkpt lat="47.05374" lon="3.53694">
        <ele>252.29499816895</ele>
        <time>2016-04-20T13:07:33.000Z</time>
      </trkpt>
      <trkpt lat="47.05376" lon="3.53698">
        <ele>252.162109375</ele>
        <time>2016-04-20T13:07:35.000Z</time>
      </trkpt>
      <trkpt lat="47.05379" lon="3.53704">
        <ele>252.00247192383</ele>
        <time>2016-04-20T13:07:38.000Z</time>
      </trkpt>
      <trkpt lat="47.05381" lon="3.53708">
        <ele>251.83120727539</ele>
        <time>2016-04-20T13:07:41.000Z</time>
      </trkpt>
      <trkpt lat="47.05382" lon="3.53712">
        <ele>251.64810180664</ele>
        <time>2016-04-20T13:07:44.000Z</time>
      </trkpt>
      <trkpt lat="47.05383" lon="3.53714">
        <ele>251.4741973877</ele>
        <time>2016-04-20T13:07:46.000Z</time>
      </trkpt>
      <trkpt lat="47.05385" lon="3.53718">
        <ele>251.30276489258</ele>
        <time>2016-04-20T13:07:49.000Z</time>
      </trkpt>
      <trkpt lat="47.05386" lon="3.5372">
        <ele>251.15827941895</ele>
        <time>2016-04-20T13:07:51.000Z</time>
      </trkpt>
      <trkpt lat="47.05388" lon="3.53723">
        <ele>251.02456665039</ele>
        <time>2016-04-20T13:07:53.000Z</time>
      </trkpt>
      <trkpt lat="47.05391" lon="3.53726">
        <ele>250.8874206543</ele>
        <time>2016-04-20T13:07:55.000Z</time>
      </trkpt>
      <trkpt lat="47.05392" lon="3.5373">
        <ele>250.73840332031</ele>
        <time>2016-04-20T13:07:57.000Z</time>
      </trkpt>
      <trkpt lat="47.05396" lon="3.53734">
        <ele>250.5710144043</ele>
        <time>2016-04-20T13:08:00.000Z</time>
      </trkpt>
      <trkpt lat="47.05398" lon="3.53739">
        <ele>250.36836242676</ele>
        <time>2016-04-20T13:08:03.000Z</time>
      </trkpt>
      <trkpt lat="47.05402" lon="3.53744">
        <ele>250.13967895508</ele>
        <time>2016-04-20T13:08:18.000Z</time>
      </trkpt>
      <trkpt lat="47.05404" lon="3.53747">
        <ele>249.91423034668</ele>
        <time>2016-04-20T13:08:18.000Z</time>
      </trkpt>
      <trkpt lat="47.05405" lon="3.53749">
        <ele>249.69132995605</ele>
        <time>2016-04-20T13:08:20.000Z</time>
      </trkpt>
      <trkpt lat="47.05408" lon="3.53755">
        <ele>249.46479797363</ele>
        <time>2016-04-20T13:08:20.000Z</time>
      </trkpt>
      <trkpt lat="47.0541" lon="3.53758">
        <ele>249.2624206543</ele>
        <time>2016-04-20T13:08:21.000Z</time>
      </trkpt>
      <trkpt lat="47.05411" lon="3.53758">
        <ele>249.10322570801</ele>
        <time>2016-04-20T13:08:22.000Z</time>
      </trkpt>
      <trkpt lat="47.05411" lon="3.53761">
        <ele>248.95690917969</ele>
        <time>2016-04-20T13:08:25.000Z</time>
      </trkpt>
      <trkpt lat="47.05413" lon="3.53764">
        <ele>248.81509399414</ele>
        <time>2016-04-20T13:08:27.000Z</time>
      </trkpt>
      <trkpt lat="47.05415" lon="3.53766">
        <ele>248.6982421875</ele>
        <time>2016-04-20T13:08:30.000Z</time>
      </trkpt>
      <trkpt lat="47.05418" lon="3.53768">
        <ele>248.59403991699</ele>
        <time>2016-04-20T13:08:32.000Z</time>
      </trkpt>
      <trkpt lat="47.05421" lon="3.53771">
        <ele>248.47526550293</ele>
        <time>2016-04-20T13:08:35.000Z</time>
      </trkpt>
      <trkpt lat="47.05424" lon="3.53773">
        <ele>248.35713195801</ele>
        <time>2016-04-20T13:08:38.000Z</time>
      </trkpt>
      <trkpt lat="47.05428" lon="3.53776">
        <ele>248.24113464355</ele>
        <time>2016-04-20T13:08:41.000Z</time>
      </trkpt>
      <trkpt lat="47.05431" lon="3.53779">
        <ele>248.13154602051</ele>
        <time>2016-04-20T13:08:43.000Z</time>
      </trkpt>
      <trkpt lat="47.05434" lon="3.5378">
        <ele>248.02946472168</ele>
        <time>2016-04-20T13:08:46.000Z</time>
      </trkpt>
      <trkpt lat="47.05437" lon="3.53782">
        <ele>247.94071960449</ele>
        <time>2016-04-20T13:08:51.000Z</time>
      </trkpt>
      <trkpt lat="47.0544" lon="3.53787">
        <ele>247.84188842773</ele>
        <time>2016-04-20T13:08:52.000Z</time>
      </trkpt>
      <trkpt lat="47.05442" lon="3.53789">
        <ele>247.75471496582</ele>
        <time>2016-04-20T13:08:57.000Z</time>
      </trkpt>
      <trkpt lat="47.05444" lon="3.53791">
        <ele>247.67863464355</ele>
        <time>2016-04-20T13:08:58.000Z</time>
      </trkpt>
      <trkpt lat="47.05447" lon="3.53792">
        <ele>247.60624694824</ele>
        <time>2016-04-20T13:08:59.000Z</time>
      </trkpt>
      <trkpt lat="47.0545" lon="3.53793">
        <ele>247.53952026367</ele>
        <time>2016-04-20T13:09:00.000Z</time>
      </trkpt>
      <trkpt lat="47.05452" lon="3.53796">
        <ele>247.49014282227</ele>
        <time>2016-04-20T13:09:06.000Z</time>
      </trkpt>
      <trkpt lat="47.05454" lon="3.53799">
        <ele>247.43913269043</ele>
        <time>2016-04-20T13:09:07.000Z</time>
      </trkpt>
      <trkpt lat="47.05458" lon="3.53801">
        <ele>247.38801574707</ele>
        <time>2016-04-20T13:09:08.000Z</time>
      </trkpt>
      <trkpt lat="47.05461" lon="3.53802">
        <ele>247.34252929688</ele>
        <time>2016-04-20T13:09:08.000Z</time>
      </trkpt>
      <trkpt lat="47.05464" lon="3.53805">
        <ele>247.29391479492</ele>
        <time>2016-04-20T13:09:11.000Z</time>
      </trkpt>
      <trkpt lat="47.05465" lon="3.53808">
        <ele>247.24227905273</ele>
        <time>2016-04-20T13:09:14.000Z</time>
      </trkpt>
      <trkpt lat="47.05466" lon="3.5381">
        <ele>247.19668579102</ele>
        <time>2016-04-20T13:09:16.000Z</time>
      </trkpt>
      <trkpt lat="47.0547" lon="3.53813">
        <ele>247.15505981445</ele>
        <time>2016-04-20T13:09:20.000Z</time>
      </trkpt>
      <trkpt lat="47.05474" lon="3.53815">
        <ele>247.11201477051</ele>
        <time>2016-04-20T13:09:22.000Z</time>
      </trkpt>
      <trkpt lat="47.05477" lon="3.53816">
        <ele>247.07746887207</ele>
        <time>2016-04-20T13:09:24.000Z</time>
      </trkpt>
      <trkpt lat="47.0548" lon="3.53819">
        <ele>247.05294799805</ele>
        <time>2016-04-20T13:09:27.000Z</time>
      </trkpt>
      <trkpt lat="47.05484" lon="3.53822">
        <ele>247.03421020508</ele>
        <time>2016-04-20T13:09:30.000Z</time>
      </trkpt>
      <trkpt lat="47.05485" lon="3.53822">
        <ele>247.02104187012</ele>
        <time>2016-04-20T13:09:32.000Z</time>
      </trkpt>
      <trkpt lat="47.05489" lon="3.53825">
        <ele>247.01176452637</ele>
        <time>2016-04-20T13:09:35.000Z</time>
      </trkpt>
      <trkpt lat="47.05493" lon="3.53828">
        <ele>247.0022277832</ele>
        <time>2016-04-20T13:09:38.000Z</time>
      </trkpt>
      <trkpt lat="47.05495" lon="3.53831">
        <ele>246.99435424805</ele>
        <time>2016-04-20T13:09:41.000Z</time>
      </trkpt>
      <trkpt lat="47.05498" lon="3.53834">
        <ele>246.98593139648</ele>
        <time>2016-04-20T13:09:43.000Z</time>
      </trkpt>
      <trkpt lat="47.055" lon="3.53835">
        <ele>246.98141479492</ele>
        <time>2016-04-20T13:09:46.000Z</time>
      </trkpt>
      <trkpt lat="47.05503" lon="3.53838">
        <ele>246.99349975586</ele>
        <time>2016-04-20T13:09:49.000Z</time>
      </trkpt>
      <trkpt lat="47.05506" lon="3.53841">
        <ele>247.01644897461</ele>
        <time>2016-04-20T13:09:52.000Z</time>
      </trkpt>
      <trkpt lat="47.05507" lon="3.53844">
        <ele>247.04672241211</ele>
        <time>2016-04-20T13:09:53.000Z</time>
      </trkpt>
      <trkpt lat="47.0551" lon="3.53847">
        <ele>247.08662414551</ele>
        <time>2016-04-20T13:09:56.000Z</time>
      </trkpt>
      <trkpt lat="47.05513" lon="3.53852">
        <ele>247.13407897949</ele>
        <time>2016-04-20T13:09:58.000Z</time>
      </trkpt>
      <trkpt lat="47.05515" lon="3.53856">
        <ele>247.16641235352</ele>
        <time>2016-04-20T13:10:02.000Z</time>
      </trkpt>
      <trkpt lat="47.05516" lon="3.5386">
        <ele>247.18801879883</ele>
        <time>2016-04-20T13:10:04.000Z</time>
      </trkpt>
      <trkpt lat="47.05519" lon="3.53864">
        <ele>247.20776367188</ele>
        <time>2016-04-20T13:10:06.000Z</time>
      </trkpt>
      <trkpt lat="47.05521" lon="3.53867">
        <ele>247.22457885742</ele>
        <time>2016-04-20T13:10:09.000Z</time>
      </trkpt>
      <trkpt lat="47.05522" lon="3.5387">
        <ele>247.22814941406</ele>
        <time>2016-04-20T13:10:11.000Z</time>
      </trkpt>
      <trkpt lat="47.05523" lon="3.53873">
        <ele>247.22993469238</ele>
        <time>2016-04-20T13:10:13.000Z</time>
      </trkpt>
      <trkpt lat="47.05523" lon="3.53877">
        <ele>247.22055053711</ele>
        <time>2016-04-20T13:10:15.000Z</time>
      </trkpt>
      <trkpt lat="47.05524" lon="3.53883">
        <ele>247.19343566895</ele>
        <time>2016-04-20T13:10:18.000Z</time>
      </trkpt>
      <trkpt lat="47.05525" lon="3.53886">
        <ele>247.16036987305</ele>
        <time>2016-04-20T13:10:20.000Z</time>
      </trkpt>
      <trkpt lat="47.05526" lon="3.5389">
        <ele>247.125</ele>
        <time>2016-04-20T13:10:22.000Z</time>
      </trkpt>
      <trkpt lat="47.05528" lon="3.53895">
        <ele>247.08329772949</ele>
        <time>2016-04-20T13:10:28.000Z</time>
      </trkpt>
      <trkpt lat="47.05529" lon="3.53899">
        <ele>247.04904174805</ele>
        <time>2016-04-20T13:10:29.000Z</time>
      </trkpt>
      <trkpt lat="47.05531" lon="3.53904">
        <ele>247.02185058594</ele>
        <time>2016-04-20T13:10:32.000Z</time>
      </trkpt>
      <trkpt lat="47.05532" lon="3.5391">
        <ele>246.98136901855</ele>
        <time>2016-04-20T13:10:34.000Z</time>
      </trkpt>
      <trkpt lat="47.05532" lon="3.53913">
        <ele>246.93411254883</ele>
        <time>2016-04-20T13:10:37.000Z</time>
      </trkpt>
      <trkpt lat="47.05532" lon="3.53919">
        <ele>246.88688659668</ele>
        <time>2016-04-20T13:10:40.000Z</time>
      </trkpt>
      <trkpt lat="47.05532" lon="3.53922">
        <ele>246.84558105469</ele>
        <time>2016-04-20T13:10:42.000Z</time>
      </trkpt>
      <trkpt lat="47.05532" lon="3.53926">
        <ele>246.81787109375</ele>
        <time>2016-04-20T13:10:45.000Z</time>
      </trkpt>
      <trkpt lat="47.05532" lon="3.5393">
        <ele>246.81103515625</ele>
        <time>2016-04-20T13:10:46.000Z</time>
      </trkpt>
      <trkpt lat="47.05533" lon="3.53934">
        <ele>246.822265625</ele>
        <time>2016-04-20T13:10:49.000Z</time>
      </trkpt>
      <trkpt lat="47.05534" lon="3.5394">
        <ele>246.85026550293</ele>
        <time>2016-04-20T13:10:52.000Z</time>
      </trkpt>
      <trkpt lat="47.05534" lon="3.53944">
        <ele>246.88403320312</ele>
        <time>2016-04-20T13:10:54.000Z</time>
      </trkpt>
      <trkpt lat="47.05535" lon="3.53948">
        <ele>246.92021179199</ele>
        <time>2016-04-20T13:10:55.000Z</time>
      </trkpt>
      <trkpt lat="47.05536" lon="3.53951">
        <ele>246.95695495605</ele>
        <time>2016-04-20T13:10:57.000Z</time>
      </trkpt>
      <trkpt lat="47.05536" lon="3.53955">
        <ele>246.99667358398</ele>
        <time>2016-04-20T13:11:01.000Z</time>
      </trkpt>
      <trkpt lat="47.05537" lon="3.53961">
        <ele>247.03691101074</ele>
        <time>2016-04-20T13:11:03.000Z</time>
      </trkpt>
      <trkpt lat="47.05537" lon="3.53967">
        <ele>247.07731628418</ele>
        <time>2016-04-20T13:11:06.000Z</time>
      </trkpt>
      <trkpt lat="47.05538" lon="3.53971">
        <ele>247.11946105957</ele>
        <time>2016-04-20T13:11:08.000Z</time>
      </trkpt>
      <trkpt lat="47.05539" lon="3.53976">
        <ele>247.16532897949</ele>
        <time>2016-04-20T13:11:10.000Z</time>
      </trkpt>
      <trkpt lat="47.05539" lon="3.5398">
        <ele>247.20751953125</ele>
        <time>2016-04-20T13:11:13.000Z</time>
      </trkpt>
      <trkpt lat="47.05539" lon="3.53987">
        <ele>247.24877929688</ele>
        <time>2016-04-20T13:11:16.000Z</time>
      </trkpt>
      <trkpt lat="47.05539" lon="3.53991">
        <ele>247.2890625</ele>
        <time>2016-04-20T13:11:21.000Z</time>
      </trkpt>
      <trkpt lat="47.05539" lon="3.53995">
        <ele>247.32040405273</ele>
        <time>2016-04-20T13:11:22.000Z</time>
      </trkpt>
      <trkpt lat="47.05539" lon="3.53997">
        <ele>247.34477233887</ele>
        <time>2016-04-20T13:11:23.000Z</time>
      </trkpt>
      <trkpt lat="47.05539" lon="3.54001">
        <ele>247.36987304688</ele>
        <time>2016-04-20T13:11:27.000Z</time>
      </trkpt>
      <trkpt lat="47.05539" lon="3.54007">
        <ele>247.40791320801</ele>
        <time>2016-04-20T13:11:29.000Z</time>
      </trkpt>
      <trkpt lat="47.05539" lon="3.54012">
        <ele>247.45803833008</ele>
        <time>2016-04-20T13:11:32.000Z</time>
      </trkpt>
      <trkpt lat="47.05539" lon="3.54018">
        <ele>247.52670288086</ele>
        <time>2016-04-20T13:11:35.000Z</time>
      </trkpt>
      <trkpt lat="47.05539" lon="3.54022">
        <ele>247.60713195801</ele>
        <time>2016-04-20T13:11:37.000Z</time>
      </trkpt>
      <trkpt lat="47.05539" lon="3.54025">
        <ele>247.69360351562</ele>
        <time>2016-04-20T13:11:42.000Z</time>
      </trkpt>
      <trkpt lat="47.05539" lon="3.54031">
        <ele>247.7769317627</ele>
        <time>2016-04-20T13:11:43.000Z</time>
      </trkpt>
      <trkpt lat="47.05539" lon="3.54035">
        <ele>247.85559082031</ele>
        <time>2016-04-20T13:11:44.000Z</time>
      </trkpt>
      <trkpt lat="47.05539" lon="3.54038">
        <ele>247.92524719238</ele>
        <time>2016-04-20T13:11:46.000Z</time>
      </trkpt>
      <trkpt lat="47.05539" lon="3.54043">
        <ele>247.9997253418</ele>
        <time>2016-04-20T13:11:49.000Z</time>
      </trkpt>
      <trkpt lat="47.05539" lon="3.54047">
        <ele>248.0806427002</ele>
        <time>2016-04-20T13:11:52.000Z</time>
      </trkpt>
      <trkpt lat="47.0554" lon="3.54054">
        <ele>248.16995239258</ele>
        <time>2016-04-20T13:11:54.000Z</time>
      </trkpt>
      <trkpt lat="47.0554" lon="3.5406">
        <ele>248.2734375</ele>
        <time>2016-04-20T13:11:57.000Z</time>
      </trkpt>
      <trkpt lat="47.0554" lon="3.54066">
        <ele>248.38748168945</ele>
        <time>2016-04-20T13:12:01.000Z</time>
      </trkpt>
      <trkpt lat="47.0554" lon="3.54071">
        <ele>248.50106811523</ele>
        <time>2016-04-20T13:12:04.000Z</time>
      </trkpt>
      <trkpt lat="47.05541" lon="3.54077">
        <ele>248.62483215332</ele>
        <time>2016-04-20T13:12:06.000Z</time>
      </trkpt>
      <trkpt lat="47.05541" lon="3.54081">
        <ele>248.73477172852</ele>
        <time>2016-04-20T13:12:13.000Z</time>
      </trkpt>
      <trkpt lat="47.05542" lon="3.54087">
        <ele>248.84191894531</ele>
        <time>2016-04-20T13:12:14.000Z</time>
      </trkpt>
      <trkpt lat="47.05541" lon="3.5409">
        <ele>248.93603515625</ele>
        <time>2016-04-20T13:12:14.000Z</time>
      </trkpt>
      <trkpt lat="47.05541" lon="3.54094">
        <ele>249.0266418457</ele>
        <time>2016-04-20T13:12:16.000Z</time>
      </trkpt>
      <trkpt lat="47.05542" lon="3.54099">
        <ele>249.11064147949</ele>
        <time>2016-04-20T13:12:19.000Z</time>
      </trkpt>
      <trkpt lat="47.05542" lon="3.54105">
        <ele>249.20707702637</ele>
        <time>2016-04-20T13:12:20.000Z</time>
      </trkpt>
      <trkpt lat="47.05544" lon="3.54107">
        <ele>249.30241394043</ele>
        <time>2016-04-20T13:12:22.000Z</time>
      </trkpt>
      <trkpt lat="47.05544" lon="3.54114">
        <ele>249.41690063477</ele>
        <time>2016-04-20T13:12:25.000Z</time>
      </trkpt>
      <trkpt lat="47.05544" lon="3.54116">
        <ele>249.52059936523</ele>
        <time>2016-04-20T13:12:27.000Z</time>
      </trkpt>
      <trkpt lat="47.05544" lon="3.54119">
        <ele>249.6220703125</ele>
        <time>2016-04-20T13:12:29.000Z</time>
      </trkpt>
      <trkpt lat="47.05545" lon="3.54123">
        <ele>249.71932983398</ele>
        <time>2016-04-20T13:12:31.000Z</time>
      </trkpt>
      <trkpt lat="47.05545" lon="3.54127">
        <ele>249.8080291748</ele>
        <time>2016-04-20T13:12:36.000Z</time>
      </trkpt>
      <trkpt lat="47.05545" lon="3.5413">
        <ele>249.87710571289</ele>
        <time>2016-04-20T13:12:40.000Z</time>
      </trkpt>
      <trkpt lat="47.05545" lon="3.54133">
        <ele>249.9524230957</ele>
        <time>2016-04-20T13:12:40.000Z</time>
      </trkpt>
      <trkpt lat="47.05545" lon="3.54138">
        <ele>250.03047180176</ele>
        <time>2016-04-20T13:12:45.000Z</time>
      </trkpt>
      <trkpt lat="47.05545" lon="3.54141">
        <ele>250.09921264648</ele>
        <time>2016-04-20T13:12:45.000Z</time>
      </trkpt>
      <trkpt lat="47.05545" lon="3.54145">
        <ele>250.16532897949</ele>
        <time>2016-04-20T13:12:47.000Z</time>
      </trkpt>
      <trkpt lat="47.05544" lon="3.54151">
        <ele>250.23620605469</ele>
        <time>2016-04-20T13:12:50.000Z</time>
      </trkpt>
      <trkpt lat="47.05544" lon="3.54158">
        <ele>250.32247924805</ele>
        <time>2016-04-20T13:12:52.000Z</time>
      </trkpt>
      <trkpt lat="47.05544" lon="3.54164">
        <ele>250.40090942383</ele>
        <time>2016-04-20T13:12:55.000Z</time>
      </trkpt>
      <trkpt lat="47.05544" lon="3.54169">
        <ele>250.4925994873</ele>
        <time>2016-04-20T13:12:58.000Z</time>
      </trkpt>
      <trkpt lat="47.05544" lon="3.54173">
        <ele>250.59362792969</ele>
        <time>2016-04-20T13:13:01.000Z</time>
      </trkpt>
      <trkpt lat="47.05543" lon="3.5418">
        <ele>250.71853637695</ele>
        <time>2016-04-20T13:13:03.000Z</time>
      </trkpt>
      <trkpt lat="47.05542" lon="3.54186">
        <ele>250.84317016602</ele>
        <time>2016-04-20T13:13:07.000Z</time>
      </trkpt>
      <trkpt lat="47.05542" lon="3.54191">
        <ele>250.9811706543</ele>
        <time>2016-04-20T13:13:10.000Z</time>
      </trkpt>
      <trkpt lat="47.05542" lon="3.54197">
        <ele>251.12284851074</ele>
        <time>2016-04-20T13:13:12.000Z</time>
      </trkpt>
      <trkpt lat="47.05541" lon="3.54202">
        <ele>251.26420593262</ele>
        <time>2016-04-20T13:13:14.000Z</time>
      </trkpt>
      <trkpt lat="47.0554" lon="3.54205">
        <ele>251.37785339355</ele>
        <time>2016-04-20T13:13:17.000Z</time>
      </trkpt>
      <trkpt lat="47.0554" lon="3.54211">
        <ele>251.49385070801</ele>
        <time>2016-04-20T13:13:19.000Z</time>
      </trkpt>
      <trkpt lat="47.0554" lon="3.54214">
        <ele>251.59407043457</ele>
        <time>2016-04-20T13:13:21.000Z</time>
      </trkpt>
      <trkpt lat="47.0554" lon="3.54221">
        <ele>251.70576477051</ele>
        <time>2016-04-20T13:13:24.000Z</time>
      </trkpt>
      <trkpt lat="47.0554" lon="3.54224">
        <ele>251.81416320801</ele>
        <time>2016-04-20T13:13:27.000Z</time>
      </trkpt>
      <trkpt lat="47.05539" lon="3.54227">
        <ele>251.92475891113</ele>
        <time>2016-04-20T13:13:30.000Z</time>
      </trkpt>
      <trkpt lat="47.05538" lon="3.5423">
        <ele>252.01847839355</ele>
        <time>2016-04-20T13:13:31.000Z</time>
      </trkpt>
      <trkpt lat="47.05537" lon="3.54233">
        <ele>252.10827636719</ele>
        <time>2016-04-20T13:13:33.000Z</time>
      </trkpt>
      <trkpt lat="47.05537" lon="3.54238">
        <ele>252.18135070801</ele>
        <time>2016-04-20T13:13:37.000Z</time>
      </trkpt>
      <trkpt lat="47.05537" lon="3.5424">
        <ele>252.24638366699</ele>
        <time>2016-04-20T13:13:39.000Z</time>
      </trkpt>
      <trkpt lat="47.05536" lon="3.54245">
        <ele>252.3111114502</ele>
        <time>2016-04-20T13:13:41.000Z</time>
      </trkpt>
      <trkpt lat="47.05536" lon="3.54248">
        <ele>252.38296508789</ele>
        <time>2016-04-20T13:13:43.000Z</time>
      </trkpt>
      <trkpt lat="47.05536" lon="3.54253">
        <ele>252.47331237793</ele>
        <time>2016-04-20T13:13:47.000Z</time>
      </trkpt>
      <trkpt lat="47.05535" lon="3.54256">
        <ele>252.54690551758</ele>
        <time>2016-04-20T13:13:48.000Z</time>
      </trkpt>
      <trkpt lat="47.05535" lon="3.5426">
        <ele>252.63333129883</ele>
        <time>2016-04-20T13:13:52.000Z</time>
      </trkpt>
      <trkpt lat="47.05534" lon="3.54264">
        <ele>252.72485351562</ele>
        <time>2016-04-20T13:13:53.000Z</time>
      </trkpt>
      <trkpt lat="47.05534" lon="3.54267">
        <ele>252.81506347656</ele>
        <time>2016-04-20T13:13:55.000Z</time>
      </trkpt>
      <trkpt lat="47.05534" lon="3.54271">
        <ele>252.90058898926</ele>
        <time>2016-04-20T13:13:58.000Z</time>
      </trkpt>
      <trkpt lat="47.05534" lon="3.54276">
        <ele>253.00582885742</ele>
        <time>2016-04-20T13:14:00.000Z</time>
      </trkpt>
      <trkpt lat="47.05533" lon="3.54281">
        <ele>253.11294555664</ele>
        <time>2016-04-20T13:14:04.000Z</time>
      </trkpt>
      <trkpt lat="47.05532" lon="3.54287">
        <ele>253.21463012695</ele>
        <time>2016-04-20T13:14:06.000Z</time>
      </trkpt>
      <trkpt lat="47.05531" lon="3.5429">
        <ele>253.30912780762</ele>
        <time>2016-04-20T13:14:08.000Z</time>
      </trkpt>
      <trkpt lat="47.05531" lon="3.54292">
        <ele>253.38764953613</ele>
        <time>2016-04-20T13:14:11.000Z</time>
      </trkpt>
      <trkpt lat="47.0553" lon="3.54297">
        <ele>253.45149230957</ele>
        <time>2016-04-20T13:14:14.000Z</time>
      </trkpt>
      <trkpt lat="47.0553" lon="3.54301">
        <ele>253.50598144531</ele>
        <time>2016-04-20T13:14:16.000Z</time>
      </trkpt>
      <trkpt lat="47.05531" lon="3.54306">
        <ele>253.59866333008</ele>
        <time>2016-04-20T13:14:19.000Z</time>
      </trkpt>
      <trkpt lat="47.05531" lon="3.54309">
        <ele>253.70422363281</ele>
        <time>2016-04-20T13:14:20.000Z</time>
      </trkpt>
      <trkpt lat="47.05531" lon="3.54311">
        <ele>253.81062316895</ele>
        <time>2016-04-20T13:14:22.000Z</time>
      </trkpt>
      <trkpt lat="47.0553" lon="3.54313">
        <ele>253.90420532227</ele>
        <time>2016-04-20T13:14:38.000Z</time>
      </trkpt>
      <trkpt lat="47.05529" lon="3.54318">
        <ele>253.98532104492</ele>
        <time>2016-04-20T13:14:41.000Z</time>
      </trkpt>
      <trkpt lat="47.05528" lon="3.54322">
        <ele>254.0131072998</ele>
        <time>2016-04-20T13:14:42.000Z</time>
      </trkpt>
      <trkpt lat="47.05527" lon="3.54326">
        <ele>254.01541137695</ele>
        <time>2016-04-20T13:14:45.000Z</time>
      </trkpt>
      <trkpt lat="47.05527" lon="3.54332">
        <ele>254.04183959961</ele>
        <time>2016-04-20T13:14:49.000Z</time>
      </trkpt>
      <trkpt lat="47.05526" lon="3.54338">
        <ele>254.07649230957</ele>
        <time>2016-04-20T13:14:51.000Z</time>
      </trkpt>
      <trkpt lat="47.05525" lon="3.54343">
        <ele>254.09097290039</ele>
        <time>2016-04-20T13:14:54.000Z</time>
      </trkpt>
      <trkpt lat="47.05524" lon="3.54347">
        <ele>254.09924316406</ele>
        <time>2016-04-20T13:14:57.000Z</time>
      </trkpt>
      <trkpt lat="47.05524" lon="3.54351">
        <ele>254.11080932617</ele>
        <time>2016-04-20T13:14:59.000Z</time>
      </trkpt>
      <trkpt lat="47.05523" lon="3.54357">
        <ele>254.07743835449</ele>
        <time>2016-04-20T13:15:01.000Z</time>
      </trkpt>
      <trkpt lat="47.05522" lon="3.54361">
        <ele>254.03430175781</ele>
        <time>2016-04-20T13:15:04.000Z</time>
      </trkpt>
      <trkpt lat="47.05522" lon="3.54366">
        <ele>254.01103210449</ele>
        <time>2016-04-20T13:15:05.000Z</time>
      </trkpt>
      <trkpt lat="47.05521" lon="3.54371">
        <ele>254.00190734863</ele>
        <time>2016-04-20T13:15:09.000Z</time>
      </trkpt>
      <trkpt lat="47.05521" lon="3.54375">
        <ele>253.98994445801</ele>
        <time>2016-04-20T13:15:10.000Z</time>
      </trkpt>
      <trkpt lat="47.05521" lon="3.54378">
        <ele>254.00036621094</ele>
        <time>2016-04-20T13:15:13.000Z</time>
      </trkpt>
      <trkpt lat="47.05519" lon="3.54384">
        <ele>253.99694824219</ele>
        <time>2016-04-20T13:15:15.000Z</time>
      </trkpt>
      <trkpt lat="47.05519" lon="3.54389">
        <ele>253.99345397949</ele>
        <time>2016-04-20T13:15:18.000Z</time>
      </trkpt>
      <trkpt lat="47.05518" lon="3.54396">
        <ele>253.98571777344</ele>
        <time>2016-04-20T13:15:22.000Z</time>
      </trkpt>
      <trkpt lat="47.05518" lon="3.544">
        <ele>253.96968078613</ele>
        <time>2016-04-20T13:15:22.000Z</time>
      </trkpt>
      <trkpt lat="47.05516" lon="3.54407">
        <ele>253.93061828613</ele>
        <time>2016-04-20T13:15:26.000Z</time>
      </trkpt>
      <trkpt lat="47.05516" lon="3.54411">
        <ele>253.89823913574</ele>
        <time>2016-04-20T13:15:27.000Z</time>
      </trkpt>
      <trkpt lat="47.05515" lon="3.54416">
        <ele>253.85546875</ele>
        <time>2016-04-20T13:15:29.000Z</time>
      </trkpt>
      <trkpt lat="47.05514" lon="3.54421">
        <ele>253.84809875488</ele>
        <time>2016-04-20T13:15:32.000Z</time>
      </trkpt>
      <trkpt lat="47.05514" lon="3.54424">
        <ele>253.8655090332</ele>
        <time>2016-04-20T13:15:35.000Z</time>
      </trkpt>
      <trkpt lat="47.05513" lon="3.54428">
        <ele>253.90084838867</ele>
        <time>2016-04-20T13:15:38.000Z</time>
      </trkpt>
      <trkpt lat="47.05511" lon="3.54434">
        <ele>253.9683380127</ele>
        <time>2016-04-20T13:15:41.000Z</time>
      </trkpt>
      <trkpt lat="47.0551" lon="3.54437">
        <ele>254.04696655273</ele>
        <time>2016-04-20T13:15:43.000Z</time>
      </trkpt>
      <trkpt lat="47.05508" lon="3.54439">
        <ele>254.07060241699</ele>
        <time>2016-04-20T13:15:45.000Z</time>
      </trkpt>
      <trkpt lat="47.05508" lon="3.54441">
        <ele>254.08862304688</ele>
        <time>2016-04-20T13:15:50.000Z</time>
      </trkpt>
      <trkpt lat="47.05508" lon="3.54444">
        <ele>254.11885070801</ele>
        <time>2016-04-20T13:15:51.000Z</time>
      </trkpt>
      <trkpt lat="47.05507" lon="3.54448">
        <ele>254.15075683594</ele>
        <time>2016-04-20T13:15:54.000Z</time>
      </trkpt>
      <trkpt lat="47.05506" lon="3.54451">
        <ele>254.18811035156</ele>
        <time>2016-04-20T13:15:58.000Z</time>
      </trkpt>
      <trkpt lat="47.05503" lon="3.54455">
        <ele>254.21963500977</ele>
        <time>2016-04-20T13:16:00.000Z</time>
      </trkpt>
      <trkpt lat="47.05502" lon="3.54457">
        <ele>254.23373413086</ele>
        <time>2016-04-20T13:16:02.000Z</time>
      </trkpt>
      <trkpt lat="47.055" lon="3.54462">
        <ele>254.23295593262</ele>
        <time>2016-04-20T13:16:05.000Z</time>
      </trkpt>
      <trkpt lat="47.05499" lon="3.54465">
        <ele>254.21699523926</ele>
        <time>2016-04-20T13:16:07.000Z</time>
      </trkpt>
      <trkpt lat="47.05496" lon="3.54469">
        <ele>254.20724487305</ele>
        <time>2016-04-20T13:16:10.000Z</time>
      </trkpt>
      <trkpt lat="47.05494" lon="3.54475">
        <ele>254.236328125</ele>
        <time>2016-04-20T13:16:13.000Z</time>
      </trkpt>
      <trkpt lat="47.05491" lon="3.54479">
        <ele>254.2769317627</ele>
        <time>2016-04-20T13:16:16.000Z</time>
      </trkpt>
      <trkpt lat="47.05488" lon="3.54483">
        <ele>254.32075500488</ele>
        <time>2016-04-20T13:16:19.000Z</time>
      </trkpt>
      <trkpt lat="47.05486" lon="3.54486">
        <ele>254.34155273438</ele>
        <time>2016-04-20T13:16:22.000Z</time>
      </trkpt>
      <trkpt lat="47.05482" lon="3.5449">
        <ele>254.33940124512</ele>
        <time>2016-04-20T13:16:26.000Z</time>
      </trkpt>
      <trkpt lat="47.0548" lon="3.54493">
        <ele>254.31929016113</ele>
        <time>2016-04-20T13:16:28.000Z</time>
      </trkpt>
      <trkpt lat="47.05479" lon="3.54496">
        <ele>254.29821777344</ele>
        <time>2016-04-20T13:16:30.000Z</time>
      </trkpt>
      <trkpt lat="47.05476" lon="3.545">
        <ele>254.27444458008</ele>
        <time>2016-04-20T13:16:33.000Z</time>
      </trkpt>
      <trkpt lat="47.05474" lon="3.54502">
        <ele>254.24519348145</ele>
        <time>2016-04-20T13:16:37.000Z</time>
      </trkpt>
      <trkpt lat="47.05471" lon="3.54505">
        <ele>254.21195983887</ele>
        <time>2016-04-20T13:16:40.000Z</time>
      </trkpt>
      <trkpt lat="47.05469" lon="3.54508">
        <ele>254.16606140137</ele>
        <time>2016-04-20T13:16:50.000Z</time>
      </trkpt>
      <trkpt lat="47.05466" lon="3.54512">
        <ele>254.09616088867</ele>
        <time>2016-04-20T13:16:53.000Z</time>
      </trkpt>
      <trkpt lat="47.05463" lon="3.54516">
        <ele>254.01261901855</ele>
        <time>2016-04-20T13:16:56.000Z</time>
      </trkpt>
      <trkpt lat="47.0546" lon="3.54518">
        <ele>253.91508483887</ele>
        <time>2016-04-20T13:16:58.000Z</time>
      </trkpt>
      <trkpt lat="47.05459" lon="3.5452">
        <ele>253.83003234863</ele>
        <time>2016-04-20T13:16:59.000Z</time>
      </trkpt>
      <trkpt lat="47.05457" lon="3.54524">
        <ele>253.74169921875</ele>
        <time>2016-04-20T13:17:01.000Z</time>
      </trkpt>
      <trkpt lat="47.05454" lon="3.54528">
        <ele>253.66079711914</ele>
        <time>2016-04-20T13:17:04.000Z</time>
      </trkpt>
      <trkpt lat="47.05452" lon="3.54531">
        <ele>253.57522583008</ele>
        <time>2016-04-20T13:17:06.000Z</time>
      </trkpt>
      <trkpt lat="47.05449" lon="3.54535">
        <ele>253.50186157227</ele>
        <time>2016-04-20T13:17:07.000Z</time>
      </trkpt>
      <trkpt lat="47.05447" lon="3.54541">
        <ele>253.43464660645</ele>
        <time>2016-04-20T13:17:12.000Z</time>
      </trkpt>
      <trkpt lat="47.05445" lon="3.54545">
        <ele>253.38500976562</ele>
        <time>2016-04-20T13:17:14.000Z</time>
      </trkpt>
      <trkpt lat="47.05444" lon="3.54552">
        <ele>253.3646697998</ele>
        <time>2016-04-20T13:17:15.000Z</time>
      </trkpt>
      <trkpt lat="47.05443" lon="3.54555">
        <ele>253.36849975586</ele>
        <time>2016-04-20T13:17:17.000Z</time>
      </trkpt>
      <trkpt lat="47.05442" lon="3.5456">
        <ele>253.40132141113</ele>
        <time>2016-04-20T13:17:22.000Z</time>
      </trkpt>
      <trkpt lat="47.05442" lon="3.54563">
        <ele>253.44262695312</ele>
        <time>2016-04-20T13:17:22.000Z</time>
      </trkpt>
      <trkpt lat="47.05441" lon="3.54566">
        <ele>253.4889831543</ele>
        <time>2016-04-20T13:17:23.000Z</time>
      </trkpt>
      <trkpt lat="47.05441" lon="3.5457">
        <ele>253.54092407227</ele>
        <time>2016-04-20T13:17:26.000Z</time>
      </trkpt>
      <trkpt lat="47.0544" lon="3.54574">
        <ele>253.59819030762</ele>
        <time>2016-04-20T13:17:29.000Z</time>
      </trkpt>
      <trkpt lat="47.05441" lon="3.54578">
        <ele>253.68022155762</ele>
        <time>2016-04-20T13:17:31.000Z</time>
      </trkpt>
      <trkpt lat="47.05441" lon="3.54583">
        <ele>253.77021789551</ele>
        <time>2016-04-20T13:17:34.000Z</time>
      </trkpt>
      <trkpt lat="47.05441" lon="3.54586">
        <ele>253.85200500488</ele>
        <time>2016-04-20T13:17:36.000Z</time>
      </trkpt>
      <trkpt lat="47.05442" lon="3.5459">
        <ele>253.91557312012</ele>
        <time>2016-04-20T13:17:39.000Z</time>
      </trkpt>
      <trkpt lat="47.05443" lon="3.54594">
        <ele>253.97270202637</ele>
        <time>2016-04-20T13:17:43.000Z</time>
      </trkpt>
      <trkpt lat="47.05444" lon="3.54597">
        <ele>254.00863647461</ele>
        <time>2016-04-20T13:17:44.000Z</time>
      </trkpt>
      <trkpt lat="47.05445" lon="3.54603">
        <ele>254.02339172363</ele>
        <time>2016-04-20T13:17:47.000Z</time>
      </trkpt>
      <trkpt lat="47.05445" lon="3.54607">
        <ele>254.03950500488</ele>
        <time>2016-04-20T13:17:49.000Z</time>
      </trkpt>
      <trkpt lat="47.05447" lon="3.5461">
        <ele>254.06127929688</ele>
        <time>2016-04-20T13:17:51.000Z</time>
      </trkpt>
      <trkpt lat="47.05447" lon="3.54615">
        <ele>254.06884765625</ele>
        <time>2016-04-20T13:17:54.000Z</time>
      </trkpt>
      <trkpt lat="47.05447" lon="3.54621">
        <ele>254.04470825195</ele>
        <time>2016-04-20T13:17:58.000Z</time>
      </trkpt>
      <trkpt lat="47.05449" lon="3.54626">
        <ele>254.01937866211</ele>
        <time>2016-04-20T13:18:00.000Z</time>
      </trkpt>
      <trkpt lat="47.05449" lon="3.54631">
        <ele>253.98429870605</ele>
        <time>2016-04-20T13:18:03.000Z</time>
      </trkpt>
      <trkpt lat="47.0545" lon="3.54635">
        <ele>253.94706726074</ele>
        <time>2016-04-20T13:18:07.000Z</time>
      </trkpt>
      <trkpt lat="47.05451" lon="3.54638">
        <ele>253.92680358887</ele>
        <time>2016-04-20T13:18:08.000Z</time>
      </trkpt>
      <trkpt lat="47.05453" lon="3.54643">
        <ele>253.93899536133</ele>
        <time>2016-04-20T13:18:11.000Z</time>
      </trkpt>
      <trkpt lat="47.05455" lon="3.54648">
        <ele>253.95951843262</ele>
        <time>2016-04-20T13:18:14.000Z</time>
      </trkpt>
      <trkpt lat="47.05456" lon="3.54652">
        <ele>254.00439453125</ele>
        <time>2016-04-20T13:18:20.000Z</time>
      </trkpt>
      <trkpt lat="47.05458" lon="3.54658">
        <ele>254.05229187012</ele>
        <time>2016-04-20T13:18:21.000Z</time>
      </trkpt>
      <trkpt lat="47.05459" lon="3.54663">
        <ele>254.09194946289</ele>
        <time>2016-04-20T13:18:23.000Z</time>
      </trkpt>
      <trkpt lat="47.0546" lon="3.54668">
        <ele>254.10542297363</ele>
        <time>2016-04-20T13:18:27.000Z</time>
      </trkpt>
      <trkpt lat="47.0546" lon="3.54671">
        <ele>254.07682800293</ele>
        <time>2016-04-20T13:18:29.000Z</time>
      </trkpt>
      <trkpt lat="47.0546" lon="3.54675">
        <ele>254.00260925293</ele>
        <time>2016-04-20T13:18:31.000Z</time>
      </trkpt>
      <trkpt lat="47.05461" lon="3.54678">
        <ele>253.90092468262</ele>
        <time>2016-04-20T13:18:33.000Z</time>
      </trkpt>
      <trkpt lat="47.05461" lon="3.54682">
        <ele>253.75842285156</ele>
        <time>2016-04-20T13:18:36.000Z</time>
      </trkpt>
      <trkpt lat="47.0546" lon="3.54689">
        <ele>253.55400085449</ele>
        <time>2016-04-20T13:18:39.000Z</time>
      </trkpt>
      <trkpt lat="47.0546" lon="3.54695">
        <ele>253.3190612793</ele>
        <time>2016-04-20T13:18:42.000Z</time>
      </trkpt>
      <trkpt lat="47.0546" lon="3.54701">
        <ele>253.06217956543</ele>
        <time>2016-04-20T13:18:45.000Z</time>
      </trkpt>
      <trkpt lat="47.05459" lon="3.54707">
        <ele>252.76406860352</ele>
        <time>2016-04-20T13:18:49.000Z</time>
      </trkpt>
      <trkpt lat="47.05459" lon="3.5471">
        <ele>252.47146606445</ele>
        <time>2016-04-20T13:18:50.000Z</time>
      </trkpt>
      <trkpt lat="47.05458" lon="3.54713">
        <ele>252.20852661133</ele>
        <time>2016-04-20T13:18:52.000Z</time>
      </trkpt>
      <trkpt lat="47.05457" lon="3.54716">
        <ele>251.97512817383</ele>
        <time>2016-04-20T13:18:54.000Z</time>
      </trkpt>
      <trkpt lat="47.05456" lon="3.5472">
        <ele>251.74215698242</ele>
        <time>2016-04-20T13:18:57.000Z</time>
      </trkpt>
      <trkpt lat="47.05454" lon="3.54724">
        <ele>251.5152130127</ele>
        <time>2016-04-20T13:19:00.000Z</time>
      </trkpt>
      <trkpt lat="47.05452" lon="3.54729">
        <ele>251.25471496582</ele>
        <time>2016-04-20T13:19:03.000Z</time>
      </trkpt>
      <trkpt lat="47.0545" lon="3.54734">
        <ele>250.97236633301</ele>
        <time>2016-04-20T13:19:06.000Z</time>
      </trkpt>
      <trkpt lat="47.05449" lon="3.54737">
        <ele>250.68649291992</ele>
        <time>2016-04-20T13:19:08.000Z</time>
      </trkpt>
      <trkpt lat="47.05447" lon="3.54741">
        <ele>250.41146850586</ele>
        <time>2016-04-20T13:19:11.000Z</time>
      </trkpt>
      <trkpt lat="47.05445" lon="3.54747">
        <ele>250.11697387695</ele>
        <time>2016-04-20T13:19:14.000Z</time>
      </trkpt>
      <trkpt lat="47.05444" lon="3.54752">
        <ele>249.84643554688</ele>
        <time>2016-04-20T13:19:17.000Z</time>
      </trkpt>
      <trkpt lat="47.05443" lon="3.54757">
        <ele>249.62353515625</ele>
        <time>2016-04-20T13:19:20.000Z</time>
      </trkpt>
      <trkpt lat="47.05442" lon="3.54761">
        <ele>249.4206237793</ele>
        <time>2016-04-20T13:19:24.000Z</time>
      </trkpt>
      <trkpt lat="47.05441" lon="3.54765">
        <ele>249.25344848633</ele>
        <time>2016-04-20T13:19:25.000Z</time>
      </trkpt>
      <trkpt lat="47.05439" lon="3.5477">
        <ele>249.138671875</ele>
        <time>2016-04-20T13:19:29.000Z</time>
      </trkpt>
      <trkpt lat="47.05439" lon="3.54772">
        <ele>249.05859375</ele>
        <time>2016-04-20T13:19:30.000Z</time>
      </trkpt>
      <trkpt lat="47.05436" lon="3.54778">
        <ele>248.9711151123</ele>
        <time>2016-04-20T13:19:34.000Z</time>
      </trkpt>
      <trkpt lat="47.05435" lon="3.54782">
        <ele>248.8874206543</ele>
        <time>2016-04-20T13:19:35.000Z</time>
      </trkpt>
      <trkpt lat="47.05433" lon="3.54786">
        <ele>248.79895019531</ele>
        <time>2016-04-20T13:19:37.000Z</time>
      </trkpt>
      <trkpt lat="47.05432" lon="3.5479">
        <ele>248.71597290039</ele>
        <time>2016-04-20T13:19:40.000Z</time>
      </trkpt>
      <trkpt lat="47.05431" lon="3.54794">
        <ele>248.63102722168</ele>
        <time>2016-04-20T13:19:42.000Z</time>
      </trkpt>
      <trkpt lat="47.05429" lon="3.54798">
        <ele>248.56100463867</ele>
        <time>2016-04-20T13:19:46.000Z</time>
      </trkpt>
      <trkpt lat="47.05428" lon="3.548">
        <ele>248.49789428711</ele>
        <time>2016-04-20T13:19:47.000Z</time>
      </trkpt>
      <trkpt lat="47.05427" lon="3.54806">
        <ele>248.43782043457</ele>
        <time>2016-04-20T13:19:51.000Z</time>
      </trkpt>
      <trkpt lat="47.05426" lon="3.54809">
        <ele>248.38626098633</ele>
        <time>2016-04-20T13:19:52.000Z</time>
      </trkpt>
      <trkpt lat="47.05424" lon="3.54814">
        <ele>248.33395385742</ele>
        <time>2016-04-20T13:19:55.000Z</time>
      </trkpt>
      <trkpt lat="47.05423" lon="3.54819">
        <ele>248.28427124023</ele>
        <time>2016-04-20T13:19:58.000Z</time>
      </trkpt>
      <trkpt lat="47.05422" lon="3.54822">
        <ele>248.23416137695</ele>
        <time>2016-04-20T13:20:00.000Z</time>
      </trkpt>
      <trkpt lat="47.05421" lon="3.54826">
        <ele>248.19023132324</ele>
        <time>2016-04-20T13:20:04.000Z</time>
      </trkpt>
      <trkpt lat="47.0542" lon="3.54829">
        <ele>248.14660644531</ele>
        <time>2016-04-20T13:20:05.000Z</time>
      </trkpt>
      <trkpt lat="47.05417" lon="3.54834">
        <ele>248.10873413086</ele>
        <time>2016-04-20T13:20:09.000Z</time>
      </trkpt>
      <trkpt lat="47.05416" lon="3.54838">
        <ele>248.12031555176</ele>
        <time>2016-04-20T13:20:10.000Z</time>
      </trkpt>
      <trkpt lat="47.05414" lon="3.54843">
        <ele>248.20300292969</ele>
        <time>2016-04-20T13:20:13.000Z</time>
      </trkpt>
      <trkpt lat="47.05413" lon="3.54847">
        <ele>248.35473632812</ele>
        <time>2016-04-20T13:20:16.000Z</time>
      </trkpt>
      <trkpt lat="47.0541" lon="3.54853">
        <ele>248.58444213867</ele>
        <time>2016-04-20T13:20:19.000Z</time>
      </trkpt>
      <trkpt lat="47.05409" lon="3.54856">
        <ele>248.86357116699</ele>
        <time>2016-04-20T13:20:21.000Z</time>
      </trkpt>
      <trkpt lat="47.05408" lon="3.54859">
        <ele>249.1462097168</ele>
        <time>2016-04-20T13:20:27.000Z</time>
      </trkpt>
      <trkpt lat="47.05407" lon="3.54864">
        <ele>249.4147644043</ele>
        <time>2016-04-20T13:20:27.000Z</time>
      </trkpt>
      <trkpt lat="47.05406" lon="3.54866">
        <ele>249.64926147461</ele>
        <time>2016-04-20T13:20:29.000Z</time>
      </trkpt>
      <trkpt lat="47.05405" lon="3.5487">
        <ele>249.84518432617</ele>
        <time>2016-04-20T13:20:31.000Z</time>
      </trkpt>
      <trkpt lat="47.05404" lon="3.54872">
        <ele>250.01557922363</ele>
        <time>2016-04-20T13:20:33.000Z</time>
      </trkpt>
      <trkpt lat="47.05403" lon="3.54876">
        <ele>250.19152832031</ele>
        <time>2016-04-20T13:20:36.000Z</time>
      </trkpt>
      <trkpt lat="47.054" lon="3.54881">
        <ele>250.37814331055</ele>
        <time>2016-04-20T13:20:39.000Z</time>
      </trkpt>
      <trkpt lat="47.054" lon="3.54885">
        <ele>250.56851196289</ele>
        <time>2016-04-20T13:20:41.000Z</time>
      </trkpt>
      <trkpt lat="47.05399" lon="3.54889">
        <ele>250.75759887695</ele>
        <time>2016-04-20T13:20:45.000Z</time>
      </trkpt>
      <trkpt lat="47.05397" lon="3.54892">
        <ele>250.96049499512</ele>
        <time>2016-04-20T13:20:47.000Z</time>
      </trkpt>
      <trkpt lat="47.05396" lon="3.54894">
        <ele>251.13960266113</ele>
        <time>2016-04-20T13:20:48.000Z</time>
      </trkpt>
      <trkpt lat="47.05395" lon="3.54898">
        <ele>251.29586791992</ele>
        <time>2016-04-20T13:20:51.000Z</time>
      </trkpt>
      <trkpt lat="47.05392" lon="3.54903">
        <ele>251.47134399414</ele>
        <time>2016-04-20T13:20:55.000Z</time>
      </trkpt>
      <trkpt lat="47.05391" lon="3.54906">
        <ele>251.64311218262</ele>
        <time>2016-04-20T13:20:57.000Z</time>
      </trkpt>
      <trkpt lat="47.05391" lon="3.54909">
        <ele>251.798828125</ele>
        <time>2016-04-20T13:21:00.000Z</time>
      </trkpt>
      <trkpt lat="47.05389" lon="3.54911">
        <ele>251.95133972168</ele>
        <time>2016-04-20T13:21:01.000Z</time>
      </trkpt>
      <trkpt lat="47.05387" lon="3.54914">
        <ele>252.09774780273</ele>
        <time>2016-04-20T13:21:03.000Z</time>
      </trkpt>
      <trkpt lat="47.05386" lon="3.54919">
        <ele>252.24092102051</ele>
        <time>2016-04-20T13:21:06.000Z</time>
      </trkpt>
      <trkpt lat="47.05384" lon="3.54923">
        <ele>252.40881347656</ele>
        <time>2016-04-20T13:21:09.000Z</time>
      </trkpt>
      <trkpt lat="47.05381" lon="3.54929">
        <ele>252.63154602051</ele>
        <time>2016-04-20T13:21:12.000Z</time>
      </trkpt>
      <trkpt lat="47.05379" lon="3.54934">
        <ele>252.88638305664</ele>
        <time>2016-04-20T13:21:15.000Z</time>
      </trkpt>
      <trkpt lat="47.05378" lon="3.54938">
        <ele>253.14706420898</ele>
        <time>2016-04-20T13:21:18.000Z</time>
      </trkpt>
      <trkpt lat="47.05376" lon="3.54943">
        <ele>253.40811157227</ele>
        <time>2016-04-20T13:21:21.000Z</time>
      </trkpt>
      <trkpt lat="47.05375" lon="3.54948">
        <ele>253.66528320312</ele>
        <time>2016-04-20T13:21:24.000Z</time>
      </trkpt>
      <trkpt lat="47.05374" lon="3.54951">
        <ele>253.87643432617</ele>
        <time>2016-04-20T13:21:26.000Z</time>
      </trkpt>
      <trkpt lat="47.05372" lon="3.54955">
        <ele>254.07052612305</ele>
        <time>2016-04-20T13:21:29.000Z</time>
      </trkpt>
      <trkpt lat="47.05371" lon="3.54959">
        <ele>254.26663208008</ele>
        <time>2016-04-20T13:21:33.000Z</time>
      </trkpt>
      <trkpt lat="47.05369" lon="3.54962">
        <ele>254.44250488281</ele>
        <time>2016-04-20T13:21:34.000Z</time>
      </trkpt>
      <trkpt lat="47.05368" lon="3.54965">
        <ele>254.59284973145</ele>
        <time>2016-04-20T13:21:37.000Z</time>
      </trkpt>
      <trkpt lat="47.05366" lon="3.5497">
        <ele>254.75947570801</ele>
        <time>2016-04-20T13:21:40.000Z</time>
      </trkpt>
      <trkpt lat="47.05364" lon="3.54973">
        <ele>254.90937805176</ele>
        <time>2016-04-20T13:21:42.000Z</time>
      </trkpt>
      <trkpt lat="47.05362" lon="3.54977">
        <ele>255.05166625977</ele>
        <time>2016-04-20T13:21:46.000Z</time>
      </trkpt>
      <trkpt lat="47.0536" lon="3.5498">
        <ele>255.18559265137</ele>
        <time>2016-04-20T13:21:47.000Z</time>
      </trkpt>
      <trkpt lat="47.05359" lon="3.54983">
        <ele>255.32015991211</ele>
        <time>2016-04-20T13:21:50.000Z</time>
      </trkpt>
      <trkpt lat="47.05358" lon="3.54987">
        <ele>255.43656921387</ele>
        <time>2016-04-20T13:21:53.000Z</time>
      </trkpt>
      <trkpt lat="47.05357" lon="3.54992">
        <ele>255.56008911133</ele>
        <time>2016-04-20T13:21:56.000Z</time>
      </trkpt>
      <trkpt lat="47.05355" lon="3.54995">
        <ele>255.6675567627</ele>
        <time>2016-04-20T13:21:58.000Z</time>
      </trkpt>
      <trkpt lat="47.05354" lon="3.54998">
        <ele>255.76986694336</ele>
        <time>2016-04-20T13:22:00.000Z</time>
      </trkpt>
      <trkpt lat="47.05353" lon="3.55">
        <ele>255.86605834961</ele>
        <time>2016-04-20T13:22:04.000Z</time>
      </trkpt>
      <trkpt lat="47.05352" lon="3.55003">
        <ele>255.98110961914</ele>
        <time>2016-04-20T13:22:05.000Z</time>
      </trkpt>
      <trkpt lat="47.05351" lon="3.55006">
        <ele>256.1003112793</ele>
        <time>2016-04-20T13:22:08.000Z</time>
      </trkpt>
      <trkpt lat="47.0535" lon="3.5501">
        <ele>256.25991821289</ele>
        <time>2016-04-20T13:22:10.000Z</time>
      </trkpt>
      <trkpt lat="47.05349" lon="3.55011">
        <ele>256.42346191406</ele>
        <time>2016-04-20T13:22:12.000Z</time>
      </trkpt>
      <trkpt lat="47.05346" lon="3.55018">
        <ele>256.66326904297</ele>
        <time>2016-04-20T13:22:15.000Z</time>
      </trkpt>
      <trkpt lat="47.05345" lon="3.5502">
        <ele>256.90243530273</ele>
        <time>2016-04-20T13:22:17.000Z</time>
      </trkpt>
      <trkpt lat="47.05344" lon="3.55024">
        <ele>257.16204833984</ele>
        <time>2016-04-20T13:22:19.000Z</time>
      </trkpt>
      <trkpt lat="47.05342" lon="3.55026">
        <ele>257.39953613281</ele>
        <time>2016-04-20T13:22:22.000Z</time>
      </trkpt>
      <trkpt lat="47.05342" lon="3.55028">
        <ele>257.64569091797</ele>
        <time>2016-04-20T13:22:24.000Z</time>
      </trkpt>
      <trkpt lat="47.0534" lon="3.55032">
        <ele>257.85177612305</ele>
        <time>2016-04-20T13:22:28.000Z</time>
      </trkpt>
      <trkpt lat="47.05338" lon="3.55035">
        <ele>258.06088256836</ele>
        <time>2016-04-20T13:22:29.000Z</time>
      </trkpt>
      <trkpt lat="47.05337" lon="3.55038">
        <ele>258.26129150391</ele>
        <time>2016-04-20T13:22:31.000Z</time>
      </trkpt>
      <trkpt lat="47.05335" lon="3.55042">
        <ele>258.49740600586</ele>
        <time>2016-04-20T13:22:34.000Z</time>
      </trkpt>
      <trkpt lat="47.05334" lon="3.55047">
        <ele>258.77227783203</ele>
        <time>2016-04-20T13:22:37.000Z</time>
      </trkpt>
      <trkpt lat="47.05332" lon="3.5505">
        <ele>259.04193115234</ele>
        <time>2016-04-20T13:22:39.000Z</time>
      </trkpt>
      <trkpt lat="47.05331" lon="3.55052">
        <ele>259.30502319336</ele>
        <time>2016-04-20T13:22:41.000Z</time>
      </trkpt>
      <trkpt lat="47.05329" lon="3.55056">
        <ele>259.58099365234</ele>
        <time>2016-04-20T13:22:44.000Z</time>
      </trkpt>
      <trkpt lat="47.05327" lon="3.55059">
        <ele>259.82415771484</ele>
        <time>2016-04-20T13:22:46.000Z</time>
      </trkpt>
      <trkpt lat="47.05326" lon="3.55061">
        <ele>260.03289794922</ele>
        <time>2016-04-20T13:22:48.000Z</time>
      </trkpt>
      <trkpt lat="47.05324" lon="3.55065">
        <ele>260.25122070312</ele>
        <time>2016-04-20T13:22:51.000Z</time>
      </trkpt>
      <trkpt lat="47.05322" lon="3.55069">
        <ele>260.48345947266</ele>
        <time>2016-04-20T13:22:54.000Z</time>
      </trkpt>
      <trkpt lat="47.0532" lon="3.55074">
        <ele>260.71392822266</ele>
        <time>2016-04-20T13:22:57.000Z</time>
      </trkpt>
      <trkpt lat="47.05319" lon="3.55076">
        <ele>260.94009399414</ele>
        <time>2016-04-20T13:23:00.000Z</time>
      </trkpt>
      <trkpt lat="47.05318" lon="3.5508">
        <ele>261.1806640625</ele>
        <time>2016-04-20T13:23:02.000Z</time>
      </trkpt>
      <trkpt lat="47.05315" lon="3.55084">
        <ele>261.40374755859</ele>
        <time>2016-04-20T13:23:05.000Z</time>
      </trkpt>
      <trkpt lat="47.05313" lon="3.55088">
        <ele>261.59613037109</ele>
        <time>2016-04-20T13:23:08.000Z</time>
      </trkpt>
      <trkpt lat="47.05313" lon="3.55089">
        <ele>261.74310302734</ele>
        <time>2016-04-20T13:23:12.000Z</time>
      </trkpt>
      <trkpt lat="47.05311" lon="3.55092">
        <ele>261.86993408203</ele>
        <time>2016-04-20T13:23:13.000Z</time>
      </trkpt>
      <trkpt lat="47.05309" lon="3.55095">
        <ele>261.97583007812</ele>
        <time>2016-04-20T13:23:15.000Z</time>
      </trkpt>
      <trkpt lat="47.05307" lon="3.551">
        <ele>262.06591796875</ele>
        <time>2016-04-20T13:23:18.000Z</time>
      </trkpt>
      <trkpt lat="47.05305" lon="3.55104">
        <ele>262.16082763672</ele>
        <time>2016-04-20T13:23:21.000Z</time>
      </trkpt>
      <trkpt lat="47.05304" lon="3.55106">
        <ele>262.26016235352</ele>
        <time>2016-04-20T13:23:23.000Z</time>
      </trkpt>
      <trkpt lat="47.05302" lon="3.55111">
        <ele>262.37426757812</ele>
        <time>2016-04-20T13:23:32.000Z</time>
      </trkpt>
      <trkpt lat="47.05299" lon="3.55116">
        <ele>262.50042724609</ele>
        <time>2016-04-20T13:23:32.000Z</time>
      </trkpt>
      <trkpt lat="47.05298" lon="3.55119">
        <ele>262.61614990234</ele>
        <time>2016-04-20T13:23:32.000Z</time>
      </trkpt>
      <trkpt lat="47.05297" lon="3.55122">
        <ele>262.72973632812</ele>
        <time>2016-04-20T13:23:37.000Z</time>
      </trkpt>
      <trkpt lat="47.05297" lon="3.55124">
        <ele>262.84234619141</ele>
        <time>2016-04-20T13:23:43.000Z</time>
      </trkpt>
      <trkpt lat="47.05295" lon="3.55127">
        <ele>262.94732666016</ele>
        <time>2016-04-20T13:23:47.000Z</time>
      </trkpt>
      <trkpt lat="47.05292" lon="3.55132">
        <ele>263.04052734375</ele>
        <time>2016-04-20T13:23:49.000Z</time>
      </trkpt>
      <trkpt lat="47.05291" lon="3.55133">
        <ele>263.12396240234</ele>
        <time>2016-04-20T13:23:52.000Z</time>
      </trkpt>
      <trkpt lat="47.05289" lon="3.55135">
        <ele>263.19964599609</ele>
        <time>2016-04-20T13:23:54.000Z</time>
      </trkpt>
      <trkpt lat="47.05288" lon="3.55139">
        <ele>263.28338623047</ele>
        <time>2016-04-20T13:23:58.000Z</time>
      </trkpt>
      <trkpt lat="47.05286" lon="3.55143">
        <ele>263.37347412109</ele>
        <time>2016-04-20T13:24:00.000Z</time>
      </trkpt>
      <trkpt lat="47.05284" lon="3.55146">
        <ele>263.45880126953</ele>
        <time>2016-04-20T13:24:03.000Z</time>
      </trkpt>
      <trkpt lat="47.05281" lon="3.55151">
        <ele>263.56829833984</ele>
        <time>2016-04-20T13:24:05.000Z</time>
      </trkpt>
      <trkpt lat="47.05279" lon="3.55154">
        <ele>263.67797851562</ele>
        <time>2016-04-20T13:24:08.000Z</time>
      </trkpt>
      <trkpt lat="47.05278" lon="3.55156">
        <ele>263.78002929688</ele>
        <time>2016-04-20T13:24:09.000Z</time>
      </trkpt>
      <trkpt lat="47.05275" lon="3.5516">
        <ele>263.87701416016</ele>
        <time>2016-04-20T13:24:13.000Z</time>
      </trkpt>
      <trkpt lat="47.05273" lon="3.55163">
        <ele>263.96911621094</ele>
        <time>2016-04-20T13:24:14.000Z</time>
      </trkpt>
      <trkpt lat="47.05271" lon="3.55168">
        <ele>264.0576171875</ele>
        <time>2016-04-20T13:24:17.000Z</time>
      </trkpt>
      <trkpt lat="47.05269" lon="3.55172">
        <ele>264.13592529297</ele>
        <time>2016-04-20T13:24:21.000Z</time>
      </trkpt>
      <trkpt lat="47.05267" lon="3.55175">
        <ele>264.20181274414</ele>
        <time>2016-04-20T13:24:22.000Z</time>
      </trkpt>
      <trkpt lat="47.05266" lon="3.55177">
        <ele>264.24884033203</ele>
        <time>2016-04-20T13:24:25.000Z</time>
      </trkpt>
      <trkpt lat="47.05264" lon="3.55181">
        <ele>264.28448486328</ele>
        <time>2016-04-20T13:24:27.000Z</time>
      </trkpt>
      <trkpt lat="47.05262" lon="3.55184">
        <ele>264.29598999023</ele>
        <time>2016-04-20T13:24:29.000Z</time>
      </trkpt>
      <trkpt lat="47.05259" lon="3.55187">
        <ele>264.30572509766</ele>
        <time>2016-04-20T13:24:32.000Z</time>
      </trkpt>
      <trkpt lat="47.05259" lon="3.5519">
        <ele>264.31878662109</ele>
        <time>2016-04-20T13:24:35.000Z</time>
      </trkpt>
      <trkpt lat="47.05257" lon="3.55193">
        <ele>264.33480834961</ele>
        <time>2016-04-20T13:24:37.000Z</time>
      </trkpt>
      <trkpt lat="47.05254" lon="3.55198">
        <ele>264.35443115234</ele>
        <time>2016-04-20T13:24:41.000Z</time>
      </trkpt>
      <trkpt lat="47.05253" lon="3.55202">
        <ele>264.38146972656</ele>
        <time>2016-04-20T13:24:43.000Z</time>
      </trkpt>
      <trkpt lat="47.05251" lon="3.55206">
        <ele>264.41119384766</ele>
        <time>2016-04-20T13:24:46.000Z</time>
      </trkpt>
      <trkpt lat="47.05249" lon="3.5521">
        <ele>264.44439697266</ele>
        <time>2016-04-20T13:24:50.000Z</time>
      </trkpt>
      <trkpt lat="47.05247" lon="3.55212">
        <ele>264.47860717773</ele>
        <time>2016-04-20T13:24:51.000Z</time>
      </trkpt>
      <trkpt lat="47.05245" lon="3.55215">
        <ele>264.51391601562</ele>
        <time>2016-04-20T13:24:54.000Z</time>
      </trkpt>
      <trkpt lat="47.05243" lon="3.55218">
        <ele>264.54641723633</ele>
        <time>2016-04-20T13:24:57.000Z</time>
      </trkpt>
      <trkpt lat="47.05239" lon="3.5522">
        <ele>264.57836914062</ele>
        <time>2016-04-20T13:25:00.000Z</time>
      </trkpt>
      <trkpt lat="47.05238" lon="3.55222">
        <ele>264.60784912109</ele>
        <time>2016-04-20T13:25:02.000Z</time>
      </trkpt>
      <trkpt lat="47.05236" lon="3.55223">
        <ele>264.63366699219</ele>
        <time>2016-04-20T13:25:05.000Z</time>
      </trkpt>
      <trkpt lat="47.05235" lon="3.55224">
        <ele>264.65493774414</ele>
        <time>2016-04-20T13:25:07.000Z</time>
      </trkpt>
      <trkpt lat="47.05232" lon="3.55226">
        <ele>264.67578125</ele>
        <time>2016-04-20T13:25:09.000Z</time>
      </trkpt>
      <trkpt lat="47.05231" lon="3.55228">
        <ele>264.69644165039</ele>
        <time>2016-04-20T13:25:12.000Z</time>
      </trkpt>
      <trkpt lat="47.0523" lon="3.5523">
        <ele>264.71600341797</ele>
        <time>2016-04-20T13:25:14.000Z</time>
      </trkpt>
      <trkpt lat="47.05228" lon="3.55233">
        <ele>264.74169921875</ele>
        <time>2016-04-20T13:25:17.000Z</time>
      </trkpt>
      <trkpt lat="47.05226" lon="3.55237">
        <ele>264.77294921875</ele>
        <time>2016-04-20T13:25:20.000Z</time>
      </trkpt>
      <trkpt lat="47.05225" lon="3.55238">
        <ele>264.80187988281</ele>
        <time>2016-04-20T13:25:23.000Z</time>
      </trkpt>
      <trkpt lat="47.05224" lon="3.55241">
        <ele>264.83197021484</ele>
        <time>2016-04-20T13:25:25.000Z</time>
      </trkpt>
      <trkpt lat="47.05222" lon="3.55247">
        <ele>264.8720703125</ele>
        <time>2016-04-20T13:25:28.000Z</time>
      </trkpt>
      <trkpt lat="47.0522" lon="3.55251">
        <ele>264.91876220703</ele>
        <time>2016-04-20T13:25:32.000Z</time>
      </trkpt>
      <trkpt lat="47.05217" lon="3.55254">
        <ele>264.98193359375</ele>
        <time>2016-04-20T13:25:34.000Z</time>
      </trkpt>
      <trkpt lat="47.05216" lon="3.55255">
        <ele>265.05535888672</ele>
        <time>2016-04-20T13:25:36.000Z</time>
      </trkpt>
      <trkpt lat="47.05214" lon="3.55258">
        <ele>265.14898681641</ele>
        <time>2016-04-20T13:25:39.000Z</time>
      </trkpt>
      <trkpt lat="47.05211" lon="3.55259">
        <ele>265.23986816406</ele>
        <time>2016-04-20T13:25:41.000Z</time>
      </trkpt>
      <trkpt lat="47.05209" lon="3.55261">
        <ele>265.34243774414</ele>
        <time>2016-04-20T13:25:44.000Z</time>
      </trkpt>
      <trkpt lat="47.05206" lon="3.55265">
        <ele>265.45834350586</ele>
        <time>2016-04-20T13:25:47.000Z</time>
      </trkpt>
      <trkpt lat="47.05202" lon="3.55271">
        <ele>265.61795043945</ele>
        <time>2016-04-20T13:25:51.000Z</time>
      </trkpt>
      <trkpt lat="47.052" lon="3.55272">
        <ele>265.77117919922</ele>
        <time>2016-04-20T13:25:52.000Z</time>
      </trkpt>
      <trkpt lat="47.05198" lon="3.55274">
        <ele>265.9319152832</ele>
        <time>2016-04-20T13:25:57.000Z</time>
      </trkpt>
      <trkpt lat="47.05195" lon="3.55277">
        <ele>266.10382080078</ele>
        <time>2016-04-20T13:25:58.000Z</time>
      </trkpt>
      <trkpt lat="47.05192" lon="3.55278">
        <ele>266.25384521484</ele>
        <time>2016-04-20T13:26:01.000Z</time>
      </trkpt>
      <trkpt lat="47.0519" lon="3.55279">
        <ele>266.35665893555</ele>
        <time>2016-04-20T13:26:02.000Z</time>
      </trkpt>
      <trkpt lat="47.05186" lon="3.55281">
        <ele>266.46459960938</ele>
        <time>2016-04-20T13:26:06.000Z</time>
      </trkpt>
      <trkpt lat="47.05184" lon="3.55281">
        <ele>266.56524658203</ele>
        <time>2016-04-20T13:26:07.000Z</time>
      </trkpt>
      <trkpt lat="47.05182" lon="3.55283">
        <ele>266.64788818359</ele>
        <time>2016-04-20T13:26:09.000Z</time>
      </trkpt>
      <trkpt lat="47.05178" lon="3.55284">
        <ele>266.72964477539</ele>
        <time>2016-04-20T13:26:12.000Z</time>
      </trkpt>
      <trkpt lat="47.05175" lon="3.55284">
        <ele>266.81750488281</ele>
        <time>2016-04-20T13:26:15.000Z</time>
      </trkpt>
      <trkpt lat="47.05172" lon="3.55286">
        <ele>266.90972900391</ele>
        <time>2016-04-20T13:26:18.000Z</time>
      </trkpt>
      <trkpt lat="47.0517" lon="3.55288">
        <ele>267.01409912109</ele>
        <time>2016-04-20T13:26:22.000Z</time>
      </trkpt>
      <trkpt lat="47.05167" lon="3.5529">
        <ele>267.12683105469</ele>
        <time>2016-04-20T13:26:25.000Z</time>
      </trkpt>
      <trkpt lat="47.05165" lon="3.55292">
        <ele>267.25177001953</ele>
        <time>2016-04-20T13:26:28.000Z</time>
      </trkpt>
      <trkpt lat="47.05163" lon="3.55294">
        <ele>267.37310791016</ele>
        <time>2016-04-20T13:26:29.000Z</time>
      </trkpt>
      <trkpt lat="47.05161" lon="3.55294">
        <ele>267.46575927734</ele>
        <time>2016-04-20T13:26:32.000Z</time>
      </trkpt>
      <trkpt lat="47.05159" lon="3.55296">
        <ele>267.55606079102</ele>
        <time>2016-04-20T13:26:34.000Z</time>
      </trkpt>
      <trkpt lat="47.05159" lon="3.55296">
        <ele>267.55606079102</ele>
        <time>2016-04-20T13:26:55.000Z</time>
      </trkpt>
      <trkpt lat="47.05158" lon="3.55297">
        <ele>267.63177490234</ele>
        <time>2016-04-20T13:26:59.000Z</time>
      </trkpt>
      <trkpt lat="47.05157" lon="3.55298">
        <ele>267.69061279297</ele>
        <time>2016-04-20T13:27:02.000Z</time>
      </trkpt>
      <trkpt lat="47.05154" lon="3.553">
        <ele>267.75747680664</ele>
        <time>2016-04-20T13:27:05.000Z</time>
      </trkpt>
      <trkpt lat="47.05151" lon="3.55301">
        <ele>267.83428955078</ele>
        <time>2016-04-20T13:27:07.000Z</time>
      </trkpt>
      <trkpt lat="47.05149" lon="3.55303">
        <ele>267.9049987793</ele>
        <time>2016-04-20T13:27:10.000Z</time>
      </trkpt>
      <trkpt lat="47.05145" lon="3.55306">
        <ele>267.98574829102</ele>
        <time>2016-04-20T13:27:14.000Z</time>
      </trkpt>
      <trkpt lat="47.05141" lon="3.55307">
        <ele>268.07015991211</ele>
        <time>2016-04-20T13:27:15.000Z</time>
      </trkpt>
      <trkpt lat="47.05139" lon="3.55309">
        <ele>268.14492797852</ele>
        <time>2016-04-20T13:27:17.000Z</time>
      </trkpt>
      <trkpt lat="47.05135" lon="3.55309">
        <ele>268.20837402344</ele>
        <time>2016-04-20T13:27:20.000Z</time>
      </trkpt>
      <trkpt lat="47.05133" lon="3.55309">
        <ele>268.25268554688</ele>
        <time>2016-04-20T13:27:22.000Z</time>
      </trkpt>
      <trkpt lat="47.0513" lon="3.55311">
        <ele>268.283203125</ele>
        <time>2016-04-20T13:27:25.000Z</time>
      </trkpt>
      <trkpt lat="47.05128" lon="3.55312">
        <ele>268.30877685547</ele>
        <time>2016-04-20T13:27:29.000Z</time>
      </trkpt>
      <trkpt lat="47.05126" lon="3.55313">
        <ele>268.33374023438</ele>
        <time>2016-04-20T13:27:30.000Z</time>
      </trkpt>
      <trkpt lat="47.05122" lon="3.55315">
        <ele>268.37588500977</ele>
        <time>2016-04-20T13:27:34.000Z</time>
      </trkpt>
      <trkpt lat="47.0512" lon="3.55316">
        <ele>268.42562866211</ele>
        <time>2016-04-20T13:27:35.000Z</time>
      </trkpt>
      <trkpt lat="47.05117" lon="3.55317">
        <ele>268.47222900391</ele>
        <time>2016-04-20T13:27:37.000Z</time>
      </trkpt>
      <trkpt lat="47.05114" lon="3.55318">
        <ele>268.5163269043</ele>
        <time>2016-04-20T13:27:40.000Z</time>
      </trkpt>
      <trkpt lat="47.05111" lon="3.5532">
        <ele>268.56454467773</ele>
        <time>2016-04-20T13:27:43.000Z</time>
      </trkpt>
      <trkpt lat="47.0511" lon="3.55322">
        <ele>268.60751342773</ele>
        <time>2016-04-20T13:27:46.000Z</time>
      </trkpt>
      <trkpt lat="47.05107" lon="3.55324">
        <ele>268.66033935547</ele>
        <time>2016-04-20T13:27:47.000Z</time>
      </trkpt>
      <trkpt lat="47.05106" lon="3.55324">
        <ele>268.70840454102</ele>
        <time>2016-04-20T13:27:50.000Z</time>
      </trkpt>
      <trkpt lat="47.05103" lon="3.55325">
        <ele>268.75714111328</ele>
        <time>2016-04-20T13:27:53.000Z</time>
      </trkpt>
      <trkpt lat="47.05101" lon="3.55327">
        <ele>268.80154418945</ele>
        <time>2016-04-20T13:27:55.000Z</time>
      </trkpt>
      <trkpt lat="47.05099" lon="3.55328">
        <ele>268.84057617188</ele>
        <time>2016-04-20T13:27:57.000Z</time>
      </trkpt>
      <trkpt lat="47.05096" lon="3.55329">
        <ele>268.87405395508</ele>
        <time>2016-04-20T13:28:00.000Z</time>
      </trkpt>
      <trkpt lat="47.05094" lon="3.55331">
        <ele>268.91766357422</ele>
        <time>2016-04-20T13:28:03.000Z</time>
      </trkpt>
      <trkpt lat="47.05091" lon="3.55333">
        <ele>268.962890625</ele>
        <time>2016-04-20T13:28:06.000Z</time>
      </trkpt>
      <trkpt lat="47.05088" lon="3.55334">
        <ele>269.00457763672</ele>
        <time>2016-04-20T13:28:09.000Z</time>
      </trkpt>
      <trkpt lat="47.05086" lon="3.55336">
        <ele>269.04870605469</ele>
        <time>2016-04-20T13:28:11.000Z</time>
      </trkpt>
      <trkpt lat="47.05082" lon="3.55339">
        <ele>269.10980224609</ele>
        <time>2016-04-20T13:28:14.000Z</time>
      </trkpt>
      <trkpt lat="47.05077" lon="3.5534">
        <ele>269.19403076172</ele>
        <time>2016-04-20T13:28:17.000Z</time>
      </trkpt>
      <trkpt lat="47.05074" lon="3.55342">
        <ele>269.30282592773</ele>
        <time>2016-04-20T13:28:20.000Z</time>
      </trkpt>
      <trkpt lat="47.0507" lon="3.55343">
        <ele>269.43823242188</ele>
        <time>2016-04-20T13:28:22.000Z</time>
      </trkpt>
      <trkpt lat="47.05067" lon="3.55346">
        <ele>269.59683227539</ele>
        <time>2016-04-20T13:28:25.000Z</time>
      </trkpt>
      <trkpt lat="47.05066" lon="3.55346">
        <ele>269.7453918457</ele>
        <time>2016-04-20T13:28:27.000Z</time>
      </trkpt>
      <trkpt lat="47.05064" lon="3.55347">
        <ele>269.87292480469</ele>
        <time>2016-04-20T13:28:28.000Z</time>
      </trkpt>
      <trkpt lat="47.05062" lon="3.55349">
        <ele>269.98394775391</ele>
        <time>2016-04-20T13:28:31.000Z</time>
      </trkpt>
      <trkpt lat="47.05059" lon="3.55351">
        <ele>270.09463500977</ele>
        <time>2016-04-20T13:28:35.000Z</time>
      </trkpt>
      <trkpt lat="47.05057" lon="3.55352">
        <ele>270.19305419922</ele>
        <time>2016-04-20T13:28:37.000Z</time>
      </trkpt>
      <trkpt lat="47.05053" lon="3.55355">
        <ele>270.31283569336</ele>
        <time>2016-04-20T13:28:39.000Z</time>
      </trkpt>
      <trkpt lat="47.0505" lon="3.55356">
        <ele>270.43893432617</ele>
        <time>2016-04-20T13:28:42.000Z</time>
      </trkpt>
      <trkpt lat="47.05047" lon="3.55356">
        <ele>270.5608215332</ele>
        <time>2016-04-20T13:28:45.000Z</time>
      </trkpt>
      <trkpt lat="47.05043" lon="3.55357">
        <ele>270.67544555664</ele>
        <time>2016-04-20T13:28:48.000Z</time>
      </trkpt>
      <trkpt lat="47.0504" lon="3.55357">
        <ele>270.78631591797</ele>
        <time>2016-04-20T13:28:50.000Z</time>
      </trkpt>
      <trkpt lat="47.05037" lon="3.55359">
        <ele>270.88360595703</ele>
        <time>2016-04-20T13:28:51.000Z</time>
      </trkpt>
      <trkpt lat="47.05033" lon="3.5536">
        <ele>270.98513793945</ele>
        <time>2016-04-20T13:28:54.000Z</time>
      </trkpt>
      <trkpt lat="47.05031" lon="3.5536">
        <ele>271.08135986328</ele>
        <time>2016-04-20T13:28:57.000Z</time>
      </trkpt>
      <trkpt lat="47.05027" lon="3.55361">
        <ele>271.17279052734</ele>
        <time>2016-04-20T13:28:59.000Z</time>
      </trkpt>
      <trkpt lat="47.05025" lon="3.55361">
        <ele>271.25750732422</ele>
        <time>2016-04-20T13:29:01.000Z</time>
      </trkpt>
      <trkpt lat="47.05021" lon="3.55361">
        <ele>271.34078979492</ele>
        <time>2016-04-20T13:29:05.000Z</time>
      </trkpt>
      <trkpt lat="47.05018" lon="3.55361">
        <ele>271.4111328125</ele>
        <time>2016-04-20T13:29:06.000Z</time>
      </trkpt>
      <trkpt lat="47.05015" lon="3.5536">
        <ele>271.48974609375</ele>
        <time>2016-04-20T13:29:09.000Z</time>
      </trkpt>
      <trkpt lat="47.05011" lon="3.55361">
        <ele>271.56484985352</ele>
        <time>2016-04-20T13:29:12.000Z</time>
      </trkpt>
      <trkpt lat="47.05007" lon="3.55362">
        <ele>271.65350341797</ele>
        <time>2016-04-20T13:29:15.000Z</time>
      </trkpt>
      <trkpt lat="47.05004" lon="3.55363">
        <ele>271.734375</ele>
        <time>2016-04-20T13:29:18.000Z</time>
      </trkpt>
      <trkpt lat="47.05001" lon="3.55363">
        <ele>271.81494140625</ele>
        <time>2016-04-20T13:29:19.000Z</time>
      </trkpt>
      <trkpt lat="47.04997" lon="3.55363">
        <ele>271.88885498047</ele>
        <time>2016-04-20T13:29:23.000Z</time>
      </trkpt>
      <trkpt lat="47.04995" lon="3.55363">
        <ele>271.94741821289</ele>
        <time>2016-04-20T13:29:25.000Z</time>
      </trkpt>
      <trkpt lat="47.04991" lon="3.55364">
        <ele>271.98822021484</ele>
        <time>2016-04-20T13:29:28.000Z</time>
      </trkpt>
      <trkpt lat="47.04987" lon="3.55365">
        <ele>272.01901245117</ele>
        <time>2016-04-20T13:29:31.000Z</time>
      </trkpt>
      <trkpt lat="47.04984" lon="3.55366">
        <ele>272.04174804688</ele>
        <time>2016-04-20T13:29:33.000Z</time>
      </trkpt>
      <trkpt lat="47.04979" lon="3.55366">
        <ele>272.05908203125</ele>
        <time>2016-04-20T13:29:37.000Z</time>
      </trkpt>
      <trkpt lat="47.04974" lon="3.55366">
        <ele>272.07925415039</ele>
        <time>2016-04-20T13:29:39.000Z</time>
      </trkpt>
      <trkpt lat="47.04972" lon="3.55366">
        <ele>272.09747314453</ele>
        <time>2016-04-20T13:29:41.000Z</time>
      </trkpt>
      <trkpt lat="47.04969" lon="3.55366">
        <ele>272.11465454102</ele>
        <time>2016-04-20T13:29:45.000Z</time>
      </trkpt>
      <trkpt lat="47.04966" lon="3.55365">
        <ele>272.13034057617</ele>
        <time>2016-04-20T13:29:46.000Z</time>
      </trkpt>
      <trkpt lat="47.04963" lon="3.55364">
        <ele>272.14346313477</ele>
        <time>2016-04-20T13:29:49.000Z</time>
      </trkpt>
      <trkpt lat="47.0496" lon="3.55364">
        <ele>272.15545654297</ele>
        <time>2016-04-20T13:29:52.000Z</time>
      </trkpt>
      <trkpt lat="47.04958" lon="3.55365">
        <ele>272.16647338867</ele>
        <time>2016-04-20T13:29:56.000Z</time>
      </trkpt>
      <trkpt lat="47.04957" lon="3.55365">
        <ele>272.17694091797</ele>
        <time>2016-04-20T13:30:12.000Z</time>
      </trkpt>
      <trkpt lat="47.04956" lon="3.55366">
        <ele>272.18719482422</ele>
        <time>2016-04-20T13:30:15.000Z</time>
      </trkpt>
      <trkpt lat="47.04954" lon="3.55367">
        <ele>272.19873046875</ele>
        <time>2016-04-20T13:30:19.000Z</time>
      </trkpt>
      <trkpt lat="47.04953" lon="3.55367">
        <ele>272.20797729492</ele>
        <time>2016-04-20T13:30:33.000Z</time>
      </trkpt>
      <trkpt lat="47.04953" lon="3.55367">
        <ele>272.20797729492</ele>
        <time>2016-04-20T13:30:53.000Z</time>
      </trkpt>
      <trkpt lat="47.04952" lon="3.55366">
        <ele>272.21548461914</ele>
        <time>2016-04-20T13:33:09.000Z</time>
      </trkpt>
      <trkpt lat="47.04951" lon="3.55366">
        <ele>272.22235107422</ele>
        <time>2016-04-20T13:33:13.000Z</time>
      </trkpt>
      <trkpt lat="47.04949" lon="3.55366">
        <ele>272.22943115234</ele>
        <time>2016-04-20T13:33:16.000Z</time>
      </trkpt>
      <trkpt lat="47.04948" lon="3.55366">
        <ele>272.23391723633</ele>
        <time>2016-04-20T13:33:17.000Z</time>
      </trkpt>
      <trkpt lat="47.04947" lon="3.55365">
        <ele>272.23687744141</ele>
        <time>2016-04-20T13:33:19.000Z</time>
      </trkpt>
      <trkpt lat="47.04945" lon="3.55364">
        <ele>272.24078369141</ele>
        <time>2016-04-20T13:33:22.000Z</time>
      </trkpt>
      <trkpt lat="47.04943" lon="3.55364">
        <ele>272.24432373047</ele>
        <time>2016-04-20T13:33:24.000Z</time>
      </trkpt>
      <trkpt lat="47.0494" lon="3.55363">
        <ele>272.2477722168</ele>
        <time>2016-04-20T13:33:27.000Z</time>
      </trkpt>
      <trkpt lat="47.04939" lon="3.55363">
        <ele>272.25189208984</ele>
        <time>2016-04-20T13:33:31.000Z</time>
      </trkpt>
      <trkpt lat="47.04939" lon="3.55365">
        <ele>272.25909423828</ele>
        <time>2016-04-20T13:33:34.000Z</time>
      </trkpt>
      <trkpt lat="47.04939" lon="3.55366">
        <ele>272.26797485352</ele>
        <time>2016-04-20T13:33:38.000Z</time>
      </trkpt>
      <trkpt lat="47.04939" lon="3.55366">
        <ele>272.26797485352</ele>
        <time>2016-04-20T13:33:58.000Z</time>
      </trkpt>
      <trkpt lat="47.04937" lon="3.55366">
        <ele>272.27798461914</ele>
        <time>2016-04-20T13:33:59.000Z</time>
      </trkpt>
      <trkpt lat="47.04933" lon="3.55366">
        <ele>272.2900390625</ele>
        <time>2016-04-20T13:34:02.000Z</time>
      </trkpt>
      <trkpt lat="47.04929" lon="3.55366">
        <ele>272.30493164062</ele>
        <time>2016-04-20T13:34:04.000Z</time>
      </trkpt>
      <trkpt lat="47.04925" lon="3.55366">
        <ele>272.31890869141</ele>
        <time>2016-04-20T13:34:07.000Z</time>
      </trkpt>
      <trkpt lat="47.04922" lon="3.55366">
        <ele>272.33319091797</ele>
        <time>2016-04-20T13:34:10.000Z</time>
      </trkpt>
      <trkpt lat="47.04921" lon="3.55366">
        <ele>272.34854125977</ele>
        <time>2016-04-20T13:34:12.000Z</time>
      </trkpt>
      <trkpt lat="47.04918" lon="3.55368">
        <ele>272.36672973633</ele>
        <time>2016-04-20T13:34:15.000Z</time>
      </trkpt>
      <trkpt lat="47.04916" lon="3.55369">
        <ele>272.3883972168</ele>
        <time>2016-04-20T13:34:16.000Z</time>
      </trkpt>
      <trkpt lat="47.04911" lon="3.55369">
        <ele>272.43154907227</ele>
        <time>2016-04-20T13:34:19.000Z</time>
      </trkpt>
      <trkpt lat="47.04908" lon="3.5537">
        <ele>272.48623657227</ele>
        <time>2016-04-20T13:34:21.000Z</time>
      </trkpt>
      <trkpt lat="47.04905" lon="3.5537">
        <ele>272.55850219727</ele>
        <time>2016-04-20T13:34:24.000Z</time>
      </trkpt>
      <trkpt lat="47.04901" lon="3.55371">
        <ele>272.64245605469</ele>
        <time>2016-04-20T13:34:27.000Z</time>
      </trkpt>
      <trkpt lat="47.04897" lon="3.55371">
        <ele>272.73828125</ele>
        <time>2016-04-20T13:34:30.000Z</time>
      </trkpt>
      <trkpt lat="47.04892" lon="3.55371">
        <ele>272.83477783203</ele>
        <time>2016-04-20T13:34:33.000Z</time>
      </trkpt>
      <trkpt lat="47.0489" lon="3.55372">
        <ele>272.93002319336</ele>
        <time>2016-04-20T13:34:35.000Z</time>
      </trkpt>
      <trkpt lat="47.04886" lon="3.55373">
        <ele>273.02481079102</ele>
        <time>2016-04-20T13:34:38.000Z</time>
      </trkpt>
      <trkpt lat="47.04884" lon="3.55374">
        <ele>273.11022949219</ele>
        <time>2016-04-20T13:34:40.000Z</time>
      </trkpt>
      <trkpt lat="47.04881" lon="3.55374">
        <ele>273.19567871094</ele>
        <time>2016-04-20T13:34:45.000Z</time>
      </trkpt>
      <trkpt lat="47.04878" lon="3.55374">
        <ele>273.26995849609</ele>
        <time>2016-04-20T13:34:45.000Z</time>
      </trkpt>
      <trkpt lat="47.04874" lon="3.55374">
        <ele>273.35101318359</ele>
        <time>2016-04-20T13:34:47.000Z</time>
      </trkpt>
      <trkpt lat="47.0487" lon="3.55374">
        <ele>273.43011474609</ele>
        <time>2016-04-20T13:34:50.000Z</time>
      </trkpt>
      <trkpt lat="47.04866" lon="3.55374">
        <ele>273.51953125</ele>
        <time>2016-04-20T13:34:54.000Z</time>
      </trkpt>
      <trkpt lat="47.04863" lon="3.55374">
        <ele>273.60272216797</ele>
        <time>2016-04-20T13:34:55.000Z</time>
      </trkpt>
      <trkpt lat="47.04861" lon="3.55374">
        <ele>273.68450927734</ele>
        <time>2016-04-20T13:35:01.000Z</time>
      </trkpt>
      <trkpt lat="47.04858" lon="3.55374">
        <ele>273.75952148438</ele>
        <time>2016-04-20T13:35:01.000Z</time>
      </trkpt>
      <trkpt lat="47.04854" lon="3.55373">
        <ele>273.83334350586</ele>
        <time>2016-04-20T13:35:02.000Z</time>
      </trkpt>
      <trkpt lat="47.0485" lon="3.55373">
        <ele>273.90863037109</ele>
        <time>2016-04-20T13:35:09.000Z</time>
      </trkpt>
      <trkpt lat="47.04846" lon="3.55373">
        <ele>273.98693847656</ele>
        <time>2016-04-20T13:35:10.000Z</time>
      </trkpt>
      <trkpt lat="47.04844" lon="3.55372">
        <ele>274.06671142578</ele>
        <time>2016-04-20T13:35:10.000Z</time>
      </trkpt>
      <trkpt lat="47.0484" lon="3.55371">
        <ele>274.14541625977</ele>
        <time>2016-04-20T13:35:14.000Z</time>
      </trkpt>
      <trkpt lat="47.04837" lon="3.5537">
        <ele>274.21908569336</ele>
        <time>2016-04-20T13:35:16.000Z</time>
      </trkpt>
      <trkpt lat="47.04834" lon="3.55369">
        <ele>274.28643798828</ele>
        <time>2016-04-20T13:35:19.000Z</time>
      </trkpt>
      <trkpt lat="47.0483" lon="3.55369">
        <ele>274.37222290039</ele>
        <time>2016-04-20T13:35:21.000Z</time>
      </trkpt>
      <trkpt lat="47.04827" lon="3.55368">
        <ele>274.47573852539</ele>
        <time>2016-04-20T13:35:24.000Z</time>
      </trkpt>
      <trkpt lat="47.04823" lon="3.55369">
        <ele>274.61248779297</ele>
        <time>2016-04-20T13:35:26.000Z</time>
      </trkpt>
      <trkpt lat="47.04818" lon="3.55369">
        <ele>274.79144287109</ele>
        <time>2016-04-20T13:35:30.000Z</time>
      </trkpt>
      <trkpt lat="47.04817" lon="3.55368">
        <ele>274.97302246094</ele>
        <time>2016-04-20T13:35:31.000Z</time>
      </trkpt>
      <trkpt lat="47.04814" lon="3.55368">
        <ele>275.15463256836</ele>
        <time>2016-04-20T13:35:34.000Z</time>
      </trkpt>
      <trkpt lat="47.04811" lon="3.55367">
        <ele>275.33627319336</ele>
        <time>2016-04-20T13:35:37.000Z</time>
      </trkpt>
      <trkpt lat="47.04808" lon="3.55366">
        <ele>275.50704956055</ele>
        <time>2016-04-20T13:35:43.000Z</time>
      </trkpt>
      <trkpt lat="47.04805" lon="3.55366">
        <ele>275.64935302734</ele>
        <time>2016-04-20T13:35:43.000Z</time>
      </trkpt>
      <trkpt lat="47.04801" lon="3.55365">
        <ele>275.81903076172</ele>
        <time>2016-04-20T13:35:45.000Z</time>
      </trkpt>
      <trkpt lat="47.04799" lon="3.55365">
        <ele>275.97543334961</ele>
        <time>2016-04-20T13:35:50.000Z</time>
      </trkpt>
      <trkpt lat="47.04797" lon="3.55364">
        <ele>276.12768554688</ele>
        <time>2016-04-20T13:35:50.000Z</time>
      </trkpt>
      <trkpt lat="47.04792" lon="3.55364">
        <ele>276.29110717773</ele>
        <time>2016-04-20T13:35:52.000Z</time>
      </trkpt>
      <trkpt lat="47.04789" lon="3.55364">
        <ele>276.4694519043</ele>
        <time>2016-04-20T13:35:54.000Z</time>
      </trkpt>
      <trkpt lat="47.04786" lon="3.55363">
        <ele>276.62994384766</ele>
        <time>2016-04-20T13:35:57.000Z</time>
      </trkpt>
      <trkpt lat="47.04784" lon="3.55363">
        <ele>276.79095458984</ele>
        <time>2016-04-20T13:36:00.000Z</time>
      </trkpt>
      <trkpt lat="47.04782" lon="3.55363">
        <ele>276.95318603516</ele>
        <time>2016-04-20T13:36:02.000Z</time>
      </trkpt>
      <trkpt lat="47.04779" lon="3.55363">
        <ele>277.10165405273</ele>
        <time>2016-04-20T13:36:06.000Z</time>
      </trkpt>
      <trkpt lat="47.04776" lon="3.55364">
        <ele>277.24145507812</ele>
        <time>2016-04-20T13:36:10.000Z</time>
      </trkpt>
      <trkpt lat="47.04774" lon="3.55363">
        <ele>277.37716674805</ele>
        <time>2016-04-20T13:36:16.000Z</time>
      </trkpt>
      <trkpt lat="47.04772" lon="3.55363">
        <ele>277.51791381836</ele>
        <time>2016-04-20T13:36:17.000Z</time>
      </trkpt>
      <trkpt lat="47.04768" lon="3.55363">
        <ele>277.66723632812</ele>
        <time>2016-04-20T13:36:18.000Z</time>
      </trkpt>
      <trkpt lat="47.04766" lon="3.55362">
        <ele>277.81634521484</ele>
        <time>2016-04-20T13:36:18.000Z</time>
      </trkpt>
      <trkpt lat="47.04763" lon="3.55362">
        <ele>277.95596313477</ele>
        <time>2016-04-20T13:36:20.000Z</time>
      </trkpt>
      <trkpt lat="47.0476" lon="3.55362">
        <ele>278.11431884766</ele>
        <time>2016-04-20T13:36:29.000Z</time>
      </trkpt>
      <trkpt lat="47.04757" lon="3.55363">
        <ele>278.28204345703</ele>
        <time>2016-04-20T13:36:29.000Z</time>
      </trkpt>
      <trkpt lat="47.04752" lon="3.55364">
        <ele>278.46371459961</ele>
        <time>2016-04-20T13:36:30.000Z</time>
      </trkpt>
      <trkpt lat="47.04749" lon="3.55365">
        <ele>278.64660644531</ele>
        <time>2016-04-20T13:36:33.000Z</time>
      </trkpt>
      <trkpt lat="47.04746" lon="3.55365">
        <ele>278.82098388672</ele>
        <time>2016-04-20T13:36:35.000Z</time>
      </trkpt>
      <trkpt lat="47.04746" lon="3.55365">
        <ele>278.82098388672</ele>
        <time>2016-04-20T13:36:56.000Z</time>
      </trkpt>
      <trkpt lat="47.04745" lon="3.55365">
        <ele>278.95883178711</ele>
        <time>2016-04-20T13:36:58.000Z</time>
      </trkpt>
      <trkpt lat="47.04744" lon="3.55364">
        <ele>279.06927490234</ele>
        <time>2016-04-20T13:37:01.000Z</time>
      </trkpt>
      <trkpt lat="47.04742" lon="3.55364">
        <ele>279.1413269043</ele>
        <time>2016-04-20T13:37:02.000Z</time>
      </trkpt>
      <trkpt lat="47.04737" lon="3.55364">
        <ele>279.20370483398</ele>
        <time>2016-04-20T13:37:06.000Z</time>
      </trkpt>
      <trkpt lat="47.04736" lon="3.55364">
        <ele>279.26351928711</ele>
        <time>2016-04-20T13:37:07.000Z</time>
      </trkpt>
      <trkpt lat="47.04733" lon="3.55362">
        <ele>279.33190917969</ele>
        <time>2016-04-20T13:37:09.000Z</time>
      </trkpt>
      <trkpt lat="47.04731" lon="3.55361">
        <ele>279.39965820312</ele>
        <time>2016-04-20T13:37:11.000Z</time>
      </trkpt>
      <trkpt lat="47.0473" lon="3.55359">
        <ele>279.46136474609</ele>
        <time>2016-04-20T13:37:15.000Z</time>
      </trkpt>
      <trkpt lat="47.04729" lon="3.55356">
        <ele>279.50274658203</ele>
        <time>2016-04-20T13:37:34.000Z</time>
      </trkpt>
      <trkpt lat="47.04727" lon="3.55352">
        <ele>279.54159545898</ele>
        <time>2016-04-20T13:37:36.000Z</time>
      </trkpt>
      <trkpt lat="47.04724" lon="3.55349">
        <ele>279.58465576172</ele>
        <time>2016-04-20T13:37:40.000Z</time>
      </trkpt>
      <trkpt lat="47.04722" lon="3.55346">
        <ele>279.62460327148</ele>
        <time>2016-04-20T13:37:41.000Z</time>
      </trkpt>
      <trkpt lat="47.0472" lon="3.5534">
        <ele>279.66244506836</ele>
        <time>2016-04-20T13:37:44.000Z</time>
      </trkpt>
      <trkpt lat="47.04718" lon="3.55334">
        <ele>279.70211791992</ele>
        <time>2016-04-20T13:37:48.000Z</time>
      </trkpt>
      <trkpt lat="47.04716" lon="3.55328">
        <ele>279.74243164062</ele>
        <time>2016-04-20T13:37:50.000Z</time>
      </trkpt>
      <trkpt lat="47.04715" lon="3.55324">
        <ele>279.77124023438</ele>
        <time>2016-04-20T13:37:53.000Z</time>
      </trkpt>
      <trkpt lat="47.04713" lon="3.5532">
        <ele>279.8024597168</ele>
        <time>2016-04-20T13:37:54.000Z</time>
      </trkpt>
      <trkpt lat="47.04712" lon="3.55315">
        <ele>279.83810424805</ele>
        <time>2016-04-20T13:37:58.000Z</time>
      </trkpt>
      <trkpt lat="47.04711" lon="3.55312">
        <ele>279.873046875</ele>
        <time>2016-04-20T13:37:59.000Z</time>
      </trkpt>
      <trkpt lat="47.04711" lon="3.55309">
        <ele>279.900390625</ele>
        <time>2016-04-20T13:38:01.000Z</time>
      </trkpt>
      <trkpt lat="47.0471" lon="3.55304">
        <ele>279.923828125</ele>
        <time>2016-04-20T13:38:04.000Z</time>
      </trkpt>
      <trkpt lat="47.0471" lon="3.553">
        <ele>279.943359375</ele>
        <time>2016-04-20T13:38:06.000Z</time>
      </trkpt>
      <trkpt lat="47.04708" lon="3.55295">
        <ele>279.962890625</ele>
        <time>2016-04-20T13:38:09.000Z</time>
      </trkpt>
      <trkpt lat="47.04706" lon="3.55293">
        <ele>279.986328125</ele>
        <time>2016-04-20T13:38:11.000Z</time>
      </trkpt>
      <trkpt lat="47.04702" lon="3.55294">
        <ele>280.02734375</ele>
        <time>2016-04-20T13:38:15.000Z</time>
      </trkpt>
      <trkpt lat="47.04699" lon="3.55296">
        <ele>280.08203125</ele>
        <time>2016-04-20T13:38:16.000Z</time>
      </trkpt>
      <trkpt lat="47.04697" lon="3.55298">
        <ele>280.142578125</ele>
        <time>2016-04-20T13:38:18.000Z</time>
      </trkpt>
      <trkpt lat="47.04694" lon="3.55301">
        <ele>280.2109375</ele>
        <time>2016-04-20T13:38:21.000Z</time>
      </trkpt>
      <trkpt lat="47.04691" lon="3.55304">
        <ele>280.28515625</ele>
        <time>2016-04-20T13:38:24.000Z</time>
      </trkpt>
      <trkpt lat="47.04689" lon="3.55306">
        <ele>280.349609375</ele>
        <time>2016-04-20T13:38:26.000Z</time>
      </trkpt>
      <trkpt lat="47.04684" lon="3.55309">
        <ele>280.419921875</ele>
        <time>2016-04-20T13:38:30.000Z</time>
      </trkpt>
      <trkpt lat="47.0468" lon="3.55312">
        <ele>280.501953125</ele>
        <time>2016-04-20T13:38:32.000Z</time>
      </trkpt>
      <trkpt lat="47.04677" lon="3.55315">
        <ele>280.580078125</ele>
        <time>2016-04-20T13:38:34.000Z</time>
      </trkpt>
      <trkpt lat="47.04673" lon="3.55317">
        <ele>280.666015625</ele>
        <time>2016-04-20T13:38:38.000Z</time>
      </trkpt>
      <trkpt lat="47.0467" lon="3.55318">
        <ele>280.75390625</ele>
        <time>2016-04-20T13:38:39.000Z</time>
      </trkpt>
      <trkpt lat="47.04667" lon="3.55319">
        <ele>280.8359375</ele>
        <time>2016-04-20T13:38:42.000Z</time>
      </trkpt>
      <trkpt lat="47.04665" lon="3.55319">
        <ele>280.89141845703</ele>
        <time>2016-04-20T13:38:44.000Z</time>
      </trkpt>
      <trkpt lat="47.04663" lon="3.5532">
        <ele>280.92538452148</ele>
        <time>2016-04-20T13:38:46.000Z</time>
      </trkpt>
      <trkpt lat="47.0466" lon="3.55319">
        <ele>280.92422485352</ele>
        <time>2016-04-20T13:38:49.000Z</time>
      </trkpt>
      <trkpt lat="47.04657" lon="3.55319">
        <ele>280.89764404297</ele>
        <time>2016-04-20T13:38:51.000Z</time>
      </trkpt>
      <trkpt lat="47.04653" lon="3.55319">
        <ele>280.833984375</ele>
        <time>2016-04-20T13:38:55.000Z</time>
      </trkpt>
      <trkpt lat="47.04649" lon="3.55319">
        <ele>280.7578125</ele>
        <time>2016-04-20T13:38:56.000Z</time>
      </trkpt>
      <trkpt lat="47.04647" lon="3.55319">
        <ele>280.6796875</ele>
        <time>2016-04-20T13:38:59.000Z</time>
      </trkpt>
      <trkpt lat="47.04644" lon="3.55319">
        <ele>280.603515625</ele>
        <time>2016-04-20T13:39:00.000Z</time>
      </trkpt>
      <trkpt lat="47.04641" lon="3.55318">
        <ele>280.525390625</ele>
        <time>2016-04-20T13:39:03.000Z</time>
      </trkpt>
      <trkpt lat="47.04638" lon="3.55318">
        <ele>280.455078125</ele>
        <time>2016-04-20T13:39:06.000Z</time>
      </trkpt>
      <trkpt lat="47.04634" lon="3.55317">
        <ele>280.380859375</ele>
        <time>2016-04-20T13:39:09.000Z</time>
      </trkpt>
      <trkpt lat="47.04631" lon="3.55314">
        <ele>280.302734375</ele>
        <time>2016-04-20T13:39:12.000Z</time>
      </trkpt>
      <trkpt lat="47.04628" lon="3.55314">
        <ele>280.2265625</ele>
        <time>2016-04-20T13:39:13.000Z</time>
      </trkpt>
      <trkpt lat="47.04624" lon="3.55313">
        <ele>280.14453125</ele>
        <time>2016-04-20T13:39:16.000Z</time>
      </trkpt>
      <trkpt lat="47.0462" lon="3.55313">
        <ele>280.05859375</ele>
        <time>2016-04-20T13:39:19.000Z</time>
      </trkpt>
      <trkpt lat="47.04618" lon="3.55313">
        <ele>279.982421875</ele>
        <time>2016-04-20T13:39:22.000Z</time>
      </trkpt>
      <trkpt lat="47.04613" lon="3.55312">
        <ele>279.900390625</ele>
        <time>2016-04-20T13:39:24.000Z</time>
      </trkpt>
      <trkpt lat="47.04611" lon="3.55312">
        <ele>279.81640625</ele>
        <time>2016-04-20T13:39:26.000Z</time>
      </trkpt>
      <trkpt lat="47.04609" lon="3.55311">
        <ele>279.7421875</ele>
        <time>2016-04-20T13:39:30.000Z</time>
      </trkpt>
      <trkpt lat="47.04605" lon="3.55311">
        <ele>279.66796875</ele>
        <time>2016-04-20T13:39:33.000Z</time>
      </trkpt>
      <trkpt lat="47.04602" lon="3.5531">
        <ele>279.59375</ele>
        <time>2016-04-20T13:39:34.000Z</time>
      </trkpt>
      <trkpt lat="47.04599" lon="3.55311">
        <ele>279.5234375</ele>
        <time>2016-04-20T13:39:38.000Z</time>
      </trkpt>
      <trkpt lat="47.04596" lon="3.55312">
        <ele>279.451171875</ele>
        <time>2016-04-20T13:39:39.000Z</time>
      </trkpt>
      <trkpt lat="47.04594" lon="3.55312">
        <ele>279.380859375</ele>
        <time>2016-04-20T13:39:41.000Z</time>
      </trkpt>
      <trkpt lat="47.04591" lon="3.5531">
        <ele>279.3125</ele>
        <time>2016-04-20T13:39:47.000Z</time>
      </trkpt>
      <trkpt lat="47.0459" lon="3.55309">
        <ele>279.251953125</ele>
        <time>2016-04-20T13:39:49.000Z</time>
      </trkpt>
      <trkpt lat="47.04589" lon="3.55308">
        <ele>279.205078125</ele>
        <time>2016-04-20T13:39:59.000Z</time>
      </trkpt>
      <trkpt lat="47.04588" lon="3.55306">
        <ele>279.1640625</ele>
        <time>2016-04-20T13:40:04.000Z</time>
      </trkpt>
      <trkpt lat="47.04585" lon="3.55302">
        <ele>279.119140625</ele>
        <time>2016-04-20T13:40:06.000Z</time>
      </trkpt>
      <trkpt lat="47.04582" lon="3.55298">
        <ele>279.06726074219</ele>
        <time>2016-04-20T13:40:12.000Z</time>
      </trkpt>
      <trkpt lat="47.0458" lon="3.55295">
        <ele>279.0061340332</ele>
        <time>2016-04-20T13:40:16.000Z</time>
      </trkpt>
      <trkpt lat="47.04579" lon="3.55293">
        <ele>278.93103027344</ele>
        <time>2016-04-20T13:40:17.000Z</time>
      </trkpt>
      <trkpt lat="47.04578" lon="3.55291">
        <ele>278.85418701172</ele>
        <time>2016-04-20T13:40:17.000Z</time>
      </trkpt>
      <trkpt lat="47.04575" lon="3.55287">
        <ele>278.75750732422</ele>
        <time>2016-04-20T13:40:18.000Z</time>
      </trkpt>
      <trkpt lat="47.04574" lon="3.55284">
        <ele>278.6669921875</ele>
        <time>2016-04-20T13:40:18.000Z</time>
      </trkpt>
      <trkpt lat="47.04572" lon="3.55279">
        <ele>278.56143188477</ele>
        <time>2016-04-20T13:40:20.000Z</time>
      </trkpt>
      <trkpt lat="47.04571" lon="3.55278">
        <ele>278.45770263672</ele>
        <time>2016-04-20T13:40:38.000Z</time>
      </trkpt>
      <trkpt lat="47.04569" lon="3.55275">
        <ele>278.34097290039</ele>
        <time>2016-04-20T13:40:42.000Z</time>
      </trkpt>
      <trkpt lat="47.04567" lon="3.55273">
        <ele>278.22955322266</ele>
        <time>2016-04-20T13:40:44.000Z</time>
      </trkpt>
      <trkpt lat="47.04565" lon="3.55271">
        <ele>278.11068725586</ele>
        <time>2016-04-20T13:40:46.000Z</time>
      </trkpt>
      <trkpt lat="47.04563" lon="3.55267">
        <ele>277.98297119141</ele>
        <time>2016-04-20T13:40:49.000Z</time>
      </trkpt>
      <trkpt lat="47.0456" lon="3.55262">
        <ele>277.82000732422</ele>
        <time>2016-04-20T13:40:52.000Z</time>
      </trkpt>
      <trkpt lat="47.04557" lon="3.55259">
        <ele>277.63845825195</ele>
        <time>2016-04-20T13:40:56.000Z</time>
      </trkpt>
      <trkpt lat="47.04555" lon="3.55254">
        <ele>277.43942260742</ele>
        <time>2016-04-20T13:40:58.000Z</time>
      </trkpt>
      <trkpt lat="47.04553" lon="3.55249">
        <ele>277.22482299805</ele>
        <time>2016-04-20T13:41:00.000Z</time>
      </trkpt>
      <trkpt lat="47.04551" lon="3.55247">
        <ele>277.01095581055</ele>
        <time>2016-04-20T13:41:04.000Z</time>
      </trkpt>
      <trkpt lat="47.04549" lon="3.55243">
        <ele>276.81521606445</ele>
        <time>2016-04-20T13:41:08.000Z</time>
      </trkpt>
      <trkpt lat="47.04546" lon="3.55238">
        <ele>276.60919189453</ele>
        <time>2016-04-20T13:41:09.000Z</time>
      </trkpt>
      <trkpt lat="47.04545" lon="3.55236">
        <ele>276.42132568359</ele>
        <time>2016-04-20T13:41:12.000Z</time>
      </trkpt>
      <trkpt lat="47.04544" lon="3.55234">
        <ele>276.25521850586</ele>
        <time>2016-04-20T13:41:14.000Z</time>
      </trkpt>
      <trkpt lat="47.04542" lon="3.55229">
        <ele>276.08526611328</ele>
        <time>2016-04-20T13:41:17.000Z</time>
      </trkpt>
      <trkpt lat="47.04539" lon="3.55224">
        <ele>275.89471435547</ele>
        <time>2016-04-20T13:41:21.000Z</time>
      </trkpt>
      <trkpt lat="47.04537" lon="3.5522">
        <ele>275.71655273438</ele>
        <time>2016-04-20T13:41:23.000Z</time>
      </trkpt>
      <trkpt lat="47.04535" lon="3.55216">
        <ele>275.53216552734</ele>
        <time>2016-04-20T13:41:26.000Z</time>
      </trkpt>
      <trkpt lat="47.04534" lon="3.55212">
        <ele>275.33294677734</ele>
        <time>2016-04-20T13:41:28.000Z</time>
      </trkpt>
      <trkpt lat="47.04532" lon="3.55207">
        <ele>275.13916015625</ele>
        <time>2016-04-20T13:41:32.000Z</time>
      </trkpt>
      <trkpt lat="47.0453" lon="3.55204">
        <ele>274.96148681641</ele>
        <time>2016-04-20T13:41:34.000Z</time>
      </trkpt>
      <trkpt lat="47.04528" lon="3.552">
        <ele>274.79067993164</ele>
        <time>2016-04-20T13:41:38.000Z</time>
      </trkpt>
      <trkpt lat="47.04527" lon="3.55197">
        <ele>274.62237548828</ele>
        <time>2016-04-20T13:41:40.000Z</time>
      </trkpt>
      <trkpt lat="47.04524" lon="3.55192">
        <ele>274.4384765625</ele>
        <time>2016-04-20T13:41:43.000Z</time>
      </trkpt>
      <trkpt lat="47.04522" lon="3.55188">
        <ele>274.25146484375</ele>
        <time>2016-04-20T13:41:44.000Z</time>
      </trkpt>
      <trkpt lat="47.0452" lon="3.55185">
        <ele>274.05990600586</ele>
        <time>2016-04-20T13:41:46.000Z</time>
      </trkpt>
      <trkpt lat="47.04516" lon="3.55181">
        <ele>273.83755493164</ele>
        <time>2016-04-20T13:41:49.000Z</time>
      </trkpt>
      <trkpt lat="47.04515" lon="3.55178">
        <ele>273.61553955078</ele>
        <time>2016-04-20T13:41:53.000Z</time>
      </trkpt>
      <trkpt lat="47.04514" lon="3.55176">
        <ele>273.42572021484</ele>
        <time>2016-04-20T13:41:54.000Z</time>
      </trkpt>
      <trkpt lat="47.04512" lon="3.55173">
        <ele>273.24291992188</ele>
        <time>2016-04-20T13:41:57.000Z</time>
      </trkpt>
      <trkpt lat="47.04509" lon="3.55168">
        <ele>273.0439453125</ele>
        <time>2016-04-20T13:42:00.000Z</time>
      </trkpt>
      <trkpt lat="47.04507" lon="3.55166">
        <ele>272.88137817383</ele>
        <time>2016-04-20T13:42:03.000Z</time>
      </trkpt>
      <trkpt lat="47.04504" lon="3.55162">
        <ele>272.703125</ele>
        <time>2016-04-20T13:42:06.000Z</time>
      </trkpt>
      <trkpt lat="47.04501" lon="3.55159">
        <ele>272.49945068359</ele>
        <time>2016-04-20T13:42:08.000Z</time>
      </trkpt>
      <trkpt lat="47.04499" lon="3.55157">
        <ele>272.30868530273</ele>
        <time>2016-04-20T13:42:11.000Z</time>
      </trkpt>
      <trkpt lat="47.04496" lon="3.55153">
        <ele>272.16302490234</ele>
        <time>2016-04-20T13:42:13.000Z</time>
      </trkpt>
      <trkpt lat="47.04495" lon="3.55151">
        <ele>272.04220581055</ele>
        <time>2016-04-20T13:42:16.000Z</time>
      </trkpt>
      <trkpt lat="47.04493" lon="3.55149">
        <ele>271.96182250977</ele>
        <time>2016-04-20T13:42:17.000Z</time>
      </trkpt>
      <trkpt lat="47.04492" lon="3.55148">
        <ele>271.91781616211</ele>
        <time>2016-04-20T13:42:19.000Z</time>
      </trkpt>
      <trkpt lat="47.0449" lon="3.55143">
        <ele>271.87945556641</ele>
        <time>2016-04-20T13:42:23.000Z</time>
      </trkpt>
      <trkpt lat="47.04487" lon="3.55141">
        <ele>271.84451293945</ele>
        <time>2016-04-20T13:42:25.000Z</time>
      </trkpt>
      <trkpt lat="47.04485" lon="3.55137">
        <ele>271.79724121094</ele>
        <time>2016-04-20T13:42:27.000Z</time>
      </trkpt>
      <trkpt lat="47.04482" lon="3.55135">
        <ele>271.74493408203</ele>
        <time>2016-04-20T13:42:29.000Z</time>
      </trkpt>
      <trkpt lat="47.0448" lon="3.55132">
        <ele>271.68481445312</ele>
        <time>2016-04-20T13:42:32.000Z</time>
      </trkpt>
      <trkpt lat="47.04477" lon="3.5513">
        <ele>271.61938476562</ele>
        <time>2016-04-20T13:42:35.000Z</time>
      </trkpt>
      <trkpt lat="47.04473" lon="3.55127">
        <ele>271.54513549805</ele>
        <time>2016-04-20T13:42:38.000Z</time>
      </trkpt>
      <trkpt lat="47.04472" lon="3.55126">
        <ele>271.47302246094</ele>
        <time>2016-04-20T13:42:41.000Z</time>
      </trkpt>
      <trkpt lat="47.04469" lon="3.55123">
        <ele>271.39306640625</ele>
        <time>2016-04-20T13:42:43.000Z</time>
      </trkpt>
      <trkpt lat="47.04467" lon="3.55121">
        <ele>271.31665039062</ele>
        <time>2016-04-20T13:42:45.000Z</time>
      </trkpt>
      <trkpt lat="47.04464" lon="3.55119">
        <ele>271.23886108398</ele>
        <time>2016-04-20T13:42:48.000Z</time>
      </trkpt>
      <trkpt lat="47.04461" lon="3.55114">
        <ele>271.15103149414</ele>
        <time>2016-04-20T13:42:51.000Z</time>
      </trkpt>
      <trkpt lat="47.04458" lon="3.55112">
        <ele>271.05520629883</ele>
        <time>2016-04-20T13:42:54.000Z</time>
      </trkpt>
      <trkpt lat="47.04455" lon="3.55109">
        <ele>270.95199584961</ele>
        <time>2016-04-20T13:42:58.000Z</time>
      </trkpt>
      <trkpt lat="47.04452" lon="3.55107">
        <ele>270.83532714844</ele>
        <time>2016-04-20T13:43:00.000Z</time>
      </trkpt>
      <trkpt lat="47.04448" lon="3.55105">
        <ele>270.71075439453</ele>
        <time>2016-04-20T13:43:03.000Z</time>
      </trkpt>
      <trkpt lat="47.04445" lon="3.55103">
        <ele>270.59014892578</ele>
        <time>2016-04-20T13:43:06.000Z</time>
      </trkpt>
      <trkpt lat="47.04443" lon="3.55101">
        <ele>270.47106933594</ele>
        <time>2016-04-20T13:43:09.000Z</time>
      </trkpt>
      <trkpt lat="47.0444" lon="3.55098">
        <ele>270.34906005859</ele>
        <time>2016-04-20T13:43:12.000Z</time>
      </trkpt>
      <trkpt lat="47.04437" lon="3.55095">
        <ele>270.21801757812</ele>
        <time>2016-04-20T13:43:16.000Z</time>
      </trkpt>
      <trkpt lat="47.04435" lon="3.55094">
        <ele>270.09506225586</ele>
        <time>2016-04-20T13:43:16.000Z</time>
      </trkpt>
      <trkpt lat="47.04433" lon="3.55092">
        <ele>269.97998046875</ele>
        <time>2016-04-20T13:43:19.000Z</time>
      </trkpt>
      <trkpt lat="47.0443" lon="3.55089">
        <ele>269.84490966797</ele>
        <time>2016-04-20T13:43:22.000Z</time>
      </trkpt>
      <trkpt lat="47.04428" lon="3.55087">
        <ele>269.71908569336</ele>
        <time>2016-04-20T13:43:23.000Z</time>
      </trkpt>
      <trkpt lat="47.04425" lon="3.55084">
        <ele>269.59527587891</ele>
        <time>2016-04-20T13:43:26.000Z</time>
      </trkpt>
      <trkpt lat="47.04422" lon="3.5508">
        <ele>269.45867919922</ele>
        <time>2016-04-20T13:43:29.000Z</time>
      </trkpt>
      <trkpt lat="47.0442" lon="3.55078">
        <ele>269.31698608398</ele>
        <time>2016-04-20T13:43:31.000Z</time>
      </trkpt>
      <trkpt lat="47.04416" lon="3.55076">
        <ele>269.19097900391</ele>
        <time>2016-04-20T13:43:35.000Z</time>
      </trkpt>
      <trkpt lat="47.04412" lon="3.55074">
        <ele>269.09970092773</ele>
        <time>2016-04-20T13:43:37.000Z</time>
      </trkpt>
      <trkpt lat="47.0441" lon="3.55071">
        <ele>269.04525756836</ele>
        <time>2016-04-20T13:43:38.000Z</time>
      </trkpt>
      <trkpt lat="47.04408" lon="3.55069">
        <ele>269.02954101562</ele>
        <time>2016-04-20T13:43:41.000Z</time>
      </trkpt>
      <trkpt lat="47.04404" lon="3.55067">
        <ele>269.0446472168</ele>
        <time>2016-04-20T13:43:43.000Z</time>
      </trkpt>
      <trkpt lat="47.04402" lon="3.55065">
        <ele>269.08703613281</ele>
        <time>2016-04-20T13:43:46.000Z</time>
      </trkpt>
      <trkpt lat="47.04398" lon="3.55061">
        <ele>269.11663818359</ele>
        <time>2016-04-20T13:43:48.000Z</time>
      </trkpt>
      <trkpt lat="47.04396" lon="3.55059">
        <ele>269.13665771484</ele>
        <time>2016-04-20T13:43:51.000Z</time>
      </trkpt>
      <trkpt lat="47.04393" lon="3.55056">
        <ele>269.14749145508</ele>
        <time>2016-04-20T13:43:54.000Z</time>
      </trkpt>
      <trkpt lat="47.04392" lon="3.55054">
        <ele>269.14727783203</ele>
        <time>2016-04-20T13:43:55.000Z</time>
      </trkpt>
      <trkpt lat="47.04389" lon="3.55052">
        <ele>269.14053344727</ele>
        <time>2016-04-20T13:43:57.000Z</time>
      </trkpt>
      <trkpt lat="47.04387" lon="3.55049">
        <ele>269.12408447266</ele>
        <time>2016-04-20T13:44:00.000Z</time>
      </trkpt>
      <trkpt lat="47.04385" lon="3.55047">
        <ele>269.10388183594</ele>
        <time>2016-04-20T13:44:03.000Z</time>
      </trkpt>
      <trkpt lat="47.04382" lon="3.55043">
        <ele>269.06369018555</ele>
        <time>2016-04-20T13:44:05.000Z</time>
      </trkpt>
      <trkpt lat="47.04379" lon="3.5504">
        <ele>269.01782226562</ele>
        <time>2016-04-20T13:44:07.000Z</time>
      </trkpt>
      <trkpt lat="47.04375" lon="3.55038">
        <ele>268.96841430664</ele>
        <time>2016-04-20T13:44:10.000Z</time>
      </trkpt>
      <trkpt lat="47.04372" lon="3.55036">
        <ele>268.91333007812</ele>
        <time>2016-04-20T13:44:14.000Z</time>
      </trkpt>
      <trkpt lat="47.04371" lon="3.55034">
        <ele>268.85583496094</ele>
        <time>2016-04-20T13:44:16.000Z</time>
      </trkpt>
      <trkpt lat="47.04368" lon="3.55031">
        <ele>268.80035400391</ele>
        <time>2016-04-20T13:44:18.000Z</time>
      </trkpt>
      <trkpt lat="47.04366" lon="3.55029">
        <ele>268.73675537109</ele>
        <time>2016-04-20T13:44:20.000Z</time>
      </trkpt>
      <trkpt lat="47.04362" lon="3.55026">
        <ele>268.654296875</ele>
        <time>2016-04-20T13:44:23.000Z</time>
      </trkpt>
      <trkpt lat="47.04361" lon="3.55024">
        <ele>268.57089233398</ele>
        <time>2016-04-20T13:44:26.000Z</time>
      </trkpt>
      <trkpt lat="47.04359" lon="3.55022">
        <ele>268.47476196289</ele>
        <time>2016-04-20T13:44:28.000Z</time>
      </trkpt>
      <trkpt lat="47.04355" lon="3.55017">
        <ele>268.35675048828</ele>
        <time>2016-04-20T13:44:30.000Z</time>
      </trkpt>
      <trkpt lat="47.04353" lon="3.55016">
        <ele>268.2412109375</ele>
        <time>2016-04-20T13:44:34.000Z</time>
      </trkpt>
      <trkpt lat="47.04351" lon="3.55015">
        <ele>268.1403503418</ele>
        <time>2016-04-20T13:44:35.000Z</time>
      </trkpt>
      <trkpt lat="47.04346" lon="3.55014">
        <ele>268.04086303711</ele>
        <time>2016-04-20T13:44:39.000Z</time>
      </trkpt>
      <trkpt lat="47.04344" lon="3.55014">
        <ele>267.96078491211</ele>
        <time>2016-04-20T13:44:40.000Z</time>
      </trkpt>
      <trkpt lat="47.04341" lon="3.55016">
        <ele>267.9423828125</ele>
        <time>2016-04-20T13:44:43.000Z</time>
      </trkpt>
      <trkpt lat="47.04338" lon="3.55017">
        <ele>267.94424438477</ele>
        <time>2016-04-20T13:44:46.000Z</time>
      </trkpt>
      <trkpt lat="47.04335" lon="3.55018">
        <ele>267.96875</ele>
        <time>2016-04-20T13:44:50.000Z</time>
      </trkpt>
      <trkpt lat="47.04331" lon="3.55019">
        <ele>268.03634643555</ele>
        <time>2016-04-20T13:44:53.000Z</time>
      </trkpt>
      <trkpt lat="47.04329" lon="3.5502">
        <ele>268.12908935547</ele>
        <time>2016-04-20T13:44:54.000Z</time>
      </trkpt>
      <trkpt lat="47.04326" lon="3.55021">
        <ele>268.23260498047</ele>
        <time>2016-04-20T13:44:57.000Z</time>
      </trkpt>
      <trkpt lat="47.04323" lon="3.55022">
        <ele>268.36456298828</ele>
        <time>2016-04-20T13:45:00.000Z</time>
      </trkpt>
      <trkpt lat="47.04321" lon="3.55023">
        <ele>268.50625610352</ele>
        <time>2016-04-20T13:45:01.000Z</time>
      </trkpt>
      <trkpt lat="47.04319" lon="3.55025">
        <ele>268.65072631836</ele>
        <time>2016-04-20T13:45:05.000Z</time>
      </trkpt>
      <trkpt lat="47.04317" lon="3.55025">
        <ele>268.78845214844</ele>
        <time>2016-04-20T13:45:07.000Z</time>
      </trkpt>
      <trkpt lat="47.04314" lon="3.55026">
        <ele>268.92221069336</ele>
        <time>2016-04-20T13:45:10.000Z</time>
      </trkpt>
      <trkpt lat="47.04311" lon="3.55026">
        <ele>269.0446472168</ele>
        <time>2016-04-20T13:45:13.000Z</time>
      </trkpt>
      <trkpt lat="47.0431" lon="3.55027">
        <ele>269.15997314453</ele>
        <time>2016-04-20T13:45:16.000Z</time>
      </trkpt>
      <trkpt lat="47.04308" lon="3.55028">
        <ele>269.26766967773</ele>
        <time>2016-04-20T13:45:18.000Z</time>
      </trkpt>
      <trkpt lat="47.04303" lon="3.55028">
        <ele>269.39697265625</ele>
        <time>2016-04-20T13:45:21.000Z</time>
      </trkpt>
      <trkpt lat="47.043" lon="3.55029">
        <ele>269.5251159668</ele>
        <time>2016-04-20T13:45:23.000Z</time>
      </trkpt>
      <trkpt lat="47.04297" lon="3.5503">
        <ele>269.65115356445</ele>
        <time>2016-04-20T13:45:25.000Z</time>
      </trkpt>
      <trkpt lat="47.04293" lon="3.5503">
        <ele>269.79006958008</ele>
        <time>2016-04-20T13:45:27.000Z</time>
      </trkpt>
      <trkpt lat="47.04291" lon="3.5503">
        <ele>269.92291259766</ele>
        <time>2016-04-20T13:45:29.000Z</time>
      </trkpt>
      <trkpt lat="47.04287" lon="3.5503">
        <ele>270.03344726562</ele>
        <time>2016-04-20T13:45:32.000Z</time>
      </trkpt>
      <trkpt lat="47.04285" lon="3.55029">
        <ele>270.12850952148</ele>
        <time>2016-04-20T13:45:34.000Z</time>
      </trkpt>
      <trkpt lat="47.04282" lon="3.55029">
        <ele>270.21557617188</ele>
        <time>2016-04-20T13:45:36.000Z</time>
      </trkpt>
      <trkpt lat="47.04279" lon="3.55029">
        <ele>270.29449462891</ele>
        <time>2016-04-20T13:45:39.000Z</time>
      </trkpt>
      <trkpt lat="47.04275" lon="3.55027">
        <ele>270.36297607422</ele>
        <time>2016-04-20T13:45:43.000Z</time>
      </trkpt>
      <trkpt lat="47.04273" lon="3.55027">
        <ele>270.42385864258</ele>
        <time>2016-04-20T13:45:44.000Z</time>
      </trkpt>
      <trkpt lat="47.0427" lon="3.55026">
        <ele>270.49047851562</ele>
        <time>2016-04-20T13:45:48.000Z</time>
      </trkpt>
      <trkpt lat="47.04267" lon="3.55026">
        <ele>270.56024169922</ele>
        <time>2016-04-20T13:45:49.000Z</time>
      </trkpt>
      <trkpt lat="47.04264" lon="3.55025">
        <ele>270.6237487793</ele>
        <time>2016-04-20T13:45:53.000Z</time>
      </trkpt>
      <trkpt lat="47.04261" lon="3.55024">
        <ele>270.68536376953</ele>
        <time>2016-04-20T13:45:55.000Z</time>
      </trkpt>
      <trkpt lat="47.04258" lon="3.55024">
        <ele>270.75253295898</ele>
        <time>2016-04-20T13:45:56.000Z</time>
      </trkpt>
      <trkpt lat="47.04256" lon="3.55023">
        <ele>270.81109619141</ele>
        <time>2016-04-20T13:45:59.000Z</time>
      </trkpt>
      <trkpt lat="47.04251" lon="3.55024">
        <ele>270.88815307617</ele>
        <time>2016-04-20T13:46:01.000Z</time>
      </trkpt>
      <trkpt lat="47.04249" lon="3.55023">
        <ele>270.97265625</ele>
        <time>2016-04-20T13:46:03.000Z</time>
      </trkpt>
      <trkpt lat="47.04245" lon="3.55024">
        <ele>271.10391235352</ele>
        <time>2016-04-20T13:46:06.000Z</time>
      </trkpt>
      <trkpt lat="47.04242" lon="3.55024">
        <ele>271.25747680664</ele>
        <time>2016-04-20T13:46:10.000Z</time>
      </trkpt>
      <trkpt lat="47.04239" lon="3.55024">
        <ele>271.44329833984</ele>
        <time>2016-04-20T13:46:12.000Z</time>
      </trkpt>
      <trkpt lat="47.04236" lon="3.55024">
        <ele>271.62423706055</ele>
        <time>2016-04-20T13:46:14.000Z</time>
      </trkpt>
      <trkpt lat="47.04232" lon="3.55025">
        <ele>271.83526611328</ele>
        <time>2016-04-20T13:46:18.000Z</time>
      </trkpt>
      <trkpt lat="47.04228" lon="3.55025">
        <ele>272.05807495117</ele>
        <time>2016-04-20T13:46:20.000Z</time>
      </trkpt>
      <trkpt lat="47.04225" lon="3.55026">
        <ele>272.27972412109</ele>
        <time>2016-04-20T13:46:22.000Z</time>
      </trkpt>
      <trkpt lat="47.04222" lon="3.55026">
        <ele>272.5065612793</ele>
        <time>2016-04-20T13:46:25.000Z</time>
      </trkpt>
      <trkpt lat="47.04219" lon="3.55026">
        <ele>272.72991943359</ele>
        <time>2016-04-20T13:46:28.000Z</time>
      </trkpt>
      <trkpt lat="47.04215" lon="3.55028">
        <ele>272.96432495117</ele>
        <time>2016-04-20T13:46:30.000Z</time>
      </trkpt>
      <trkpt lat="47.04213" lon="3.55028">
        <ele>273.15698242188</ele>
        <time>2016-04-20T13:46:32.000Z</time>
      </trkpt>
      <trkpt lat="47.04211" lon="3.55028">
        <ele>273.34017944336</ele>
        <time>2016-04-20T13:46:34.000Z</time>
      </trkpt>
      <trkpt lat="47.04209" lon="3.55029">
        <ele>273.51086425781</ele>
        <time>2016-04-20T13:46:37.000Z</time>
      </trkpt>
      <trkpt lat="47.04207" lon="3.55029">
        <ele>273.67895507812</ele>
        <time>2016-04-20T13:46:39.000Z</time>
      </trkpt>
      <trkpt lat="47.04205" lon="3.55029">
        <ele>273.81597900391</ele>
        <time>2016-04-20T13:46:41.000Z</time>
      </trkpt>
      <trkpt lat="47.04203" lon="3.55029">
        <ele>273.95468139648</ele>
        <time>2016-04-20T13:46:44.000Z</time>
      </trkpt>
      <trkpt lat="47.042" lon="3.55029">
        <ele>274.09167480469</ele>
        <time>2016-04-20T13:46:46.000Z</time>
      </trkpt>
      <trkpt lat="47.04199" lon="3.5503">
        <ele>274.21957397461</ele>
        <time>2016-04-20T13:46:55.000Z</time>
      </trkpt>
      <trkpt lat="47.04196" lon="3.55031">
        <ele>274.35931396484</ele>
        <time>2016-04-20T13:46:57.000Z</time>
      </trkpt>
      <trkpt lat="47.04193" lon="3.55031">
        <ele>274.50933837891</ele>
        <time>2016-04-20T13:47:01.000Z</time>
      </trkpt>
      <trkpt lat="47.04191" lon="3.55032">
        <ele>274.66104125977</ele>
        <time>2016-04-20T13:47:02.000Z</time>
      </trkpt>
      <trkpt lat="47.04187" lon="3.55034">
        <ele>274.83538818359</ele>
        <time>2016-04-20T13:47:06.000Z</time>
      </trkpt>
      <trkpt lat="47.04185" lon="3.55036">
        <ele>275.0221862793</ele>
        <time>2016-04-20T13:47:08.000Z</time>
      </trkpt>
      <trkpt lat="47.04182" lon="3.55038">
        <ele>275.20895385742</ele>
        <time>2016-04-20T13:47:10.000Z</time>
      </trkpt>
      <trkpt lat="47.04179" lon="3.55039">
        <ele>275.39218139648</ele>
        <time>2016-04-20T13:47:14.000Z</time>
      </trkpt>
      <trkpt lat="47.04178" lon="3.5504">
        <ele>275.56463623047</ele>
        <time>2016-04-20T13:47:16.000Z</time>
      </trkpt>
      <trkpt lat="47.04176" lon="3.5504">
        <ele>275.71078491211</ele>
        <time>2016-04-20T13:47:17.000Z</time>
      </trkpt>
      <trkpt lat="47.04175" lon="3.55042">
        <ele>275.84545898438</ele>
        <time>2016-04-20T13:47:20.000Z</time>
      </trkpt>
      <trkpt lat="47.04174" lon="3.55045">
        <ele>275.96490478516</ele>
        <time>2016-04-20T13:47:22.000Z</time>
      </trkpt>
      <trkpt lat="47.0417" lon="3.55052">
        <ele>276.09799194336</ele>
        <time>2016-04-20T13:47:30.000Z</time>
      </trkpt>
      <trkpt lat="47.04168" lon="3.55054">
        <ele>276.24133300781</ele>
        <time>2016-04-20T13:47:33.000Z</time>
      </trkpt>
      <trkpt lat="47.04166" lon="3.55056">
        <ele>276.38604736328</ele>
        <time>2016-04-20T13:47:36.000Z</time>
      </trkpt>
      <trkpt lat="47.04165" lon="3.55056">
        <ele>276.50909423828</ele>
        <time>2016-04-20T13:47:39.000Z</time>
      </trkpt>
      <trkpt lat="47.04161" lon="3.55056">
        <ele>276.61614990234</ele>
        <time>2016-04-20T13:47:41.000Z</time>
      </trkpt>
      <trkpt lat="47.04157" lon="3.55056">
        <ele>276.67901611328</ele>
        <time>2016-04-20T13:47:44.000Z</time>
      </trkpt>
      <trkpt lat="47.04154" lon="3.55057">
        <ele>276.72283935547</ele>
        <time>2016-04-20T13:47:46.000Z</time>
      </trkpt>
      <trkpt lat="47.04151" lon="3.55058">
        <ele>276.75225830078</ele>
        <time>2016-04-20T13:47:50.000Z</time>
      </trkpt>
      <trkpt lat="47.04148" lon="3.55058">
        <ele>276.78509521484</ele>
        <time>2016-04-20T13:47:51.000Z</time>
      </trkpt>
      <trkpt lat="47.04145" lon="3.55059">
        <ele>276.82147216797</ele>
        <time>2016-04-20T13:47:54.000Z</time>
      </trkpt>
      <trkpt lat="47.0414" lon="3.55059">
        <ele>276.85821533203</ele>
        <time>2016-04-20T13:47:56.000Z</time>
      </trkpt>
      <trkpt lat="47.04137" lon="3.55059">
        <ele>276.89248657227</ele>
        <time>2016-04-20T13:48:00.000Z</time>
      </trkpt>
      <trkpt lat="47.04135" lon="3.5506">
        <ele>276.92684936523</ele>
        <time>2016-04-20T13:48:02.000Z</time>
      </trkpt>
      <trkpt lat="47.04131" lon="3.55062">
        <ele>276.96984863281</ele>
        <time>2016-04-20T13:48:05.000Z</time>
      </trkpt>
      <trkpt lat="47.04128" lon="3.55064">
        <ele>277.01528930664</ele>
        <time>2016-04-20T13:48:08.000Z</time>
      </trkpt>
      <trkpt lat="47.04124" lon="3.55065">
        <ele>277.06268310547</ele>
        <time>2016-04-20T13:48:11.000Z</time>
      </trkpt>
      <trkpt lat="47.04122" lon="3.55065">
        <ele>277.11151123047</ele>
        <time>2016-04-20T13:48:14.000Z</time>
      </trkpt>
      <trkpt lat="47.04119" lon="3.55067">
        <ele>277.16540527344</ele>
        <time>2016-04-20T13:48:17.000Z</time>
      </trkpt>
      <trkpt lat="47.04118" lon="3.55067">
        <ele>277.20776367188</ele>
        <time>2016-04-20T13:48:19.000Z</time>
      </trkpt>
      <trkpt lat="47.04113" lon="3.55068">
        <ele>277.25360107422</ele>
        <time>2016-04-20T13:48:22.000Z</time>
      </trkpt>
      <trkpt lat="47.04112" lon="3.55068">
        <ele>277.29168701172</ele>
        <time>2016-04-20T13:48:25.000Z</time>
      </trkpt>
      <trkpt lat="47.04107" lon="3.5507">
        <ele>277.34075927734</ele>
        <time>2016-04-20T13:48:27.000Z</time>
      </trkpt>
      <trkpt lat="47.04104" lon="3.55072">
        <ele>277.39059448242</ele>
        <time>2016-04-20T13:48:31.000Z</time>
      </trkpt>
      <trkpt lat="47.04099" lon="3.55073">
        <ele>277.45416259766</ele>
        <time>2016-04-20T13:48:34.000Z</time>
      </trkpt>
      <trkpt lat="47.04095" lon="3.55073">
        <ele>277.5087890625</ele>
        <time>2016-04-20T13:48:37.000Z</time>
      </trkpt>
      <trkpt lat="47.04093" lon="3.55073">
        <ele>277.56549072266</ele>
        <time>2016-04-20T13:48:38.000Z</time>
      </trkpt>
      <trkpt lat="47.04089" lon="3.55071">
        <ele>277.60488891602</ele>
        <time>2016-04-20T13:48:42.000Z</time>
      </trkpt>
      <trkpt lat="47.04088" lon="3.55071">
        <ele>277.63317871094</ele>
        <time>2016-04-20T13:48:43.000Z</time>
      </trkpt>
      <trkpt lat="47.04086" lon="3.55071">
        <ele>277.64907836914</ele>
        <time>2016-04-20T13:48:46.000Z</time>
      </trkpt>
      <trkpt lat="47.04081" lon="3.5507">
        <ele>277.63214111328</ele>
        <time>2016-04-20T13:48:49.000Z</time>
      </trkpt>
      <trkpt lat="47.04076" lon="3.55069">
        <ele>277.54336547852</ele>
        <time>2016-04-20T13:48:52.000Z</time>
      </trkpt>
      <trkpt lat="47.04073" lon="3.55069">
        <ele>277.41137695312</ele>
        <time>2016-04-20T13:48:55.000Z</time>
      </trkpt>
      <trkpt lat="47.04069" lon="3.55071">
        <ele>277.22360229492</ele>
        <time>2016-04-20T13:48:58.000Z</time>
      </trkpt>
      <trkpt lat="47.04066" lon="3.55071">
        <ele>277.00173950195</ele>
        <time>2016-04-20T13:49:00.000Z</time>
      </trkpt>
      <trkpt lat="47.04063" lon="3.55072">
        <ele>276.76049804688</ele>
        <time>2016-04-20T13:49:03.000Z</time>
      </trkpt>
      <trkpt lat="47.04059" lon="3.55073">
        <ele>276.54467773438</ele>
        <time>2016-04-20T13:49:06.000Z</time>
      </trkpt>
      <trkpt lat="47.04057" lon="3.55074">
        <ele>276.34222412109</ele>
        <time>2016-04-20T13:49:10.000Z</time>
      </trkpt>
      <trkpt lat="47.04054" lon="3.55075">
        <ele>276.15676879883</ele>
        <time>2016-04-20T13:49:11.000Z</time>
      </trkpt>
      <trkpt lat="47.0405" lon="3.55077">
        <ele>275.94360351562</ele>
        <time>2016-04-20T13:49:14.000Z</time>
      </trkpt>
      <trkpt lat="47.04047" lon="3.55077">
        <ele>275.74877929688</ele>
        <time>2016-04-20T13:49:17.000Z</time>
      </trkpt>
      <trkpt lat="47.04045" lon="3.55076">
        <ele>275.5615234375</ele>
        <time>2016-04-20T13:49:20.000Z</time>
      </trkpt>
      <trkpt lat="47.04041" lon="3.55076">
        <ele>275.35321044922</ele>
        <time>2016-04-20T13:49:23.000Z</time>
      </trkpt>
      <trkpt lat="47.04039" lon="3.55076">
        <ele>275.14855957031</ele>
        <time>2016-04-20T13:49:26.000Z</time>
      </trkpt>
      <trkpt lat="47.04038" lon="3.55075">
        <ele>274.9846496582</ele>
        <time>2016-04-20T13:49:28.000Z</time>
      </trkpt>
      <trkpt lat="47.04034" lon="3.55075">
        <ele>274.79800415039</ele>
        <time>2016-04-20T13:49:31.000Z</time>
      </trkpt>
      <trkpt lat="47.0403" lon="3.55076">
        <ele>274.59051513672</ele>
        <time>2016-04-20T13:49:35.000Z</time>
      </trkpt>
      <trkpt lat="47.04024" lon="3.55075">
        <ele>274.35583496094</ele>
        <time>2016-04-20T13:49:38.000Z</time>
      </trkpt>
      <trkpt lat="47.04022" lon="3.55073">
        <ele>274.12182617188</ele>
        <time>2016-04-20T13:49:39.000Z</time>
      </trkpt>
      <trkpt lat="47.04019" lon="3.55071">
        <ele>273.87417602539</ele>
        <time>2016-04-20T13:49:44.000Z</time>
      </trkpt>
      <trkpt lat="47.04018" lon="3.55069">
        <ele>273.66253662109</ele>
        <time>2016-04-20T13:49:45.000Z</time>
      </trkpt>
      <trkpt lat="47.04017" lon="3.55066">
        <ele>273.49307250977</ele>
        <time>2016-04-20T13:49:48.000Z</time>
      </trkpt>
      <trkpt lat="47.04015" lon="3.55064">
        <ele>273.3825378418</ele>
        <time>2016-04-20T13:49:49.000Z</time>
      </trkpt>
      <trkpt lat="47.04013" lon="3.55063">
        <ele>273.27459716797</ele>
        <time>2016-04-20T13:49:56.000Z</time>
      </trkpt>
      <trkpt lat="47.04012" lon="3.55063">
        <ele>273.18176269531</ele>
        <time>2016-04-20T13:50:06.000Z</time>
      </trkpt>
      <trkpt lat="47.04009" lon="3.55063">
        <ele>273.06759643555</ele>
        <time>2016-04-20T13:50:10.000Z</time>
      </trkpt>
      <trkpt lat="47.04007" lon="3.55062">
        <ele>272.94287109375</ele>
        <time>2016-04-20T13:50:13.000Z</time>
      </trkpt>
      <trkpt lat="47.04005" lon="3.55061">
        <ele>272.82446289062</ele>
        <time>2016-04-20T13:50:15.000Z</time>
      </trkpt>
      <trkpt lat="47.04003" lon="3.55058">
        <ele>272.70648193359</ele>
        <time>2016-04-20T13:50:18.000Z</time>
      </trkpt>
      <trkpt lat="47.04002" lon="3.55057">
        <ele>272.59698486328</ele>
        <time>2016-04-20T13:50:20.000Z</time>
      </trkpt>
      <trkpt lat="47.04" lon="3.55053">
        <ele>272.50634765625</ele>
        <time>2016-04-20T13:50:22.000Z</time>
      </trkpt>
      <trkpt lat="47.03998" lon="3.5505">
        <ele>272.41046142578</ele>
        <time>2016-04-20T13:50:25.000Z</time>
      </trkpt>
      <trkpt lat="47.03996" lon="3.55046">
        <ele>272.28967285156</ele>
        <time>2016-04-20T13:50:28.000Z</time>
      </trkpt>
      <trkpt lat="47.03994" lon="3.55043">
        <ele>272.169921875</ele>
        <time>2016-04-20T13:50:31.000Z</time>
      </trkpt>
      <trkpt lat="47.03992" lon="3.55039">
        <ele>272.01132202148</ele>
        <time>2016-04-20T13:50:34.000Z</time>
      </trkpt>
      <trkpt lat="47.03991" lon="3.55037">
        <ele>271.83880615234</ele>
        <time>2016-04-20T13:50:36.000Z</time>
      </trkpt>
      <trkpt lat="47.0399" lon="3.55034">
        <ele>271.68341064453</ele>
        <time>2016-04-20T13:50:40.000Z</time>
      </trkpt>
      <trkpt lat="47.0399" lon="3.55032">
        <ele>271.57141113281</ele>
        <time>2016-04-20T13:50:43.000Z</time>
      </trkpt>
      <trkpt lat="47.0399" lon="3.5503">
        <ele>271.49298095703</ele>
        <time>2016-04-20T13:50:46.000Z</time>
      </trkpt>
      <trkpt lat="47.0399" lon="3.5503">
        <ele>271.49298095703</ele>
        <time>2016-04-20T13:51:07.000Z</time>
      </trkpt>
      <trkpt lat="47.03989" lon="3.55031">
        <ele>271.44116210938</ele>
        <time>2016-04-20T13:51:09.000Z</time>
      </trkpt>
      <trkpt lat="47.03989" lon="3.55031">
        <ele>271.44116210938</ele>
        <time>2016-04-20T13:51:32.000Z</time>
      </trkpt>
      <trkpt lat="47.03988" lon="3.55029">
        <ele>271.41561889648</ele>
        <time>2016-04-20T13:52:06.000Z</time>
      </trkpt>
      <trkpt lat="47.03988" lon="3.55031">
        <ele>271.39706420898</ele>
        <time>2016-04-20T13:52:17.000Z</time>
      </trkpt>
      <trkpt lat="47.03989" lon="3.55033">
        <ele>271.36770629883</ele>
        <time>2016-04-20T13:52:35.000Z</time>
      </trkpt>
      <trkpt lat="47.03989" lon="3.55033">
        <ele>271.36770629883</ele>
        <time>2016-04-20T13:52:55.000Z</time>
      </trkpt>
      <trkpt lat="47.03988" lon="3.55033">
        <ele>271.31463623047</ele>
        <time>2016-04-20T13:53:54.000Z</time>
      </trkpt>
      <trkpt lat="47.03988" lon="3.55033">
        <ele>271.31463623047</ele>
        <time>2016-04-20T13:54:14.000Z</time>
      </trkpt>
      <trkpt lat="47.03988" lon="3.5503">
        <ele>271.29827880859</ele>
        <time>2016-04-20T13:54:18.000Z</time>
      </trkpt>
      <trkpt lat="47.03988" lon="3.55027">
        <ele>271.29388427734</ele>
        <time>2016-04-20T13:54:25.000Z</time>
      </trkpt>
      <trkpt lat="47.03988" lon="3.55025">
        <ele>271.2917175293</ele>
        <time>2016-04-20T13:54:29.000Z</time>
      </trkpt>
      <trkpt lat="47.03986" lon="3.55023">
        <ele>271.27432250977</ele>
        <time>2016-04-20T13:54:31.000Z</time>
      </trkpt>
      <trkpt lat="47.03985" lon="3.55018">
        <ele>271.26174926758</ele>
        <time>2016-04-20T13:54:34.000Z</time>
      </trkpt>
      <trkpt lat="47.03985" lon="3.55017">
        <ele>271.22686767578</ele>
        <time>2016-04-20T13:54:37.000Z</time>
      </trkpt>
      <trkpt lat="47.03984" lon="3.55015">
        <ele>271.18084716797</ele>
        <time>2016-04-20T13:54:40.000Z</time>
      </trkpt>
      <trkpt lat="47.03984" lon="3.55014">
        <ele>271.13195800781</ele>
        <time>2016-04-20T13:54:42.000Z</time>
      </trkpt>
      <trkpt lat="47.03982" lon="3.55013">
        <ele>271.07012939453</ele>
        <time>2016-04-20T13:54:45.000Z</time>
      </trkpt>
      <trkpt lat="47.03981" lon="3.55012">
        <ele>271.00720214844</ele>
        <time>2016-04-20T13:54:47.000Z</time>
      </trkpt>
      <trkpt lat="47.03981" lon="3.5501">
        <ele>270.94580078125</ele>
        <time>2016-04-20T13:54:51.000Z</time>
      </trkpt>
      <trkpt lat="47.0398" lon="3.55008">
        <ele>270.87762451172</ele>
        <time>2016-04-20T13:54:53.000Z</time>
      </trkpt>
      <trkpt lat="47.0398" lon="3.55003">
        <ele>270.81820678711</ele>
        <time>2016-04-20T13:54:56.000Z</time>
      </trkpt>
      <trkpt lat="47.03979" lon="3.55001">
        <ele>270.78979492188</ele>
        <time>2016-04-20T13:54:59.000Z</time>
      </trkpt>
      <trkpt lat="47.03978" lon="3.54998">
        <ele>270.73382568359</ele>
        <time>2016-04-20T13:55:02.000Z</time>
      </trkpt>
      <trkpt lat="47.03977" lon="3.54995">
        <ele>270.63226318359</ele>
        <time>2016-04-20T13:55:04.000Z</time>
      </trkpt>
      <trkpt lat="47.03977" lon="3.54991">
        <ele>270.50326538086</ele>
        <time>2016-04-20T13:55:07.000Z</time>
      </trkpt>
      <trkpt lat="47.03978" lon="3.54988">
        <ele>270.35546875</ele>
        <time>2016-04-20T13:55:09.000Z</time>
      </trkpt>
      <trkpt lat="47.03978" lon="3.54982">
        <ele>270.15615844727</ele>
        <time>2016-04-20T13:55:12.000Z</time>
      </trkpt>
      <trkpt lat="47.03977" lon="3.54979">
        <ele>269.96697998047</ele>
        <time>2016-04-20T13:55:15.000Z</time>
      </trkpt>
      <trkpt lat="47.03977" lon="3.54976">
        <ele>269.79507446289</ele>
        <time>2016-04-20T13:55:33.000Z</time>
      </trkpt>
      <trkpt lat="47.03975" lon="3.54972">
        <ele>269.60052490234</ele>
        <time>2016-04-20T13:55:33.000Z</time>
      </trkpt>
      <trkpt lat="47.03975" lon="3.54968">
        <ele>269.37524414062</ele>
        <time>2016-04-20T13:55:33.000Z</time>
      </trkpt>
      <trkpt lat="47.03974" lon="3.54964">
        <ele>269.16201782227</ele>
        <time>2016-04-20T13:55:36.000Z</time>
      </trkpt>
      <trkpt lat="47.03972" lon="3.5496">
        <ele>268.91973876953</ele>
        <time>2016-04-20T13:55:36.000Z</time>
      </trkpt>
      <trkpt lat="47.03971" lon="3.54957">
        <ele>268.65673828125</ele>
        <time>2016-04-20T13:55:39.000Z</time>
      </trkpt>
      <trkpt lat="47.03969" lon="3.54952">
        <ele>268.40316772461</ele>
        <time>2016-04-20T13:55:42.000Z</time>
      </trkpt>
      <trkpt lat="47.03968" lon="3.54948">
        <ele>268.14758300781</ele>
        <time>2016-04-20T13:55:44.000Z</time>
      </trkpt>
      <trkpt lat="47.03967" lon="3.54944">
        <ele>267.88641357422</ele>
        <time>2016-04-20T13:55:47.000Z</time>
      </trkpt>
      <trkpt lat="47.03967" lon="3.54943">
        <ele>267.67630004883</ele>
        <time>2016-04-20T13:55:49.000Z</time>
      </trkpt>
      <trkpt lat="47.03965" lon="3.5494">
        <ele>267.47863769531</ele>
        <time>2016-04-20T13:55:50.000Z</time>
      </trkpt>
      <trkpt lat="47.03964" lon="3.54938">
        <ele>267.30172729492</ele>
        <time>2016-04-20T13:55:50.000Z</time>
      </trkpt>
      <trkpt lat="47.03962" lon="3.54933">
        <ele>267.11605834961</ele>
        <time>2016-04-20T13:55:54.000Z</time>
      </trkpt>
      <trkpt lat="47.0396" lon="3.54928">
        <ele>266.92514038086</ele>
        <time>2016-04-20T13:55:55.000Z</time>
      </trkpt>
      <trkpt lat="47.03958" lon="3.54925">
        <ele>266.70401000977</ele>
        <time>2016-04-20T13:55:59.000Z</time>
      </trkpt>
      <trkpt lat="47.03957" lon="3.54922">
        <ele>266.49560546875</ele>
        <time>2016-04-20T13:56:00.000Z</time>
      </trkpt>
      <trkpt lat="47.03955" lon="3.54917">
        <ele>266.26678466797</ele>
        <time>2016-04-20T13:56:02.000Z</time>
      </trkpt>
      <trkpt lat="47.03954" lon="3.54915">
        <ele>266.07403564453</ele>
        <time>2016-04-20T13:56:06.000Z</time>
      </trkpt>
      <trkpt lat="47.03952" lon="3.54911">
        <ele>265.90371704102</ele>
        <time>2016-04-20T13:56:07.000Z</time>
      </trkpt>
      <trkpt lat="47.03951" lon="3.5491">
        <ele>265.75765991211</ele>
        <time>2016-04-20T13:56:10.000Z</time>
      </trkpt>
      <trkpt lat="47.03948" lon="3.54909">
        <ele>265.60345458984</ele>
        <time>2016-04-20T13:56:11.000Z</time>
      </trkpt>
      <trkpt lat="47.03946" lon="3.54906">
        <ele>265.47235107422</ele>
        <time>2016-04-20T13:56:13.000Z</time>
      </trkpt>
      <trkpt lat="47.03944" lon="3.54904">
        <ele>265.33966064453</ele>
        <time>2016-04-20T13:56:15.000Z</time>
      </trkpt>
      <trkpt lat="47.03942" lon="3.54902">
        <ele>265.21035766602</ele>
        <time>2016-04-20T13:56:18.000Z</time>
      </trkpt>
      <trkpt lat="47.03941" lon="3.54899">
        <ele>265.07308959961</ele>
        <time>2016-04-20T13:56:20.000Z</time>
      </trkpt>
      <trkpt lat="47.03939" lon="3.54895">
        <ele>264.94287109375</ele>
        <time>2016-04-20T13:56:21.000Z</time>
      </trkpt>
      <trkpt lat="47.03936" lon="3.54891">
        <ele>264.80444335938</ele>
        <time>2016-04-20T13:56:24.000Z</time>
      </trkpt>
      <trkpt lat="47.03935" lon="3.54888">
        <ele>264.66790771484</ele>
        <time>2016-04-20T13:56:27.000Z</time>
      </trkpt>
      <trkpt lat="47.03934" lon="3.54882">
        <ele>264.52783203125</ele>
        <time>2016-04-20T13:56:32.000Z</time>
      </trkpt>
      <trkpt lat="47.03934" lon="3.54878">
        <ele>264.39636230469</ele>
        <time>2016-04-20T13:56:35.000Z</time>
      </trkpt>
      <trkpt lat="47.03934" lon="3.54876">
        <ele>264.28671264648</ele>
        <time>2016-04-20T13:56:37.000Z</time>
      </trkpt>
      <trkpt lat="47.03932" lon="3.54867">
        <ele>264.16983032227</ele>
        <time>2016-04-20T13:56:39.000Z</time>
      </trkpt>
      <trkpt lat="47.03931" lon="3.5486">
        <ele>264.04760742188</ele>
        <time>2016-04-20T13:56:42.000Z</time>
      </trkpt>
      <trkpt lat="47.0393" lon="3.5485">
        <ele>263.91232299805</ele>
        <time>2016-04-20T13:56:45.000Z</time>
      </trkpt>
      <trkpt lat="47.03929" lon="3.54843">
        <ele>263.76605224609</ele>
        <time>2016-04-20T13:56:49.000Z</time>
      </trkpt>
      <trkpt lat="47.03929" lon="3.54841">
        <ele>263.62335205078</ele>
        <time>2016-04-20T13:56:50.000Z</time>
      </trkpt>
      <trkpt lat="47.03928" lon="3.54835">
        <ele>263.50140380859</ele>
        <time>2016-04-20T13:56:55.000Z</time>
      </trkpt>
      <trkpt lat="47.03929" lon="3.54828">
        <ele>263.36679077148</ele>
        <time>2016-04-20T13:56:59.000Z</time>
      </trkpt>
      <trkpt lat="47.0393" lon="3.54825">
        <ele>263.25262451172</ele>
        <time>2016-04-20T13:57:00.000Z</time>
      </trkpt>
      <trkpt lat="47.03929" lon="3.54821">
        <ele>263.13336181641</ele>
        <time>2016-04-20T13:57:04.000Z</time>
      </trkpt>
      <trkpt lat="47.03929" lon="3.54817">
        <ele>262.99185180664</ele>
        <time>2016-04-20T13:57:05.000Z</time>
      </trkpt>
      <trkpt lat="47.03928" lon="3.54813">
        <ele>262.83923339844</ele>
        <time>2016-04-20T13:57:07.000Z</time>
      </trkpt>
      <trkpt lat="47.03927" lon="3.54811">
        <ele>262.70526123047</ele>
        <time>2016-04-20T13:57:10.000Z</time>
      </trkpt>
      <trkpt lat="47.03925" lon="3.54808">
        <ele>262.56256103516</ele>
        <time>2016-04-20T13:57:13.000Z</time>
      </trkpt>
      <trkpt lat="47.0392" lon="3.54806">
        <ele>262.41735839844</ele>
        <time>2016-04-20T13:57:16.000Z</time>
      </trkpt>
      <trkpt lat="47.03916" lon="3.54804">
        <ele>262.26092529297</ele>
        <time>2016-04-20T13:57:18.000Z</time>
      </trkpt>
      <trkpt lat="47.03912" lon="3.54803">
        <ele>262.0856628418</ele>
        <time>2016-04-20T13:57:21.000Z</time>
      </trkpt>
      <trkpt lat="47.0391" lon="3.54803">
        <ele>261.91546630859</ele>
        <time>2016-04-20T13:57:23.000Z</time>
      </trkpt>
      <trkpt lat="47.03909" lon="3.54802">
        <ele>261.75494384766</ele>
        <time>2016-04-20T13:57:25.000Z</time>
      </trkpt>
      <trkpt lat="47.03909" lon="3.54802">
        <ele>261.75494384766</ele>
        <time>2016-04-20T13:57:57.000Z</time>
      </trkpt>
      <trkpt lat="47.03906" lon="3.54802">
        <ele>261.60009765625</ele>
        <time>2016-04-20T13:57:58.000Z</time>
      </trkpt>
      <trkpt lat="47.03902" lon="3.54802">
        <ele>261.45086669922</ele>
        <time>2016-04-20T13:58:01.000Z</time>
      </trkpt>
      <trkpt lat="47.03898" lon="3.54802">
        <ele>261.31039428711</ele>
        <time>2016-04-20T13:58:01.000Z</time>
      </trkpt>
      <trkpt lat="47.03895" lon="3.54801">
        <ele>261.14990234375</ele>
        <time>2016-04-20T13:58:01.000Z</time>
      </trkpt>
      <trkpt lat="47.03893" lon="3.54801">
        <ele>260.98687744141</ele>
        <time>2016-04-20T13:58:02.000Z</time>
      </trkpt>
      <trkpt lat="47.03888" lon="3.54802">
        <ele>260.81109619141</ele>
        <time>2016-04-20T13:58:02.000Z</time>
      </trkpt>
      <trkpt lat="47.03883" lon="3.54803">
        <ele>260.63922119141</ele>
        <time>2016-04-20T13:58:02.000Z</time>
      </trkpt>
      <trkpt lat="47.0388" lon="3.54804">
        <ele>260.47900390625</ele>
        <time>2016-04-20T13:58:02.000Z</time>
      </trkpt>
      <trkpt lat="47.03878" lon="3.54804">
        <ele>260.33856201172</ele>
        <time>2016-04-20T13:58:02.000Z</time>
      </trkpt>
      <trkpt lat="47.03875" lon="3.54804">
        <ele>260.19476318359</ele>
        <time>2016-04-20T13:58:02.000Z</time>
      </trkpt>
      <trkpt lat="47.03873" lon="3.54804">
        <ele>260.07406616211</ele>
        <time>2016-04-20T13:59:36.000Z</time>
      </trkpt>
      <trkpt lat="47.0387" lon="3.54805">
        <ele>259.95935058594</ele>
        <time>2016-04-20T13:59:44.000Z</time>
      </trkpt>
      <trkpt lat="47.03867" lon="3.54804">
        <ele>259.84356689453</ele>
        <time>2016-04-20T13:59:53.000Z</time>
      </trkpt>
      <trkpt lat="47.03864" lon="3.54805">
        <ele>259.71380615234</ele>
        <time>2016-04-20T13:59:58.000Z</time>
      </trkpt>
      <trkpt lat="47.03861" lon="3.54806">
        <ele>259.58770751953</ele>
        <time>2016-04-20T14:00:00.000Z</time>
      </trkpt>
      <trkpt lat="47.03857" lon="3.54805">
        <ele>259.44305419922</ele>
        <time>2016-04-20T14:00:02.000Z</time>
      </trkpt>
      <trkpt lat="47.03853" lon="3.54805">
        <ele>259.27825927734</ele>
        <time>2016-04-20T14:00:03.000Z</time>
      </trkpt>
      <trkpt lat="47.0385" lon="3.54804">
        <ele>259.11383056641</ele>
        <time>2016-04-20T14:00:03.000Z</time>
      </trkpt>
      <trkpt lat="47.03846" lon="3.54804">
        <ele>258.93487548828</ele>
        <time>2016-04-20T14:00:03.000Z</time>
      </trkpt>
      <trkpt lat="47.03842" lon="3.54803">
        <ele>258.73577880859</ele>
        <time>2016-04-20T14:00:03.000Z</time>
      </trkpt>
      <trkpt lat="47.03839" lon="3.54802">
        <ele>258.544921875</ele>
        <time>2016-04-20T14:00:04.000Z</time>
      </trkpt>
      <trkpt lat="47.03836" lon="3.54801">
        <ele>258.34893798828</ele>
        <time>2016-04-20T14:00:04.000Z</time>
      </trkpt>
      <trkpt lat="47.03833" lon="3.548">
        <ele>258.150390625</ele>
        <time>2016-04-20T14:00:04.000Z</time>
      </trkpt>
      <trkpt lat="47.0383" lon="3.54799">
        <ele>257.96569824219</ele>
        <time>2016-04-20T14:00:04.000Z</time>
      </trkpt>
      <trkpt lat="47.03827" lon="3.54799">
        <ele>257.79205322266</ele>
        <time>2016-04-20T14:00:05.000Z</time>
      </trkpt>
      <trkpt lat="47.03825" lon="3.54798">
        <ele>257.61605834961</ele>
        <time>2016-04-20T14:00:05.000Z</time>
      </trkpt>
      <trkpt lat="47.03822" lon="3.54798">
        <ele>257.46057128906</ele>
        <time>2016-04-20T14:00:05.000Z</time>
      </trkpt>
      <trkpt lat="47.0382" lon="3.54798">
        <ele>257.31747436523</ele>
        <time>2016-04-20T14:00:05.000Z</time>
      </trkpt>
      <trkpt lat="47.03817" lon="3.54797">
        <ele>257.16641235352</ele>
        <time>2016-04-20T14:00:06.000Z</time>
      </trkpt>
      <trkpt lat="47.03814" lon="3.54795">
        <ele>257.00784301758</ele>
        <time>2016-04-20T14:00:06.000Z</time>
      </trkpt>
      <trkpt lat="47.03811" lon="3.54794">
        <ele>256.84674072266</ele>
        <time>2016-04-20T14:00:06.000Z</time>
      </trkpt>
      <trkpt lat="47.03809" lon="3.54793">
        <ele>256.68594360352</ele>
        <time>2016-04-20T14:00:11.000Z</time>
      </trkpt>
      <trkpt lat="47.03806" lon="3.5479">
        <ele>256.49557495117</ele>
        <time>2016-04-20T14:00:11.000Z</time>
      </trkpt>
      <trkpt lat="47.03802" lon="3.54787">
        <ele>256.30364990234</ele>
        <time>2016-04-20T14:00:12.000Z</time>
      </trkpt>
      <trkpt lat="47.03801" lon="3.54786">
        <ele>256.12741088867</ele>
        <time>2016-04-20T14:00:12.000Z</time>
      </trkpt>
      <trkpt lat="47.03796" lon="3.54783">
        <ele>255.92585754395</ele>
        <time>2016-04-20T14:00:18.000Z</time>
      </trkpt>
      <trkpt lat="47.03793" lon="3.5478">
        <ele>255.70930480957</ele>
        <time>2016-04-20T14:00:19.000Z</time>
      </trkpt>
      <trkpt lat="47.0379" lon="3.54777">
        <ele>255.49801635742</ele>
        <time>2016-04-20T14:00:20.000Z</time>
      </trkpt>
      <trkpt lat="47.03786" lon="3.54773">
        <ele>255.28471374512</ele>
        <time>2016-04-20T14:00:20.000Z</time>
      </trkpt>
      <trkpt lat="47.03784" lon="3.54769">
        <ele>255.05583190918</ele>
        <time>2016-04-20T14:00:20.000Z</time>
      </trkpt>
      <trkpt lat="47.03782" lon="3.54766">
        <ele>254.85391235352</ele>
        <time>2016-04-20T14:00:20.000Z</time>
      </trkpt>
      <trkpt lat="47.03778" lon="3.54762">
        <ele>254.6533203125</ele>
        <time>2016-04-20T14:00:20.000Z</time>
      </trkpt>
      <trkpt lat="47.03776" lon="3.5476">
        <ele>254.47221374512</ele>
        <time>2016-04-20T14:00:21.000Z</time>
      </trkpt>
      <trkpt lat="47.03773" lon="3.54758">
        <ele>254.29960632324</ele>
        <time>2016-04-20T14:00:21.000Z</time>
      </trkpt>
      <trkpt lat="47.0377" lon="3.54756">
        <ele>254.14167785645</ele>
        <time>2016-04-20T14:00:21.000Z</time>
      </trkpt>
      <trkpt lat="47.03768" lon="3.54754">
        <ele>253.9909362793</ele>
        <time>2016-04-20T14:00:22.000Z</time>
      </trkpt>
      <trkpt lat="47.03764" lon="3.5475">
        <ele>253.83369445801</ele>
        <time>2016-04-20T14:00:22.000Z</time>
      </trkpt>
      <trkpt lat="47.03761" lon="3.54749">
        <ele>253.68472290039</ele>
        <time>2016-04-20T14:00:23.000Z</time>
      </trkpt>
      <trkpt lat="47.03759" lon="3.54746">
        <ele>253.54182434082</ele>
        <time>2016-04-20T14:00:23.000Z</time>
      </trkpt>
      <trkpt lat="47.03756" lon="3.54744">
        <ele>253.40197753906</ele>
        <time>2016-04-20T14:00:23.000Z</time>
      </trkpt>
      <trkpt lat="47.03754" lon="3.54742">
        <ele>253.2646484375</ele>
        <time>2016-04-20T14:00:23.000Z</time>
      </trkpt>
      <trkpt lat="47.03749" lon="3.5474">
        <ele>253.14074707031</ele>
        <time>2016-04-20T14:00:24.000Z</time>
      </trkpt>
      <trkpt lat="47.03746" lon="3.54737">
        <ele>253.01608276367</ele>
        <time>2016-04-20T14:00:24.000Z</time>
      </trkpt>
      <trkpt lat="47.03744" lon="3.54735">
        <ele>252.90881347656</ele>
        <time>2016-04-20T14:00:24.000Z</time>
      </trkpt>
      <trkpt lat="47.03741" lon="3.54732">
        <ele>252.80587768555</ele>
        <time>2016-04-20T14:00:26.000Z</time>
      </trkpt>
      <trkpt lat="47.03739" lon="3.54731">
        <ele>252.7145690918</ele>
        <time>2016-04-20T14:00:26.000Z</time>
      </trkpt>
      <trkpt lat="47.03735" lon="3.5473">
        <ele>252.6390838623</ele>
        <time>2016-04-20T14:00:28.000Z</time>
      </trkpt>
      <trkpt lat="47.03732" lon="3.54729">
        <ele>252.56806945801</ele>
        <time>2016-04-20T14:00:28.000Z</time>
      </trkpt>
      <trkpt lat="47.0373" lon="3.54728">
        <ele>252.49604797363</ele>
        <time>2016-04-20T14:00:28.000Z</time>
      </trkpt>
      <trkpt lat="47.03727" lon="3.54727">
        <ele>252.42985534668</ele>
        <time>2016-04-20T14:00:28.000Z</time>
      </trkpt>
      <trkpt lat="47.03725" lon="3.54727">
        <ele>252.36325073242</ele>
        <time>2016-04-20T14:00:28.000Z</time>
      </trkpt>
      <trkpt lat="47.03721" lon="3.54726">
        <ele>252.2954864502</ele>
        <time>2016-04-20T14:00:29.000Z</time>
      </trkpt>
      <trkpt lat="47.03719" lon="3.54725">
        <ele>252.23217773438</ele>
        <time>2016-04-20T14:00:29.000Z</time>
      </trkpt>
      <trkpt lat="47.03714" lon="3.54725">
        <ele>252.1604309082</ele>
        <time>2016-04-20T14:00:29.000Z</time>
      </trkpt>
      <trkpt lat="47.03712" lon="3.54725">
        <ele>252.09428405762</ele>
        <time>2016-04-20T14:00:29.000Z</time>
      </trkpt>
      <trkpt lat="47.03708" lon="3.54725">
        <ele>252.02568054199</ele>
        <time>2016-04-20T14:00:29.000Z</time>
      </trkpt>
      <trkpt lat="47.03706" lon="3.54725">
        <ele>251.96740722656</ele>
        <time>2016-04-20T14:00:30.000Z</time>
      </trkpt>
      <trkpt lat="47.03703" lon="3.54725">
        <ele>251.90641784668</ele>
        <time>2016-04-20T14:00:30.000Z</time>
      </trkpt>
      <trkpt lat="47.03699" lon="3.54725">
        <ele>251.85238647461</ele>
        <time>2016-04-20T14:00:30.000Z</time>
      </trkpt>
      <trkpt lat="47.03697" lon="3.54725">
        <ele>251.79138183594</ele>
        <time>2016-04-20T14:00:32.000Z</time>
      </trkpt>
      <trkpt lat="47.03694" lon="3.54724">
        <ele>251.72761535645</ele>
        <time>2016-04-20T14:00:33.000Z</time>
      </trkpt>
      <trkpt lat="47.03692" lon="3.54723">
        <ele>251.65914916992</ele>
        <time>2016-04-20T14:00:35.000Z</time>
      </trkpt>
      <trkpt lat="47.0369" lon="3.54721">
        <ele>251.58381652832</ele>
        <time>2016-04-20T14:00:39.000Z</time>
      </trkpt>
      <trkpt lat="47.03685" lon="3.5472">
        <ele>251.49931335449</ele>
        <time>2016-04-20T14:00:42.000Z</time>
      </trkpt>
      <trkpt lat="47.03682" lon="3.54721">
        <ele>251.42167663574</ele>
        <time>2016-04-20T14:00:43.000Z</time>
      </trkpt>
      <trkpt lat="47.03679" lon="3.54721">
        <ele>251.3461151123</ele>
        <time>2016-04-20T14:00:45.000Z</time>
      </trkpt>
      <trkpt lat="47.03675" lon="3.54721">
        <ele>251.26908874512</ele>
        <time>2016-04-20T14:00:48.000Z</time>
      </trkpt>
      <trkpt lat="47.03673" lon="3.54722">
        <ele>251.2087097168</ele>
        <time>2016-04-20T14:00:51.000Z</time>
      </trkpt>
      <trkpt lat="47.03669" lon="3.54722">
        <ele>251.15426635742</ele>
        <time>2016-04-20T14:00:53.000Z</time>
      </trkpt>
      <trkpt lat="47.03667" lon="3.54721">
        <ele>251.09329223633</ele>
        <time>2016-04-20T14:00:55.000Z</time>
      </trkpt>
      <trkpt lat="47.03664" lon="3.54721">
        <ele>251.01937866211</ele>
        <time>2016-04-20T14:00:58.000Z</time>
      </trkpt>
      <trkpt lat="47.0366" lon="3.54719">
        <ele>250.91928100586</ele>
        <time>2016-04-20T14:01:01.000Z</time>
      </trkpt>
      <trkpt lat="47.03657" lon="3.54717">
        <ele>250.78884887695</ele>
        <time>2016-04-20T14:01:04.000Z</time>
      </trkpt>
      <trkpt lat="47.03655" lon="3.54716">
        <ele>250.65078735352</ele>
        <time>2016-04-20T14:01:07.000Z</time>
      </trkpt>
      <trkpt lat="47.03652" lon="3.54713">
        <ele>250.48718261719</ele>
        <time>2016-04-20T14:01:10.000Z</time>
      </trkpt>
      <trkpt lat="47.03648" lon="3.5471">
        <ele>250.30097961426</ele>
        <time>2016-04-20T14:01:13.000Z</time>
      </trkpt>
      <trkpt lat="47.03645" lon="3.54709">
        <ele>250.12316894531</ele>
        <time>2016-04-20T14:01:16.000Z</time>
      </trkpt>
      <trkpt lat="47.03642" lon="3.54708">
        <ele>249.94555664062</ele>
        <time>2016-04-20T14:01:20.000Z</time>
      </trkpt>
      <trkpt lat="47.03638" lon="3.54707">
        <ele>249.76281738281</ele>
        <time>2016-04-20T14:01:25.000Z</time>
      </trkpt>
      <trkpt lat="47.03634" lon="3.54706">
        <ele>249.58540344238</ele>
        <time>2016-04-20T14:01:26.000Z</time>
      </trkpt>
      <trkpt lat="47.03632" lon="3.54706">
        <ele>249.43379211426</ele>
        <time>2016-04-20T14:01:29.000Z</time>
      </trkpt>
      <trkpt lat="47.03628" lon="3.54705">
        <ele>249.28381347656</ele>
        <time>2016-04-20T14:01:30.000Z</time>
      </trkpt>
      <trkpt lat="47.03624" lon="3.54704">
        <ele>249.12983703613</ele>
        <time>2016-04-20T14:01:35.000Z</time>
      </trkpt>
      <trkpt lat="47.03619" lon="3.54705">
        <ele>248.97529602051</ele>
        <time>2016-04-20T14:01:37.000Z</time>
      </trkpt>
      <trkpt lat="47.03617" lon="3.54705">
        <ele>248.84199523926</ele>
        <time>2016-04-20T14:01:41.000Z</time>
      </trkpt>
      <trkpt lat="47.03614" lon="3.54705">
        <ele>248.71488952637</ele>
        <time>2016-04-20T14:01:42.000Z</time>
      </trkpt>
      <trkpt lat="47.03612" lon="3.54705">
        <ele>248.59716796875</ele>
        <time>2016-04-20T14:01:44.000Z</time>
      </trkpt>
      <trkpt lat="47.03608" lon="3.54705">
        <ele>248.49263000488</ele>
        <time>2016-04-20T14:01:49.000Z</time>
      </trkpt>
      <trkpt lat="47.03605" lon="3.54706">
        <ele>248.39115905762</ele>
        <time>2016-04-20T14:01:50.000Z</time>
      </trkpt>
      <trkpt lat="47.03601" lon="3.54705">
        <ele>248.27070617676</ele>
        <time>2016-04-20T14:01:53.000Z</time>
      </trkpt>
      <trkpt lat="47.03598" lon="3.54704">
        <ele>248.14306640625</ele>
        <time>2016-04-20T14:01:54.000Z</time>
      </trkpt>
      <trkpt lat="47.03597" lon="3.54703">
        <ele>248.02294921875</ele>
        <time>2016-04-20T14:01:56.000Z</time>
      </trkpt>
      <trkpt lat="47.03592" lon="3.54701">
        <ele>247.87939453125</ele>
        <time>2016-04-20T14:02:01.000Z</time>
      </trkpt>
      <trkpt lat="47.03588" lon="3.547">
        <ele>247.72668457031</ele>
        <time>2016-04-20T14:02:03.000Z</time>
      </trkpt>
      <trkpt lat="47.03587" lon="3.547">
        <ele>247.58735656738</ele>
        <time>2016-04-20T14:02:05.000Z</time>
      </trkpt>
      <trkpt lat="47.03584" lon="3.54699">
        <ele>247.45166015625</ele>
        <time>2016-04-20T14:02:21.000Z</time>
      </trkpt>
      <trkpt lat="47.0358" lon="3.54697">
        <ele>247.29219055176</ele>
        <time>2016-04-20T14:02:23.000Z</time>
      </trkpt>
      <trkpt lat="47.03577" lon="3.54695">
        <ele>247.15344238281</ele>
        <time>2016-04-20T14:02:23.000Z</time>
      </trkpt>
      <trkpt lat="47.03576" lon="3.54694">
        <ele>247.02668762207</ele>
        <time>2016-04-20T14:02:24.000Z</time>
      </trkpt>
      <trkpt lat="47.03574" lon="3.54692">
        <ele>246.89907836914</ele>
        <time>2016-04-20T14:02:24.000Z</time>
      </trkpt>
      <trkpt lat="47.03572" lon="3.5469">
        <ele>246.76669311523</ele>
        <time>2016-04-20T14:02:24.000Z</time>
      </trkpt>
      <trkpt lat="47.03571" lon="3.54687">
        <ele>246.6431427002</ele>
        <time>2016-04-20T14:02:24.000Z</time>
      </trkpt>
      <trkpt lat="47.03567" lon="3.54685">
        <ele>246.51176452637</ele>
        <time>2016-04-20T14:02:24.000Z</time>
      </trkpt>
      <trkpt lat="47.03565" lon="3.54683">
        <ele>246.38516235352</ele>
        <time>2016-04-20T14:02:25.000Z</time>
      </trkpt>
      <trkpt lat="47.03563" lon="3.54683">
        <ele>246.26359558105</ele>
        <time>2016-04-20T14:02:27.000Z</time>
      </trkpt>
      <trkpt lat="47.03562" lon="3.54682">
        <ele>246.15556335449</ele>
        <time>2016-04-20T14:02:29.000Z</time>
      </trkpt>
      <trkpt lat="47.03559" lon="3.54681">
        <ele>246.05693054199</ele>
        <time>2016-04-20T14:02:31.000Z</time>
      </trkpt>
      <trkpt lat="47.03555" lon="3.54678">
        <ele>245.9535369873</ele>
        <time>2016-04-20T14:02:46.000Z</time>
      </trkpt>
      <trkpt lat="47.03552" lon="3.54677">
        <ele>245.84436035156</ele>
        <time>2016-04-20T14:02:47.000Z</time>
      </trkpt>
      <trkpt lat="47.03549" lon="3.54676">
        <ele>245.72988891602</ele>
        <time>2016-04-20T14:02:47.000Z</time>
      </trkpt>
      <trkpt lat="47.03545" lon="3.54675">
        <ele>245.59831237793</ele>
        <time>2016-04-20T14:02:48.000Z</time>
      </trkpt>
      <trkpt lat="47.03543" lon="3.54673">
        <ele>245.46310424805</ele>
        <time>2016-04-20T14:02:48.000Z</time>
      </trkpt>
      <trkpt lat="47.0354" lon="3.54672">
        <ele>245.34700012207</ele>
        <time>2016-04-20T14:02:48.000Z</time>
      </trkpt>
      <trkpt lat="47.03538" lon="3.54672">
        <ele>245.24018859863</ele>
        <time>2016-04-20T14:02:49.000Z</time>
      </trkpt>
      <trkpt lat="47.03534" lon="3.5467">
        <ele>245.12875366211</ele>
        <time>2016-04-20T14:02:53.000Z</time>
      </trkpt>
      <trkpt lat="47.03531" lon="3.54668">
        <ele>245.02001953125</ele>
        <time>2016-04-20T14:02:56.000Z</time>
      </trkpt>
      <trkpt lat="47.03528" lon="3.54668">
        <ele>244.91630554199</ele>
        <time>2016-04-20T14:02:58.000Z</time>
      </trkpt>
      <trkpt lat="47.03526" lon="3.54668">
        <ele>244.8235168457</ele>
        <time>2016-04-20T14:03:02.000Z</time>
      </trkpt>
      <trkpt lat="47.03523" lon="3.54667">
        <ele>244.72602844238</ele>
        <time>2016-04-20T14:03:03.000Z</time>
      </trkpt>
      <trkpt lat="47.03521" lon="3.54668">
        <ele>244.6501159668</ele>
        <time>2016-04-20T14:03:06.000Z</time>
      </trkpt>
      <trkpt lat="47.03519" lon="3.54669">
        <ele>244.59248352051</ele>
        <time>2016-04-20T14:03:08.000Z</time>
      </trkpt>
      <trkpt lat="47.03515" lon="3.54669">
        <ele>244.53787231445</ele>
        <time>2016-04-20T14:03:11.000Z</time>
      </trkpt>
      <trkpt lat="47.03511" lon="3.54668">
        <ele>244.470703125</ele>
        <time>2016-04-20T14:03:18.000Z</time>
      </trkpt>
      <trkpt lat="47.03509" lon="3.54668">
        <ele>244.4077911377</ele>
        <time>2016-04-20T14:03:18.000Z</time>
      </trkpt>
      <trkpt lat="47.03505" lon="3.54668">
        <ele>244.33071899414</ele>
        <time>2016-04-20T14:03:20.000Z</time>
      </trkpt>
      <trkpt lat="47.03502" lon="3.54667">
        <ele>244.24258422852</ele>
        <time>2016-04-20T14:03:22.000Z</time>
      </trkpt>
      <trkpt lat="47.03498" lon="3.54668">
        <ele>244.1526184082</ele>
        <time>2016-04-20T14:03:25.000Z</time>
      </trkpt>
      <trkpt lat="47.03496" lon="3.54668">
        <ele>244.06893920898</ele>
        <time>2016-04-20T14:03:26.000Z</time>
      </trkpt>
      <trkpt lat="47.03493" lon="3.54668">
        <ele>243.98461914062</ele>
        <time>2016-04-20T14:03:29.000Z</time>
      </trkpt>
      <trkpt lat="47.03489" lon="3.5467">
        <ele>243.89367675781</ele>
        <time>2016-04-20T14:03:32.000Z</time>
      </trkpt>
      <trkpt lat="47.03486" lon="3.54671">
        <ele>243.8101348877</ele>
        <time>2016-04-20T14:03:36.000Z</time>
      </trkpt>
      <trkpt lat="47.03483" lon="3.54672">
        <ele>243.72592163086</ele>
        <time>2016-04-20T14:03:37.000Z</time>
      </trkpt>
      <trkpt lat="47.0348" lon="3.54673">
        <ele>243.6439666748</ele>
        <time>2016-04-20T14:03:40.000Z</time>
      </trkpt>
      <trkpt lat="47.03476" lon="3.54672">
        <ele>243.54328918457</ele>
        <time>2016-04-20T14:03:47.000Z</time>
      </trkpt>
      <trkpt lat="47.03473" lon="3.5467">
        <ele>243.42831420898</ele>
        <time>2016-04-20T14:03:47.000Z</time>
      </trkpt>
      <trkpt lat="47.03471" lon="3.54669">
        <ele>243.30285644531</ele>
        <time>2016-04-20T14:03:48.000Z</time>
      </trkpt>
      <trkpt lat="47.03468" lon="3.54668">
        <ele>243.17471313477</ele>
        <time>2016-04-20T14:03:51.000Z</time>
      </trkpt>
      <trkpt lat="47.03466" lon="3.54668">
        <ele>243.0466003418</ele>
        <time>2016-04-20T14:03:54.000Z</time>
      </trkpt>
      <trkpt lat="47.03463" lon="3.54669">
        <ele>242.93710327148</ele>
        <time>2016-04-20T14:03:56.000Z</time>
      </trkpt>
      <trkpt lat="47.0346" lon="3.54669">
        <ele>242.84423828125</ele>
        <time>2016-04-20T14:04:00.000Z</time>
      </trkpt>
      <trkpt lat="47.03457" lon="3.54669">
        <ele>242.76083374023</ele>
        <time>2016-04-20T14:04:01.000Z</time>
      </trkpt>
      <trkpt lat="47.03454" lon="3.54669">
        <ele>242.66870117188</ele>
        <time>2016-04-20T14:04:05.000Z</time>
      </trkpt>
      <trkpt lat="47.03452" lon="3.54668">
        <ele>242.56741333008</ele>
        <time>2016-04-20T14:04:06.000Z</time>
      </trkpt>
      <trkpt lat="47.0345" lon="3.54668">
        <ele>242.4702911377</ele>
        <time>2016-04-20T14:04:08.000Z</time>
      </trkpt>
      <trkpt lat="47.03447" lon="3.54669">
        <ele>242.37634277344</ele>
        <time>2016-04-20T14:04:11.000Z</time>
      </trkpt>
      <trkpt lat="47.03445" lon="3.54668">
        <ele>242.2730255127</ele>
        <time>2016-04-20T14:04:13.000Z</time>
      </trkpt>
      <trkpt lat="47.03442" lon="3.54667">
        <ele>242.16275024414</ele>
        <time>2016-04-20T14:04:16.000Z</time>
      </trkpt>
      <trkpt lat="47.0344" lon="3.54666">
        <ele>242.06021118164</ele>
        <time>2016-04-20T14:04:18.000Z</time>
      </trkpt>
      <trkpt lat="47.03437" lon="3.54667">
        <ele>241.95695495605</ele>
        <time>2016-04-20T14:04:22.000Z</time>
      </trkpt>
      <trkpt lat="47.03435" lon="3.54667">
        <ele>241.85501098633</ele>
        <time>2016-04-20T14:04:23.000Z</time>
      </trkpt>
      <trkpt lat="47.03432" lon="3.54666">
        <ele>241.74911499023</ele>
        <time>2016-04-20T14:04:25.000Z</time>
      </trkpt>
      <trkpt lat="47.0343" lon="3.54666">
        <ele>241.66064453125</ele>
        <time>2016-04-20T14:04:28.000Z</time>
      </trkpt>
      <trkpt lat="47.03428" lon="3.54667">
        <ele>241.57125854492</ele>
        <time>2016-04-20T14:04:30.000Z</time>
      </trkpt>
      <trkpt lat="47.03425" lon="3.54667">
        <ele>241.48738098145</ele>
        <time>2016-04-20T14:04:32.000Z</time>
      </trkpt>
      <trkpt lat="47.03422" lon="3.54667">
        <ele>241.39701843262</ele>
        <time>2016-04-20T14:04:35.000Z</time>
      </trkpt>
      <trkpt lat="47.03418" lon="3.54668">
        <ele>241.31271362305</ele>
        <time>2016-04-20T14:04:38.000Z</time>
      </trkpt>
      <trkpt lat="47.03415" lon="3.54669">
        <ele>241.23941040039</ele>
        <time>2016-04-20T14:04:40.000Z</time>
      </trkpt>
      <trkpt lat="47.03411" lon="3.54671">
        <ele>241.19853210449</ele>
        <time>2016-04-20T14:04:43.000Z</time>
      </trkpt>
      <trkpt lat="47.03407" lon="3.54672">
        <ele>241.16613769531</ele>
        <time>2016-04-20T14:04:46.000Z</time>
      </trkpt>
      <trkpt lat="47.03403" lon="3.54674">
        <ele>241.1633605957</ele>
        <time>2016-04-20T14:04:49.000Z</time>
      </trkpt>
      <trkpt lat="47.034" lon="3.54675">
        <ele>241.1879119873</ele>
        <time>2016-04-20T14:04:52.000Z</time>
      </trkpt>
      <trkpt lat="47.03397" lon="3.54675">
        <ele>241.20280456543</ele>
        <time>2016-04-20T14:04:55.000Z</time>
      </trkpt>
      <trkpt lat="47.03394" lon="3.54675">
        <ele>241.1890411377</ele>
        <time>2016-04-20T14:04:57.000Z</time>
      </trkpt>
      <trkpt lat="47.03391" lon="3.54674">
        <ele>241.1474609375</ele>
        <time>2016-04-20T14:05:01.000Z</time>
      </trkpt>
      <trkpt lat="47.03389" lon="3.54675">
        <ele>241.10542297363</ele>
        <time>2016-04-20T14:05:02.000Z</time>
      </trkpt>
      <trkpt lat="47.03386" lon="3.54675">
        <ele>241.04801940918</ele>
        <time>2016-04-20T14:05:04.000Z</time>
      </trkpt>
      <trkpt lat="47.03382" lon="3.54676">
        <ele>240.99984741211</ele>
        <time>2016-04-20T14:05:07.000Z</time>
      </trkpt>
      <trkpt lat="47.0338" lon="3.54676">
        <ele>240.95629882812</ele>
        <time>2016-04-20T14:05:10.000Z</time>
      </trkpt>
      <trkpt lat="47.03377" lon="3.54675">
        <ele>240.91528320312</ele>
        <time>2016-04-20T14:05:13.000Z</time>
      </trkpt>
      <trkpt lat="47.03374" lon="3.54675">
        <ele>240.85140991211</ele>
        <time>2016-04-20T14:05:15.000Z</time>
      </trkpt>
      <trkpt lat="47.03371" lon="3.54675">
        <ele>240.78359985352</ele>
        <time>2016-04-20T14:05:17.000Z</time>
      </trkpt>
      <trkpt lat="47.03368" lon="3.54675">
        <ele>240.69694519043</ele>
        <time>2016-04-20T14:05:20.000Z</time>
      </trkpt>
      <trkpt lat="47.03364" lon="3.54674">
        <ele>240.60270690918</ele>
        <time>2016-04-20T14:05:23.000Z</time>
      </trkpt>
      <trkpt lat="47.03362" lon="3.54675">
        <ele>240.5366973877</ele>
        <time>2016-04-20T14:05:26.000Z</time>
      </trkpt>
      <trkpt lat="47.0336" lon="3.54676">
        <ele>240.49914550781</ele>
        <time>2016-04-20T14:05:28.000Z</time>
      </trkpt>
      <trkpt lat="47.03355" lon="3.54677">
        <ele>240.47087097168</ele>
        <time>2016-04-20T14:05:31.000Z</time>
      </trkpt>
      <trkpt lat="47.03352" lon="3.54679">
        <ele>240.47836303711</ele>
        <time>2016-04-20T14:05:34.000Z</time>
      </trkpt>
      <trkpt lat="47.03349" lon="3.5468">
        <ele>240.51676940918</ele>
        <time>2016-04-20T14:05:39.000Z</time>
      </trkpt>
      <trkpt lat="47.03347" lon="3.54681">
        <ele>240.56018066406</ele>
        <time>2016-04-20T14:05:40.000Z</time>
      </trkpt>
      <trkpt lat="47.03345" lon="3.54682">
        <ele>240.60244750977</ele>
        <time>2016-04-20T14:05:41.000Z</time>
      </trkpt>
      <trkpt lat="47.03342" lon="3.54683">
        <ele>240.64535522461</ele>
        <time>2016-04-20T14:05:44.000Z</time>
      </trkpt>
      <trkpt lat="47.03339" lon="3.54683">
        <ele>240.67874145508</ele>
        <time>2016-04-20T14:05:47.000Z</time>
      </trkpt>
      <trkpt lat="47.03334" lon="3.54685">
        <ele>240.71589660645</ele>
        <time>2016-04-20T14:05:50.000Z</time>
      </trkpt>
      <trkpt lat="47.03333" lon="3.54687">
        <ele>240.77262878418</ele>
        <time>2016-04-20T14:05:52.000Z</time>
      </trkpt>
      <trkpt lat="47.03328" lon="3.5469">
        <ele>240.85696411133</ele>
        <time>2016-04-20T14:05:55.000Z</time>
      </trkpt>
      <trkpt lat="47.03325" lon="3.54691">
        <ele>240.95869445801</ele>
        <time>2016-04-20T14:05:58.000Z</time>
      </trkpt>
      <trkpt lat="47.03323" lon="3.54693">
        <ele>241.0849609375</ele>
        <time>2016-04-20T14:06:00.000Z</time>
      </trkpt>
      <trkpt lat="47.03319" lon="3.54694">
        <ele>241.20858764648</ele>
        <time>2016-04-20T14:06:03.000Z</time>
      </trkpt>
      <trkpt lat="47.03316" lon="3.54697">
        <ele>241.33247375488</ele>
        <time>2016-04-20T14:06:06.000Z</time>
      </trkpt>
      <trkpt lat="47.03313" lon="3.54698">
        <ele>241.42858886719</ele>
        <time>2016-04-20T14:06:09.000Z</time>
      </trkpt>
      <trkpt lat="47.03311" lon="3.54699">
        <ele>241.51904296875</ele>
        <time>2016-04-20T14:06:12.000Z</time>
      </trkpt>
      <trkpt lat="47.03308" lon="3.547">
        <ele>241.58955383301</ele>
        <time>2016-04-20T14:06:15.000Z</time>
      </trkpt>
      <trkpt lat="47.03305" lon="3.54701">
        <ele>241.65327453613</ele>
        <time>2016-04-20T14:06:17.000Z</time>
      </trkpt>
      <trkpt lat="47.03304" lon="3.54702">
        <ele>241.69808959961</ele>
        <time>2016-04-20T14:06:19.000Z</time>
      </trkpt>
      <trkpt lat="47.03303" lon="3.54701">
        <ele>241.71821594238</ele>
        <time>2016-04-20T14:06:23.000Z</time>
      </trkpt>
      <trkpt lat="47.03302" lon="3.54701">
        <ele>241.71450805664</ele>
        <time>2016-04-20T14:06:24.000Z</time>
      </trkpt>
      <trkpt lat="47.03302" lon="3.54699">
        <ele>241.68452453613</ele>
        <time>2016-04-20T14:06:26.000Z</time>
      </trkpt>
      <trkpt lat="47.03302" lon="3.54697">
        <ele>241.61038208008</ele>
        <time>2016-04-20T14:06:29.000Z</time>
      </trkpt>
      <trkpt lat="47.03302" lon="3.54695">
        <ele>241.48893737793</ele>
        <time>2016-04-20T14:06:32.000Z</time>
      </trkpt>
      <trkpt lat="47.03302" lon="3.54692">
        <ele>241.34651184082</ele>
        <time>2016-04-20T14:06:35.000Z</time>
      </trkpt>
      <trkpt lat="47.03301" lon="3.54692">
        <ele>241.20223999023</ele>
        <time>2016-04-20T14:06:45.000Z</time>
      </trkpt>
      <trkpt lat="47.03299" lon="3.54691">
        <ele>241.06845092773</ele>
        <time>2016-04-20T14:06:47.000Z</time>
      </trkpt>
      <trkpt lat="47.03299" lon="3.5469">
        <ele>240.95356750488</ele>
        <time>2016-04-20T14:06:51.000Z</time>
      </trkpt>
      <trkpt lat="47.03298" lon="3.54688">
        <ele>240.83964538574</ele>
        <time>2016-04-20T14:06:54.000Z</time>
      </trkpt>
      <trkpt lat="47.03298" lon="3.54686">
        <ele>240.72956848145</ele>
        <time>2016-04-20T14:06:56.000Z</time>
      </trkpt>
      <trkpt lat="47.03297" lon="3.54683">
        <ele>240.59599304199</ele>
        <time>2016-04-20T14:06:58.000Z</time>
      </trkpt>
      <trkpt lat="47.03297" lon="3.54681">
        <ele>240.43240356445</ele>
        <time>2016-04-20T14:07:02.000Z</time>
      </trkpt>
      <trkpt lat="47.03297" lon="3.54679">
        <ele>240.26237487793</ele>
        <time>2016-04-20T14:07:03.000Z</time>
      </trkpt>
      <trkpt lat="47.03297" lon="3.54679">
        <ele>240.26237487793</ele>
        <time>2016-04-20T14:07:24.000Z</time>
      </trkpt>
      <trkpt lat="47.03299" lon="3.54677">
        <ele>240.0986328125</ele>
        <time>2016-04-20T14:07:27.000Z</time>
      </trkpt>
      <trkpt lat="47.03299" lon="3.54677">
        <ele>240.0986328125</ele>
        <time>2016-04-20T14:07:47.000Z</time>
      </trkpt>
      <trkpt lat="47.03297" lon="3.54676">
        <ele>239.9543762207</ele>
        <time>2016-04-20T14:07:56.000Z</time>
      </trkpt>
      <trkpt lat="47.03297" lon="3.54676">
        <ele>239.9543762207</ele>
        <time>2016-04-20T14:08:17.000Z</time>
      </trkpt>
      <trkpt lat="47.03295" lon="3.54677">
        <ele>239.86312866211</ele>
        <time>2016-04-20T14:08:20.000Z</time>
      </trkpt>
      <trkpt lat="47.03295" lon="3.54676">
        <ele>239.79177856445</ele>
        <time>2016-04-20T14:08:29.000Z</time>
      </trkpt>
      <trkpt lat="47.03294" lon="3.54677">
        <ele>239.75149536133</ele>
        <time>2016-04-20T14:08:33.000Z</time>
      </trkpt>
      <trkpt lat="47.03293" lon="3.54676">
        <ele>239.73373413086</ele>
        <time>2016-04-20T14:08:38.000Z</time>
      </trkpt>
      <trkpt lat="47.03293" lon="3.54676">
        <ele>239.73373413086</ele>
        <time>2016-04-20T14:08:59.000Z</time>
      </trkpt>
      <trkpt lat="47.03294" lon="3.54677">
        <ele>239.74092102051</ele>
        <time>2016-04-20T14:10:05.000Z</time>
      </trkpt>
      <trkpt lat="47.03297" lon="3.54675">
        <ele>239.70947265625</ele>
        <time>2016-04-20T14:10:20.000Z</time>
      </trkpt>
      <trkpt lat="47.03298" lon="3.54675">
        <ele>239.69331359863</ele>
        <time>2016-04-20T14:10:24.000Z</time>
      </trkpt>
      <trkpt lat="47.03299" lon="3.54672">
        <ele>239.63395690918</ele>
        <time>2016-04-20T14:10:40.000Z</time>
      </trkpt>
      <trkpt lat="47.03299" lon="3.54671">
        <ele>239.56144714355</ele>
        <time>2016-04-20T14:10:42.000Z</time>
      </trkpt>
      <trkpt lat="47.03299" lon="3.54668">
        <ele>239.42562866211</ele>
        <time>2016-04-20T14:10:46.000Z</time>
      </trkpt>
      <trkpt lat="47.03299" lon="3.54664">
        <ele>239.2935333252</ele>
        <time>2016-04-20T14:10:47.000Z</time>
      </trkpt>
      <trkpt lat="47.033" lon="3.54661">
        <ele>239.16230773926</ele>
        <time>2016-04-20T14:10:50.000Z</time>
      </trkpt>
      <trkpt lat="47.033" lon="3.54657">
        <ele>239.06086730957</ele>
        <time>2016-04-20T14:10:53.000Z</time>
      </trkpt>
      <trkpt lat="47.03299" lon="3.54655">
        <ele>238.9759979248</ele>
        <time>2016-04-20T14:10:55.000Z</time>
      </trkpt>
      <trkpt lat="47.033" lon="3.5465">
        <ele>238.93464660645</ele>
        <time>2016-04-20T14:10:58.000Z</time>
      </trkpt>
      <trkpt lat="47.03299" lon="3.54646">
        <ele>238.90885925293</ele>
        <time>2016-04-20T14:11:01.000Z</time>
      </trkpt>
      <trkpt lat="47.03299" lon="3.54644">
        <ele>238.88528442383</ele>
        <time>2016-04-20T14:11:03.000Z</time>
      </trkpt>
      <trkpt lat="47.03299" lon="3.5464">
        <ele>238.86100769043</ele>
        <time>2016-04-20T14:11:06.000Z</time>
      </trkpt>
      <trkpt lat="47.03299" lon="3.54637">
        <ele>238.83602905273</ele>
        <time>2016-04-20T14:11:09.000Z</time>
      </trkpt>
      <trkpt lat="47.033" lon="3.54632">
        <ele>238.8099822998</ele>
        <time>2016-04-20T14:11:12.000Z</time>
      </trkpt>
      <trkpt lat="47.03301" lon="3.54627">
        <ele>238.78128051758</ele>
        <time>2016-04-20T14:11:15.000Z</time>
      </trkpt>
      <trkpt lat="47.03301" lon="3.54622">
        <ele>238.74702453613</ele>
        <time>2016-04-20T14:11:19.000Z</time>
      </trkpt>
      <trkpt lat="47.03301" lon="3.54617">
        <ele>238.71237182617</ele>
        <time>2016-04-20T14:11:20.000Z</time>
      </trkpt>
      <trkpt lat="47.03301" lon="3.54613">
        <ele>238.67614746094</ele>
        <time>2016-04-20T14:11:23.000Z</time>
      </trkpt>
      <trkpt lat="47.033" lon="3.54611">
        <ele>238.64511108398</ele>
        <time>2016-04-20T14:11:26.000Z</time>
      </trkpt>
      <trkpt lat="47.033" lon="3.54607">
        <ele>238.61624145508</ele>
        <time>2016-04-20T14:11:28.000Z</time>
      </trkpt>
      <trkpt lat="47.03302" lon="3.54601">
        <ele>238.5856628418</ele>
        <time>2016-04-20T14:11:31.000Z</time>
      </trkpt>
      <trkpt lat="47.03303" lon="3.54598">
        <ele>238.55361938477</ele>
        <time>2016-04-20T14:11:33.000Z</time>
      </trkpt>
      <trkpt lat="47.03304" lon="3.54592">
        <ele>238.51652526855</ele>
        <time>2016-04-20T14:11:36.000Z</time>
      </trkpt>
      <trkpt lat="47.03304" lon="3.54586">
        <ele>238.46977233887</ele>
        <time>2016-04-20T14:11:39.000Z</time>
      </trkpt>
      <trkpt lat="47.03305" lon="3.54579">
        <ele>238.4421081543</ele>
        <time>2016-04-20T14:11:42.000Z</time>
      </trkpt>
      <trkpt lat="47.03305" lon="3.54574">
        <ele>238.44450378418</ele>
        <time>2016-04-20T14:11:45.000Z</time>
      </trkpt>
      <trkpt lat="47.03305" lon="3.5457">
        <ele>238.46786499023</ele>
        <time>2016-04-20T14:11:48.000Z</time>
      </trkpt>
      <trkpt lat="47.03305" lon="3.54567">
        <ele>238.51493835449</ele>
        <time>2016-04-20T14:11:50.000Z</time>
      </trkpt>
      <trkpt lat="47.03305" lon="3.54561">
        <ele>238.60049438477</ele>
        <time>2016-04-20T14:11:53.000Z</time>
      </trkpt>
      <trkpt lat="47.03305" lon="3.54557">
        <ele>238.68920898438</ele>
        <time>2016-04-20T14:11:55.000Z</time>
      </trkpt>
      <trkpt lat="47.03305" lon="3.54552">
        <ele>238.77743530273</ele>
        <time>2016-04-20T14:11:59.000Z</time>
      </trkpt>
      <trkpt lat="47.03305" lon="3.54548">
        <ele>238.86795043945</ele>
        <time>2016-04-20T14:12:00.000Z</time>
      </trkpt>
      <trkpt lat="47.03304" lon="3.54541">
        <ele>238.97424316406</ele>
        <time>2016-04-20T14:12:04.000Z</time>
      </trkpt>
      <trkpt lat="47.03304" lon="3.54537">
        <ele>239.06962585449</ele>
        <time>2016-04-20T14:12:05.000Z</time>
      </trkpt>
      <trkpt lat="47.03304" lon="3.54532">
        <ele>239.16882324219</ele>
        <time>2016-04-20T14:12:08.000Z</time>
      </trkpt>
      <trkpt lat="47.03304" lon="3.54527">
        <ele>239.26953125</ele>
        <time>2016-04-20T14:12:10.000Z</time>
      </trkpt>
      <trkpt lat="47.03304" lon="3.54522">
        <ele>239.37324523926</ele>
        <time>2016-04-20T14:12:13.000Z</time>
      </trkpt>
      <trkpt lat="47.03304" lon="3.54517">
        <ele>239.46879577637</ele>
        <time>2016-04-20T14:12:16.000Z</time>
      </trkpt>
      <trkpt lat="47.03304" lon="3.54511">
        <ele>239.5700378418</ele>
        <time>2016-04-20T14:12:19.000Z</time>
      </trkpt>
      <trkpt lat="47.03305" lon="3.54506">
        <ele>239.67414855957</ele>
        <time>2016-04-20T14:12:22.000Z</time>
      </trkpt>
      <trkpt lat="47.03305" lon="3.54502">
        <ele>239.77226257324</ele>
        <time>2016-04-20T14:12:24.000Z</time>
      </trkpt>
      <trkpt lat="47.03307" lon="3.54497">
        <ele>239.89343261719</ele>
        <time>2016-04-20T14:12:27.000Z</time>
      </trkpt>
      <trkpt lat="47.03307" lon="3.54493">
        <ele>240.02676391602</ele>
        <time>2016-04-20T14:12:30.000Z</time>
      </trkpt>
      <trkpt lat="47.03308" lon="3.54489">
        <ele>240.18728637695</ele>
        <time>2016-04-20T14:12:33.000Z</time>
      </trkpt>
      <trkpt lat="47.03308" lon="3.54483">
        <ele>240.38418579102</ele>
        <time>2016-04-20T14:12:36.000Z</time>
      </trkpt>
      <trkpt lat="47.03309" lon="3.54478">
        <ele>240.61357116699</ele>
        <time>2016-04-20T14:12:39.000Z</time>
      </trkpt>
      <trkpt lat="47.0331" lon="3.54475">
        <ele>240.83389282227</ele>
        <time>2016-04-20T14:12:41.000Z</time>
      </trkpt>
      <trkpt lat="47.0331" lon="3.54472">
        <ele>241.05654907227</ele>
        <time>2016-04-20T14:12:43.000Z</time>
      </trkpt>
      <trkpt lat="47.0331" lon="3.54468">
        <ele>241.27005004883</ele>
        <time>2016-04-20T14:12:45.000Z</time>
      </trkpt>
      <trkpt lat="47.03311" lon="3.54463">
        <ele>241.47421264648</ele>
        <time>2016-04-20T14:12:48.000Z</time>
      </trkpt>
      <trkpt lat="47.03312" lon="3.54459">
        <ele>241.6731262207</ele>
        <time>2016-04-20T14:12:51.000Z</time>
      </trkpt>
      <trkpt lat="47.03314" lon="3.54453">
        <ele>241.89712524414</ele>
        <time>2016-04-20T14:12:54.000Z</time>
      </trkpt>
      <trkpt lat="47.03313" lon="3.54449">
        <ele>242.12898254395</ele>
        <time>2016-04-20T14:12:56.000Z</time>
      </trkpt>
      <trkpt lat="47.03313" lon="3.54444">
        <ele>242.37113952637</ele>
        <time>2016-04-20T14:12:59.000Z</time>
      </trkpt>
      <trkpt lat="47.03315" lon="3.54437">
        <ele>242.62809753418</ele>
        <time>2016-04-20T14:13:02.000Z</time>
      </trkpt>
      <trkpt lat="47.03315" lon="3.54434">
        <ele>242.86991882324</ele>
        <time>2016-04-20T14:13:04.000Z</time>
      </trkpt>
      <trkpt lat="47.03316" lon="3.5443">
        <ele>243.09838867188</ele>
        <time>2016-04-20T14:13:07.000Z</time>
      </trkpt>
      <trkpt lat="47.03317" lon="3.54426">
        <ele>243.31823730469</ele>
        <time>2016-04-20T14:13:09.000Z</time>
      </trkpt>
      <trkpt lat="47.03318" lon="3.54421">
        <ele>243.53674316406</ele>
        <time>2016-04-20T14:13:12.000Z</time>
      </trkpt>
      <trkpt lat="47.03319" lon="3.54416">
        <ele>243.73945617676</ele>
        <time>2016-04-20T14:13:16.000Z</time>
      </trkpt>
      <trkpt lat="47.03319" lon="3.54411">
        <ele>243.98078918457</ele>
        <time>2016-04-20T14:13:18.000Z</time>
      </trkpt>
      <trkpt lat="47.0332" lon="3.54405">
        <ele>244.24438476562</ele>
        <time>2016-04-20T14:13:21.000Z</time>
      </trkpt>
      <trkpt lat="47.03321" lon="3.54402">
        <ele>244.50581359863</ele>
        <time>2016-04-20T14:13:23.000Z</time>
      </trkpt>
      <trkpt lat="47.03323" lon="3.54399">
        <ele>244.75326538086</ele>
        <time>2016-04-20T14:13:25.000Z</time>
      </trkpt>
      <trkpt lat="47.03325" lon="3.54393">
        <ele>245.00875854492</ele>
        <time>2016-04-20T14:13:28.000Z</time>
      </trkpt>
      <trkpt lat="47.03326" lon="3.5439">
        <ele>245.21903991699</ele>
        <time>2016-04-20T14:13:30.000Z</time>
      </trkpt>
      <trkpt lat="47.03326" lon="3.54387">
        <ele>245.39729309082</ele>
        <time>2016-04-20T14:13:32.000Z</time>
      </trkpt>
      <trkpt lat="47.03326" lon="3.54382">
        <ele>245.58984375</ele>
        <time>2016-04-20T14:13:35.000Z</time>
      </trkpt>
      <trkpt lat="47.03328" lon="3.54377">
        <ele>245.79052734375</ele>
        <time>2016-04-20T14:13:39.000Z</time>
      </trkpt>
      <trkpt lat="47.03328" lon="3.54372">
        <ele>245.97927856445</ele>
        <time>2016-04-20T14:13:41.000Z</time>
      </trkpt>
      <trkpt lat="47.03329" lon="3.54369">
        <ele>246.17353820801</ele>
        <time>2016-04-20T14:13:43.000Z</time>
      </trkpt>
      <trkpt lat="47.03331" lon="3.54365">
        <ele>246.35202026367</ele>
        <time>2016-04-20T14:13:45.000Z</time>
      </trkpt>
      <trkpt lat="47.03332" lon="3.5436">
        <ele>246.5153503418</ele>
        <time>2016-04-20T14:13:48.000Z</time>
      </trkpt>
      <trkpt lat="47.03333" lon="3.54354">
        <ele>246.68952941895</ele>
        <time>2016-04-20T14:13:51.000Z</time>
      </trkpt>
      <trkpt lat="47.03333" lon="3.54349">
        <ele>246.86074829102</ele>
        <time>2016-04-20T14:13:54.000Z</time>
      </trkpt>
      <trkpt lat="47.03333" lon="3.54344">
        <ele>247.04951477051</ele>
        <time>2016-04-20T14:13:57.000Z</time>
      </trkpt>
      <trkpt lat="47.03334" lon="3.54339">
        <ele>247.25813293457</ele>
        <time>2016-04-20T14:14:00.000Z</time>
      </trkpt>
      <trkpt lat="47.03336" lon="3.54333">
        <ele>247.48921203613</ele>
        <time>2016-04-20T14:14:03.000Z</time>
      </trkpt>
      <trkpt lat="47.03337" lon="3.54328">
        <ele>247.79995727539</ele>
        <time>2016-04-20T14:14:06.000Z</time>
      </trkpt>
      <trkpt lat="47.03339" lon="3.54324">
        <ele>248.15512084961</ele>
        <time>2016-04-20T14:14:09.000Z</time>
      </trkpt>
      <trkpt lat="47.0334" lon="3.54318">
        <ele>248.59606933594</ele>
        <time>2016-04-20T14:14:11.000Z</time>
      </trkpt>
      <trkpt lat="47.03341" lon="3.54314">
        <ele>249.11259460449</ele>
        <time>2016-04-20T14:14:14.000Z</time>
      </trkpt>
      <trkpt lat="47.03341" lon="3.54309">
        <ele>249.6794128418</ele>
        <time>2016-04-20T14:14:16.000Z</time>
      </trkpt>
      <trkpt lat="47.0334" lon="3.54303">
        <ele>250.27151489258</ele>
        <time>2016-04-20T14:14:19.000Z</time>
      </trkpt>
      <trkpt lat="47.03341" lon="3.54297">
        <ele>250.92858886719</ele>
        <time>2016-04-20T14:14:22.000Z</time>
      </trkpt>
      <trkpt lat="47.03341" lon="3.54292">
        <ele>251.57133483887</ele>
        <time>2016-04-20T14:14:26.000Z</time>
      </trkpt>
      <trkpt lat="47.03342" lon="3.54286">
        <ele>252.22456359863</ele>
        <time>2016-04-20T14:14:28.000Z</time>
      </trkpt>
      <trkpt lat="47.03344" lon="3.54283">
        <ele>252.81900024414</ele>
        <time>2016-04-20T14:14:31.000Z</time>
      </trkpt>
      <trkpt lat="47.03344" lon="3.54279">
        <ele>253.35830688477</ele>
        <time>2016-04-20T14:14:33.000Z</time>
      </trkpt>
      <trkpt lat="47.03345" lon="3.54273">
        <ele>253.86532592773</ele>
        <time>2016-04-20T14:14:37.000Z</time>
      </trkpt>
      <trkpt lat="47.03345" lon="3.54269">
        <ele>254.34323120117</ele>
        <time>2016-04-20T14:14:38.000Z</time>
      </trkpt>
      <trkpt lat="47.03346" lon="3.54263">
        <ele>254.82453918457</ele>
        <time>2016-04-20T14:14:42.000Z</time>
      </trkpt>
      <trkpt lat="47.03347" lon="3.54258">
        <ele>255.35224914551</ele>
        <time>2016-04-20T14:14:43.000Z</time>
      </trkpt>
      <trkpt lat="47.03348" lon="3.54254">
        <ele>255.84875488281</ele>
        <time>2016-04-20T14:14:46.000Z</time>
      </trkpt>
      <trkpt lat="47.03348" lon="3.54249">
        <ele>256.33755493164</ele>
        <time>2016-04-20T14:14:48.000Z</time>
      </trkpt>
      <trkpt lat="47.03348" lon="3.54245">
        <ele>256.78509521484</ele>
        <time>2016-04-20T14:14:50.000Z</time>
      </trkpt>
      <trkpt lat="47.03349" lon="3.54242">
        <ele>257.13772583008</ele>
        <time>2016-04-20T14:14:52.000Z</time>
      </trkpt>
      <trkpt lat="47.03348" lon="3.54238">
        <ele>257.45690917969</ele>
        <time>2016-04-20T14:14:54.000Z</time>
      </trkpt>
      <trkpt lat="47.03348" lon="3.54233">
        <ele>257.77145385742</ele>
        <time>2016-04-20T14:14:57.000Z</time>
      </trkpt>
      <trkpt lat="47.03348" lon="3.54227">
        <ele>258.04595947266</ele>
        <time>2016-04-20T14:15:00.000Z</time>
      </trkpt>
      <trkpt lat="47.03348" lon="3.54222">
        <ele>258.33062744141</ele>
        <time>2016-04-20T14:15:02.000Z</time>
      </trkpt>
      <trkpt lat="47.0335" lon="3.54217">
        <ele>258.60772705078</ele>
        <time>2016-04-20T14:15:05.000Z</time>
      </trkpt>
      <trkpt lat="47.03351" lon="3.54212">
        <ele>258.86050415039</ele>
        <time>2016-04-20T14:15:08.000Z</time>
      </trkpt>
      <trkpt lat="47.0335" lon="3.54207">
        <ele>259.12210083008</ele>
        <time>2016-04-20T14:15:10.000Z</time>
      </trkpt>
      <trkpt lat="47.03351" lon="3.54204">
        <ele>259.33483886719</ele>
        <time>2016-04-20T14:15:12.000Z</time>
      </trkpt>
      <trkpt lat="47.03352" lon="3.54201">
        <ele>259.51586914062</ele>
        <time>2016-04-20T14:15:15.000Z</time>
      </trkpt>
      <trkpt lat="47.03352" lon="3.542">
        <ele>259.67221069336</ele>
        <time>2016-04-20T14:15:17.000Z</time>
      </trkpt>
      <trkpt lat="47.03354" lon="3.54198">
        <ele>259.78692626953</ele>
        <time>2016-04-20T14:15:20.000Z</time>
      </trkpt>
      <trkpt lat="47.03355" lon="3.54198">
        <ele>259.80523681641</ele>
        <time>2016-04-20T14:15:24.000Z</time>
      </trkpt>
      <trkpt lat="47.03356" lon="3.54198">
        <ele>259.7770690918</ele>
        <time>2016-04-20T14:15:30.000Z</time>
      </trkpt>
      <trkpt lat="47.03355" lon="3.54197">
        <ele>259.75088500977</ele>
        <time>2016-04-20T14:15:43.000Z</time>
      </trkpt>
      <trkpt lat="47.03358" lon="3.54193">
        <ele>259.71069335938</ele>
        <time>2016-04-20T14:15:48.000Z</time>
      </trkpt>
      <trkpt lat="47.0336" lon="3.54192">
        <ele>259.65319824219</ele>
        <time>2016-04-20T14:15:49.000Z</time>
      </trkpt>
      <trkpt lat="47.03361" lon="3.54188">
        <ele>259.64324951172</ele>
        <time>2016-04-20T14:15:53.000Z</time>
      </trkpt>
      <trkpt lat="47.03363" lon="3.54185">
        <ele>259.64831542969</ele>
        <time>2016-04-20T14:15:54.000Z</time>
      </trkpt>
      <trkpt lat="47.03364" lon="3.54182">
        <ele>259.64566040039</ele>
        <time>2016-04-20T14:15:58.000Z</time>
      </trkpt>
      <trkpt lat="47.03366" lon="3.54181">
        <ele>259.6301574707</ele>
        <time>2016-04-20T14:15:59.000Z</time>
      </trkpt>
      <trkpt lat="47.03366" lon="3.54179">
        <ele>259.66204833984</ele>
        <time>2016-04-20T14:16:07.000Z</time>
      </trkpt>
      <trkpt lat="47.03365" lon="3.54177">
        <ele>259.69424438477</ele>
        <time>2016-04-20T14:16:08.000Z</time>
      </trkpt>
      <trkpt lat="47.03366" lon="3.54176">
        <ele>259.74749755859</ele>
        <time>2016-04-20T14:16:08.000Z</time>
      </trkpt>
      <trkpt lat="47.03365" lon="3.54174">
        <ele>259.80993652344</ele>
        <time>2016-04-20T14:16:13.000Z</time>
      </trkpt>
      <trkpt lat="47.03366" lon="3.54177">
        <ele>259.85662841797</ele>
        <time>2016-04-20T14:16:26.000Z</time>
      </trkpt>
      <trkpt lat="47.03366" lon="3.54175">
        <ele>259.89215087891</ele>
        <time>2016-04-20T14:16:28.000Z</time>
      </trkpt>
      <trkpt lat="47.03366" lon="3.54171">
        <ele>259.95272827148</ele>
        <time>2016-04-20T14:16:31.000Z</time>
      </trkpt>
      <trkpt lat="47.03365" lon="3.54165">
        <ele>260.0940246582</ele>
        <time>2016-04-20T14:16:34.000Z</time>
      </trkpt>
      <trkpt lat="47.03365" lon="3.54158">
        <ele>260.21771240234</ele>
        <time>2016-04-20T14:16:37.000Z</time>
      </trkpt>
      <trkpt lat="47.03367" lon="3.54155">
        <ele>260.3591003418</ele>
        <time>2016-04-20T14:16:40.000Z</time>
      </trkpt>
      <trkpt lat="47.03368" lon="3.5415">
        <ele>260.49349975586</ele>
        <time>2016-04-20T14:16:42.000Z</time>
      </trkpt>
      <trkpt lat="47.0337" lon="3.54146">
        <ele>260.53146362305</ele>
        <time>2016-04-20T14:16:45.000Z</time>
      </trkpt>
      <trkpt lat="47.03371" lon="3.54143">
        <ele>260.47161865234</ele>
        <time>2016-04-20T14:16:47.000Z</time>
      </trkpt>
      <trkpt lat="47.03373" lon="3.54138">
        <ele>260.3967590332</ele>
        <time>2016-04-20T14:16:51.000Z</time>
      </trkpt>
      <trkpt lat="47.03373" lon="3.54133">
        <ele>260.35140991211</ele>
        <time>2016-04-20T14:16:52.000Z</time>
      </trkpt>
      <trkpt lat="47.03374" lon="3.54131">
        <ele>260.29656982422</ele>
        <time>2016-04-20T14:16:54.000Z</time>
      </trkpt>
      <trkpt lat="47.03375" lon="3.54125">
        <ele>260.28369140625</ele>
        <time>2016-04-20T14:16:57.000Z</time>
      </trkpt>
      <trkpt lat="47.03376" lon="3.54123">
        <ele>260.27008056641</ele>
        <time>2016-04-20T14:16:59.000Z</time>
      </trkpt>
      <trkpt lat="47.03375" lon="3.54119">
        <ele>260.28375244141</ele>
        <time>2016-04-20T14:17:03.000Z</time>
      </trkpt>
      <trkpt lat="47.03376" lon="3.54117">
        <ele>260.28512573242</ele>
        <time>2016-04-20T14:17:04.000Z</time>
      </trkpt>
      <trkpt lat="47.03378" lon="3.54111">
        <ele>260.27719116211</ele>
        <time>2016-04-20T14:17:08.000Z</time>
      </trkpt>
      <trkpt lat="47.03379" lon="3.54107">
        <ele>260.27975463867</ele>
        <time>2016-04-20T14:17:09.000Z</time>
      </trkpt>
      <trkpt lat="47.03379" lon="3.54105">
        <ele>260.29321289062</ele>
        <time>2016-04-20T14:17:11.000Z</time>
      </trkpt>
      <trkpt lat="47.03381" lon="3.541">
        <ele>260.27252197266</ele>
        <time>2016-04-20T14:17:14.000Z</time>
      </trkpt>
      <trkpt lat="47.03382" lon="3.54096">
        <ele>260.26031494141</ele>
        <time>2016-04-20T14:17:17.000Z</time>
      </trkpt>
      <trkpt lat="47.03382" lon="3.54091">
        <ele>260.26983642578</ele>
        <time>2016-04-20T14:17:19.000Z</time>
      </trkpt>
      <trkpt lat="47.03383" lon="3.54088">
        <ele>260.27960205078</ele>
        <time>2016-04-20T14:17:21.000Z</time>
      </trkpt>
      <trkpt lat="47.03384" lon="3.54083">
        <ele>260.29327392578</ele>
        <time>2016-04-20T14:17:25.000Z</time>
      </trkpt>
      <trkpt lat="47.03384" lon="3.54079">
        <ele>260.32354736328</ele>
        <time>2016-04-20T14:17:26.000Z</time>
      </trkpt>
      <trkpt lat="47.03384" lon="3.54076">
        <ele>260.34942626953</ele>
        <time>2016-04-20T14:17:28.000Z</time>
      </trkpt>
      <trkpt lat="47.03384" lon="3.54072">
        <ele>260.37789916992</ele>
        <time>2016-04-20T14:17:31.000Z</time>
      </trkpt>
      <trkpt lat="47.03384" lon="3.54068">
        <ele>260.39630126953</ele>
        <time>2016-04-20T14:17:35.000Z</time>
      </trkpt>
      <trkpt lat="47.03385" lon="3.54065">
        <ele>260.39965820312</ele>
        <time>2016-04-20T14:17:36.000Z</time>
      </trkpt>
      <trkpt lat="47.03387" lon="3.54059">
        <ele>260.38641357422</ele>
        <time>2016-04-20T14:17:39.000Z</time>
      </trkpt>
      <trkpt lat="47.03388" lon="3.54056">
        <ele>260.36633300781</ele>
        <time>2016-04-20T14:17:42.000Z</time>
      </trkpt>
      <trkpt lat="47.03389" lon="3.5405">
        <ele>260.32757568359</ele>
        <time>2016-04-20T14:17:45.000Z</time>
      </trkpt>
      <trkpt lat="47.0339" lon="3.54044">
        <ele>260.29302978516</ele>
        <time>2016-04-20T14:17:48.000Z</time>
      </trkpt>
      <trkpt lat="47.03391" lon="3.5404">
        <ele>260.271484375</ele>
        <time>2016-04-20T14:17:51.000Z</time>
      </trkpt>
      <trkpt lat="47.03391" lon="3.54036">
        <ele>260.26617431641</ele>
        <time>2016-04-20T14:17:55.000Z</time>
      </trkpt>
      <trkpt lat="47.03391" lon="3.54033">
        <ele>260.27124023438</ele>
        <time>2016-04-20T14:17:57.000Z</time>
      </trkpt>
      <trkpt lat="47.03391" lon="3.5403">
        <ele>260.29196166992</ele>
        <time>2016-04-20T14:18:00.000Z</time>
      </trkpt>
      <trkpt lat="47.03391" lon="3.54027">
        <ele>260.31619262695</ele>
        <time>2016-04-20T14:18:01.000Z</time>
      </trkpt>
      <trkpt lat="47.03392" lon="3.54023">
        <ele>260.33773803711</ele>
        <time>2016-04-20T14:18:03.000Z</time>
      </trkpt>
      <trkpt lat="47.03392" lon="3.54018">
        <ele>260.36114501953</ele>
        <time>2016-04-20T14:18:07.000Z</time>
      </trkpt>
      <trkpt lat="47.03392" lon="3.54015">
        <ele>260.38684082031</ele>
        <time>2016-04-20T14:18:08.000Z</time>
      </trkpt>
      <trkpt lat="47.03394" lon="3.54015">
        <ele>260.39898681641</ele>
        <time>2016-04-20T14:18:21.000Z</time>
      </trkpt>
      <trkpt lat="47.03395" lon="3.54008">
        <ele>260.40850830078</ele>
        <time>2016-04-20T14:18:23.000Z</time>
      </trkpt>
      <trkpt lat="47.03396" lon="3.54003">
        <ele>260.42065429688</ele>
        <time>2016-04-20T14:18:24.000Z</time>
      </trkpt>
      <trkpt lat="47.03397" lon="3.54">
        <ele>260.42999267578</ele>
        <time>2016-04-20T14:18:28.000Z</time>
      </trkpt>
      <trkpt lat="47.03398" lon="3.53997">
        <ele>260.40386962891</ele>
        <time>2016-04-20T14:18:29.000Z</time>
      </trkpt>
      <trkpt lat="47.03399" lon="3.53994">
        <ele>260.35321044922</ele>
        <time>2016-04-20T14:18:31.000Z</time>
      </trkpt>
      <trkpt lat="47.03399" lon="3.53992">
        <ele>260.27581787109</ele>
        <time>2016-04-20T14:18:35.000Z</time>
      </trkpt>
      <trkpt lat="47.034" lon="3.53991">
        <ele>260.17218017578</ele>
        <time>2016-04-20T14:18:40.000Z</time>
      </trkpt>
      <trkpt lat="47.03401" lon="3.53986">
        <ele>260.01788330078</ele>
        <time>2016-04-20T14:18:42.000Z</time>
      </trkpt>
      <trkpt lat="47.03402" lon="3.53983">
        <ele>259.8603515625</ele>
        <time>2016-04-20T14:18:45.000Z</time>
      </trkpt>
      <trkpt lat="47.03403" lon="3.53981">
        <ele>259.71206665039</ele>
        <time>2016-04-20T14:18:47.000Z</time>
      </trkpt>
      <trkpt lat="47.03403" lon="3.53979">
        <ele>259.5588684082</ele>
        <time>2016-04-20T14:18:50.000Z</time>
      </trkpt>
      <trkpt lat="47.03404" lon="3.53977">
        <ele>259.40130615234</ele>
        <time>2016-04-20T14:18:53.000Z</time>
      </trkpt>
      <trkpt lat="47.03405" lon="3.53974">
        <ele>259.25537109375</ele>
        <time>2016-04-20T14:18:56.000Z</time>
      </trkpt>
      <trkpt lat="47.03406" lon="3.53971">
        <ele>259.11489868164</ele>
        <time>2016-04-20T14:18:59.000Z</time>
      </trkpt>
      <trkpt lat="47.03407" lon="3.53967">
        <ele>258.96145629883</ele>
        <time>2016-04-20T14:19:02.000Z</time>
      </trkpt>
      <trkpt lat="47.03407" lon="3.53963">
        <ele>258.79010009766</ele>
        <time>2016-04-20T14:19:05.000Z</time>
      </trkpt>
      <trkpt lat="47.03408" lon="3.53959">
        <ele>258.59729003906</ele>
        <time>2016-04-20T14:19:08.000Z</time>
      </trkpt>
      <trkpt lat="47.03408" lon="3.53957">
        <ele>258.41949462891</ele>
        <time>2016-04-20T14:19:10.000Z</time>
      </trkpt>
      <trkpt lat="47.03407" lon="3.53954">
        <ele>258.24349975586</ele>
        <time>2016-04-20T14:19:12.000Z</time>
      </trkpt>
      <trkpt lat="47.03407" lon="3.53949">
        <ele>258.05853271484</ele>
        <time>2016-04-20T14:19:15.000Z</time>
      </trkpt>
      <trkpt lat="47.03406" lon="3.53945">
        <ele>257.88336181641</ele>
        <time>2016-04-20T14:19:18.000Z</time>
      </trkpt>
      <trkpt lat="47.03404" lon="3.5394">
        <ele>257.71417236328</ele>
        <time>2016-04-20T14:19:21.000Z</time>
      </trkpt>
      <trkpt lat="47.03402" lon="3.53933">
        <ele>257.50183105469</ele>
        <time>2016-04-20T14:19:24.000Z</time>
      </trkpt>
      <trkpt lat="47.034" lon="3.53931">
        <ele>257.29461669922</ele>
        <time>2016-04-20T14:19:26.000Z</time>
      </trkpt>
      <trkpt lat="47.03399" lon="3.53928">
        <ele>257.1061706543</ele>
        <time>2016-04-20T14:19:28.000Z</time>
      </trkpt>
      <trkpt lat="47.03397" lon="3.53923">
        <ele>256.90985107422</ele>
        <time>2016-04-20T14:19:33.000Z</time>
      </trkpt>
      <trkpt lat="47.03395" lon="3.53919">
        <ele>256.72332763672</ele>
        <time>2016-04-20T14:19:34.000Z</time>
      </trkpt>
      <trkpt lat="47.03394" lon="3.53917">
        <ele>256.57489013672</ele>
        <time>2016-04-20T14:19:39.000Z</time>
      </trkpt>
      <trkpt lat="47.03393" lon="3.53914">
        <ele>256.42584228516</ele>
        <time>2016-04-20T14:19:39.000Z</time>
      </trkpt>
      <trkpt lat="47.03392" lon="3.53911">
        <ele>256.26898193359</ele>
        <time>2016-04-20T14:19:41.000Z</time>
      </trkpt>
      <trkpt lat="47.03391" lon="3.5391">
        <ele>256.14779663086</ele>
        <time>2016-04-20T14:19:43.000Z</time>
      </trkpt>
      <trkpt lat="47.03385" lon="3.53905">
        <ele>256.02639770508</ele>
        <time>2016-04-20T14:19:46.000Z</time>
      </trkpt>
      <trkpt lat="47.03383" lon="3.53904">
        <ele>255.92045593262</ele>
        <time>2016-04-20T14:19:48.000Z</time>
      </trkpt>
      <trkpt lat="47.03381" lon="3.53899">
        <ele>255.80451965332</ele>
        <time>2016-04-20T14:19:52.000Z</time>
      </trkpt>
      <trkpt lat="47.03379" lon="3.53897">
        <ele>255.70596313477</ele>
        <time>2016-04-20T14:19:53.000Z</time>
      </trkpt>
      <trkpt lat="47.03376" lon="3.53892">
        <ele>255.57278442383</ele>
        <time>2016-04-20T14:19:57.000Z</time>
      </trkpt>
      <trkpt lat="47.03376" lon="3.53889">
        <ele>255.44926452637</ele>
        <time>2016-04-20T14:19:58.000Z</time>
      </trkpt>
      <trkpt lat="47.03374" lon="3.53886">
        <ele>255.31303405762</ele>
        <time>2016-04-20T14:20:00.000Z</time>
      </trkpt>
      <trkpt lat="47.03372" lon="3.53882">
        <ele>255.17948913574</ele>
        <time>2016-04-20T14:20:03.000Z</time>
      </trkpt>
      <trkpt lat="47.03371" lon="3.5388">
        <ele>255.044921875</ele>
        <time>2016-04-20T14:20:05.000Z</time>
      </trkpt>
      <trkpt lat="47.0337" lon="3.53876">
        <ele>254.91979980469</ele>
        <time>2016-04-20T14:20:08.000Z</time>
      </trkpt>
      <trkpt lat="47.03368" lon="3.53872">
        <ele>254.79196166992</ele>
        <time>2016-04-20T14:20:11.000Z</time>
      </trkpt>
      <trkpt lat="47.03366" lon="3.53868">
        <ele>254.65730285645</ele>
        <time>2016-04-20T14:20:14.000Z</time>
      </trkpt>
      <trkpt lat="47.03364" lon="3.53864">
        <ele>254.53218078613</ele>
        <time>2016-04-20T14:20:16.000Z</time>
      </trkpt>
      <trkpt lat="47.03362" lon="3.53862">
        <ele>254.41708374023</ele>
        <time>2016-04-20T14:20:20.000Z</time>
      </trkpt>
      <trkpt lat="47.0336" lon="3.53859">
        <ele>254.32148742676</ele>
        <time>2016-04-20T14:20:21.000Z</time>
      </trkpt>
      <trkpt lat="47.03359" lon="3.53854">
        <ele>254.20979309082</ele>
        <time>2016-04-20T14:20:24.000Z</time>
      </trkpt>
      <trkpt lat="47.03358" lon="3.53849">
        <ele>254.09016418457</ele>
        <time>2016-04-20T14:20:27.000Z</time>
      </trkpt>
      <trkpt lat="47.03356" lon="3.53846">
        <ele>253.97427368164</ele>
        <time>2016-04-20T14:20:29.000Z</time>
      </trkpt>
      <trkpt lat="47.03355" lon="3.5384">
        <ele>253.83227539062</ele>
        <time>2016-04-20T14:20:32.000Z</time>
      </trkpt>
      <trkpt lat="47.03354" lon="3.53833">
        <ele>253.65168762207</ele>
        <time>2016-04-20T14:20:35.000Z</time>
      </trkpt>
      <trkpt lat="47.03354" lon="3.53829">
        <ele>253.51235961914</ele>
        <time>2016-04-20T14:20:37.000Z</time>
      </trkpt>
      <trkpt lat="47.03354" lon="3.53824">
        <ele>253.41423034668</ele>
        <time>2016-04-20T14:20:40.000Z</time>
      </trkpt>
      <trkpt lat="47.03353" lon="3.53821">
        <ele>253.3381652832</ele>
        <time>2016-04-20T14:20:41.000Z</time>
      </trkpt>
      <trkpt lat="47.03353" lon="3.53816">
        <ele>253.29837036133</ele>
        <time>2016-04-20T14:20:44.000Z</time>
      </trkpt>
      <trkpt lat="47.03354" lon="3.53813">
        <ele>253.31037902832</ele>
        <time>2016-04-20T14:20:46.000Z</time>
      </trkpt>
      <trkpt lat="47.03354" lon="3.5381">
        <ele>253.32180786133</ele>
        <time>2016-04-20T14:20:48.000Z</time>
      </trkpt>
      <trkpt lat="47.03354" lon="3.53804">
        <ele>253.33349609375</ele>
        <time>2016-04-20T14:20:51.000Z</time>
      </trkpt>
      <trkpt lat="47.03354" lon="3.53798">
        <ele>253.34448242188</ele>
        <time>2016-04-20T14:20:54.000Z</time>
      </trkpt>
      <trkpt lat="47.03354" lon="3.53793">
        <ele>253.35527038574</ele>
        <time>2016-04-20T14:20:58.000Z</time>
      </trkpt>
      <trkpt lat="47.03354" lon="3.5379">
        <ele>253.36633300781</ele>
        <time>2016-04-20T14:20:59.000Z</time>
      </trkpt>
      <trkpt lat="47.03354" lon="3.53787">
        <ele>253.37728881836</ele>
        <time>2016-04-20T14:21:01.000Z</time>
      </trkpt>
      <trkpt lat="47.03355" lon="3.53781">
        <ele>253.38656616211</ele>
        <time>2016-04-20T14:21:05.000Z</time>
      </trkpt>
      <trkpt lat="47.03355" lon="3.53777">
        <ele>253.39205932617</ele>
        <time>2016-04-20T14:21:06.000Z</time>
      </trkpt>
      <trkpt lat="47.03355" lon="3.53771">
        <ele>253.39804077148</ele>
        <time>2016-04-20T14:21:10.000Z</time>
      </trkpt>
      <trkpt lat="47.03356" lon="3.53767">
        <ele>253.40087890625</ele>
        <time>2016-04-20T14:21:11.000Z</time>
      </trkpt>
      <trkpt lat="47.03357" lon="3.53763">
        <ele>253.40058898926</ele>
        <time>2016-04-20T14:21:14.000Z</time>
      </trkpt>
      <trkpt lat="47.03358" lon="3.53758">
        <ele>253.3981628418</ele>
        <time>2016-04-20T14:21:17.000Z</time>
      </trkpt>
      <trkpt lat="47.03358" lon="3.53754">
        <ele>253.39448547363</ele>
        <time>2016-04-20T14:21:18.000Z</time>
      </trkpt>
      <trkpt lat="47.0336" lon="3.5375">
        <ele>253.38761901855</ele>
        <time>2016-04-20T14:21:21.000Z</time>
      </trkpt>
      <trkpt lat="47.0336" lon="3.53746">
        <ele>253.41101074219</ele>
        <time>2016-04-20T14:21:23.000Z</time>
      </trkpt>
      <trkpt lat="47.03361" lon="3.53744">
        <ele>253.44975280762</ele>
        <time>2016-04-20T14:21:26.000Z</time>
      </trkpt>
      <trkpt lat="47.03362" lon="3.53739">
        <ele>253.52571105957</ele>
        <time>2016-04-20T14:21:28.000Z</time>
      </trkpt>
      <trkpt lat="47.03364" lon="3.53733">
        <ele>253.6396484375</ele>
        <time>2016-04-20T14:21:32.000Z</time>
      </trkpt>
      <trkpt lat="47.03365" lon="3.53731">
        <ele>253.76516723633</ele>
        <time>2016-04-20T14:21:33.000Z</time>
      </trkpt>
      <trkpt lat="47.03366" lon="3.53729">
        <ele>253.87837219238</ele>
        <time>2016-04-20T14:21:35.000Z</time>
      </trkpt>
      <trkpt lat="47.03368" lon="3.53725">
        <ele>253.99642944336</ele>
        <time>2016-04-20T14:21:39.000Z</time>
      </trkpt>
      <trkpt lat="47.03371" lon="3.53721">
        <ele>254.10078430176</ele>
        <time>2016-04-20T14:21:41.000Z</time>
      </trkpt>
      <trkpt lat="47.03374" lon="3.53716">
        <ele>254.19595336914</ele>
        <time>2016-04-20T14:21:44.000Z</time>
      </trkpt>
      <trkpt lat="47.03375" lon="3.53714">
        <ele>254.29618835449</ele>
        <time>2016-04-20T14:21:46.000Z</time>
      </trkpt>
      <trkpt lat="47.03376" lon="3.53712">
        <ele>254.39785766602</ele>
        <time>2016-04-20T14:21:48.000Z</time>
      </trkpt>
      <trkpt lat="47.03378" lon="3.53707">
        <ele>254.51553344727</ele>
        <time>2016-04-20T14:21:52.000Z</time>
      </trkpt>
      <trkpt lat="47.0338" lon="3.53705">
        <ele>254.62149047852</ele>
        <time>2016-04-20T14:21:56.000Z</time>
      </trkpt>
      <trkpt lat="47.03381" lon="3.53703">
        <ele>254.70797729492</ele>
        <time>2016-04-20T14:21:56.000Z</time>
      </trkpt>
      <trkpt lat="47.03384" lon="3.53699">
        <ele>254.8000793457</ele>
        <time>2016-04-20T14:22:00.000Z</time>
      </trkpt>
      <trkpt lat="47.03386" lon="3.53696">
        <ele>254.89889526367</ele>
        <time>2016-04-20T14:22:01.000Z</time>
      </trkpt>
      <trkpt lat="47.03387" lon="3.53692">
        <ele>254.99081420898</ele>
        <time>2016-04-20T14:22:04.000Z</time>
      </trkpt>
      <trkpt lat="47.03389" lon="3.53688">
        <ele>255.10757446289</ele>
        <time>2016-04-20T14:22:07.000Z</time>
      </trkpt>
      <trkpt lat="47.03391" lon="3.53685">
        <ele>255.23880004883</ele>
        <time>2016-04-20T14:22:09.000Z</time>
      </trkpt>
      <trkpt lat="47.03392" lon="3.53682">
        <ele>255.37075805664</ele>
        <time>2016-04-20T14:22:12.000Z</time>
      </trkpt>
      <trkpt lat="47.03395" lon="3.53674">
        <ele>255.53918457031</ele>
        <time>2016-04-20T14:22:16.000Z</time>
      </trkpt>
      <trkpt lat="47.03396" lon="3.53671">
        <ele>255.70288085938</ele>
        <time>2016-04-20T14:22:17.000Z</time>
      </trkpt>
      <trkpt lat="47.03397" lon="3.53668">
        <ele>255.85810852051</ele>
        <time>2016-04-20T14:22:20.000Z</time>
      </trkpt>
      <trkpt lat="47.03398" lon="3.53662">
        <ele>256.02740478516</ele>
        <time>2016-04-20T14:22:22.000Z</time>
      </trkpt>
      <trkpt lat="47.03401" lon="3.53657">
        <ele>256.19818115234</ele>
        <time>2016-04-20T14:22:27.000Z</time>
      </trkpt>
      <trkpt lat="47.03402" lon="3.53655">
        <ele>256.32220458984</ele>
        <time>2016-04-20T14:22:27.000Z</time>
      </trkpt>
      <trkpt lat="47.03403" lon="3.53653">
        <ele>256.43438720703</ele>
        <time>2016-04-20T14:22:29.000Z</time>
      </trkpt>
      <trkpt lat="47.03403" lon="3.5365">
        <ele>256.54000854492</ele>
        <time>2016-04-20T14:22:31.000Z</time>
      </trkpt>
      <trkpt lat="47.03404" lon="3.53645">
        <ele>256.63970947266</ele>
        <time>2016-04-20T14:22:34.000Z</time>
      </trkpt>
      <trkpt lat="47.03406" lon="3.53641">
        <ele>256.73974609375</ele>
        <time>2016-04-20T14:22:40.000Z</time>
      </trkpt>
      <trkpt lat="47.03408" lon="3.53637">
        <ele>256.8515625</ele>
        <time>2016-04-20T14:22:40.000Z</time>
      </trkpt>
      <trkpt lat="47.03408" lon="3.53634">
        <ele>256.96759033203</ele>
        <time>2016-04-20T14:22:42.000Z</time>
      </trkpt>
      <trkpt lat="47.0341" lon="3.53632">
        <ele>257.08068847656</ele>
        <time>2016-04-20T14:22:44.000Z</time>
      </trkpt>
      <trkpt lat="47.03412" lon="3.53627">
        <ele>257.19329833984</ele>
        <time>2016-04-20T14:22:47.000Z</time>
      </trkpt>
      <trkpt lat="47.03413" lon="3.53624">
        <ele>257.30627441406</ele>
        <time>2016-04-20T14:22:49.000Z</time>
      </trkpt>
      <trkpt lat="47.03415" lon="3.5362">
        <ele>257.42050170898</ele>
        <time>2016-04-20T14:22:52.000Z</time>
      </trkpt>
      <trkpt lat="47.03417" lon="3.53616">
        <ele>257.54364013672</ele>
        <time>2016-04-20T14:22:55.000Z</time>
      </trkpt>
      <trkpt lat="47.03418" lon="3.53613">
        <ele>257.66387939453</ele>
        <time>2016-04-20T14:22:57.000Z</time>
      </trkpt>
      <trkpt lat="47.03418" lon="3.53609">
        <ele>257.78295898438</ele>
        <time>2016-04-20T14:23:01.000Z</time>
      </trkpt>
      <trkpt lat="47.03418" lon="3.53607">
        <ele>257.88848876953</ele>
        <time>2016-04-20T14:23:02.000Z</time>
      </trkpt>
      <trkpt lat="47.03419" lon="3.53602">
        <ele>257.99407958984</ele>
        <time>2016-04-20T14:23:06.000Z</time>
      </trkpt>
      <trkpt lat="47.0342" lon="3.53598">
        <ele>258.09457397461</ele>
        <time>2016-04-20T14:23:07.000Z</time>
      </trkpt>
      <trkpt lat="47.03422" lon="3.53592">
        <ele>258.21170043945</ele>
        <time>2016-04-20T14:23:11.000Z</time>
      </trkpt>
      <trkpt lat="47.03424" lon="3.53588">
        <ele>258.30407714844</ele>
        <time>2016-04-20T14:23:13.000Z</time>
      </trkpt>
      <trkpt lat="47.03425" lon="3.53582">
        <ele>258.40805053711</ele>
        <time>2016-04-20T14:23:16.000Z</time>
      </trkpt>
      <trkpt lat="47.03426" lon="3.53577">
        <ele>258.46868896484</ele>
        <time>2016-04-20T14:23:19.000Z</time>
      </trkpt>
      <trkpt lat="47.03427" lon="3.53573">
        <ele>258.49737548828</ele>
        <time>2016-04-20T14:23:23.000Z</time>
      </trkpt>
      <trkpt lat="47.03427" lon="3.5357">
        <ele>258.49078369141</ele>
        <time>2016-04-20T14:23:24.000Z</time>
      </trkpt>
      <trkpt lat="47.03428" lon="3.53565">
        <ele>258.46807861328</ele>
        <time>2016-04-20T14:23:28.000Z</time>
      </trkpt>
      <trkpt lat="47.03428" lon="3.53563">
        <ele>258.41619873047</ele>
        <time>2016-04-20T14:23:29.000Z</time>
      </trkpt>
      <trkpt lat="47.03429" lon="3.53559">
        <ele>258.37261962891</ele>
        <time>2016-04-20T14:23:31.000Z</time>
      </trkpt>
      <trkpt lat="47.0343" lon="3.53553">
        <ele>258.32855224609</ele>
        <time>2016-04-20T14:23:34.000Z</time>
      </trkpt>
      <trkpt lat="47.03431" lon="3.53548">
        <ele>258.27700805664</ele>
        <time>2016-04-20T14:23:37.000Z</time>
      </trkpt>
      <trkpt lat="47.03432" lon="3.53545">
        <ele>258.22866821289</ele>
        <time>2016-04-20T14:23:40.000Z</time>
      </trkpt>
      <trkpt lat="47.03434" lon="3.5354">
        <ele>258.17782592773</ele>
        <time>2016-04-20T14:23:42.000Z</time>
      </trkpt>
      <trkpt lat="47.03434" lon="3.53535">
        <ele>258.13323974609</ele>
        <time>2016-04-20T14:23:46.000Z</time>
      </trkpt>
      <trkpt lat="47.03435" lon="3.53533">
        <ele>258.09780883789</ele>
        <time>2016-04-20T14:23:47.000Z</time>
      </trkpt>
      <trkpt lat="47.03436" lon="3.53529">
        <ele>258.06842041016</ele>
        <time>2016-04-20T14:23:51.000Z</time>
      </trkpt>
      <trkpt lat="47.03437" lon="3.53525">
        <ele>258.04336547852</ele>
        <time>2016-04-20T14:23:52.000Z</time>
      </trkpt>
      <trkpt lat="47.03438" lon="3.53521">
        <ele>258.02545166016</ele>
        <time>2016-04-20T14:23:54.000Z</time>
      </trkpt>
      <trkpt lat="47.03439" lon="3.53514">
        <ele>258.00958251953</ele>
        <time>2016-04-20T14:23:57.000Z</time>
      </trkpt>
      <trkpt lat="47.0344" lon="3.53508">
        <ele>257.99835205078</ele>
        <time>2016-04-20T14:24:00.000Z</time>
      </trkpt>
      <trkpt lat="47.03441" lon="3.53505">
        <ele>257.99255371094</ele>
        <time>2016-04-20T14:24:03.000Z</time>
      </trkpt>
      <trkpt lat="47.03441" lon="3.53502">
        <ele>257.99176025391</ele>
        <time>2016-04-20T14:24:05.000Z</time>
      </trkpt>
      <trkpt lat="47.03442" lon="3.53496">
        <ele>257.98919677734</ele>
        <time>2016-04-20T14:24:08.000Z</time>
      </trkpt>
      <trkpt lat="47.03442" lon="3.53492">
        <ele>257.98413085938</ele>
        <time>2016-04-20T14:24:10.000Z</time>
      </trkpt>
      <trkpt lat="47.03442" lon="3.53486">
        <ele>257.97305297852</ele>
        <time>2016-04-20T14:24:13.000Z</time>
      </trkpt>
      <trkpt lat="47.03442" lon="3.5348">
        <ele>257.95645141602</ele>
        <time>2016-04-20T14:24:16.000Z</time>
      </trkpt>
      <trkpt lat="47.03442" lon="3.53477">
        <ele>257.93481445312</ele>
        <time>2016-04-20T14:24:18.000Z</time>
      </trkpt>
      <trkpt lat="47.03442" lon="3.53472">
        <ele>257.91275024414</ele>
        <time>2016-04-20T14:24:21.000Z</time>
      </trkpt>
      <trkpt lat="47.03442" lon="3.53466">
        <ele>257.8896484375</ele>
        <time>2016-04-20T14:24:24.000Z</time>
      </trkpt>
      <trkpt lat="47.03442" lon="3.53461">
        <ele>257.86642456055</ele>
        <time>2016-04-20T14:24:27.000Z</time>
      </trkpt>
      <trkpt lat="47.03443" lon="3.53456">
        <ele>257.84515380859</ele>
        <time>2016-04-20T14:24:29.000Z</time>
      </trkpt>
      <trkpt lat="47.03443" lon="3.53453">
        <ele>257.82543945312</ele>
        <time>2016-04-20T14:24:32.000Z</time>
      </trkpt>
      <trkpt lat="47.03443" lon="3.53451">
        <ele>257.80862426758</ele>
        <time>2016-04-20T14:24:35.000Z</time>
      </trkpt>
      <trkpt lat="47.03444" lon="3.53444">
        <ele>257.79168701172</ele>
        <time>2016-04-20T14:24:38.000Z</time>
      </trkpt>
      <trkpt lat="47.03444" lon="3.53441">
        <ele>257.77828979492</ele>
        <time>2016-04-20T14:24:40.000Z</time>
      </trkpt>
      <trkpt lat="47.03444" lon="3.53437">
        <ele>257.76718139648</ele>
        <time>2016-04-20T14:24:43.000Z</time>
      </trkpt>
      <trkpt lat="47.03444" lon="3.53431">
        <ele>257.75408935547</ele>
        <time>2016-04-20T14:24:46.000Z</time>
      </trkpt>
      <trkpt lat="47.03444" lon="3.53427">
        <ele>257.73812866211</ele>
        <time>2016-04-20T14:24:48.000Z</time>
      </trkpt>
      <trkpt lat="47.03446" lon="3.53421">
        <ele>257.72796630859</ele>
        <time>2016-04-20T14:24:52.000Z</time>
      </trkpt>
      <trkpt lat="47.03446" lon="3.53418">
        <ele>257.71990966797</ele>
        <time>2016-04-20T14:24:53.000Z</time>
      </trkpt>
      <trkpt lat="47.03447" lon="3.53412">
        <ele>257.70162963867</ele>
        <time>2016-04-20T14:24:57.000Z</time>
      </trkpt>
      <trkpt lat="47.03447" lon="3.53407">
        <ele>257.67932128906</ele>
        <time>2016-04-20T14:24:58.000Z</time>
      </trkpt>
      <trkpt lat="47.03448" lon="3.53402">
        <ele>257.65240478516</ele>
        <time>2016-04-20T14:25:01.000Z</time>
      </trkpt>
      <trkpt lat="47.03448" lon="3.534">
        <ele>257.61883544922</ele>
        <time>2016-04-20T14:25:04.000Z</time>
      </trkpt>
      <trkpt lat="47.03449" lon="3.5339">
        <ele>257.56719970703</ele>
        <time>2016-04-20T14:25:22.000Z</time>
      </trkpt>
      <trkpt lat="47.0345" lon="3.53386">
        <ele>257.52410888672</ele>
        <time>2016-04-20T14:25:26.000Z</time>
      </trkpt>
      <trkpt lat="47.0345" lon="3.53387">
        <ele>257.48956298828</ele>
        <time>2016-04-20T14:25:30.000Z</time>
      </trkpt>
      <trkpt lat="47.03448" lon="3.53389">
        <ele>257.46209716797</ele>
        <time>2016-04-20T14:25:33.000Z</time>
      </trkpt>
      <trkpt lat="47.03448" lon="3.53392">
        <ele>257.44482421875</ele>
        <time>2016-04-20T14:25:42.000Z</time>
      </trkpt>
      <trkpt lat="47.03448" lon="3.53394">
        <ele>257.44931030273</ele>
        <time>2016-04-20T14:25:44.000Z</time>
      </trkpt>
      <trkpt lat="47.03448" lon="3.53395">
        <ele>257.46124267578</ele>
        <time>2016-04-20T14:25:54.000Z</time>
      </trkpt>
      <trkpt lat="47.0345" lon="3.53395">
        <ele>257.48248291016</ele>
        <time>2016-04-20T14:25:57.000Z</time>
      </trkpt>
      <trkpt lat="47.03451" lon="3.53393">
        <ele>257.505859375</ele>
        <time>2016-04-20T14:25:59.000Z</time>
      </trkpt>
      <trkpt lat="47.03454" lon="3.53391">
        <ele>257.52996826172</ele>
        <time>2016-04-20T14:26:02.000Z</time>
      </trkpt>
      <trkpt lat="47.03454" lon="3.53384">
        <ele>257.53594970703</ele>
        <time>2016-04-20T14:26:05.000Z</time>
      </trkpt>
      <trkpt lat="47.03453" lon="3.5338">
        <ele>257.52380371094</ele>
        <time>2016-04-20T14:26:07.000Z</time>
      </trkpt>
      <trkpt lat="47.03453" lon="3.53376">
        <ele>257.494140625</ele>
        <time>2016-04-20T14:26:09.000Z</time>
      </trkpt>
      <trkpt lat="47.03454" lon="3.53371">
        <ele>257.45257568359</ele>
        <time>2016-04-20T14:26:12.000Z</time>
      </trkpt>
      <trkpt lat="47.03455" lon="3.53365">
        <ele>257.39492797852</ele>
        <time>2016-04-20T14:26:15.000Z</time>
      </trkpt>
      <trkpt lat="47.03455" lon="3.53359">
        <ele>257.33935546875</ele>
        <time>2016-04-20T14:26:19.000Z</time>
      </trkpt>
      <trkpt lat="47.03455" lon="3.53356">
        <ele>257.29132080078</ele>
        <time>2016-04-20T14:26:20.000Z</time>
      </trkpt>
      <trkpt lat="47.03456" lon="3.5335">
        <ele>257.24249267578</ele>
        <time>2016-04-20T14:26:24.000Z</time>
      </trkpt>
      <trkpt lat="47.03456" lon="3.53347">
        <ele>257.19717407227</ele>
        <time>2016-04-20T14:26:25.000Z</time>
      </trkpt>
      <trkpt lat="47.03456" lon="3.53342">
        <ele>257.1513671875</ele>
        <time>2016-04-20T14:26:29.000Z</time>
      </trkpt>
      <trkpt lat="47.03457" lon="3.53338">
        <ele>257.11016845703</ele>
        <time>2016-04-20T14:26:30.000Z</time>
      </trkpt>
      <trkpt lat="47.03457" lon="3.53334">
        <ele>257.06677246094</ele>
        <time>2016-04-20T14:26:32.000Z</time>
      </trkpt>
      <trkpt lat="47.03458" lon="3.53329">
        <ele>257.03393554688</ele>
        <time>2016-04-20T14:26:36.000Z</time>
      </trkpt>
      <trkpt lat="47.03458" lon="3.53325">
        <ele>257.00811767578</ele>
        <time>2016-04-20T14:26:37.000Z</time>
      </trkpt>
      <trkpt lat="47.03458" lon="3.5332">
        <ele>256.99591064453</ele>
        <time>2016-04-20T14:26:41.000Z</time>
      </trkpt>
      <trkpt lat="47.03459" lon="3.53317">
        <ele>256.99282836914</ele>
        <time>2016-04-20T14:26:42.000Z</time>
      </trkpt>
      <trkpt lat="47.03459" lon="3.53313">
        <ele>256.99926757812</ele>
        <time>2016-04-20T14:26:46.000Z</time>
      </trkpt>
      <trkpt lat="47.03459" lon="3.5331">
        <ele>257.00405883789</ele>
        <time>2016-04-20T14:26:47.000Z</time>
      </trkpt>
      <trkpt lat="47.03459" lon="3.53306">
        <ele>257.00720214844</ele>
        <time>2016-04-20T14:26:50.000Z</time>
      </trkpt>
      <trkpt lat="47.03459" lon="3.53303">
        <ele>257.00854492188</ele>
        <time>2016-04-20T14:26:52.000Z</time>
      </trkpt>
      <trkpt lat="47.03459" lon="3.53299">
        <ele>257.00820922852</ele>
        <time>2016-04-20T14:26:54.000Z</time>
      </trkpt>
      <trkpt lat="47.03458" lon="3.53294">
        <ele>257.00531005859</ele>
        <time>2016-04-20T14:26:58.000Z</time>
      </trkpt>
      <trkpt lat="47.03458" lon="3.53289">
        <ele>257.0016784668</ele>
        <time>2016-04-20T14:26:59.000Z</time>
      </trkpt>
      <trkpt lat="47.03458" lon="3.53284">
        <ele>256.99966430664</ele>
        <time>2016-04-20T14:27:03.000Z</time>
      </trkpt>
      <trkpt lat="47.03457" lon="3.53281">
        <ele>256.9970703125</ele>
        <time>2016-04-20T14:27:04.000Z</time>
      </trkpt>
      <trkpt lat="47.03456" lon="3.53278">
        <ele>256.99337768555</ele>
        <time>2016-04-20T14:27:07.000Z</time>
      </trkpt>
      <trkpt lat="47.03455" lon="3.53274">
        <ele>256.98907470703</ele>
        <time>2016-04-20T14:27:09.000Z</time>
      </trkpt>
      <trkpt lat="47.03455" lon="3.53266">
        <ele>256.98663330078</ele>
        <time>2016-04-20T14:27:12.000Z</time>
      </trkpt>
      <trkpt lat="47.03454" lon="3.53263">
        <ele>256.98452758789</ele>
        <time>2016-04-20T14:27:14.000Z</time>
      </trkpt>
      <trkpt lat="47.03454" lon="3.5326">
        <ele>256.98348999023</ele>
        <time>2016-04-20T14:27:17.000Z</time>
      </trkpt>
      <trkpt lat="47.03453" lon="3.53257">
        <ele>256.98428344727</ele>
        <time>2016-04-20T14:27:19.000Z</time>
      </trkpt>
      <trkpt lat="47.03452" lon="3.53252">
        <ele>256.98815917969</ele>
        <time>2016-04-20T14:27:22.000Z</time>
      </trkpt>
      <trkpt lat="47.03451" lon="3.53248">
        <ele>257.00067138672</ele>
        <time>2016-04-20T14:27:25.000Z</time>
      </trkpt>
      <trkpt lat="47.03451" lon="3.53246">
        <ele>257.02972412109</ele>
        <time>2016-04-20T14:27:32.000Z</time>
      </trkpt>
      <trkpt lat="47.0345" lon="3.53241">
        <ele>257.08413696289</ele>
        <time>2016-04-20T14:27:32.000Z</time>
      </trkpt>
      <trkpt lat="47.0345" lon="3.53238">
        <ele>257.15295410156</ele>
        <time>2016-04-20T14:27:33.000Z</time>
      </trkpt>
      <trkpt lat="47.03449" lon="3.53231">
        <ele>257.26055908203</ele>
        <time>2016-04-20T14:27:36.000Z</time>
      </trkpt>
      <trkpt lat="47.0345" lon="3.53229">
        <ele>257.37225341797</ele>
        <time>2016-04-20T14:27:39.000Z</time>
      </trkpt>
      <trkpt lat="47.0345" lon="3.53222">
        <ele>257.50640869141</ele>
        <time>2016-04-20T14:27:41.000Z</time>
      </trkpt>
      <trkpt lat="47.03451" lon="3.53217">
        <ele>257.64535522461</ele>
        <time>2016-04-20T14:27:43.000Z</time>
      </trkpt>
      <trkpt lat="47.03452" lon="3.53214">
        <ele>257.78805541992</ele>
        <time>2016-04-20T14:27:48.000Z</time>
      </trkpt>
      <trkpt lat="47.03452" lon="3.53209">
        <ele>257.91949462891</ele>
        <time>2016-04-20T14:27:48.000Z</time>
      </trkpt>
      <trkpt lat="47.03453" lon="3.53206">
        <ele>258.05834960938</ele>
        <time>2016-04-20T14:27:50.000Z</time>
      </trkpt>
      <trkpt lat="47.03454" lon="3.53202">
        <ele>258.18316650391</ele>
        <time>2016-04-20T14:27:53.000Z</time>
      </trkpt>
      <trkpt lat="47.03455" lon="3.53197">
        <ele>258.30477905273</ele>
        <time>2016-04-20T14:27:56.000Z</time>
      </trkpt>
      <trkpt lat="47.03456" lon="3.53193">
        <ele>258.43536376953</ele>
        <time>2016-04-20T14:27:59.000Z</time>
      </trkpt>
      <trkpt lat="47.03456" lon="3.5319">
        <ele>258.55258178711</ele>
        <time>2016-04-20T14:28:03.000Z</time>
      </trkpt>
      <trkpt lat="47.03457" lon="3.53185">
        <ele>258.68228149414</ele>
        <time>2016-04-20T14:28:05.000Z</time>
      </trkpt>
      <trkpt lat="47.03457" lon="3.53181">
        <ele>258.80804443359</ele>
        <time>2016-04-20T14:28:06.000Z</time>
      </trkpt>
      <trkpt lat="47.03457" lon="3.53175">
        <ele>258.94439697266</ele>
        <time>2016-04-20T14:28:10.000Z</time>
      </trkpt>
      <trkpt lat="47.03457" lon="3.53171">
        <ele>259.0778503418</ele>
        <time>2016-04-20T14:28:11.000Z</time>
      </trkpt>
      <trkpt lat="47.03456" lon="3.53167">
        <ele>259.21795654297</ele>
        <time>2016-04-20T14:28:14.000Z</time>
      </trkpt>
      <trkpt lat="47.03455" lon="3.53162">
        <ele>259.34197998047</ele>
        <time>2016-04-20T14:28:16.000Z</time>
      </trkpt>
      <trkpt lat="47.03455" lon="3.53158">
        <ele>259.46395874023</ele>
        <time>2016-04-20T14:28:18.000Z</time>
      </trkpt>
      <trkpt lat="47.03453" lon="3.53153">
        <ele>259.56872558594</ele>
        <time>2016-04-20T14:28:21.000Z</time>
      </trkpt>
      <trkpt lat="47.03451" lon="3.53149">
        <ele>259.66394042969</ele>
        <time>2016-04-20T14:28:24.000Z</time>
      </trkpt>
      <trkpt lat="47.0345" lon="3.53145">
        <ele>259.75207519531</ele>
        <time>2016-04-20T14:28:28.000Z</time>
      </trkpt>
      <trkpt lat="47.03448" lon="3.53141">
        <ele>259.83898925781</ele>
        <time>2016-04-20T14:28:30.000Z</time>
      </trkpt>
      <trkpt lat="47.03447" lon="3.53138">
        <ele>259.91638183594</ele>
        <time>2016-04-20T14:28:34.000Z</time>
      </trkpt>
      <trkpt lat="47.03445" lon="3.53133">
        <ele>259.99536132812</ele>
        <time>2016-04-20T14:28:34.000Z</time>
      </trkpt>
      <trkpt lat="47.03444" lon="3.53129">
        <ele>260.07287597656</ele>
        <time>2016-04-20T14:28:36.000Z</time>
      </trkpt>
      <trkpt lat="47.03443" lon="3.53126">
        <ele>260.14904785156</ele>
        <time>2016-04-20T14:28:39.000Z</time>
      </trkpt>
      <trkpt lat="47.03442" lon="3.53123">
        <ele>260.21691894531</ele>
        <time>2016-04-20T14:28:41.000Z</time>
      </trkpt>
      <trkpt lat="47.0344" lon="3.53121">
        <ele>260.28381347656</ele>
        <time>2016-04-20T14:28:43.000Z</time>
      </trkpt>
      <trkpt lat="47.03438" lon="3.53119">
        <ele>260.33203125</ele>
        <time>2016-04-20T14:28:55.000Z</time>
      </trkpt>
      <trkpt lat="47.03436" lon="3.53118">
        <ele>260.36840820312</ele>
        <time>2016-04-20T14:28:56.000Z</time>
      </trkpt>
      <trkpt lat="47.03434" lon="3.53117">
        <ele>260.38891601562</ele>
        <time>2016-04-20T14:28:57.000Z</time>
      </trkpt>
      <trkpt lat="47.03431" lon="3.53117">
        <ele>260.39489746094</ele>
        <time>2016-04-20T14:28:57.000Z</time>
      </trkpt>
      <trkpt lat="47.03429" lon="3.53117">
        <ele>260.38598632812</ele>
        <time>2016-04-20T14:28:57.000Z</time>
      </trkpt>
      <trkpt lat="47.03424" lon="3.53118">
        <ele>260.35485839844</ele>
        <time>2016-04-20T14:28:58.000Z</time>
      </trkpt>
      <trkpt lat="47.0342" lon="3.53119">
        <ele>260.30773925781</ele>
        <time>2016-04-20T14:29:03.000Z</time>
      </trkpt>
      <trkpt lat="47.03418" lon="3.53119">
        <ele>260.25952148438</ele>
        <time>2016-04-20T14:29:07.000Z</time>
      </trkpt>
      <trkpt lat="47.03416" lon="3.53119">
        <ele>260.21127319336</ele>
        <time>2016-04-20T14:29:07.000Z</time>
      </trkpt>
      <trkpt lat="47.03415" lon="3.53119">
        <ele>260.16674804688</ele>
        <time>2016-04-20T14:29:07.000Z</time>
      </trkpt>
      <trkpt lat="47.03412" lon="3.53119">
        <ele>260.13534545898</ele>
        <time>2016-04-20T14:29:12.000Z</time>
      </trkpt>
      <trkpt lat="47.0341" lon="3.53121">
        <ele>260.10214233398</ele>
        <time>2016-04-20T14:29:12.000Z</time>
      </trkpt>
      <trkpt lat="47.03408" lon="3.53123">
        <ele>260.06127929688</ele>
        <time>2016-04-20T14:29:15.000Z</time>
      </trkpt>
      <trkpt lat="47.03405" lon="3.53122">
        <ele>260.02630615234</ele>
        <time>2016-04-20T14:29:16.000Z</time>
      </trkpt>
      <trkpt lat="47.03403" lon="3.53121">
        <ele>259.99395751953</ele>
        <time>2016-04-20T14:29:18.000Z</time>
      </trkpt>
      <trkpt lat="47.03398" lon="3.53121">
        <ele>259.95184326172</ele>
        <time>2016-04-20T14:29:22.000Z</time>
      </trkpt>
      <trkpt lat="47.03396" lon="3.53122">
        <ele>259.91479492188</ele>
        <time>2016-04-20T14:29:23.000Z</time>
      </trkpt>
      <trkpt lat="47.03394" lon="3.53123">
        <ele>259.87774658203</ele>
        <time>2016-04-20T14:29:25.000Z</time>
      </trkpt>
      <trkpt lat="47.0339" lon="3.53123">
        <ele>259.83309936523</ele>
        <time>2016-04-20T14:29:28.000Z</time>
      </trkpt>
      <trkpt lat="47.03388" lon="3.53124">
        <ele>259.78036499023</ele>
        <time>2016-04-20T14:29:30.000Z</time>
      </trkpt>
      <trkpt lat="47.03384" lon="3.53123">
        <ele>259.73818969727</ele>
        <time>2016-04-20T14:29:34.000Z</time>
      </trkpt>
      <trkpt lat="47.03382" lon="3.53123">
        <ele>259.70523071289</ele>
        <time>2016-04-20T14:29:35.000Z</time>
      </trkpt>
      <trkpt lat="47.03378" lon="3.53122">
        <ele>259.67828369141</ele>
        <time>2016-04-20T14:29:39.000Z</time>
      </trkpt>
      <trkpt lat="47.03376" lon="3.53121">
        <ele>259.6623840332</ele>
        <time>2016-04-20T14:29:40.000Z</time>
      </trkpt>
      <trkpt lat="47.03373" lon="3.53121">
        <ele>259.64694213867</ele>
        <time>2016-04-20T14:29:44.000Z</time>
      </trkpt>
      <trkpt lat="47.03372" lon="3.53121">
        <ele>259.63580322266</ele>
        <time>2016-04-20T14:29:45.000Z</time>
      </trkpt>
      <trkpt lat="47.0337" lon="3.53121">
        <ele>259.61993408203</ele>
        <time>2016-04-20T14:29:47.000Z</time>
      </trkpt>
      <trkpt lat="47.03366" lon="3.53123">
        <ele>259.58651733398</ele>
        <time>2016-04-20T14:29:51.000Z</time>
      </trkpt>
      <trkpt lat="47.03363" lon="3.53124">
        <ele>259.53274536133</ele>
        <time>2016-04-20T14:29:52.000Z</time>
      </trkpt>
      <trkpt lat="47.0336" lon="3.53125">
        <ele>259.47769165039</ele>
        <time>2016-04-20T14:29:54.000Z</time>
      </trkpt>
      <trkpt lat="47.03357" lon="3.53126">
        <ele>259.40731811523</ele>
        <time>2016-04-20T14:29:57.000Z</time>
      </trkpt>
      <trkpt lat="47.03355" lon="3.53127">
        <ele>259.33001708984</ele>
        <time>2016-04-20T14:30:00.000Z</time>
      </trkpt>
      <trkpt lat="47.03354" lon="3.53127">
        <ele>259.26400756836</ele>
        <time>2016-04-20T14:30:07.000Z</time>
      </trkpt>
      <trkpt lat="47.0335" lon="3.53128">
        <ele>259.20404052734</ele>
        <time>2016-04-20T14:30:10.000Z</time>
      </trkpt>
      <trkpt lat="47.03349" lon="3.53128">
        <ele>259.15023803711</ele>
        <time>2016-04-20T14:30:12.000Z</time>
      </trkpt>
      <trkpt lat="47.03344" lon="3.53129">
        <ele>259.09185791016</ele>
        <time>2016-04-20T14:30:15.000Z</time>
      </trkpt>
      <trkpt lat="47.03342" lon="3.5313">
        <ele>259.02841186523</ele>
        <time>2016-04-20T14:30:17.000Z</time>
      </trkpt>
      <trkpt lat="47.03339" lon="3.53132">
        <ele>258.94845581055</ele>
        <time>2016-04-20T14:30:20.000Z</time>
      </trkpt>
      <trkpt lat="47.03337" lon="3.53133">
        <ele>258.86749267578</ele>
        <time>2016-04-20T14:30:22.000Z</time>
      </trkpt>
      <trkpt lat="47.03334" lon="3.53134">
        <ele>258.76715087891</ele>
        <time>2016-04-20T14:30:27.000Z</time>
      </trkpt>
      <trkpt lat="47.03331" lon="3.53134">
        <ele>258.68606567383</ele>
        <time>2016-04-20T14:30:28.000Z</time>
      </trkpt>
      <trkpt lat="47.03328" lon="3.53136">
        <ele>258.61270141602</ele>
        <time>2016-04-20T14:30:29.000Z</time>
      </trkpt>
      <trkpt lat="47.03325" lon="3.53137">
        <ele>258.55895996094</ele>
        <time>2016-04-20T14:30:32.000Z</time>
      </trkpt>
      <trkpt lat="47.03323" lon="3.53137">
        <ele>258.5166015625</ele>
        <time>2016-04-20T14:30:34.000Z</time>
      </trkpt>
      <trkpt lat="47.03319" lon="3.53137">
        <ele>258.49810791016</ele>
        <time>2016-04-20T14:30:37.000Z</time>
      </trkpt>
      <trkpt lat="47.03315" lon="3.53138">
        <ele>258.47674560547</ele>
        <time>2016-04-20T14:30:40.000Z</time>
      </trkpt>
      <trkpt lat="47.03313" lon="3.53138">
        <ele>258.46392822266</ele>
        <time>2016-04-20T14:30:43.000Z</time>
      </trkpt>
      <trkpt lat="47.03313" lon="3.53137">
        <ele>258.46478271484</ele>
        <time>2016-04-20T14:30:55.000Z</time>
      </trkpt>
      <trkpt lat="47.03312" lon="3.53136">
        <ele>258.48028564453</ele>
        <time>2016-04-20T14:31:04.000Z</time>
      </trkpt>
      <trkpt lat="47.0331" lon="3.53135">
        <ele>258.50067138672</ele>
        <time>2016-04-20T14:31:11.000Z</time>
      </trkpt>
      <trkpt lat="47.03308" lon="3.53133">
        <ele>258.54800415039</ele>
        <time>2016-04-20T14:31:12.000Z</time>
      </trkpt>
      <trkpt lat="47.03306" lon="3.53128">
        <ele>258.63482666016</ele>
        <time>2016-04-20T14:31:25.000Z</time>
      </trkpt>
      <trkpt lat="47.03305" lon="3.53128">
        <ele>258.71768188477</ele>
        <time>2016-04-20T14:31:26.000Z</time>
      </trkpt>
      <trkpt lat="47.03304" lon="3.53127">
        <ele>258.79092407227</ele>
        <time>2016-04-20T14:31:29.000Z</time>
      </trkpt>
      <trkpt lat="47.03302" lon="3.53127">
        <ele>258.85891723633</ele>
        <time>2016-04-20T14:31:29.000Z</time>
      </trkpt>
      <trkpt lat="47.03301" lon="3.53127">
        <ele>258.90209960938</ele>
        <time>2016-04-20T14:31:30.000Z</time>
      </trkpt>
      <trkpt lat="47.033" lon="3.53127">
        <ele>258.90667724609</ele>
        <time>2016-04-20T14:31:35.000Z</time>
      </trkpt>
      <trkpt lat="47.03298" lon="3.53127">
        <ele>258.91528320312</ele>
        <time>2016-04-20T14:31:35.000Z</time>
      </trkpt>
      <trkpt lat="47.03295" lon="3.53126">
        <ele>258.92532348633</ele>
        <time>2016-04-20T14:31:39.000Z</time>
      </trkpt>
      <trkpt lat="47.03292" lon="3.53126">
        <ele>258.93499755859</ele>
        <time>2016-04-20T14:31:40.000Z</time>
      </trkpt>
      <trkpt lat="47.03289" lon="3.53127">
        <ele>258.94198608398</ele>
        <time>2016-04-20T14:31:43.000Z</time>
      </trkpt>
      <trkpt lat="47.03286" lon="3.53126">
        <ele>258.95635986328</ele>
        <time>2016-04-20T14:31:46.000Z</time>
      </trkpt>
      <trkpt lat="47.03283" lon="3.53126">
        <ele>258.96295166016</ele>
        <time>2016-04-20T14:31:48.000Z</time>
      </trkpt>
      <trkpt lat="47.0328" lon="3.53126">
        <ele>258.96374511719</ele>
        <time>2016-04-20T14:31:51.000Z</time>
      </trkpt>
      <trkpt lat="47.03275" lon="3.53126">
        <ele>258.96514892578</ele>
        <time>2016-04-20T14:31:54.000Z</time>
      </trkpt>
      <trkpt lat="47.03272" lon="3.53126">
        <ele>258.96881103516</ele>
        <time>2016-04-20T14:31:56.000Z</time>
      </trkpt>
      <trkpt lat="47.0327" lon="3.53126">
        <ele>258.96719360352</ele>
        <time>2016-04-20T14:31:58.000Z</time>
      </trkpt>
      <trkpt lat="47.03267" lon="3.53127">
        <ele>258.96505737305</ele>
        <time>2016-04-20T14:32:01.000Z</time>
      </trkpt>
      <trkpt lat="47.03263" lon="3.53127">
        <ele>258.96231079102</ele>
        <time>2016-04-20T14:32:05.000Z</time>
      </trkpt>
      <trkpt lat="47.03261" lon="3.53127">
        <ele>258.95510864258</ele>
        <time>2016-04-20T14:32:08.000Z</time>
      </trkpt>
      <trkpt lat="47.03258" lon="3.53128">
        <ele>258.94912719727</ele>
        <time>2016-04-20T14:32:10.000Z</time>
      </trkpt>
      <trkpt lat="47.03255" lon="3.53126">
        <ele>258.94924926758</ele>
        <time>2016-04-20T14:32:14.000Z</time>
      </trkpt>
      <trkpt lat="47.03253" lon="3.53124">
        <ele>258.96130371094</ele>
        <time>2016-04-20T14:32:15.000Z</time>
      </trkpt>
      <trkpt lat="47.0325" lon="3.53123">
        <ele>258.98052978516</ele>
        <time>2016-04-20T14:32:21.000Z</time>
      </trkpt>
      <trkpt lat="47.03246" lon="3.53124">
        <ele>258.96615600586</ele>
        <time>2016-04-20T14:32:21.000Z</time>
      </trkpt>
      <trkpt lat="47.03241" lon="3.53122">
        <ele>258.92568969727</ele>
        <time>2016-04-20T14:32:24.000Z</time>
      </trkpt>
      <trkpt lat="47.03238" lon="3.53121">
        <ele>258.85803222656</ele>
        <time>2016-04-20T14:32:26.000Z</time>
      </trkpt>
      <trkpt lat="47.03234" lon="3.53121">
        <ele>258.7541809082</ele>
        <time>2016-04-20T14:32:29.000Z</time>
      </trkpt>
      <trkpt lat="47.0323" lon="3.53122">
        <ele>258.61303710938</ele>
        <time>2016-04-20T14:32:32.000Z</time>
      </trkpt>
      <trkpt lat="47.03226" lon="3.53122">
        <ele>258.47689819336</ele>
        <time>2016-04-20T14:32:35.000Z</time>
      </trkpt>
      <trkpt lat="47.03222" lon="3.53121">
        <ele>258.34130859375</ele>
        <time>2016-04-20T14:32:38.000Z</time>
      </trkpt>
      <trkpt lat="47.03218" lon="3.5312">
        <ele>258.19879150391</ele>
        <time>2016-04-20T14:32:41.000Z</time>
      </trkpt>
      <trkpt lat="47.03214" lon="3.53118">
        <ele>258.05746459961</ele>
        <time>2016-04-20T14:32:44.000Z</time>
      </trkpt>
      <trkpt lat="47.03211" lon="3.53117">
        <ele>257.92846679688</ele>
        <time>2016-04-20T14:32:48.000Z</time>
      </trkpt>
      <trkpt lat="47.03209" lon="3.53117">
        <ele>257.81848144531</ele>
        <time>2016-04-20T14:32:49.000Z</time>
      </trkpt>
      <trkpt lat="47.03206" lon="3.53116">
        <ele>257.71136474609</ele>
        <time>2016-04-20T14:32:52.000Z</time>
      </trkpt>
      <trkpt lat="47.03203" lon="3.53114">
        <ele>257.61083984375</ele>
        <time>2016-04-20T14:32:55.000Z</time>
      </trkpt>
      <trkpt lat="47.03199" lon="3.53111">
        <ele>257.51132202148</ele>
        <time>2016-04-20T14:32:59.000Z</time>
      </trkpt>
      <trkpt lat="47.03197" lon="3.53111">
        <ele>257.41290283203</ele>
        <time>2016-04-20T14:33:00.000Z</time>
      </trkpt>
      <trkpt lat="47.03194" lon="3.53109">
        <ele>257.3117980957</ele>
        <time>2016-04-20T14:33:02.000Z</time>
      </trkpt>
      <trkpt lat="47.03193" lon="3.53109">
        <ele>257.22158813477</ele>
        <time>2016-04-20T14:33:04.000Z</time>
      </trkpt>
      <trkpt lat="47.03191" lon="3.53109">
        <ele>257.13534545898</ele>
        <time>2016-04-20T14:33:06.000Z</time>
      </trkpt>
      <trkpt lat="47.03187" lon="3.53109">
        <ele>257.04418945312</ele>
        <time>2016-04-20T14:33:10.000Z</time>
      </trkpt>
      <trkpt lat="47.03185" lon="3.53109">
        <ele>256.95132446289</ele>
        <time>2016-04-20T14:33:12.000Z</time>
      </trkpt>
      <trkpt lat="47.03181" lon="3.53109">
        <ele>256.83993530273</ele>
        <time>2016-04-20T14:33:15.000Z</time>
      </trkpt>
      <trkpt lat="47.03178" lon="3.53108">
        <ele>256.71502685547</ele>
        <time>2016-04-20T14:33:16.000Z</time>
      </trkpt>
      <trkpt lat="47.03173" lon="3.53107">
        <ele>256.57049560547</ele>
        <time>2016-04-20T14:33:19.000Z</time>
      </trkpt>
      <trkpt lat="47.03169" lon="3.53106">
        <ele>256.42535400391</ele>
        <time>2016-04-20T14:33:22.000Z</time>
      </trkpt>
      <trkpt lat="47.03165" lon="3.53105">
        <ele>256.27008056641</ele>
        <time>2016-04-20T14:33:25.000Z</time>
      </trkpt>
      <trkpt lat="47.03163" lon="3.53105">
        <ele>256.134765625</ele>
        <time>2016-04-20T14:33:28.000Z</time>
      </trkpt>
      <trkpt lat="47.03158" lon="3.53104">
        <ele>255.99926757812</ele>
        <time>2016-04-20T14:33:31.000Z</time>
      </trkpt>
      <trkpt lat="47.03154" lon="3.53104">
        <ele>255.88040161133</ele>
        <time>2016-04-20T14:33:33.000Z</time>
      </trkpt>
      <trkpt lat="47.0315" lon="3.53103">
        <ele>255.76965332031</ele>
        <time>2016-04-20T14:33:36.000Z</time>
      </trkpt>
      <trkpt lat="47.03147" lon="3.53103">
        <ele>255.66938781738</ele>
        <time>2016-04-20T14:33:39.000Z</time>
      </trkpt>
      <trkpt lat="47.03144" lon="3.53101">
        <ele>255.57046508789</ele>
        <time>2016-04-20T14:33:42.000Z</time>
      </trkpt>
      <trkpt lat="47.0314" lon="3.53099">
        <ele>255.47970581055</ele>
        <time>2016-04-20T14:33:45.000Z</time>
      </trkpt>
      <trkpt lat="47.03137" lon="3.53098">
        <ele>255.39077758789</ele>
        <time>2016-04-20T14:33:48.000Z</time>
      </trkpt>
      <trkpt lat="47.03133" lon="3.53096">
        <ele>255.30769348145</ele>
        <time>2016-04-20T14:33:51.000Z</time>
      </trkpt>
      <trkpt lat="47.0313" lon="3.53095">
        <ele>255.22856140137</ele>
        <time>2016-04-20T14:33:54.000Z</time>
      </trkpt>
      <trkpt lat="47.03127" lon="3.53094">
        <ele>255.14785766602</ele>
        <time>2016-04-20T14:33:57.000Z</time>
      </trkpt>
      <trkpt lat="47.03125" lon="3.53093">
        <ele>255.07186889648</ele>
        <time>2016-04-20T14:33:59.000Z</time>
      </trkpt>
      <trkpt lat="47.03121" lon="3.53092">
        <ele>254.99685668945</ele>
        <time>2016-04-20T14:34:02.000Z</time>
      </trkpt>
      <trkpt lat="47.03118" lon="3.5309">
        <ele>254.92362976074</ele>
        <time>2016-04-20T14:34:05.000Z</time>
      </trkpt>
      <trkpt lat="47.03114" lon="3.5309">
        <ele>254.84501647949</ele>
        <time>2016-04-20T14:34:08.000Z</time>
      </trkpt>
      <trkpt lat="47.03111" lon="3.53089">
        <ele>254.76530456543</ele>
        <time>2016-04-20T14:34:11.000Z</time>
      </trkpt>
      <trkpt lat="47.03107" lon="3.53088">
        <ele>254.68655395508</ele>
        <time>2016-04-20T14:34:14.000Z</time>
      </trkpt>
      <trkpt lat="47.03105" lon="3.53088">
        <ele>254.61294555664</ele>
        <time>2016-04-20T14:34:16.000Z</time>
      </trkpt>
      <trkpt lat="47.03102" lon="3.53087">
        <ele>254.54096984863</ele>
        <time>2016-04-20T14:34:19.000Z</time>
      </trkpt>
      <trkpt lat="47.03099" lon="3.53086">
        <ele>254.47348022461</ele>
        <time>2016-04-20T14:34:21.000Z</time>
      </trkpt>
      <trkpt lat="47.03095" lon="3.53085">
        <ele>254.4047088623</ele>
        <time>2016-04-20T14:34:24.000Z</time>
      </trkpt>
      <trkpt lat="47.03091" lon="3.53084">
        <ele>254.3323059082</ele>
        <time>2016-04-20T14:34:27.000Z</time>
      </trkpt>
      <trkpt lat="47.03086" lon="3.53081">
        <ele>254.26542663574</ele>
        <time>2016-04-20T14:34:30.000Z</time>
      </trkpt>
      <trkpt lat="47.03082" lon="3.53078">
        <ele>254.2197265625</ele>
        <time>2016-04-20T14:34:34.000Z</time>
      </trkpt>
      <trkpt lat="47.0308" lon="3.53076">
        <ele>254.21072387695</ele>
        <time>2016-04-20T14:34:35.000Z</time>
      </trkpt>
      <trkpt lat="47.03078" lon="3.53074">
        <ele>254.23788452148</ele>
        <time>2016-04-20T14:34:37.000Z</time>
      </trkpt>
      <trkpt lat="47.03074" lon="3.53071">
        <ele>254.31204223633</ele>
        <time>2016-04-20T14:34:40.000Z</time>
      </trkpt>
      <trkpt lat="47.0307" lon="3.53069">
        <ele>254.41401672363</ele>
        <time>2016-04-20T14:34:45.000Z</time>
      </trkpt>
      <trkpt lat="47.03069" lon="3.53068">
        <ele>254.51533508301</ele>
        <time>2016-04-20T14:34:45.000Z</time>
      </trkpt>
      <trkpt lat="47.03065" lon="3.53067">
        <ele>254.60754394531</ele>
        <time>2016-04-20T14:34:47.000Z</time>
      </trkpt>
      <trkpt lat="47.03063" lon="3.53066">
        <ele>254.69258117676</ele>
        <time>2016-04-20T14:34:50.000Z</time>
      </trkpt>
      <trkpt lat="47.03059" lon="3.53064">
        <ele>254.76972961426</ele>
        <time>2016-04-20T14:34:53.000Z</time>
      </trkpt>
      <trkpt lat="47.03056" lon="3.53062">
        <ele>254.83847045898</ele>
        <time>2016-04-20T14:34:56.000Z</time>
      </trkpt>
      <trkpt lat="47.03052" lon="3.53061">
        <ele>254.91622924805</ele>
        <time>2016-04-20T14:35:00.000Z</time>
      </trkpt>
      <trkpt lat="47.03048" lon="3.5306">
        <ele>254.9928894043</ele>
        <time>2016-04-20T14:35:02.000Z</time>
      </trkpt>
      <trkpt lat="47.03044" lon="3.5306">
        <ele>255.06510925293</ele>
        <time>2016-04-20T14:35:05.000Z</time>
      </trkpt>
      <trkpt lat="47.0304" lon="3.53059">
        <ele>255.12411499023</ele>
        <time>2016-04-20T14:35:08.000Z</time>
      </trkpt>
      <trkpt lat="47.03037" lon="3.53059">
        <ele>255.17878723145</ele>
        <time>2016-04-20T14:35:11.000Z</time>
      </trkpt>
      <trkpt lat="47.03034" lon="3.5306">
        <ele>255.21601867676</ele>
        <time>2016-04-20T14:35:14.000Z</time>
      </trkpt>
      <trkpt lat="47.03031" lon="3.53061">
        <ele>255.24238586426</ele>
        <time>2016-04-20T14:35:17.000Z</time>
      </trkpt>
      <trkpt lat="47.03027" lon="3.53063">
        <ele>255.25863647461</ele>
        <time>2016-04-20T14:35:20.000Z</time>
      </trkpt>
      <trkpt lat="47.03022" lon="3.53065">
        <ele>255.26013183594</ele>
        <time>2016-04-20T14:35:29.000Z</time>
      </trkpt>
      <trkpt lat="47.03018" lon="3.53067">
        <ele>255.24641418457</ele>
        <time>2016-04-20T14:35:30.000Z</time>
      </trkpt>
      <trkpt lat="47.03013" lon="3.53068">
        <ele>255.24201965332</ele>
        <time>2016-04-20T14:35:30.000Z</time>
      </trkpt>
      <trkpt lat="47.03009" lon="3.53069">
        <ele>255.23937988281</ele>
        <time>2016-04-20T14:35:32.000Z</time>
      </trkpt>
      <trkpt lat="47.03007" lon="3.53071">
        <ele>255.23477172852</ele>
        <time>2016-04-20T14:35:35.000Z</time>
      </trkpt>
      <trkpt lat="47.03004" lon="3.53073">
        <ele>255.22871398926</ele>
        <time>2016-04-20T14:35:37.000Z</time>
      </trkpt>
      <trkpt lat="47.03003" lon="3.53074">
        <ele>255.22619628906</ele>
        <time>2016-04-20T14:35:39.000Z</time>
      </trkpt>
      <trkpt lat="47.03" lon="3.53076">
        <ele>255.21301269531</ele>
        <time>2016-04-20T14:35:42.000Z</time>
      </trkpt>
      <trkpt lat="47.02997" lon="3.53076">
        <ele>255.18428039551</ele>
        <time>2016-04-20T14:35:46.000Z</time>
      </trkpt>
      <trkpt lat="47.02995" lon="3.53077">
        <ele>255.14151000977</ele>
        <time>2016-04-20T14:35:47.000Z</time>
      </trkpt>
      <trkpt lat="47.02992" lon="3.53078">
        <ele>255.08984375</ele>
        <time>2016-04-20T14:35:50.000Z</time>
      </trkpt>
      <trkpt lat="47.02988" lon="3.53078">
        <ele>255.0189666748</ele>
        <time>2016-04-20T14:35:56.000Z</time>
      </trkpt>
      <trkpt lat="47.02985" lon="3.53077">
        <ele>254.94128417969</ele>
        <time>2016-04-20T14:35:56.000Z</time>
      </trkpt>
      <trkpt lat="47.02981" lon="3.53075">
        <ele>254.87072753906</ele>
        <time>2016-04-20T14:35:58.000Z</time>
      </trkpt>
      <trkpt lat="47.02979" lon="3.53074">
        <ele>254.80847167969</ele>
        <time>2016-04-20T14:35:59.000Z</time>
      </trkpt>
      <trkpt lat="47.02974" lon="3.53073">
        <ele>254.74560546875</ele>
        <time>2016-04-20T14:36:03.000Z</time>
      </trkpt>
      <trkpt lat="47.02971" lon="3.53072">
        <ele>254.6953125</ele>
        <time>2016-04-20T14:36:04.000Z</time>
      </trkpt>
      <trkpt lat="47.02967" lon="3.5307">
        <ele>254.64526367188</ele>
        <time>2016-04-20T14:36:07.000Z</time>
      </trkpt>
      <trkpt lat="47.02966" lon="3.53069">
        <ele>254.59582519531</ele>
        <time>2016-04-20T14:36:09.000Z</time>
      </trkpt>
      <trkpt lat="47.02962" lon="3.53069">
        <ele>254.54357910156</ele>
        <time>2016-04-20T14:36:13.000Z</time>
      </trkpt>
      <trkpt lat="47.02959" lon="3.53067">
        <ele>254.49523925781</ele>
        <time>2016-04-20T14:36:15.000Z</time>
      </trkpt>
      <trkpt lat="47.02956" lon="3.53066">
        <ele>254.44775390625</ele>
        <time>2016-04-20T14:36:17.000Z</time>
      </trkpt>
      <trkpt lat="47.02951" lon="3.53066">
        <ele>254.390625</ele>
        <time>2016-04-20T14:36:21.000Z</time>
      </trkpt>
      <trkpt lat="47.02949" lon="3.53065">
        <ele>254.33081054688</ele>
        <time>2016-04-20T14:36:22.000Z</time>
      </trkpt>
      <trkpt lat="47.02947" lon="3.53065">
        <ele>254.27575683594</ele>
        <time>2016-04-20T14:36:24.000Z</time>
      </trkpt>
      <trkpt lat="47.02946" lon="3.53063">
        <ele>254.23168945312</ele>
        <time>2016-04-20T14:36:26.000Z</time>
      </trkpt>
      <trkpt lat="47.02943" lon="3.53061">
        <ele>254.19262695312</ele>
        <time>2016-04-20T14:36:29.000Z</time>
      </trkpt>
      <trkpt lat="47.02938" lon="3.5306">
        <ele>254.16052246094</ele>
        <time>2016-04-20T14:36:32.000Z</time>
      </trkpt>
      <trkpt lat="47.02937" lon="3.53059">
        <ele>254.13208007812</ele>
        <time>2016-04-20T14:36:34.000Z</time>
      </trkpt>
      <trkpt lat="47.02935" lon="3.53057">
        <ele>254.10986328125</ele>
        <time>2016-04-20T14:36:37.000Z</time>
      </trkpt>
      <trkpt lat="47.02932" lon="3.53056">
        <ele>254.08166503906</ele>
        <time>2016-04-20T14:36:39.000Z</time>
      </trkpt>
      <trkpt lat="47.02929" lon="3.53054">
        <ele>254.0498046875</ele>
        <time>2016-04-20T14:36:42.000Z</time>
      </trkpt>
      <trkpt lat="47.02926" lon="3.53053">
        <ele>254.02172851562</ele>
        <time>2016-04-20T14:36:45.000Z</time>
      </trkpt>
      <trkpt lat="47.02922" lon="3.53051">
        <ele>253.98889160156</ele>
        <time>2016-04-20T14:36:48.000Z</time>
      </trkpt>
      <trkpt lat="47.0292" lon="3.53051">
        <ele>253.94934082031</ele>
        <time>2016-04-20T14:36:50.000Z</time>
      </trkpt>
      <trkpt lat="47.02917" lon="3.5305">
        <ele>253.90563964844</ele>
        <time>2016-04-20T14:36:53.000Z</time>
      </trkpt>
      <trkpt lat="47.02915" lon="3.5305">
        <ele>253.86242675781</ele>
        <time>2016-04-20T14:36:56.000Z</time>
      </trkpt>
      <trkpt lat="47.02912" lon="3.5305">
        <ele>253.81442260742</ele>
        <time>2016-04-20T14:36:58.000Z</time>
      </trkpt>
      <trkpt lat="47.02908" lon="3.53046">
        <ele>253.78022766113</ele>
        <time>2016-04-20T14:37:01.000Z</time>
      </trkpt>
      <trkpt lat="47.02906" lon="3.53046">
        <ele>253.74697875977</ele>
        <time>2016-04-20T14:37:03.000Z</time>
      </trkpt>
      <trkpt lat="47.02901" lon="3.53043">
        <ele>253.72164916992</ele>
        <time>2016-04-20T14:37:06.000Z</time>
      </trkpt>
      <trkpt lat="47.02899" lon="3.53042">
        <ele>253.70292663574</ele>
        <time>2016-04-20T14:37:08.000Z</time>
      </trkpt>
      <trkpt lat="47.02895" lon="3.5304">
        <ele>253.69209289551</ele>
        <time>2016-04-20T14:37:11.000Z</time>
      </trkpt>
      <trkpt lat="47.02891" lon="3.53039">
        <ele>253.66638183594</ele>
        <time>2016-04-20T14:37:14.000Z</time>
      </trkpt>
      <trkpt lat="47.02887" lon="3.53036">
        <ele>253.64804077148</ele>
        <time>2016-04-20T14:37:17.000Z</time>
      </trkpt>
      <trkpt lat="47.02883" lon="3.53035">
        <ele>253.63076782227</ele>
        <time>2016-04-20T14:37:21.000Z</time>
      </trkpt>
      <trkpt lat="47.02879" lon="3.53034">
        <ele>253.60305786133</ele>
        <time>2016-04-20T14:37:23.000Z</time>
      </trkpt>
      <trkpt lat="47.02876" lon="3.53033">
        <ele>253.5764465332</ele>
        <time>2016-04-20T14:37:25.000Z</time>
      </trkpt>
      <trkpt lat="47.02874" lon="3.5303">
        <ele>253.56979370117</ele>
        <time>2016-04-20T14:37:28.000Z</time>
      </trkpt>
      <trkpt lat="47.02871" lon="3.53028">
        <ele>253.57095336914</ele>
        <time>2016-04-20T14:37:31.000Z</time>
      </trkpt>
      <trkpt lat="47.02868" lon="3.53025">
        <ele>253.57705688477</ele>
        <time>2016-04-20T14:37:34.000Z</time>
      </trkpt>
      <trkpt lat="47.02864" lon="3.53024">
        <ele>253.58837890625</ele>
        <time>2016-04-20T14:37:37.000Z</time>
      </trkpt>
      <trkpt lat="47.02861" lon="3.53024">
        <ele>253.59854125977</ele>
        <time>2016-04-20T14:37:39.000Z</time>
      </trkpt>
      <trkpt lat="47.02859" lon="3.53023">
        <ele>253.59814453125</ele>
        <time>2016-04-20T14:37:41.000Z</time>
      </trkpt>
      <trkpt lat="47.02857" lon="3.53023">
        <ele>253.5827331543</ele>
        <time>2016-04-20T14:37:43.000Z</time>
      </trkpt>
      <trkpt lat="47.02854" lon="3.53024">
        <ele>253.55001831055</ele>
        <time>2016-04-20T14:37:46.000Z</time>
      </trkpt>
      <trkpt lat="47.02853" lon="3.53025">
        <ele>253.51119995117</ele>
        <time>2016-04-20T14:37:48.000Z</time>
      </trkpt>
      <trkpt lat="47.0285" lon="3.53028">
        <ele>253.44509887695</ele>
        <time>2016-04-20T14:37:51.000Z</time>
      </trkpt>
      <trkpt lat="47.02848" lon="3.53032">
        <ele>253.34468078613</ele>
        <time>2016-04-20T14:37:54.000Z</time>
      </trkpt>
      <trkpt lat="47.02845" lon="3.53037">
        <ele>253.2116394043</ele>
        <time>2016-04-20T14:37:57.000Z</time>
      </trkpt>
      <trkpt lat="47.02844" lon="3.53039">
        <ele>253.07926940918</ele>
        <time>2016-04-20T14:37:59.000Z</time>
      </trkpt>
      <trkpt lat="47.02842" lon="3.53042">
        <ele>252.92514038086</ele>
        <time>2016-04-20T14:38:02.000Z</time>
      </trkpt>
      <trkpt lat="47.0284" lon="3.53045">
        <ele>252.77450561523</ele>
        <time>2016-04-20T14:38:04.000Z</time>
      </trkpt>
      <trkpt lat="47.02838" lon="3.5305">
        <ele>252.61666870117</ele>
        <time>2016-04-20T14:38:08.000Z</time>
      </trkpt>
      <trkpt lat="47.02837" lon="3.53053">
        <ele>252.47941589355</ele>
        <time>2016-04-20T14:38:10.000Z</time>
      </trkpt>
      <trkpt lat="47.02836" lon="3.53057">
        <ele>252.32319641113</ele>
        <time>2016-04-20T14:38:13.000Z</time>
      </trkpt>
      <trkpt lat="47.02835" lon="3.5306">
        <ele>252.17141723633</ele>
        <time>2016-04-20T14:38:15.000Z</time>
      </trkpt>
      <trkpt lat="47.02834" lon="3.53064">
        <ele>252.01333618164</ele>
        <time>2016-04-20T14:38:18.000Z</time>
      </trkpt>
      <trkpt lat="47.02834" lon="3.53069">
        <ele>251.86442565918</ele>
        <time>2016-04-20T14:38:21.000Z</time>
      </trkpt>
      <trkpt lat="47.02832" lon="3.53074">
        <ele>251.69648742676</ele>
        <time>2016-04-20T14:38:24.000Z</time>
      </trkpt>
      <trkpt lat="47.02831" lon="3.53077">
        <ele>251.53482055664</ele>
        <time>2016-04-20T14:38:27.000Z</time>
      </trkpt>
      <trkpt lat="47.02829" lon="3.53079">
        <ele>251.38760375977</ele>
        <time>2016-04-20T14:38:30.000Z</time>
      </trkpt>
      <trkpt lat="47.02829" lon="3.53081">
        <ele>251.2649230957</ele>
        <time>2016-04-20T14:38:34.000Z</time>
      </trkpt>
      <trkpt lat="47.02827" lon="3.53085">
        <ele>251.15202331543</ele>
        <time>2016-04-20T14:38:35.000Z</time>
      </trkpt>
      <trkpt lat="47.02826" lon="3.53088">
        <ele>251.05883789062</ele>
        <time>2016-04-20T14:38:37.000Z</time>
      </trkpt>
      <trkpt lat="47.02824" lon="3.53093">
        <ele>250.9665222168</ele>
        <time>2016-04-20T14:38:40.000Z</time>
      </trkpt>
      <trkpt lat="47.02822" lon="3.53096">
        <ele>250.87182617188</ele>
        <time>2016-04-20T14:38:43.000Z</time>
      </trkpt>
      <trkpt lat="47.0282" lon="3.53099">
        <ele>250.77351379395</ele>
        <time>2016-04-20T14:38:45.000Z</time>
      </trkpt>
      <trkpt lat="47.02818" lon="3.53103">
        <ele>250.67378234863</ele>
        <time>2016-04-20T14:38:48.000Z</time>
      </trkpt>
      <trkpt lat="47.02815" lon="3.53107">
        <ele>250.57014465332</ele>
        <time>2016-04-20T14:38:51.000Z</time>
      </trkpt>
      <trkpt lat="47.02812" lon="3.53112">
        <ele>250.46328735352</ele>
        <time>2016-04-20T14:38:54.000Z</time>
      </trkpt>
      <trkpt lat="47.02808" lon="3.53117">
        <ele>250.34436035156</ele>
        <time>2016-04-20T14:38:57.000Z</time>
      </trkpt>
      <trkpt lat="47.02805" lon="3.5312">
        <ele>250.21467590332</ele>
        <time>2016-04-20T14:39:01.000Z</time>
      </trkpt>
      <trkpt lat="47.02802" lon="3.53124">
        <ele>250.08804321289</ele>
        <time>2016-04-20T14:39:04.000Z</time>
      </trkpt>
      <trkpt lat="47.028" lon="3.53127">
        <ele>249.96272277832</ele>
        <time>2016-04-20T14:39:05.000Z</time>
      </trkpt>
      <trkpt lat="47.02798" lon="3.53129">
        <ele>249.85209655762</ele>
        <time>2016-04-20T14:39:07.000Z</time>
      </trkpt>
      <trkpt lat="47.02794" lon="3.53134">
        <ele>249.73457336426</ele>
        <time>2016-04-20T14:39:10.000Z</time>
      </trkpt>
      <trkpt lat="47.02792" lon="3.53136">
        <ele>249.62602233887</ele>
        <time>2016-04-20T14:39:12.000Z</time>
      </trkpt>
      <trkpt lat="47.0279" lon="3.5314">
        <ele>249.5185546875</ele>
        <time>2016-04-20T14:39:15.000Z</time>
      </trkpt>
      <trkpt lat="47.02787" lon="3.53142">
        <ele>249.41255187988</ele>
        <time>2016-04-20T14:39:18.000Z</time>
      </trkpt>
      <trkpt lat="47.02785" lon="3.53145">
        <ele>249.3014831543</ele>
        <time>2016-04-20T14:39:21.000Z</time>
      </trkpt>
      <trkpt lat="47.02784" lon="3.53147">
        <ele>249.20707702637</ele>
        <time>2016-04-20T14:39:24.000Z</time>
      </trkpt>
      <trkpt lat="47.02782" lon="3.5315">
        <ele>249.10498046875</ele>
        <time>2016-04-20T14:39:27.000Z</time>
      </trkpt>
      <trkpt lat="47.02779" lon="3.53153">
        <ele>249.00422668457</ele>
        <time>2016-04-20T14:39:30.000Z</time>
      </trkpt>
      <trkpt lat="47.02776" lon="3.53155">
        <ele>248.89945983887</ele>
        <time>2016-04-20T14:39:33.000Z</time>
      </trkpt>
      <trkpt lat="47.02774" lon="3.53157">
        <ele>248.79965209961</ele>
        <time>2016-04-20T14:39:36.000Z</time>
      </trkpt>
      <trkpt lat="47.02771" lon="3.5316">
        <ele>248.69116210938</ele>
        <time>2016-04-20T14:39:39.000Z</time>
      </trkpt>
      <trkpt lat="47.02768" lon="3.53163">
        <ele>248.57832336426</ele>
        <time>2016-04-20T14:39:42.000Z</time>
      </trkpt>
      <trkpt lat="47.02764" lon="3.53166">
        <ele>248.45797729492</ele>
        <time>2016-04-20T14:39:45.000Z</time>
      </trkpt>
      <trkpt lat="47.0276" lon="3.53169">
        <ele>248.33560180664</ele>
        <time>2016-04-20T14:39:49.000Z</time>
      </trkpt>
      <trkpt lat="47.02758" lon="3.53171">
        <ele>248.21040344238</ele>
        <time>2016-04-20T14:39:50.000Z</time>
      </trkpt>
      <trkpt lat="47.02756" lon="3.53173">
        <ele>248.09817504883</ele>
        <time>2016-04-20T14:39:52.000Z</time>
      </trkpt>
      <trkpt lat="47.02753" lon="3.53177">
        <ele>247.98954772949</ele>
        <time>2016-04-20T14:39:56.000Z</time>
      </trkpt>
      <trkpt lat="47.02752" lon="3.5318">
        <ele>247.89135742188</ele>
        <time>2016-04-20T14:39:57.000Z</time>
      </trkpt>
      <trkpt lat="47.02748" lon="3.53183">
        <ele>247.79574584961</ele>
        <time>2016-04-20T14:40:01.000Z</time>
      </trkpt>
      <trkpt lat="47.02746" lon="3.53186">
        <ele>247.69863891602</ele>
        <time>2016-04-20T14:40:02.000Z</time>
      </trkpt>
      <trkpt lat="47.02743" lon="3.53189">
        <ele>247.59687805176</ele>
        <time>2016-04-20T14:40:07.000Z</time>
      </trkpt>
      <trkpt lat="47.02741" lon="3.53191">
        <ele>247.50654602051</ele>
        <time>2016-04-20T14:40:07.000Z</time>
      </trkpt>
      <trkpt lat="47.02739" lon="3.53193">
        <ele>247.42318725586</ele>
        <time>2016-04-20T14:40:12.000Z</time>
      </trkpt>
      <trkpt lat="47.02736" lon="3.53195">
        <ele>247.34432983398</ele>
        <time>2016-04-20T14:40:13.000Z</time>
      </trkpt>
      <trkpt lat="47.02734" lon="3.53197">
        <ele>247.27328491211</ele>
        <time>2016-04-20T14:40:14.000Z</time>
      </trkpt>
      <trkpt lat="47.02732" lon="3.53199">
        <ele>247.20901489258</ele>
        <time>2016-04-20T14:40:16.000Z</time>
      </trkpt>
      <trkpt lat="47.02729" lon="3.53202">
        <ele>247.13989257812</ele>
        <time>2016-04-20T14:40:19.000Z</time>
      </trkpt>
      <trkpt lat="47.02726" lon="3.53205">
        <ele>247.06648254395</ele>
        <time>2016-04-20T14:40:21.000Z</time>
      </trkpt>
      <trkpt lat="47.02722" lon="3.53209">
        <ele>246.98959350586</ele>
        <time>2016-04-20T14:40:24.000Z</time>
      </trkpt>
      <trkpt lat="47.0272" lon="3.53212">
        <ele>246.912109375</ele>
        <time>2016-04-20T14:40:26.000Z</time>
      </trkpt>
      <trkpt lat="47.02717" lon="3.53216">
        <ele>246.82865905762</ele>
        <time>2016-04-20T14:40:29.000Z</time>
      </trkpt>
      <trkpt lat="47.02713" lon="3.53219">
        <ele>246.7447052002</ele>
        <time>2016-04-20T14:40:32.000Z</time>
      </trkpt>
      <trkpt lat="47.0271" lon="3.53222">
        <ele>246.66191101074</ele>
        <time>2016-04-20T14:40:35.000Z</time>
      </trkpt>
      <trkpt lat="47.02707" lon="3.53226">
        <ele>246.58679199219</ele>
        <time>2016-04-20T14:40:38.000Z</time>
      </trkpt>
      <trkpt lat="47.02704" lon="3.53227">
        <ele>246.51440429688</ele>
        <time>2016-04-20T14:40:41.000Z</time>
      </trkpt>
      <trkpt lat="47.02702" lon="3.53229">
        <ele>246.45414733887</ele>
        <time>2016-04-20T14:40:43.000Z</time>
      </trkpt>
      <trkpt lat="47.027" lon="3.53232">
        <ele>246.40107727051</ele>
        <time>2016-04-20T14:40:48.000Z</time>
      </trkpt>
      <trkpt lat="47.02698" lon="3.53233">
        <ele>246.35556030273</ele>
        <time>2016-04-20T14:40:48.000Z</time>
      </trkpt>
      <trkpt lat="47.02696" lon="3.53236">
        <ele>246.31469726562</ele>
        <time>2016-04-20T14:40:50.000Z</time>
      </trkpt>
      <trkpt lat="47.02693" lon="3.53238">
        <ele>246.27261352539</ele>
        <time>2016-04-20T14:40:53.000Z</time>
      </trkpt>
      <trkpt lat="47.02692" lon="3.5324">
        <ele>246.23031616211</ele>
        <time>2016-04-20T14:40:55.000Z</time>
      </trkpt>
      <trkpt lat="47.02688" lon="3.53245">
        <ele>246.18432617188</ele>
        <time>2016-04-20T14:40:58.000Z</time>
      </trkpt>
      <trkpt lat="47.02685" lon="3.53248">
        <ele>246.13342285156</ele>
        <time>2016-04-20T14:41:02.000Z</time>
      </trkpt>
      <trkpt lat="47.02683" lon="3.5325">
        <ele>246.08869934082</ele>
        <time>2016-04-20T14:41:03.000Z</time>
      </trkpt>
      <trkpt lat="47.02682" lon="3.53252">
        <ele>246.06062316895</ele>
        <time>2016-04-20T14:41:05.000Z</time>
      </trkpt>
      <trkpt lat="47.02679" lon="3.53253">
        <ele>246.04415893555</ele>
        <time>2016-04-20T14:41:08.000Z</time>
      </trkpt>
      <trkpt lat="47.02677" lon="3.53254">
        <ele>246.04597473145</ele>
        <time>2016-04-20T14:41:11.000Z</time>
      </trkpt>
      <trkpt lat="47.02675" lon="3.53257">
        <ele>246.07368469238</ele>
        <time>2016-04-20T14:41:14.000Z</time>
      </trkpt>
      <trkpt lat="47.02674" lon="3.53259">
        <ele>246.1127166748</ele>
        <time>2016-04-20T14:41:16.000Z</time>
      </trkpt>
      <trkpt lat="47.02671" lon="3.53263">
        <ele>246.16328430176</ele>
        <time>2016-04-20T14:41:19.000Z</time>
      </trkpt>
      <trkpt lat="47.02669" lon="3.53266">
        <ele>246.22616577148</ele>
        <time>2016-04-20T14:41:22.000Z</time>
      </trkpt>
      <trkpt lat="47.02666" lon="3.53271">
        <ele>246.30722045898</ele>
        <time>2016-04-20T14:41:25.000Z</time>
      </trkpt>
      <trkpt lat="47.02665" lon="3.53274">
        <ele>246.38996887207</ele>
        <time>2016-04-20T14:41:28.000Z</time>
      </trkpt>
      <trkpt lat="47.02664" lon="3.53279">
        <ele>246.48310852051</ele>
        <time>2016-04-20T14:41:31.000Z</time>
      </trkpt>
      <trkpt lat="47.02662" lon="3.53282">
        <ele>246.57270812988</ele>
        <time>2016-04-20T14:41:33.000Z</time>
      </trkpt>
      <trkpt lat="47.02661" lon="3.53286">
        <ele>246.66220092773</ele>
        <time>2016-04-20T14:41:36.000Z</time>
      </trkpt>
      <trkpt lat="47.0266" lon="3.53289">
        <ele>246.74038696289</ele>
        <time>2016-04-20T14:41:38.000Z</time>
      </trkpt>
      <trkpt lat="47.02659" lon="3.53292">
        <ele>246.81558227539</ele>
        <time>2016-04-20T14:41:40.000Z</time>
      </trkpt>
      <trkpt lat="47.02658" lon="3.53294">
        <ele>246.88374328613</ele>
        <time>2016-04-20T14:41:43.000Z</time>
      </trkpt>
      <trkpt lat="47.02657" lon="3.53298">
        <ele>246.953125</ele>
        <time>2016-04-20T14:41:46.000Z</time>
      </trkpt>
      <trkpt lat="47.02655" lon="3.53303">
        <ele>247.02966308594</ele>
        <time>2016-04-20T14:41:49.000Z</time>
      </trkpt>
      <trkpt lat="47.02656" lon="3.53309">
        <ele>247.12821960449</ele>
        <time>2016-04-20T14:41:52.000Z</time>
      </trkpt>
      <trkpt lat="47.02656" lon="3.53315">
        <ele>247.24331665039</ele>
        <time>2016-04-20T14:41:55.000Z</time>
      </trkpt>
      <trkpt lat="47.02655" lon="3.5332">
        <ele>247.37149047852</ele>
        <time>2016-04-20T14:41:59.000Z</time>
      </trkpt>
      <trkpt lat="47.02655" lon="3.53322">
        <ele>247.49678039551</ele>
        <time>2016-04-20T14:42:00.000Z</time>
      </trkpt>
      <trkpt lat="47.02654" lon="3.53325">
        <ele>247.61318969727</ele>
        <time>2016-04-20T14:42:02.000Z</time>
      </trkpt>
      <trkpt lat="47.02652" lon="3.53329">
        <ele>247.71694946289</ele>
        <time>2016-04-20T14:42:05.000Z</time>
      </trkpt>
      <trkpt lat="47.0265" lon="3.53332">
        <ele>247.80639648438</ele>
        <time>2016-04-20T14:42:08.000Z</time>
      </trkpt>
      <trkpt lat="47.02649" lon="3.53334">
        <ele>247.87802124023</ele>
        <time>2016-04-20T14:42:12.000Z</time>
      </trkpt>
      <trkpt lat="47.02648" lon="3.53335">
        <ele>247.9388885498</ele>
        <time>2016-04-20T14:42:13.000Z</time>
      </trkpt>
      <trkpt lat="47.02646" lon="3.53337">
        <ele>247.98989868164</ele>
        <time>2016-04-20T14:42:16.000Z</time>
      </trkpt>
      <trkpt lat="47.02643" lon="3.53343">
        <ele>248.03910827637</ele>
        <time>2016-04-20T14:42:19.000Z</time>
      </trkpt>
      <trkpt lat="47.02642" lon="3.53346">
        <ele>248.08529663086</ele>
        <time>2016-04-20T14:42:22.000Z</time>
      </trkpt>
      <trkpt lat="47.02641" lon="3.53349">
        <ele>248.13330078125</ele>
        <time>2016-04-20T14:42:24.000Z</time>
      </trkpt>
      <trkpt lat="47.02639" lon="3.53354">
        <ele>248.19421386719</ele>
        <time>2016-04-20T14:42:27.000Z</time>
      </trkpt>
      <trkpt lat="47.02638" lon="3.53356">
        <ele>248.25915527344</ele>
        <time>2016-04-20T14:42:29.000Z</time>
      </trkpt>
      <trkpt lat="47.02636" lon="3.53361">
        <ele>248.3208770752</ele>
        <time>2016-04-20T14:42:33.000Z</time>
      </trkpt>
      <trkpt lat="47.02634" lon="3.53364">
        <ele>248.38223266602</ele>
        <time>2016-04-20T14:42:34.000Z</time>
      </trkpt>
      <trkpt lat="47.02632" lon="3.53367">
        <ele>248.44718933105</ele>
        <time>2016-04-20T14:42:37.000Z</time>
      </trkpt>
      <trkpt lat="47.02629" lon="3.53369">
        <ele>248.50505065918</ele>
        <time>2016-04-20T14:42:43.000Z</time>
      </trkpt>
      <trkpt lat="47.02626" lon="3.53372">
        <ele>248.56706237793</ele>
        <time>2016-04-20T14:42:44.000Z</time>
      </trkpt>
      <trkpt lat="47.02621" lon="3.53374">
        <ele>248.62760925293</ele>
        <time>2016-04-20T14:42:46.000Z</time>
      </trkpt>
      <trkpt lat="47.02618" lon="3.53377">
        <ele>248.69104003906</ele>
        <time>2016-04-20T14:42:50.000Z</time>
      </trkpt>
      <trkpt lat="47.02617" lon="3.5338">
        <ele>248.75601196289</ele>
        <time>2016-04-20T14:42:51.000Z</time>
      </trkpt>
      <trkpt lat="47.02617" lon="3.53386">
        <ele>248.83438110352</ele>
        <time>2016-04-20T14:42:55.000Z</time>
      </trkpt>
      <trkpt lat="47.02617" lon="3.53388">
        <ele>248.90719604492</ele>
        <time>2016-04-20T14:42:57.000Z</time>
      </trkpt>
      <trkpt lat="47.02616" lon="3.53392">
        <ele>248.98083496094</ele>
        <time>2016-04-20T14:42:59.000Z</time>
      </trkpt>
      <trkpt lat="47.02615" lon="3.53396">
        <ele>249.05862426758</ele>
        <time>2016-04-20T14:43:02.000Z</time>
      </trkpt>
      <trkpt lat="47.02615" lon="3.53398">
        <ele>249.12910461426</ele>
        <time>2016-04-20T14:43:04.000Z</time>
      </trkpt>
      <trkpt lat="47.02617" lon="3.53398">
        <ele>249.1771697998</ele>
        <time>2016-04-20T14:43:20.000Z</time>
      </trkpt>
      <trkpt lat="47.0262" lon="3.53399">
        <ele>249.21301269531</ele>
        <time>2016-04-20T14:43:29.000Z</time>
      </trkpt>
      <trkpt lat="47.0262" lon="3.53399">
        <ele>249.21301269531</ele>
        <time>2016-04-20T14:43:55.000Z</time>
      </trkpt>
      <trkpt lat="47.02619" lon="3.53392">
        <ele>249.20785522461</ele>
        <time>2016-04-20T14:44:03.000Z</time>
      </trkpt>
      <trkpt lat="47.02618" lon="3.53387">
        <ele>249.16690063477</ele>
        <time>2016-04-20T14:44:11.000Z</time>
      </trkpt>
      <trkpt lat="47.02618" lon="3.53387">
        <ele>249.16690063477</ele>
        <time>2016-04-20T14:44:23.000Z</time>
      </trkpt>
    </trkseg>
  </trk>
</gpx>